DO3MHA-13 Weather Reports


time (UTC)temp
C
wind
direction
speed
KPH
gust
KPH
rain 1hr
cm
rain 24hr
cm
rain mn
cm
humidity
%
barometer
mb
20260507082023 -17 270 17.7 27.4 0.00 0.00 0.00 1003.8
20260507082013 -17 225 17.7 27.4 0.00 0.00 0.00 1003.9
20260507082003 -17 225 17.7 27.4 0.00 0.00 0.00 1003.8
20260507081953 -17 270 16.1 29.0 0.00 0.00 0.00 1003.8
20260507081923 -17 270 16.1 30.6 0.00 0.00 0.00 1003.8
20260507081903 -17 270 14.5 30.6 0.00 0.00 0.00 1003.8
20260507081833 -17 270 16.1 30.6 0.00 0.00 0.00 1003.8
20260507081823 -17 225 16.1 30.6 0.00 0.00 0.00 1003.8
20260507081803 -17 270 16.1 30.6 0.00 0.00 0.00 1003.7
20260507081753 -17 270 16.1 30.6 0.00 0.00 0.00 1003.8
20260507081743 -17 270 17.7 30.6 0.00 0.00 0.00 1003.7
20260507081723 -17 270 19.3 30.6 0.00 0.00 0.00 1003.7
20260507081713 -17 225 19.3 30.6 0.00 0.00 0.00 1003.8
20260507081633 -17 225 20.9 30.6 0.00 0.00 0.00 1003.8
20260507081623 -17 225 19.3 30.6 0.00 0.00 0.00 1003.7
20260507081603 -17 225 19.3 30.6 0.00 0.00 0.00 1003.8
20260507081553 -17 248 19.3 30.6 0.00 0.00 0.00 1003.8
20260507081543 -17 270 20.9 30.6 0.00 0.00 0.00 1003.7
20260507081533 -17 248 19.3 30.6 0.00 0.00 0.00 1003.7
20260507081523 -17 270 20.9 30.6 0.00 0.00 0.00 1003.8
20260507081513 -17 270 19.3 30.6 0.00 0.00 0.00 1003.7
20260507081453 -17 270 19.3 30.6 0.00 0.00 0.00 1003.8
20260507081443 -17 225 19.3 30.6 0.00 0.00 0.00 1003.7
20260507081433 -17 270 19.3 30.6 0.00 0.00 0.00 1003.7
20260507081414 -17 270 17.7 30.6 0.00 0.00 0.00 1003.7
20260507081404 -17 270 17.7 30.6 0.00 0.00 0.00 1003.8
20260507081354 -17 248 17.7 30.6 0.00 0.00 0.00 1003.7
20260507081344 -17 248 16.1 30.6 0.00 0.00 0.00 1003.8
20260507081334 -17 225 16.1 30.6 0.00 0.00 0.00 1003.7
20260507081324 -17 270 16.1 30.6 0.00 0.00 0.00 1003.8
20260507081314 -17 270 17.7 30.6 0.00 0.00 0.00 1003.8
20260507081304 -17 270 16.1 30.6 0.00 0.00 0.00 1003.7
20260507081244 -17 270 17.7 30.6 0.00 0.00 0.00 1003.7
20260507081234 -17 270 19.3 30.6 0.00 0.00 0.00 1003.7
20260507081224 -17 270 19.3 30.6 0.00 0.00 0.00 1003.6
20260507081214 -17 270 17.7 30.6 0.00 0.00 0.00 1003.8
20260507081154 -17 270 17.7 30.6 0.00 0.00 0.00 1003.7
20260507081144 -17 248 17.7 30.6 0.00 0.00 0.00 1003.7
20260507081134 -17 248 19.3 30.6 0.00 0.00 0.00 1003.7
20260507081124 -17 225 19.3 30.6 0.00 0.00 0.00 1003.7
20260507081104 -17 270 20.9 30.6 0.00 0.00 0.00 1003.7
20260507081054 -17 270 22.5 30.6 0.00 0.00 0.00 1003.7
20260507081044 -17 270 19.3 29.0 0.00 0.00 0.00 1003.7
20260507081034 -17 248 19.3 29.0 0.00 0.00 0.00 1003.7
20260507081024 -17 270 17.7 29.0 0.00 0.00 0.00 1003.7
20260507081014 -17 248 16.1 29.0 0.00 0.00 0.00 1003.7
20260507081004 -17 270 16.1 29.0 0.00 0.00 0.00 1003.6
20260507080944 -17 225 16.1 29.0 0.00 0.00 0.00 1003.7
20260507080935 -17 270 16.1 29.0 0.00 0.00 0.00 1003.7
20260507080924 -17 0 16.1 29.0 0.00 0.00 0.00 1003.7
20260507080914 -17 248 16.1 29.0 0.00 0.00 0.00 1003.6
20260507080904 -17 225 16.1 29.0 0.00 0.00 0.00 1003.6
20260507080854 -17 270 17.7 29.0 0.00 0.00 0.00 1003.7
20260507080844 -17 270 19.3 30.6 0.00 0.00 0.00 1003.6
20260507080834 -17 270 19.3 30.6 0.00 0.00 0.00 1003.5
20260507080824 -17 270 19.3 30.6 0.00 0.00 0.00 1003.7
20260507080804 -17 270 20.9 32.2 0.00 0.00 0.00 1003.7
20260507080754 -17 270 20.9 33.8 0.00 0.00 0.00 1003.7
20260507080744 -17 270 19.3 33.8 0.00 0.00 0.00 1003.7
20260507080734 -17 270 19.3 33.8 0.00 0.00 0.00 1003.6
20260507080714 -17 225 19.3 33.8 0.00 0.00 0.00 1003.7
20260507080705 -17 270 20.9 33.8 0.00 0.00 0.00 1003.6
20260507080655 -17 270 20.9 33.8 0.00 0.00 0.00 1003.7
20260507080635 -17 270 22.5 33.8 0.00 0.00 0.00 1003.7
20260507080625 -17 225 20.9 33.8 0.00 0.00 0.00 1003.7
20260507080615 -17 270 20.9 33.8 0.00 0.00 0.00 1003.6
20260507080555 -17 270 19.3 33.8 0.00 0.00 0.00 1003.6
20260507080545 -17 248 19.3 33.8 0.00 0.00 0.00 1003.6
20260507080535 -17 225 19.3 33.8 0.00 0.00 0.00 1003.7
20260507080525 -17 270 19.3 33.8 0.00 0.00 0.00 1003.7
20260507080505 -17 270 17.7 33.8 0.00 0.00 0.00 1003.7
20260507080455 -17 248 19.3 33.8 0.00 0.00 0.00 1003.7
20260507080445 -17 270 20.9 33.8 0.00 0.00 0.00 1003.7
20260507080435 -17 248 20.9 33.8 0.00 0.00 0.00 1003.7
20260507080415 -17 270 22.5 33.8 0.00 0.00 0.00 1003.7
20260507080355 -17 270 25.7 33.8 0.00 0.00 0.00 1003.7
20260507080345 -17 225 25.7 33.8 0.00 0.00 0.00 1003.6
20260507080335 -17 270 25.7 33.8 0.00 0.00 0.00 1003.6
20260507080325 -17 225 25.7 33.8 0.00 0.00 0.00 1003.7
20260507080315 -17 270 24.1 35.4 0.00 0.00 0.00 1003.6
20260507080305 -17 270 22.5 35.4 0.00 0.00 0.00 1003.6
20260507080255 -17 270 20.9 35.4 0.00 0.00 0.00 1003.6
20260507080235 -17 270 19.3 35.4 0.00 0.00 0.00 1003.6
20260507080225 -17 225 19.3 35.4 0.00 0.00 0.00 1003.6
20260507080215 -17 270 17.7 35.4 0.00 0.00 0.00 1003.7
20260507080205 -17 270 17.7 35.4 0.00 0.00 0.00 1003.6
20260507080155 -17 225 16.1 35.4 0.00 0.00 0.00 1003.7
20260507080145 -17 270 16.1 35.4 0.00 0.00 0.00 1003.6
20260507080105 -17 270 16.1 35.4 0.00 0.00 0.00 1003.6
20260507080055 -17 270 16.1 37.0 0.00 0.00 0.00 1003.6
20260507080045 -17 270 16.1 37.0 0.00 0.00 0.00 1003.7
20260507080015 -17 270 17.7 37.0 0.00 0.00 0.00 1003.6
20260507080006 -17 270 19.3 37.0 0.00 0.00 0.00 1003.7
20260507075956 -17 270 19.3 37.0 0.00 0.00 0.00 1003.6
20260507075946 -17 225 20.9 37.0 0.00 0.00 0.00 1003.7
20260507075936 -17 270 20.9 37.0 0.00 0.00 0.00 1003.7
20260507075926 -17 270 22.5 37.0 0.00 0.00 0.00 1003.7
20260507075916 -17 248 24.1 37.0 0.00 0.00 0.00 1003.6
20260507075856 -17 270 24.1 37.0 0.00 0.00 0.00 1003.7
20260507075846 -17 270 24.1 37.0 0.00 0.00 0.00 1003.6
20260507075836 -17 225 24.1 37.0 0.00 0.00 0.00 1003.6
20260507075826 -17 270 22.5 37.0 0.00 0.00 0.00 1003.5
20260507075806 -17 248 19.3 37.0 0.00 0.00 0.00 1003.6
20260507075756 -17 270 20.9 37.0 0.00 0.00 0.00 1003.6
20260507075746 -17 270 22.5 37.0 0.00 0.00 0.00 1003.6
20260507075736 -17 248 22.5 37.0 0.00 0.00 0.00 1003.6
20260507075726 -17 225 22.5 37.0 0.00 0.00 0.00 1003.6
20260507075716 -17 270 24.1 37.0 0.00 0.00 0.00 1003.6
20260507075646 -17 270 25.7 37.0 0.00 0.00 0.00 1003.6
20260507075636 -17 270 27.4 37.0 0.00 0.00 0.00 1003.6
20260507075627 -17 270 25.7 37.0 0.00 0.00 0.00 1003.7
20260507075616 -17 225 25.7 37.0 0.00 0.00 0.00 1003.5
20260507075606 -17 225 24.1 37.0 0.00 0.00 0.00 1003.6
20260507075556 -17 225 22.5 37.0 0.00 0.00 0.00 1003.6
20260507075546 -17 270 20.9 35.4 0.00 0.00 0.00 1003.7
20260507075536 -17 270 20.9 33.8 0.00 0.00 0.00 1003.6
20260507075506 -17 270 24.1 33.8 0.00 0.00 0.00 1003.5
20260507075456 -17 225 22.5 33.8 0.00 0.00 0.00 1003.6
20260507075446 -17 248 22.5 33.8 0.00 0.00 0.00 1003.6
20260507075436 -17 225 20.9 33.8 0.00 0.00 0.00 1003.6
20260507075426 -17 225 19.3 30.6 0.00 0.00 0.00 1003.6
20260507075416 -17 225 17.7 27.4 0.00 0.00 0.00 1003.5
20260507075406 -17 225 17.7 27.4 0.00 0.00 0.00 1003.6
20260507075356 -17 270 16.1 27.4 0.00 0.00 0.00 1003.6
20260507075346 -17 248 17.7 29.0 0.00 0.00 0.00 1003.6
20260507075316 -17 270 17.7 30.6 0.00 0.00 0.00 1003.6
20260507075307 -17 225 17.7 30.6 0.00 0.00 0.00 1003.5
20260507075257 -17 270 19.3 30.6 0.00 0.00 0.00 1003.6
20260507075246 -17 248 17.7 30.6 0.00 0.00 0.00 1003.5
20260507075237 -17 270 17.7 30.6 0.00 0.00 0.00 1003.6
20260507075217 -17 225 17.7 30.6 0.00 0.00 0.00 1003.6
20260507075207 -17 225 17.7 30.6 0.00 0.00 0.00 1003.5
20260507075157 -17 225 19.3 30.6 0.00 0.00 0.00 1003.6
20260507075147 -17 270 19.3 30.6 0.00 0.00 0.00 1003.6
20260507075117 -17 225 19.3 30.6 0.00 0.00 0.00 1003.6
20260507075107 -17 225 19.3 30.6 0.00 0.00 0.00 1003.5
20260507075057 -17 225 17.7 30.6 0.00 0.00 0.00 1003.5
20260507075047 -17 225 17.7 30.6 0.00 0.00 0.00 1003.6
20260507075037 -17 248 17.7 30.6 0.00 0.00 0.00 1003.6
20260507075007 -17 270 17.7 35.4 0.00 0.00 0.00 1003.5
20260507074957 -17 270 17.7 35.4 0.00 0.00 0.00 1003.6
20260507074947 -17 270 19.3 35.4 0.00 0.00 0.00 1003.5
20260507074937 -17 225 19.3 35.4 0.00 0.00 0.00 1003.5
20260507074927 -17 270 20.9 35.4 0.00 0.00 0.00 1003.5
20260507074917 -17 225 20.9 35.4 0.00 0.00 0.00 1003.5
20260507074907 -17 225 20.9 35.4 0.00 0.00 0.00 1003.4
20260507074857 -17 270 20.9 35.4 0.00 0.00 0.00 1003.6
20260507074847 -17 270 19.3 35.4 0.00 0.00 0.00 1003.5
20260507074837 -17 270 17.7 35.4 0.00 0.00 0.00 1003.4
20260507074827 -17 225 16.1 35.4 0.00 0.00 0.00 1003.5
20260507074817 -17 270 17.7 35.4 0.00 0.00 0.00 1003.5
20260507074807 -17 225 17.7 35.4 0.00 0.00 0.00 1003.5
20260507074757 -17 270 16.1 35.4 0.00 0.00 0.00 1003.4
20260507074747 -17 270 16.1 35.4 0.00 0.00 0.00 1003.5
20260507074737 -17 225 17.7 35.4 0.00 0.00 0.00
20260507074717 -17 270 16.1 37.0 0.00 0.00 0.00 1003.5
20260507074707 -17 270 17.7 37.0 0.00 0.00 0.00 1003.5
20260507074657 -17 270 19.3 37.0 0.00 0.00 0.00 1003.4
20260507074647 -17 270 20.9 37.0 0.00 0.00 0.00 1003.5
20260507074637 -17 270 22.5 37.0 0.00 0.00 0.00 1003.4
20260507074627 -17 248 22.5 37.0 0.00 0.00 0.00 1003.4
20260507074608 -17 248 24.1 37.0 0.00 0.00 0.00 1003.4
20260507074558 -17 270 24.1 37.0 0.00 0.00 0.00 1003.5
20260507074548 -17 248 25.7 37.0 0.00 0.00 0.00 1003.6
20260507074538 -17 270 25.7 37.0 0.00 0.00 0.00 1003.5
20260507074528 -17 225 24.1 37.0 0.00 0.00 0.00 1003.5
20260507074458 -17 270 24.1 37.0 0.00 0.00 0.00 1003.5
20260507074438 -17 270 24.1 37.0 0.00 0.00 0.00 1003.4
20260507074408 -17 270 25.7 37.0 0.00 0.00 0.00 1003.5
20260507074358 -17 270 25.7 37.0 0.00 0.00 0.00 1003.4
20260507074338 -17 225 25.7 37.0 0.00 0.00 0.00 1003.4
20260507074328 -17 225 27.4 37.0 0.00 0.00 0.00 1003.4
20260507074308 -17 225 25.7 37.0 0.00 0.00 0.00 1003.5
20260507074258 -17 270 25.7 37.0 0.00 0.00 0.00 788.0
20260507074248 -17 225 24.1 37.0 0.00 0.00 0.00 1003.5
20260507074238 -17 225 22.5 37.0 0.00 0.00 0.00 1003.4
20260507074228 -17 225 20.9 32.2 0.00 0.00 0.00 1003.4
20260507074219 -17 270 20.9 32.2 0.00 0.00 0.00 1003.4
20260507074208 -17 225 20.9 33.8 0.00 0.00 0.00 1003.2
20260507074158 -17 225 20.9 33.8 0.00 0.00 0.00 1003.4
20260507074148 -17 225 20.9 35.4 0.00 0.00 0.00 1003.4
20260507074138 -17 225 22.5 35.4 0.00 0.00 0.00 1003.4
20260507074128 -17 225 19.3 35.4 0.00 0.00 0.00 1003.3
20260507074118 -17 248 17.7 35.4 0.00 0.00 0.00 1003.4
20260507074058 -17 225 16.1 35.4 0.00 0.00 0.00 1003.4
20260507074038 -17 225 17.7 35.4 0.00 0.00 0.00 1003.4
20260507074028 -17 225 19.3 35.4 0.00 0.00 0.00 1003.3
20260507074018 -17 225 20.9 35.4 0.00 0.00 0.00 1003.4
20260507073958 -17 225 19.3 35.4 0.00 0.00 0.00 1003.4
20260507073948 -17 248 19.3 35.4 0.00 0.00 0.00 1003.4
20260507073918 -17 225 19.3 35.4 0.00 0.00 0.00 1003.4
20260507073909 -17 270 20.9 35.4 0.00 0.00 0.00 1003.3
20260507073849 -17 270 20.9 35.4 0.00 0.00 0.00 1003.4
20260507073839 -17 225 20.9 35.4 0.00 0.00 0.00 1003.4
20260507073819 -17 270 22.5 35.4 0.00 0.00 0.00 1003.4
20260507073809 -17 225 22.5 35.4 0.00 0.00 0.00 1003.4
20260507073759 -17 248 24.1 35.4 0.00 0.00 0.00 1003.4
20260507073749 -17 225 24.1 37.0 0.00 0.00 0.00 1003.4
20260507073739 -17 225 25.7 37.0 0.00 0.00 0.00 1003.3
20260507073709 -17 225 25.7 37.0 0.00 0.00 0.00 1003.4
20260507073659 -17 270 24.1 37.0 0.00 0.00 0.00 1003.4
20260507073649 -17 225 22.5 37.0 0.00 0.00 0.00 1003.4
20260507073639 -17 248 20.9 37.0 0.00 0.00 0.00 1003.4
20260507073629 -17 270 22.5 37.0 0.00 0.00 0.00 1003.3
20260507073619 -17 270 22.5 37.0 0.00 0.00 0.00 1003.2
20260507073609 -17 225 20.9 37.0 0.00 0.00 0.00 1003.4
20260507073559 -17 225 19.3 37.0 0.00 0.00 0.00 1003.2
20260507073549 -17 225 19.3 37.0 0.00 0.00 0.00 1003.4
20260507073539 -17 180 19.3 37.0 0.00 0.00 0.00 1003.3
20260507073529 -17 225 17.7 37.0 0.00 0.00 0.00 1003.1
20260507073519 -17 225 16.1 37.0 0.00 0.00 0.00 1003.4
20260507073509 -17 203 16.1 37.0 0.00 0.00 0.00 1003.4
20260507073459 -17 225 19.3 37.0 0.00 0.00 0.00 1003.4
20260507073449 -17 180 20.9 37.0 0.00 0.00 0.00 1003.3
20260507073429 -17 270 22.5 37.0 0.00 0.00 0.00 1003.3
20260507073419 -17 248 24.1 37.0 0.00 0.00 0.00 1003.4
20260507073359 -17 225 25.7 37.0 0.00 0.00 0.00 1003.3
20260507073349 -17 248 25.7 37.0 0.00 0.00 0.00 1003.4
20260507073339 -17 270 25.7 37.0 0.00 0.00 0.00 1003.3
20260507073329 -17 270 25.7 37.0 0.00 0.00 0.00 1003.2
20260507073319 -17 225 25.7 37.0 0.00 0.00 0.00 1003.3
20260507073309 -17 225 25.7 37.0 0.00 0.00 0.00 1003.4
20260507073259 -17 270 24.1 37.0 0.00 0.00 0.00 1003.4
20260507073249 -17 270 22.5 32.2 0.00 0.00 0.00 1003.3
20260507073239 -17 270 22.5 32.2 0.00 0.00 0.00 1003.4
20260507073230 13 225 20.9 32.2 0.00 0.00 0.00 82 1003.3
20260507073219 -17 270 19.3 32.2 0.00 0.00 0.00 1003.3
20260507073200 -17 270 19.3 32.2 0.00 0.00 0.00 1003.4
20260507073150 -17 248 19.3 32.2 0.00 0.00 0.00 1003.4
20260507073130 -17 270 19.3 33.8 0.00 0.00 0.00 1003.4
20260507073120 -17 270 20.9 33.8 0.00 0.00 0.00 1003.3
20260507073050 -17 270 22.5 33.8 0.00 0.00 0.00 1003.3
20260507073030 -17 270 20.9 33.8 0.00 0.00 0.00 1003.3
20260507073020 -17 270 19.3 33.8 0.00 0.00 0.00 1026.1
20260507073000 -17 270 19.3 33.8 0.00 0.00 0.00 1003.3
20260507072950 -17 270 19.3 33.8 0.00 0.00 0.00 1003.2
20260507072940 -17 270 22.5 35.4 0.00 0.00 0.00 1003.3
20260507072930 -17 270 20.9 35.4 0.00 0.00 0.00 1003.3
20260507072900 -17 270 19.3 35.4 0.00 0.00 0.00 1003.3
20260507072830 -17 270 16.1 35.4 0.00 0.00 0.00 1003.3
20260507072820 -17 270 17.7 35.4 0.00 0.00 0.00 1003.3
20260507072750 -17 270 19.3 35.4 0.00 0.00 0.00 1003.3
20260507072740 -17 225 22.5 35.4 0.00 0.00 0.00 1003.3
20260507072710 -17 270 24.1 35.4 0.00 0.00 0.00 1003.3
20260507072700 -17 270 22.5 35.4 0.00 0.00 0.00 1003.3
20260507072650 -17 225 22.5 35.4 0.00 0.00 0.00 1003.4
20260507072630 13 270 22.5 35.4 0.00 0.00 0.00 85 1003.3
20260507072620 -17 270 22.5 35.4 0.00 0.00 0.00 1003.3
20260507072610 -17 225 22.5 35.4 0.00 0.00 0.00 1003.3
20260507072600 -17 270 22.5 35.4 0.00 0.00 0.00 1003.2
20260507072550 -17 225 24.1 35.4 0.00 0.00 0.00 1003.3
20260507072540 -17 270 25.7 35.4 0.00 0.00 0.00 1003.4
20260507072531 -17 270 25.7 35.4 0.00 0.00 0.00 1003.3
20260507072510 -17 225 25.7 35.4 0.00 0.00 0.00 1003.3
20260507072451 -17 270 25.7 35.4 0.00 0.00 0.00 1003.3
20260507072441 -17 270 24.1 35.4 0.00 0.00 0.00 1003.3
20260507072431 -17 270 22.5 32.2 0.00 0.00 0.00 1003.3
20260507072421 -17 270 22.5 32.2 0.00 0.00 0.00 1003.2
20260507072341 -17 270 22.5 32.2 0.00 0.00 0.00 1003.2
20260507072331 -17 270 22.5 32.2 0.00 0.00 0.00 1003.3
20260507072321 -17 270 22.5 35.4 0.00 0.00 0.00 1003.3
20260507072311 -17 270 22.5 35.4 0.00 0.00 0.00 1003.2
20260507072301 -17 270 20.9 35.4 0.00 0.00 0.00 1003.3
20260507072241 -17 270 19.3 35.4 0.00 0.00 0.00 1003.3
20260507072231 -17 225 19.3 35.4 0.00 0.00 0.00 1003.2
20260507072221 -17 270 19.3 35.4 0.00 0.00 0.00 1003.2
20260507072211 -17 225 17.7 35.4 0.00 0.00 0.00 1003.3
20260507072201 -17 225 19.3 35.4 0.00 0.00 0.00 1003.3
20260507072151 -17 225 19.3 35.4 0.00 0.00 0.00 1003.2
20260507072131 -17 225 16.1 35.4 0.00 0.00 0.00 1003.2
20260507072121 -17 225 17.7 35.4 0.00 0.00 0.00 1003.1
20260507072111 -17 270 17.7 35.4 0.00 0.00 0.00 1003.2
20260507072101 -17 225 19.3 35.4 0.00 0.00 0.00 1003.3
20260507072051 -17 225 19.3 35.4 0.00 0.00 0.00 1003.2
20260507072041 -17 270 20.9 35.4 0.00 0.00 0.00 1003.2
20260507072021 -17 270 22.5 35.4 0.00 0.00 0.00 1003.2
20260507072011 -17 270 24.1 35.4 0.00 0.00 0.00 1003.2
20260507071941 -17 270 25.7 35.4 0.00 0.00 0.00 1003.2
20260507071931 -17 270 24.1 35.4 0.00 0.00 0.00 1003.3
20260507071911 -17 270 24.1 35.4 0.00 0.00 0.00 1003.2
20260507071901 -17 270 25.7 35.4 0.00 0.00 0.00 1003.2
20260507071832 -17 270 24.1 35.4 0.00 0.00 0.00 1003.2
20260507071822 -17 270 22.5 35.4 0.00 0.00 0.00 1003.1
20260507071812 -17 270 22.5 35.4 0.00 0.00 0.00 1003.2
20260507071752 -17 270 20.9 35.4 0.00 0.00 0.00 1003.2
20260507071732 -17 270 19.3 35.4 0.00 0.00 0.00 1003.2
20260507071722 -17 225 22.5 35.4 0.00 0.00 0.00 1003.2
20260507071702 -17 270 22.5 35.4 0.00 0.00 0.00 1003.2
20260507071632 -17 270 20.9 35.4 0.00 0.00 0.00 1003.2
20260507071552 -17 248 19.3 35.4 0.00 0.00 0.00 1003.2
20260507071542 -17 270 19.3 35.4 0.00 0.00 0.00 1003.2
20260507071532 -17 270 20.9 35.4 0.00 0.00 0.00 1003.1
20260507071522 -17 270 22.5 35.4 0.00 0.00 0.00 1003.2
20260507071512 -17 225 22.5 35.4 0.00 0.00 0.00 1003.2
20260507071502 -17 225 20.9 35.4 0.00 0.00 0.00 1003.1
20260507071452 -17 270 19.3 35.4 0.00 0.00 0.00 1003.1
20260507071432 -17 270 17.7 35.4 0.00 0.00 0.00 1003.1
20260507071422 -17 248 16.1 35.4 0.00 0.00 0.00 1003.1
20260507071412 -17 270 16.1 35.4 0.00 0.00 0.00 1003.0
20260507071402 -17 225 17.7 35.4 0.00 0.00 0.00 1003.1
20260507071352 -17 225 19.3 35.4 0.00 0.00 0.00 1003.1
20260507071312 -17 225 19.3 32.2 0.00 0.00 0.00 1003.1
20260507071252 -17 270 19.3 32.2 0.00 0.00 0.00 1003.2
20260507071232 -17 225 19.3 32.2 0.00 0.00 0.00 1003.1
20260507071212 -17 270 19.3 32.2 0.00 0.00 0.00 1003.1
20260507071202 -17 248 20.9 32.2 0.00 0.00 0.00 1003.1
20260507071152 -17 270 22.5 32.2 0.00 0.00 0.00 1003.1
20260507071142 -17 225 22.5 32.2 0.00 0.00 0.00 1003.1
20260507071112 -17 270 22.5 32.2 0.00 0.00 0.00 1003.1
20260507071102 -17 225 22.5 32.2 0.00 0.00 0.00 1003.1
20260507071052 -17 225 20.9 32.2 0.00 0.00 0.00 1002.9
20260507071043 -17 248 19.3 32.2 0.00 0.00 0.00 1003.1
20260507071033 -17 248 16.1 32.2 0.00 0.00 0.00 1003.1
20260507071023 -17 270 14.5 32.2 0.00 0.00 0.00 1002.9
20260507071013 -17 225 14.5 32.2 0.00 0.00 0.00 1003.0
20260507071003 -17 225 12.9 27.4 0.00 0.00 0.00 1002.9
20260507070953 -17 180 12.9 27.4 0.00 0.00 0.00 1003.0
20260507070943 -17 225 14.5 27.4 0.00 0.00 0.00 1002.9
20260507070913 -17 270 16.1 27.4 0.00 0.00 0.00 1002.9
20260507070903 -17 225 16.1 27.4 0.00 0.00 0.00 1003.0
20260507070853 -17 225 16.1 27.4 0.00 0.00 0.00 1003.1
20260507070823 -17 225 16.1 27.4 0.00 0.00 0.00 1003.0
20260507070813 -17 270 16.1 27.4 0.00 0.00 0.00 1002.9
20260507070753 -17 248 16.1 27.4 0.00 0.00 0.00 1003.0
20260507070743 -17 225 17.7 27.4 0.00 0.00 0.00 1003.1
20260507070733 -17 270 17.7 27.4 0.00 0.00 0.00 1003.0
20260507070723 -17 225 19.3 27.4 0.00 0.00 0.00 1003.0
20260507070713 -17 225 19.3 27.4 0.00 0.00 0.00 1003.1
20260507070703 -17 270 19.3 27.4 0.00 0.00 0.00 1003.1
20260507070643 -17 225 19.3 27.4 0.00 0.00 0.00 1003.0
20260507070633 -17 225 19.3 27.4 0.00 0.00 0.00 1003.1
20260507070623 -17 270 19.3 27.4 0.00 0.00 0.00 1003.1
20260507070613 -17 270 19.3 25.7 0.00 0.00 0.00 1003.0
20260507070603 -17 270 17.7 25.7 0.00 0.00 0.00 1003.0
20260507070553 -17 248 16.1 25.7 0.00 0.00 0.00 1003.0
20260507070543 -17 225 16.1 25.7 0.00 0.00 0.00 1003.0
20260507070523 -17 270 16.1 25.7 0.00 0.00 0.00 1003.1
20260507070513 -17 270 16.1 25.7 0.00 0.00 0.00 1003.0
20260507070503 -17 270 17.7 25.7 0.00 0.00 0.00 1003.0
20260507070453 -17 270 19.3 25.7 0.00 0.00 0.00 1003.0
20260507070443 -17 248 19.3 25.7 0.00 0.00 0.00 1003.1
20260507070433 -17 225 19.3 25.7 0.00 0.00 0.00 1003.0
20260507070413 -17 270 19.3 25.7 0.00 0.00 0.00 1003.0
20260507070344 -17 270 16.1 25.7 0.00 0.00 0.00 1003.0
20260507070334 -17 270 17.7 25.7 0.00 0.00 0.00 1003.0
20260507070324 -17 270 19.3 25.7 0.00 0.00 0.00 1003.0
20260507070244 -17 270 17.7 25.7 0.00 0.00 0.00 1003.0
20260507070214 -17 270 16.1 25.7 0.00 0.00 0.00 1003.0
20260507070204 -17 270 17.7 25.7 0.00 0.00 0.00 1003.0
20260507070154 -17 270 17.7 25.7 0.00 0.00 0.00 1002.9
20260507070134 -17 270 19.3 25.7 0.00 0.00 0.00 1003.0
20260507070104 -17 270 17.7 25.7 0.00 0.00 0.00 1003.0
20260507070054 13 270 17.7 25.7 0.00 0.00 0.00 71 1003.0
20260507070044 -17 270 19.3 25.7 0.00 0.00 0.00 1002.9
20260507070024 -17 270 19.3 25.7 0.00 0.00 0.00 1003.0
20260507070014 -17 225 19.3 25.7 0.00 0.00 0.00 1003.0
20260507065954 -17 270 19.3 27.4 0.00 0.00 0.00 1003.0
20260507065924 -17 270 17.7 27.4 0.00 0.00 0.00 1003.1
20260507065914 -17 270 17.7 27.4 0.00 0.00 0.00 1003.0
20260507065854 -17 270 19.3 27.4 0.00 0.00 0.00 1003.0
20260507065834 -17 270 19.3 30.6 0.00 0.00 0.00 1003.1
20260507065814 -17 270 19.3 30.6 0.00 0.00 0.00 1003.0
20260507065804 -17 270 17.7 30.6 0.00 0.00 0.00 1003.0
20260507065724 -17 270 16.1 30.6 0.00 0.00 0.00 1003.0
20260507065704 -17 270 17.7 30.6 0.00 0.00 0.00 1003.0
20260507065634 -17 225 19.3 32.2 0.00 0.00 0.00 1003.0
20260507065625 -17 270 19.3 32.2 0.00 0.00 0.00 1003.0
20260507065615 -17 270 19.3 33.8 0.00 0.00 0.00 1003.0
20260507065545 -17 270 19.3 33.8 0.00 0.00 0.00 1002.9
20260507065535 -17 270 20.9 33.8 0.00 0.00 0.00 1003.0
20260507065505 -17 270 19.3 35.4 0.00 0.00 0.00 1003.0
20260507065455 -17 270 20.9 35.4 0.00 0.00 0.00 1003.0
20260507065445 -17 270 20.9 35.4 0.00 0.00 0.00 1002.9
20260507065435 -17 225 22.5 35.4 0.00 0.00 0.00 1003.0
20260507065425 -17 270 22.5 35.4 0.00 0.00 0.00 1003.0
20260507065405 -17 270 22.5 35.4 0.00 0.00 0.00 1002.9
20260507065345 -17 270 22.5 35.4 0.00 0.00 0.00 1003.0
20260507065335 -17 270 20.9 35.4 0.00 0.00 0.00 1003.0
20260507065315 -17 270 19.3 35.4 0.00 0.00 0.00 1002.9
20260507065306 -17 248 19.3 35.4 0.00 0.00 0.00 1003.0
20260507065245 -17 270 19.3 35.4 0.00 0.00 0.00 1003.0
20260507065235 -17 225 19.3 35.4 0.00 0.00 0.00 1003.0
20260507065215 -17 225 22.5 35.4 0.00 0.00 0.00 1002.9
20260507065205 -17 270 22.5 35.4 0.00 0.00 0.00 1002.9
20260507065155 -17 270 20.9 35.4 0.00 0.00 0.00 1002.9
20260507065145 -17 248 22.5 35.4 0.00 0.00 0.00 1002.8
20260507065135 -17 225 22.5 35.4 0.00 0.00 0.00 1003.0
20260507065125 -17 270 22.5 35.4 0.00 0.00 0.00 1002.8
20260507065115 -17 270 22.5 35.4 0.00 0.00 0.00 1002.9
20260507065105 -17 270 24.1 35.4 0.00 0.00 0.00 1002.9
20260507065055 -17 270 25.7 35.4 0.00 0.00 0.00 1003.0
20260507065045 -17 270 25.7 35.4 0.00 0.00 0.00 1002.9
20260507065035 -17 225 24.1 35.4 0.00 0.00 0.00 1002.8
20260507065025 -17 270 22.5 35.4 0.00 0.00 0.00 1002.9
20260507065015 -17 225 22.5 30.6 0.00 0.00 0.00 1002.9
20260507065005 -17 225 20.9 30.6 0.00 0.00 0.00 1002.9
20260507064955 -17 270 19.3 30.6 0.00 0.00 0.00 1002.9
20260507064925 -17 270 20.9 30.6 0.00 0.00 0.00 1002.9
20260507064915 -17 270 19.3 30.6 0.00 0.00 0.00 1002.9
20260507064905 -17 225 19.3 30.6 0.00 0.00 0.00 1002.9
20260507064855 -17 270 19.3 33.8 0.00 0.00 0.00 1002.9
20260507064846 -17 248 19.3 33.8 0.00 0.00 0.00 1002.9
20260507064836 -17 270 17.7 33.8 0.00 0.00 0.00 1002.9
20260507064826 -17 270 16.1 33.8 0.00 0.00 0.00 1002.8
20260507064806 -17 270 19.3 33.8 0.00 0.00 0.00 1002.9
20260507064746 -17 270 20.9 33.8 0.00 0.00 0.00 1002.9
20260507064736 -17 270 22.5 33.8 0.00 0.00 0.00 1002.9
20260507064656 -17 270 22.5 33.8 0.00 0.00 0.00 1002.9
20260507064646 -17 270 22.5 33.8 0.00 0.00 0.00 1002.8
20260507064636 -17 248 22.5 33.8 0.00 0.00 0.00 1002.9
20260507064626 -17 225 22.5 33.8 0.00 0.00 0.00 1002.8
20260507064606 -17 270 22.5 33.8 0.00 0.00 0.00 1002.9
20260507064546 -17 270 22.5 33.8 0.00 0.00 0.00 1002.8
20260507064536 -17 270 20.9 33.8 0.00 0.00 0.00 1002.8
20260507064516 -17 270 19.3 33.8 0.00 0.00 0.00 1002.8
20260507064506 -17 270 20.9 33.8 0.00 0.00 0.00 1002.9
20260507064446 -17 248 20.9 33.8 0.00 0.00 0.00 1002.8
20260507064426 -17 270 22.5 33.8 0.00 0.00 0.00 1002.8
20260507064416 -17 225 22.5 33.8 0.00 0.00 0.00 1002.9
20260507064406 -17 225 20.9 33.8 0.00 0.00 0.00 1002.9
20260507064356 -17 225 20.9 30.6 0.00 0.00 0.00 1002.8
20260507064336 -17 225 19.3 30.6 0.00 0.00 0.00 1002.8
20260507064326 -17 270 20.9 30.6 0.00 0.00 0.00 1002.9
20260507064306 -17 270 20.9 30.6 0.00 0.00 0.00 1002.8
20260507064256 12 270 20.9 30.6 0.00 0.00 0.00 76 1002.8
20260507064236 -17 225 22.5 30.6 0.00 0.00 0.00 1002.9
20260507064226 -17 270 22.5 30.6 0.00 0.00 0.00 1002.8
20260507064207 -17 270 20.9 29.0 0.00 0.00 0.00 1002.8
20260507064156 -17 270 19.3 27.4 0.00 0.00 0.00 1002.9
20260507064147 -17 0 19.3 27.4 0.00 0.00 0.00 1002.9
20260507064137 -17 270 17.7 27.4 0.00 0.00 0.00 1002.9
20260507064127 -17 270 17.7 27.4 0.00 0.00 0.00 1002.8
20260507064117 -17 270 19.3 27.4 0.00 0.00 0.00 1002.9
20260507064107 -17 225 19.3 27.4 0.00 0.00 0.00 1002.7
20260507064057 -17 225 19.3 27.4 0.00 0.00 0.00 1002.8
20260507064037 -17 270 19.3 29.0 0.00 0.00 0.00 1002.8
20260507064027 -17 270 20.9 29.0 0.00 0.00 0.00 1002.9
20260507064017 -17 270 20.9 29.0 0.00 0.00 0.00 1002.8
20260507063947 -17 270 22.5 29.0 0.00 0.00 0.00 1002.8
20260507063937 -17 270 20.9 29.0 0.00 0.00 0.00 1002.8
20260507063927 -17 270 19.3 29.0 0.00 0.00 0.00 1002.8
20260507063917 -17 248 19.3 29.0 0.00 0.00 0.00 1002.8
20260507063907 -17 270 19.3 29.0 0.00 0.00 0.00 1002.9
20260507063857 -17 270 17.7 29.0 0.00 0.00 0.00 1002.8
20260507063837 -17 270 16.1 29.0 0.00 0.00 0.00 1002.8
20260507063827 -17 270 16.1 30.6 0.00 0.00 0.00 1002.8
20260507063807 -17 270 16.1 30.6 0.00 0.00 0.00 1002.9
20260507063747 -17 270 16.1 30.6 0.00 0.00 0.00 1002.8
20260507063737 -17 270 17.7 30.6 0.00 0.00 0.00 1002.9
20260507063717 -17 270 17.7 30.6 0.00 0.00 0.00 1002.8
20260507063707 -17 270 19.3 30.6 0.00 0.00 0.00 1002.8
20260507063647 -17 270 19.3 30.6 0.00 0.00 0.00 1002.7
20260507063627 -17 270 19.3 30.6 0.00 0.00 0.00 1002.8
20260507063617 -17 270 20.9 30.6 0.00 0.00 0.00 1002.7
20260507063607 -17 225 20.9 30.6 0.00 0.00 0.00 1002.8
20260507063547 -17 270 19.3 30.6 0.00 0.00 0.00 1002.8
20260507063537 -17 225 19.3 30.6 0.00 0.00 0.00 1002.8
20260507063527 -17 270 19.3 30.6 0.00 0.00 0.00 1002.7
20260507063507 -17 270 19.3 30.6 0.00 0.00 0.00 1002.8
20260507063428 -17 270 19.3 30.6 0.00 0.00 0.00 1002.8
20260507063418 -17 270 20.9 30.6 0.00 0.00 0.00 1002.8
20260507063408 -17 270 20.9 30.6 0.00 0.00 0.00 1002.9
20260507063358 -17 248 20.9 30.6 0.00 0.00 0.00 1002.8
20260507063348 -17 225 20.9 30.6 0.00 0.00 0.00 1002.9
20260507063328 -17 225 20.9 30.6 0.00 0.00 0.00 1002.8
20260507063308 -17 225 19.3 30.6 0.00 0.00 0.00 1002.8
20260507063258 -17 248 19.3 32.2 0.00 0.00 0.00 1002.8
20260507063248 -17 270 19.3 32.2 0.00 0.00 0.00 1002.8
20260507063238 -17 225 19.3 32.2 0.00 0.00 0.00 1002.9
20260507063228 -17 225 19.3 32.2 0.00 0.00 0.00 1002.8
20260507063218 -17 225 17.7 32.2 0.00 0.00 0.00 1002.8
20260507063208 -17 225 16.1 32.2 0.00 0.00 0.00 1002.7
20260507063158 -17 270 16.1 32.2 0.00 0.00 0.00 1002.7
20260507063148 -17 270 16.1 32.2 0.00 0.00 0.00 1002.8
20260507063138 -17 248 17.7 32.2 0.00 0.00 0.00 1002.8
20260507063128 -17 225 17.7 32.2 0.00 0.00 0.00 1002.9
20260507063118 -17 270 17.7 32.2 0.00 0.00 0.00 1002.8
20260507063108 -17 0 19.3 32.2 0.00 0.00 0.00 1002.8
20260507063048 -17 225 19.3 32.2 0.00 0.00 0.00 1002.8
20260507063038 -17 270 19.3 32.2 0.00 0.00 0.00 1002.8
20260507063028 -17 225 17.7 32.2 0.00 0.00 0.00 1002.8
20260507063018 -17 225 16.1 32.2 0.00 0.00 0.00 1002.9
20260507062948 -17 270 16.1 32.2 0.00 0.00 0.00 1002.8
20260507062938 -17 270 17.7 32.2 0.00 0.00 0.00 1002.8
20260507062928 -17 270 19.3 32.2 0.00 0.00 0.00 1002.9
20260507062918 -17 248 19.3 32.2 0.00 0.00 0.00 1002.8
20260507062908 -17 270 20.9 32.2 0.00 0.00 0.00 1002.8
20260507062848 -17 270 22.5 32.2 0.00 0.00 0.00 1002.8
20260507062829 -17 225 22.5 32.2 0.00 0.00 0.00 1002.7
20260507062809 -17 225 22.5 32.2 0.00 0.00 0.00 1002.8
20260507062759 -17 225 20.9 32.2 0.00 0.00 0.00 1002.8
20260507062749 -17 225 19.3 30.6 0.00 0.00 0.00 1002.7
20260507062739 -17 225 19.3 30.6 0.00 0.00 0.00 1002.8
20260507062729 -17 270 20.9 30.6 0.00 0.00 0.00 1002.9
20260507062719 -17 225 20.9 30.6 0.00 0.00 0.00 1002.8
20260507062639 -17 270 22.5 30.6 0.00 0.00 0.00 1002.8
20260507062629 -17 270 20.9 30.6 0.00 0.00 0.00 1002.8
20260507062609 -17 248 19.3 30.6 0.00 0.00 0.00 1002.8
20260507062559 -17 225 17.7 30.6 0.00 0.00 0.00 1002.6
20260507062549 -17 225 17.7 30.6 0.00 0.00 0.00 1002.9
20260507062539 -17 180 17.7 30.6 0.00 0.00 0.00 1002.8
20260507062529 -17 270 19.3 30.6 0.00 0.00 0.00 675.5
20260507062519 -17 225 19.3 30.6 0.00 0.00 0.00 1002.9
20260507062509 -17 270 20.9 30.6 0.00 0.00 0.00 1002.8
20260507062459 -17 270 22.5 30.6 0.00 0.00 0.00 1002.9
20260507062439 -17 225 22.5 30.6 0.00 0.00 0.00 1002.9
20260507062419 -17 270 22.5 30.6 0.00 0.00 0.00 1002.8
20260507062409 12 270 22.5 30.6 0.00 0.00 0.00 70 1002.9
20260507062359 -17 270 20.9 30.6 0.00 0.00 0.00 1002.8
20260507062349 -17 270 19.3 30.6 0.00 0.00 0.00 1002.8
20260507062339 -17 270 19.3 30.6 0.00 0.00 0.00 861.2
20260507062309 -17 270 17.7 27.4 0.00 0.00 0.00 1002.8
20260507062259 -17 270 19.3 27.4 0.00 0.00 0.00 1002.8
20260507062249 -17 225 19.3 27.4 0.00 0.00 0.00 1002.9
20260507062229 12 270 20.9 29.0 0.00 0.00 0.00 70 1002.8
20260507062219 -17 270 20.9 29.0 0.00 0.00 0.00 1002.8
20260507062209 -17 270 20.9 29.0 0.00 0.00 0.00 1031.6
20260507062159 -17 270 19.3 29.0 0.00 0.00 0.00 1002.9
20260507062150 -17 270 17.7 29.0 0.00 0.00 0.00
20260507062120 -17 270 16.1 29.0 0.00 0.00 0.00 1002.8
20260507062110 -17 270 17.7 29.0 0.00 0.00 0.00 1002.8
20260507062100 -17 270 19.3 29.0 0.00 0.00 0.00 1002.8
20260507062040 -17 270 19.3 29.0 0.00 0.00 0.00 1002.9
20260507062020 -17 270 20.9 30.6 0.00 0.00 0.00 1002.8
20260507062010 -17 270 20.9 30.6 0.00 0.00 0.00 1002.9
20260507062000 -17 270 22.5 30.6 0.00 0.00 0.00 1002.9
20260507061950 -17 270 20.9 32.2 0.00 0.00 0.00 1009.1
20260507061940 -17 270 20.9 32.2 0.00 0.00 0.00 1002.8
20260507061930 -17 270 20.9 32.2 0.00 0.00 0.00 1002.9
20260507061920 -17 225 20.9 32.2 0.00 0.00 0.00 1002.9
20260507061910 -17 270 19.3 32.2 0.00 0.00 0.00 1002.8
20260507061900 -17 270 19.3 32.2 0.00 0.00 0.00 865.2
20260507061840 -17 225 19.3 32.2 0.00 0.00 0.00 1002.8
20260507061830 -17 270 19.3 32.2 0.00 0.00 0.00 1002.8
20260507061800 -17 270 19.3 32.2 0.00 0.00 0.00 1002.9
20260507061750 -17 270 19.3 32.2 0.00 0.00 0.00 1002.8
20260507061740 -17 225 19.3 32.2 0.00 0.00 0.00 1002.7
20260507061700 -17 270 19.3 32.2 0.00 0.00 0.00 1002.8
20260507061650 -17 225 19.3 32.2 0.00 0.00 0.00 1002.7
20260507061640 -17 248 19.3 32.2 0.00 0.00 0.00 1002.8
20260507061610 -17 270 20.9 32.2 0.00 0.00 0.00 1002.8
20260507061600 -17 270 22.5 32.2 0.00 0.00 0.00 1002.8
20260507061550 -17 225 22.5 32.2 0.00 0.00 0.00 1002.8
20260507061540 -17 225 24.1 32.2 0.00 0.00 0.00 1002.8
20260507061520 -17 248 24.1 32.2 0.00 0.00 0.00 1002.7
20260507061510 -17 270 24.1 32.2 0.00 0.00 0.00 1002.8
20260507061502 -17 270 24.1 32.2 0.00 0.00 0.00 1002.7
20260507061440 -17 270 22.5 32.2 0.00 0.00 0.00 1002.8
20260507061431 -17 270 22.5 30.6 0.00 0.00 0.00 1002.8
20260507061421 -17 270 20.9 30.6 0.00 0.00 0.00 1002.7
20260507061411 -17 225 19.3 30.6 0.00 0.00 0.00 1002.7
20260507061401 -17 270 19.3 30.6 0.00 0.00 0.00 1002.8
20260507061351 -17 270 17.7 27.4 0.00 0.00 0.00 1002.7
20260507061341 -17 270 16.1 27.4 0.00 0.00 0.00 1002.8
20260507061321 -17 225 16.1 27.4 0.00 0.00 0.00 1002.7
20260507061301 -17 270 17.7 27.4 0.00 0.00 0.00 1002.7
20260507061251 -17 225 19.3 30.6 0.00 0.00 0.00 1002.7
20260507061241 -17 270 19.3 30.6 0.00 0.00 0.00 1002.7
20260507061201 -17 270 20.9 30.6 0.00 0.00 0.00 1002.7
20260507061151 -17 270 19.3 30.6 0.00 0.00 0.00 1002.7
20260507061141 -17 270 19.3 30.6 0.00 0.00 0.00 1002.8
20260507061131 -17 225 19.3 30.6 0.00 0.00 0.00
20260507061101 -17 270 19.3 30.6 0.00 0.00 0.00 1002.7
20260507061051 -17 270 17.7 30.6 0.00 0.00 0.00 1002.7
20260507061041 -17 270 17.7 30.6 0.00 0.00 0.00 1002.6
20260507061031 -17 225 17.7 30.6 0.00 0.00 0.00 1002.7
20260507061021 -17 248 17.7 30.6 0.00 0.00 0.00 1002.7
20260507061011 -17 270 16.1 30.6 0.00 0.00 0.00 1002.7
20260507060951 -17 270 16.1 30.6 0.00 0.00 0.00 1002.6
20260507060911 -17 270 16.1 30.6 0.00 0.00 0.00 1002.6
20260507060901 -17 270 16.1 30.6 0.00 0.00 0.00 1002.7
20260507060851 -17 225 17.7 30.6 0.00 0.00 0.00 1002.6
20260507060841 -17 225 19.3 30.6 0.00 0.00 0.00 1002.7
20260507060831 -17 225 20.9 30.6 0.00 0.00 0.00 1002.6
20260507060821 -17 270 20.9 30.6 0.00 0.00 0.00 1002.7
20260507060801 -17 270 22.5 30.6 0.00 0.00 0.00 1002.6
20260507060731 -17 270 22.5 30.6 0.00 0.00 0.00 1002.7
20260507060722 -17 270 22.5 30.6 0.00 0.00 0.00 1002.6
20260507060712 -17 270 20.9 30.6 0.00 0.00 0.00 1002.6
20260507060702 -17 270 19.3 30.6 0.00 0.00 0.00 1002.7
20260507060642 -17 270 19.3 30.6 0.00 0.00 0.00 1002.6
20260507060632 -17 270 17.7 30.6 0.00 0.00 0.00 1002.6
20260507060622 -17 225 19.3 30.6 0.00 0.00 0.00 1002.6
20260507060612 -17 248 19.3 30.6 0.00 0.00 0.00 943.3
20260507060602 -17 270 19.3 30.6 0.00 0.00 0.00 1002.6
20260507060542 -17 270 20.9 30.6 0.00 0.00 0.00 1002.6
20260507060532 -17 248 20.9 30.6 0.00 0.00 0.00 830.9
20260507060522 -17 270 19.3 30.6 0.00 0.00 0.00 1002.7
20260507060512 -17 270 19.3 30.6 0.00 0.00 0.00 1002.6
20260507060452 -17 270 16.1 27.4 0.00 0.00 0.00 1002.7
20260507060442 -17 270 16.1 25.7 0.00 0.00 0.00 1002.7
20260507060432 -17 270 14.5 25.7 0.00 0.00 0.00 1002.6
20260507060402 -17 270 16.1 25.7 0.00 0.00 0.00 1002.6
20260507060352 -17 270 17.7 25.7 0.00 0.00 0.00 1002.6
20260507060332 -17 270 19.3 25.7 0.00 0.00 0.00 1002.6
20260507060322 -17 248 19.3 25.7 0.00 0.00 0.00 1002.6
20260507060312 -17 270 17.7 25.7 0.00 0.00 0.00 1002.6
20260507060252 -17 270 16.1 25.7 0.00 0.00 0.00 1002.6
20260507060242 -17 270 14.5 27.4 0.00 0.00 0.00 1002.6
20260507060212 -17 270 12.9 27.4 0.00 0.00 0.00 1002.6
20260507060202 -17 270 14.5 27.4 0.00 0.00 0.00 1002.6
20260507060152 -17 270 16.1 27.4 0.00 0.00 0.00 1002.6
20260507060142 -17 270 17.7 27.4 0.00 0.00 0.00 1002.6
20260507060132 -17 225 19.3 27.4 0.00 0.00 0.00 1002.6
20260507060112 -17 270 19.3 27.4 0.00 0.00 0.00 1002.7
20260507060052 -17 225 19.3 27.4 0.00 0.00 0.00 1002.6
20260507060042 -17 248 17.7 27.4 0.00 0.00 0.00 1002.6
20260507060022 -17 225 17.7 27.4 0.00 0.00 0.00 1002.6
20260507060003 -17 270 17.7 27.4 0.00 0.00 0.00 1002.6
20260507055943 -17 270 16.1 27.4 0.00 0.00 0.00 1002.6
20260507055933 -17 270 16.1 27.4 0.00 0.00 0.00 1002.5
20260507055923 -17 225 14.5 27.4 0.00 0.00 0.00 1002.6
20260507055913 -17 270 14.5 27.4 0.00 0.00 0.00 1002.5
20260507055853 -17 225 16.1 27.4 0.00 0.00 0.00 1002.5
20260507055843 -17 270 17.7 27.4 0.00 0.00 0.00 1002.5
20260507055823 -17 270 19.3 27.4 0.00 0.00 0.00 1002.6
20260507055813 -17 270 19.3 27.4 0.00 0.00 0.00 1002.5
20260507055803 -17 270 16.1 27.4 0.00 0.00 0.00 1002.5
20260507055753 -17 270 16.1 27.4 0.00 0.00 0.00 1002.6
20260507055743 -17 270 16.1 24.1 0.00 0.00 0.00 1002.5
20260507055723 -17 270 14.5 24.1 0.00 0.00 0.00 1002.6
20260507055703 -17 270 14.5 24.1 0.00 0.00 0.00 1002.5
20260507055643 -17 248 16.1 24.1 0.00 0.00 0.00 1002.5
20260507055633 -17 270 16.1 24.1 0.00 0.00 0.00 1002.5
20260507055623 -17 270 16.1 24.1 0.00 0.00 0.00 1002.4
20260507055553 -17 270 16.1 24.1 0.00 0.00 0.00 1002.5
20260507055543 -17 225 16.1 24.1 0.00 0.00 0.00 1002.5
20260507055533 -17 225 14.5 25.7 0.00 0.00 0.00 1002.5
20260507055513 -17 270 12.9 25.7 0.00 0.00 0.00 1002.5
20260507055503 -17 248 12.9 25.7 0.00 0.00 0.00 1002.4
20260507055453 -17 225 12.9 25.7 0.00 0.00 0.00 1002.3
20260507055443 -17 225 12.9 25.7 0.00 0.00 0.00 1002.5
20260507055433 -17 270 14.5 25.7 0.00 0.00 0.00 1002.5
20260507055423 -17 225 14.5 25.7 0.00 0.00 0.00 1002.4
20260507055413 -17 248 16.1 25.7 0.00 0.00 0.00 1002.4
20260507055403 -17 270 16.1 25.7 0.00 0.00 0.00 1002.5
20260507055343 -17 270 16.1 25.7 0.00 0.00 0.00 1002.4
20260507055333 -17 270 17.7 25.7 0.00 0.00 0.00 1002.4
20260507055306 -17 270 17.7 25.7 0.00 0.00 0.00 1002.5
20260507055234 -17 270 16.1 25.7 0.00 0.00 0.00 1002.5
20260507055224 -17 270 17.7 25.7 0.00 0.00 0.00 1002.5
20260507055214 -17 270 16.1 25.7 0.00 0.00 0.00 1002.4
20260507055144 -17 270 16.1 25.7 0.00 0.00 0.00 1002.5
20260507055134 -17 270 17.7 25.7 0.00 0.00 0.00 1002.5
20260507055124 -17 270 17.7 25.7 0.00 0.00 0.00 1002.4
20260507055104 -17 270 19.3 25.7 0.00 0.00 0.00 1002.5
20260507055054 -17 270 19.3 25.7 0.00 0.00 0.00 1002.4
20260507055014 -17 270 19.3 25.7 0.00 0.00 0.00 1002.5
20260507054934 -17 270 17.7 25.7 0.00 0.00 0.00 1002.5
20260507054924 -17 270 16.1 25.7 0.00 0.00 0.00 1002.5
20260507054914 -17 270 16.1 22.5 0.00 0.00 0.00 1002.4
20260507054834 -17 270 16.1 22.5 0.00 0.00 0.00 1002.5
20260507054824 -17 270 16.1 22.5 0.00 0.00 0.00 1002.4
20260507054744 -17 270 16.1 22.5 0.00 0.00 0.00 1002.5
20260507054734 -17 270 16.1 22.5 0.00 0.00 0.00 1002.4
20260507054714 -17 225 16.1 22.5 0.00 0.00 0.00 1002.4
20260507054704 -17 270 16.1 22.5 0.00 0.00 0.00 1002.5
20260507054654 -17 270 16.1 22.5 0.00 0.00 0.00 1002.4
20260507054644 -17 270 14.5 22.5 0.00 0.00 0.00 1002.5
20260507054634 -17 270 14.5 24.1 0.00 0.00 0.00 1002.4
20260507054624 -17 270 14.5 24.1 0.00 0.00 0.00 1002.5
20260507054614 -17 225 14.5 24.1 0.00 0.00 0.00 1002.5
20260507054604 -17 203 14.5 24.1 0.00 0.00 0.00 1002.4
20260507054545 -17 270 12.9 24.1 0.00 0.00 0.00 1002.4
20260507054535 -17 248 12.9 24.1 0.00 0.00 0.00 1002.5
20260507054525 -17 270 12.9 24.1 0.00 0.00 0.00 1002.5
20260507054515 -17 225 12.9 24.1 0.00 0.00 0.00 1002.5
20260507054505 -17 225 12.9 25.7 0.00 0.00 0.00 1002.4
20260507054455 -17 248 14.5 25.7 0.00 0.00 0.00 1002.4
20260507054445 -17 270 14.5 25.7 0.00 0.00 0.00 1002.4
20260507054415 -17 270 16.1 25.7 0.00 0.00 0.00 1002.4
20260507054405 -17 248 16.1 25.7 0.00 0.00 0.00 1002.5
20260507054355 -17 225 16.1 25.7 0.00 0.00 0.00 1002.5
20260507054345 -17 270 16.1 25.7 0.00 0.00 0.00 1002.5
20260507054315 -17 270 16.1 25.7 0.00 0.00 0.00 1002.4
20260507054305 -17 225 16.1 25.7 0.00 0.00 0.00 1002.4
20260507054225 -17 270 16.1 25.7 0.00 0.00 0.00 1002.4
20260507054155 -17 270 17.7 25.7 0.00 0.00 0.00 1002.4
20260507054145 -17 270 16.1 25.7 0.00 0.00 0.00 1002.4
20260507054125 -17 225 16.1 25.7 0.00 0.00 0.00 1002.3
20260507054115 -17 225 16.1 25.7 0.00 0.00 0.00 1002.4
20260507054105 -17 270 16.1 25.7 0.00 0.00 0.00 1002.4
20260507054055 -17 270 17.7 25.7 0.00 0.00 0.00 1002.4
20260507054045 -17 225 17.7 25.7 0.00 0.00 0.00 1002.4
20260507054025 -17 270 19.3 25.7 0.00 0.00 0.00 1002.4
20260507054015 -17 225 19.3 27.4 0.00 0.00 0.00 1002.4
20260507053955 -17 225 17.7 27.4 0.00 0.00 0.00 1002.4
20260507053945 -17 248 17.7 27.4 0.00 0.00 0.00 1002.4
20260507053935 -17 270 16.1 27.4 0.00 0.00 0.00 1002.4
20260507053905 -17 225 16.1 27.4 0.00 0.00 0.00 1002.4
20260507053855 -17 270 16.1 27.4 0.00 0.00 0.00 1002.4
20260507053845 -17 225 14.5 27.4 0.00 0.00 0.00 1002.4
20260507053836 -17 270 14.5 27.4 0.00 0.00 0.00 1002.4
20260507053806 -17 248 16.1 27.4 0.00 0.00 0.00 1002.4
20260507053756 -17 270 16.1 27.4 0.00 0.00 0.00 1002.4
20260507053726 -17 270 17.7 27.4 0.00 0.00 0.00 1002.4
20260507053716 12 270 16.1 29.0 0.00 0.00 0.00 72 1002.4
20260507053706 -17 270 16.1 29.0 0.00 0.00 0.00 1002.4
20260507053646 -17 270 16.1 29.0 0.00 0.00 0.00 1002.3
20260507053626 -17 270 16.1 29.0 0.00 0.00 0.00 1002.4
20260507053616 -17 270 17.7 29.0 0.00 0.00 0.00 1002.4
20260507053606 -17 225 17.7 29.0 0.00 0.00 0.00 1002.4
20260507053556 -17 225 19.3 29.0 0.00 0.00 0.00 1002.4
20260507053536 -17 225 19.3 30.6 0.00 0.00 0.00 1002.4
20260507053526 -17 270 19.3 30.6 0.00 0.00 0.00 1002.4
20260507053516 -17 225 17.7 30.6 0.00 0.00 0.00 1002.4
20260507053446 -17 225 16.1 30.6 0.00 0.00 0.00 1002.4
20260507053436 -17 270 16.1 30.6 0.00 0.00 0.00 1002.4
20260507053426 -17 248 16.1 30.6 0.00 0.00 0.00 1002.3
20260507053406 -17 225 16.1 30.6 0.00 0.00 0.00 1002.4
20260507053356 -17 270 16.1 30.6 0.00 0.00 0.00 1002.3
20260507053346 12 225 16.1 30.6 0.00 0.00 0.00 73 1002.4
20260507053336 -17 270 16.1 30.6 0.00 0.00 0.00 1002.4
20260507053326 -17 225 16.1 30.6 0.00 0.00 0.00 1002.3
20260507053316 -17 225 17.7 30.6 0.00 0.00 0.00 1002.3
20260507053256 -17 270 19.3 30.6 0.00 0.00 0.00 1002.3
20260507053246 -17 225 19.3 30.6 0.00 0.00 0.00 1002.4
20260507053226 -17 270 19.3 30.6 0.00 0.00 0.00 1002.4
20260507053206 -17 225 19.3 30.6 0.00 0.00 0.00 1002.4
20260507053157 -17 248 19.3 30.6 0.00 0.00 0.00 1002.3
20260507053146 -17 270 20.9 30.6 0.00 0.00 0.00 1002.3
20260507053137 -17 270 22.5 30.6 0.00 0.00 0.00 1002.4
20260507053117 -17 270 20.9 30.6 0.00 0.00 0.00 1002.4
20260507053107 -17 225 20.9 30.6 0.00 0.00 0.00 1002.3
20260507053057 -17 225 22.5 30.6 0.00 0.00 0.00 1002.2
20260507053047 -17 225 20.9 30.6 0.00 0.00 0.00 1002.2
20260507053037 -17 225 19.3 30.6 0.00 0.00 0.00 1002.3
20260507053027 -17 315 20.9 30.6 0.00 0.00 0.00 1002.2
20260507053017 -17 270 22.5 30.6 0.00 0.00 0.00 1002.3
20260507052947 -17 270 19.3 30.6 0.00 0.00 0.00 1002.3
20260507052937 -17 225 20.9 30.6 0.00 0.00 0.00 1002.3
20260507052907 -17 225 19.3 30.6 0.00 0.00 0.00 1002.3
20260507052857 -17 225 20.9 30.6 0.00 0.00 0.00 1002.2
20260507052847 -17 270 20.9 30.6 0.00 0.00 0.00 1002.2
20260507052837 12 270 19.3 30.6 0.00 0.00 0.00 72 1002.3
20260507052827 -17 270 19.3 30.6 0.00 0.00 0.00 1002.3
20260507052747 -17 270 19.3 30.6 0.00 0.00 0.00 1002.3
20260507052727 -17 270 20.9 30.6 0.00 0.00 0.00 1002.3
20260507052717 -17 248 22.5 30.6 0.00 0.00 0.00 1002.3
20260507052657 -17 225 22.5 30.6 0.00 0.00 0.00 1002.3
20260507052637 -17 225 22.5 32.2 0.00 0.00 0.00 1002.3
20260507052627 -17 270 22.5 32.2 0.00 0.00 0.00 1002.4
20260507052617 -17 248 20.9 32.2 0.00 0.00 0.00 1002.2
20260507052607 -17 270 19.3 32.2 0.00 0.00 0.00 1002.2
20260507052557 -17 225 16.1 32.2 0.00 0.00 0.00 1002.3
20260507052547 -17 225 16.1 32.2 0.00 0.00 0.00 1002.2
20260507052537 -17 225 14.5 32.2 0.00 0.00 0.00 1002.0
20260507052517 -17 225 14.5 32.2 0.00 0.00 0.00 1002.1
20260507052457 -17 225 16.1 32.2 0.00 0.00 0.00 1002.2
20260507052447 -17 270 16.1 35.4 0.00 0.00 0.00 1002.2
20260507052438 -17 270 17.7 35.4 0.00 0.00 0.00 1002.2
20260507052428 -17 225 19.3 35.4 0.00 0.00 0.00 1002.2
20260507052418 -17 270 20.9 35.4 0.00 0.00 0.00 1001.8
20260507052408 -17 225 22.5 35.4 0.00 0.00 0.00 1000.4
20260507052348 -17 270 22.5 35.4 0.00 0.00 0.00 1002.2
20260507052328 -17 270 22.5 35.4 0.00 0.00 0.00 1002.3
20260507052258 -17 270 22.5 35.4 0.00 0.00 0.00 698.2
20260507052248 -17 270 22.5 35.4 0.00 0.00 0.00 1002.2
20260507052238 -17 225 22.5 35.4 0.00 0.00 0.00 1002.2
20260507052228 -17 225 24.1 35.4 0.00 0.00 0.00 1002.1
20260507052208 -17 225 22.5 35.4 0.00 0.00 0.00 1002.3
20260507052158 -17 225 22.5 35.4 0.00 0.00 0.00 1002.2
20260507052138 12 203 20.9 35.4 0.00 0.00 0.00 73 1002.1
20260507052128 -17 270 20.9 35.4 0.00 0.00 0.00 1002.2
20260507052058 -17 270 22.5 35.4 0.00 0.00 0.00 1002.2
20260507052048 -17 225 22.5 35.4 0.00 0.00 0.00 1002.2
20260507052038 -17 225 22.5 35.4 0.00 0.00 0.00 1002.1
20260507052028 -17 270 22.5 35.4 0.00 0.00 0.00 1002.0
20260507052018 -17 225 20.9 35.4 0.00 0.00 0.00 1002.1
20260507052008 -17 248 19.3 35.4 0.00 0.00 0.00 1002.1
20260507051958 -17 248 19.3 35.4 0.00 0.00 0.00 1002.2
20260507051948 -17 225 17.7 30.6 0.00 0.00 0.00 1002.2
20260507051938 -17 270 16.1 37.0 0.00 0.00 0.00 1002.2
20260507051928 -17 225 16.1 38.6 0.00 0.00 0.00 1002.2
20260507051918 -17 225 16.1 38.6 0.00 0.00 0.00 1002.1
20260507051908 -17 225 17.7 38.6 0.00 0.00 0.00 1002.2
20260507051858 -17 270 17.7 38.6 0.00 0.00 0.00 1002.1
20260507051848 -17 248 19.3 38.6 0.00 0.00 0.00 1002.2
20260507051828 -17 225 19.3 38.6 0.00 0.00 0.00 1002.1
20260507051818 -17 270 19.3 38.6 0.00 0.00 0.00 1002.1
20260507051808 -17 270 17.7 38.6 0.00 0.00 0.00 1002.1
20260507051738 -17 225 17.7 38.6 0.00 0.00 0.00 1002.2
20260507051729 -17 270 17.7 38.6 0.00 0.00 0.00 1002.1
20260507051719 -17 270 17.7 38.6 0.00 0.00 0.00 1002.0
20260507051709 -17 225 19.3 38.6 0.00 0.00 0.00 1002.2
20260507051659 -17 248 19.3 38.6 0.00 0.00 0.00 1002.0
20260507051649 -17 225 20.9 38.6 0.00 0.00 0.00 1002.1
20260507051629 -17 225 19.3 38.6 0.00 0.00 0.00 1002.2
20260507051619 -17 225 19.3 38.6 0.00 0.00 0.00 1002.0
20260507051609 -17 270 19.3 38.6 0.00 0.00 0.00 1002.2
20260507051549 -17 225 20.9 38.6 0.00 0.00 0.00 1002.1
20260507051539 -17 270 22.5 38.6 0.00 0.00 0.00 1002.1
20260507051529 -17 225 25.7 38.6 0.00 0.00 0.00 1002.2
20260507051519 -17 225 27.4 38.6 0.00 0.00 0.00 1002.1
20260507051509 -17 270 27.4 38.6 0.00 0.00 0.00 1002.1
20260507051459 -17 248 27.4 38.6 0.00 0.00 0.00 1002.1
20260507051449 -17 270 25.7 38.6 0.00 0.00 0.00 1002.1
20260507051439 -17 270 22.5 38.6 0.00 0.00 0.00 1002.1
20260507051429 -17 270 20.9 38.6 0.00 0.00 0.00 1002.0
20260507051409 -17 270 16.1 33.8 0.00 0.00 0.00 1002.1
20260507051359 12 225 16.1 33.8 0.00 0.00 0.00 73 1002.0
20260507051349 -17 225 16.1 33.8 0.00 0.00 0.00 1002.2
20260507051339 -17 225 16.1 33.8 0.00 0.00 0.00 1002.1
20260507051329 -17 203 17.7 33.8 0.00 0.00 0.00 1002.0
20260507051319 -17 225 19.3 33.8 0.00 0.00 0.00 1002.1
20260507051309 -17 225 20.9 33.8 0.00 0.00 0.00 1002.0
20260507051259 -17 225 22.5 33.8 0.00 0.00 0.00 1002.0
20260507051239 12 270 22.5 33.8 0.00 0.00 0.00 74 1002.1
20260507051229 -17 225 22.5 33.8 0.00 0.00 0.00 1002.1
20260507051219 -17 248 22.5 33.8 0.00 0.00 0.00 1002.1
20260507051209 -17 270 20.9 33.8 0.00 0.00 0.00 1002.0
20260507051159 -17 270 20.9 32.2 0.00 0.00 0.00 1002.1
20260507051149 -17 270 19.3 29.0 0.00 0.00 0.00 1002.1
20260507051139 -17 225 19.3 29.0 0.00 0.00 0.00 1002.1
20260507051119 -17 248 19.3 29.0 0.00 0.00 0.00 1002.1
20260507051110 -17 225 19.3 29.0 0.00 0.00 0.00 1002.0
20260507051100 -17 248 17.7 27.4 0.00 0.00 0.00 1002.2
20260507051050 -17 248 16.1 27.4 0.00 0.00 0.00 1002.1
20260507051039 -17 225 16.1 27.4 0.00 0.00 0.00 1002.1
20260507051030 -17 225 16.1 27.4 0.00 0.00 0.00 1002.0
20260507051020 -17 248 16.1 27.4 0.00 0.00 0.00 1002.0
20260507051010 -17 270 16.1 27.4 0.00 0.00 0.00 1002.1
20260507051000 -17 225 17.7 27.4 0.00 0.00 0.00 1002.1
20260507050950 -17 180 19.3 27.4 0.00 0.00 0.00 1002.1
20260507050940 -17 225 19.3 27.4 0.00 0.00 0.00 1002.1
20260507050930 -17 270 19.3 27.4 0.00 0.00 0.00 1002.1
20260507050920 -17 225 17.7 27.4 0.00 0.00 0.00 1002.1
20260507050900 -17 225 16.1 27.4 0.00 0.00 0.00 1002.1
20260507050850 -17 248 16.1 27.4 0.00 0.00 0.00 1002.1
20260507050840 -17 225 16.1 27.4 0.00 0.00 0.00 1002.0
20260507050830 -17 270 16.1 27.4 0.00 0.00 0.00 1002.0
20260507050810 -17 225 16.1 27.4 0.00 0.00 0.00 1002.1
20260507050800 -17 225 14.5 25.7 0.00 0.00 0.00 1002.1
20260507050750 -17 225 16.1 27.4 0.00 0.00 0.00 1002.0
20260507050730 -17 225 16.1 27.4 0.00 0.00 0.00 1002.1
20260507050720 -17 225 16.1 32.2 0.00 0.00 0.00 1002.0
20260507050710 -17 225 16.1 32.2 0.00 0.00 0.00 1002.1
20260507050700 -17 225 16.1 32.2 0.00 0.00 0.00
20260507050650 -17 248 16.1 32.2 0.00 0.00 0.00 1002.0
20260507050640 -17 225 17.7 32.2 0.00 0.00 0.00 1002.0
20260507050630 -17 270 17.7 32.2 0.00 0.00 0.00 1002.0
20260507050620 12 225 17.7 33.8 0.00 0.00 0.00 75 1002.0
20260507050610 -17 270 19.3 33.8 0.00 0.00 0.00 1002.0
20260507050600 12 270 19.3 33.8 0.00 0.00 0.00 75 1002.1
20260507050550 -17 270 19.3 33.8 0.00 0.00 0.00 1002.1
20260507050540 -17 225 19.3 33.8 0.00 0.00 0.00 1002.0
20260507050530 -17 248 19.3 33.8 0.00 0.00 0.00 1002.1
20260507050500 -17 270 17.7 33.8 0.00 0.00 0.00 1002.0
20260507050450 12 225 16.1 33.8 0.00 0.00 0.00 75 1002.1
20260507050440 -17 225 16.1 33.8 0.00 0.00 0.00 1002.0
20260507050420 -17 225 16.1 33.8 0.00 0.00 0.00 1002.1
20260507050400 -17 225 16.1 33.8 0.00 0.00 0.00 1002.0
20260507050350 -17 270 16.1 33.8 0.00 0.00 0.00 1002.0
20260507050340 -17 225 17.7 33.8 0.00 0.00 0.00 1002.0
20260507050330 -17 225 19.3 33.8 0.00 0.00 0.00 1002.0
20260507050321 -17 225 20.9 33.8 0.00 0.00 0.00 1002.0
20260507050301 -17 225 22.5 33.8 0.00 0.00 0.00 1002.0
20260507050251 11 248 24.1 33.8 0.00 0.00 0.00 78 1001.9
20260507050231 -17 225 24.1 33.8 0.00 0.00 0.00 1002.0
20260507050211 -17 225 22.5 33.8 0.00 0.00 0.00 1002.0
20260507050201 -17 225 20.9 33.8 0.00 0.00 0.00 1001.9
20260507050151 -17 225 19.3 33.8 0.00 0.00 0.00 1002.0
20260507050131 -17 225 16.1 33.8 0.00 0.00 0.00 1001.9
20260507050121 -17 225 12.9 30.6 0.00 0.00 0.00 1002.0
20260507050111 -17 225 12.9 22.5 0.00 0.00 0.00 1001.7
20260507050051 -17 225 12.9 22.5 0.00 0.00 0.00 1002.0
20260507050041 -17 225 12.9 22.5 0.00 0.00 0.00 1001.8
20260507050031 -17 270 12.9 22.5 0.00 0.00 0.00 1001.9
20260507050001 -17 225 12.9 22.5 0.00 0.00 0.00 1001.9
20260507045941 -17 225 11.3 22.5 0.00 0.00 0.00 1001.9
20260507045921 -17 225 12.9 22.5 0.00 0.00 0.00 1002.0
20260507045901 -17 225 12.9 22.5 0.00 0.00 0.00 1001.9
20260507045851 -17 225 14.5 22.5 0.00 0.00 0.00 1001.8
20260507045831 -17 225 14.5 22.5 0.00 0.00 0.00 1001.9
20260507045821 -17 225 12.9 22.5 0.00 0.00 0.00 1001.9
20260507045811 -17 225 11.3 22.5 0.00 0.00 0.00 1001.9
20260507045801 -17 270 9.7 22.5 0.00 0.00 0.00 1001.9
20260507045751 -17 225 9.7 24.1 0.00 0.00 0.00 1001.9
20260507045741 -17 225 9.7 24.1 0.00 0.00 0.00 1002.0
20260507045721 -17 248 9.7 25.7 0.00 0.00 0.00 1002.0
20260507045711 -17 225 9.7 25.7 0.00 0.00 0.00 1001.9
20260507045701 -17 225 11.3 25.7 0.00 0.00 0.00 1001.9
20260507045651 -17 270 12.9 25.7 0.00 0.00 0.00 1001.8
20260507045641 -17 225 12.9 29.0 0.00 0.00 0.00 1002.0
20260507045631 -17 225 11.3 29.0 0.00 0.00 0.00 1002.0
20260507045621 -17 225 9.7 29.0 0.00 0.00 0.00 1001.9
20260507045611 -17 225 9.7 29.0 0.00 0.00 0.00 1002.0
20260507045541 -17 225 9.7 29.0 0.00 0.00 0.00 1001.9
20260507045532 -17 225 11.3 29.0 0.00 0.00 0.00 1001.9
20260507045502 -17 225 12.9 29.0 0.00 0.00 0.00 1001.9
20260507045442 -17 225 16.1 29.0 0.00 0.00 0.00 1001.9
20260507045432 -17 270 14.5 30.6 0.00 0.00 0.00 1001.9
20260507045422 -17 225 16.1 30.6 0.00 0.00 0.00 1001.9
20260507045412 -17 225 14.5 30.6 0.00 0.00 0.00 1001.9
20260507045402 -17 225 12.9 30.6 0.00 0.00 0.00 1001.9
20260507045332 -17 225 14.5 30.6 0.00 0.00 0.00 1001.9
20260507045322 -17 225 16.1 30.6 0.00 0.00 0.00 1001.9
20260507045252 -17 225 16.1 30.6 0.00 0.00 0.00 1001.8
20260507045242 -17 180 16.1 30.6 0.00 0.00 0.00 1001.7
20260507045232 -17 270 17.7 30.6 0.00 0.00 0.00 1001.9
20260507045212 -17 225 16.1 30.6 0.00 0.00 0.00 1001.8
20260507045202 -17 180 16.1 30.6 0.00 0.00 0.00 1001.8
20260507045132 -17 248 16.1 30.6 0.00 0.00 0.00 1001.8
20260507045122 -17 225 16.1 30.6 0.00 0.00 0.00 1001.8
20260507045112 -17 225 17.7 30.6 0.00 0.00 0.00 1001.8
20260507045102 -17 225 19.3 30.6 0.00 0.00 0.00 1001.8
20260507045052 -17 248 19.3 30.6 0.00 0.00 0.00 1001.8
20260507045042 -17 270 19.3 30.6 0.00 0.00 0.00 1001.8
20260507045022 -17 248 22.5 30.6 0.00 0.00 0.00 1001.7
20260507045012 -17 225 22.5 30.6 0.00 0.00 0.00 1001.8
20260507045002 -17 225 20.9 30.6 0.00 0.00 0.00 1001.8
20260507044952 -17 225 20.9 30.6 0.00 0.00 0.00 1001.7
20260507044942 -17 225 19.3 30.6 0.00 0.00 0.00 1001.7
20260507044932 -17 270 17.7 30.6 0.00 0.00 0.00 1001.7
20260507044922 -17 270 16.1 25.7 0.00 0.00 0.00 1001.8
20260507044902 -17 225 16.1 25.7 0.00 0.00 0.00 1001.7
20260507044842 -17 248 14.5 25.7 0.00 0.00 0.00 1001.7
20260507044833 -17 225 14.5 25.7 0.00 0.00 0.00 1001.7
20260507044822 -17 225 12.9 25.7 0.00 0.00 0.00 1001.8
20260507044803 -17 225 12.9 25.7 0.00 0.00 0.00 1001.7
20260507044753 -17 248 14.5 25.7 0.00 0.00 0.00 1001.8
20260507044733 -17 225 16.1 25.7 0.00 0.00 0.00 1001.8
20260507044723 -17 270 16.1 25.7 0.00 0.00 0.00 1001.7
20260507044703 -17 225 16.1 25.7 0.00 0.00 0.00 1001.7
20260507044643 -17 225 16.1 27.4 0.00 0.00 0.00 1001.8
20260507044603 -17 225 16.1 27.4 0.00 0.00 0.00 1001.8
20260507044553 -17 248 17.7 27.4 0.00 0.00 0.00 1001.7
20260507044533 -17 248 16.1 27.4 0.00 0.00 0.00 1001.8
20260507044513 -17 225 17.7 27.4 0.00 0.00 0.00 1001.8
20260507044503 -17 270 17.7 27.4 0.00 0.00 0.00 1001.8
20260507044453 -17 270 17.7 27.4 0.00 0.00 0.00 1001.7
20260507044443 -17 225 17.7 27.4 0.00 0.00 0.00 1001.7
20260507044433 -17 225 17.7 27.4 0.00 0.00 0.00 1001.8
20260507044423 -17 270 16.1 27.4 0.00 0.00 0.00 1001.7
20260507044413 -17 270 16.1 27.4 0.00 0.00 0.00 1001.8
20260507044403 -17 225 14.5 27.4 0.00 0.00 0.00 1001.8
20260507044343 -17 225 16.1 27.4 0.00 0.00 0.00 1001.7
20260507044323 -17 225 14.5 27.4 0.00 0.00 0.00 1001.7
20260507044303 -17 225 16.1 27.4 0.00 0.00 0.00 1001.7
20260507044233 -17 225 17.7 27.4 0.00 0.00 0.00 1001.7
20260507044223 -17 225 16.1 27.4 0.00 0.00 0.00 1001.8
20260507044213 -17 270 16.1 27.4 0.00 0.00 0.00 1001.7
20260507044203 -17 270 12.9 27.4 0.00 0.00 0.00 1001.8
20260507044153 -17 225 12.9 22.5 0.00 0.00 0.00 1001.7
20260507044113 -17 225 12.9 22.5 0.00 0.00 0.00 1001.7
20260507044104 11 225 11.3 22.5 0.00 0.00 0.00 78 1001.7
20260507044053 -17 225 11.3 22.5 0.00 0.00 0.00 1001.7
20260507044034 -17 225 9.7 22.5 0.00 0.00 0.00 1001.7
20260507044024 -17 270 11.3 22.5 0.00 0.00 0.00 1001.7
20260507044014 11 225 11.3 22.5 0.00 0.00 0.00 78 1001.7
20260507044004 -17 225 12.9 22.5 0.00 0.00 0.00 1001.7
20260507043954 -17 270 12.9 22.5 0.00 0.00 0.00 1001.8
20260507043934 -17 225 14.5 22.5 0.00 0.00 0.00 1001.7
20260507043924 -17 225 14.5 22.5 0.00 0.00 0.00 807.0
20260507043914 -17 225 16.1 22.5 0.00 0.00 0.00 1001.7
20260507043904 -17 248 14.5 22.5 0.00 0.00 0.00 1001.7
20260507043844 -17 225 12.9 22.5 0.00 0.00 0.00 1001.7
20260507043834 -17 225 9.7 22.5 0.00 0.00 0.00 1001.7
20260507043824 -17 225 9.7 20.9 0.00 0.00 0.00
20260507043804 -17 225 9.7 19.3 0.00 0.00 0.00 1001.7
20260507043754 -17 225 11.3 19.3 0.00 0.00 0.00 902.8
20260507043744 -17 225 12.9 19.3 0.00 0.00 0.00 1001.7
20260507043734 -17 180 12.9 19.3 0.00 0.00 0.00 1001.6
20260507043714 -17 225 12.9 19.3 0.00 0.00 0.00 1001.6
20260507043704 -17 225 12.9 19.3 0.00 0.00 0.00 1001.7
20260507043654 -17 270 12.9 17.7 0.00 0.00 0.00 1001.7
20260507043644 -17 270 12.9 17.7 0.00 0.00 0.00 1001.6
20260507043634 -17 248 12.9 17.7 0.00 0.00 0.00 1001.6
20260507043624 -17 225 11.3 17.7 0.00 0.00 0.00 1001.7
20260507043614 -17 225 11.3 17.7 0.00 0.00 0.00 660.6
20260507043554 11 225 9.7 17.7 0.00 0.00 0.00 79 1001.7
20260507043544 -17 225 9.7 17.7 0.00 0.00 0.00 1001.7
20260507043534 -17 270 9.7 17.7 0.00 0.00 0.00 712.1
20260507043524 -17 248 11.3 17.7 0.00 0.00 0.00
20260507043514 -17 270 11.3 17.7 0.00 0.00 0.00 1001.6
20260507043504 -17 225 11.3 17.7 0.00 0.00 0.00 1001.7
20260507043434 -17 225 9.7 17.7 0.00 0.00 0.00 1001.7
20260507043424 -17 248 9.7 17.7 0.00 0.00 0.00 1001.6
20260507043414 -17 270 9.7 17.7 0.00 0.00 0.00 1001.6
20260507043404 -17 225 11.3 17.7 0.00 0.00 0.00 1001.7
20260507043354 -17 225 12.9 17.7 0.00 0.00 0.00 1001.7
20260507043344 -17 248 12.9 17.7 0.00 0.00 0.00 1001.7
20260507043325 -17 270 12.9 17.7 0.00 0.00 0.00 1001.7
20260507043315 -17 225 12.9 17.7 0.00 0.00 0.00 1001.7
20260507043255 -17 270 11.3 17.7 0.00 0.00 0.00 1001.7
20260507043245 -17 225 11.3 17.7 0.00 0.00 0.00 1001.7
20260507043235 -17 225 12.9 19.3 0.00 0.00 0.00 1001.6
20260507043225 -17 225 12.9 19.3 0.00 0.00 0.00 1001.7
20260507043215 -17 270 12.9 19.3 0.00 0.00 0.00 1001.6
20260507043145 -17 225 11.3 19.3 0.00 0.00 0.00 1001.6
20260507043135 -17 248 9.7 19.3 0.00 0.00 0.00 1001.7
20260507043115 -17 225 9.7 19.3 0.00 0.00 0.00 1001.6
20260507043055 -17 225 9.7 19.3 0.00 0.00 0.00 1001.7
20260507043035 -17 225 11.3 19.3 0.00 0.00 0.00 1001.6
20260507043025 -17 225 11.3 19.3 0.00 0.00 0.00 1001.7
20260507043015 -17 225 12.9 19.3 0.00 0.00 0.00 1001.7
20260507043005 -17 225 12.9 19.3 0.00 0.00 0.00 1001.6
20260507042955 -17 248 12.9 19.3 0.00 0.00 0.00 1001.7
20260507042925 -17 225 12.9 19.3 0.00 0.00 0.00 1001.7
20260507042845 -17 225 12.9 19.3 0.00 0.00 0.00 1001.7
20260507042825 -17 270 12.9 19.3 0.00 0.00 0.00 1001.7
20260507042815 -17 270 11.3 19.3 0.00 0.00 0.00 1001.7
20260507042805 -17 225 12.9 19.3 0.00 0.00 0.00 1001.7
20260507042755 -17 225 12.9 19.3 0.00 0.00 0.00 1001.6
20260507042745 -17 248 12.9 19.3 0.00 0.00 0.00 1001.7
20260507042715 -17 225 12.9 19.3 0.00 0.00 0.00 1001.6
20260507042705 -17 225 12.9 19.3 0.00 0.00 0.00 1001.7
20260507042655 -17 225 12.9 19.3 0.00 0.00 0.00 1001.8
20260507042645 -17 225 11.3 19.3 0.00 0.00 0.00 1001.7
20260507042635 -17 225 9.7 19.3 0.00 0.00 0.00 1001.8
20260507042625 -17 225 9.7 17.7 0.00 0.00 0.00 1001.7
20260507042606 -17 225 8.0 17.7 0.00 0.00 0.00 1001.7
20260507042556 -17 225 9.7 17.7 0.00 0.00 0.00 1001.6
20260507042546 -17 225 9.7 17.7 0.00 0.00 0.00 1001.7
20260507042536 -17 225 11.3 17.7 0.00 0.00 0.00 1001.6
20260507042506 -17 225 11.3 17.7 0.00 0.00 0.00 1001.7
20260507042446 -17 225 12.9 17.7 0.00 0.00 0.00 1001.8
20260507042436 -17 225 12.9 17.7 0.00 0.00 0.00 1001.7
20260507042426 -17 225 11.3 17.7 0.00 0.00 0.00 1001.7
20260507042416 -17 225 11.3 17.7 0.00 0.00 0.00 1001.8
20260507042346 -17 225 11.3 17.7 0.00 0.00 0.00 1001.7
20260507042316 -17 225 12.9 17.7 0.00 0.00 0.00 1001.7
20260507042307 -17 248 12.9 20.9 0.00 0.00 0.00 1001.7
20260507042246 -17 225 12.9 22.5 0.00 0.00 0.00 1001.7
20260507042226 -17 225 11.3 22.5 0.00 0.00 0.00 1001.7
20260507042216 -17 225 11.3 22.5 0.00 0.00 0.00 930.9
20260507042156 11 270 12.9 22.5 0.00 0.00 0.00 80 1001.7
20260507042146 -17 248 12.9 22.5 0.00 0.00 0.00 1001.7
20260507042136 -17 225 12.9 22.5 0.00 0.00 0.00 1001.7
20260507042126 -17 270 11.3 22.5 0.00 0.00 0.00 1001.7
20260507042116 10 270 11.3 22.5 0.00 0.00 0.00 83 1001.7
20260507042106 -17 248 9.7 22.5 0.00 0.00 0.00 1001.6
20260507042056 -17 225 9.7 22.5 0.00 0.00 0.00 1001.7
20260507042046 -17 248 9.7 22.5 0.00 0.00 0.00 1001.7
20260507042026 -17 225 9.7 22.5 0.00 0.00 0.00 1001.6
20260507042016 -17 248 9.7 22.5 0.00 0.00 0.00 1001.6
20260507042006 -17 225 11.3 22.5 0.00 0.00 0.00 1001.6
20260507041946 -17 225 12.9 22.5 0.00 0.00 0.00 1001.6
20260507041926 -17 225 12.9 22.5 0.00 0.00 0.00 1001.7
20260507041916 -17 270 12.9 22.5 0.00 0.00 0.00 1001.7
20260507041906 -17 225 12.9 22.5 0.00 0.00 0.00 1001.6
20260507041856 -17 248 14.5 22.5 0.00 0.00 0.00 1001.6
20260507041846 -17 270 14.5 22.5 0.00 0.00 0.00 1001.6
20260507041836 -17 225 14.5 22.5 0.00 0.00 0.00 1001.6
20260507041816 -17 225 12.9 22.5 0.00 0.00 0.00 1001.6
20260507041807 -17 270 12.9 22.5 0.00 0.00 0.00 1001.6
20260507041756 -17 225 11.3 17.7 0.00 0.00 0.00 1001.6
20260507041747 -17 225 9.7 17.7 0.00 0.00 0.00 1001.6
20260507041737 -17 270 9.7 20.9 0.00 0.00 0.00 1001.6
20260507041727 -17 270 9.7 20.9 0.00 0.00 0.00 1001.5
20260507041717 -17 225 9.7 20.9 0.00 0.00 0.00 1001.6
20260507041657 -17 225 11.3 20.9 0.00 0.00 0.00 1001.6
20260507041647 -17 248 11.3 20.9 0.00 0.00 0.00 1001.6
20260507041627 -17 270 11.3 20.9 0.00 0.00 0.00 1001.6
20260507041617 -17 225 11.3 20.9 0.00 0.00 0.00 1001.6
20260507041607 -17 225 12.9 20.9 0.00 0.00 0.00 1001.6
20260507041547 -17 270 12.9 20.9 0.00 0.00 0.00 1001.6
20260507041537 -17 270 11.3 20.9 0.00 0.00 0.00 1001.6
20260507041527 -17 225 11.3 20.9 0.00 0.00 0.00 1001.6
20260507041507 -17 270 9.7 20.9 0.00 0.00 0.00 1001.7
20260507041447 -17 225 9.7 20.9 0.00 0.00 0.00 1001.6
20260507041437 -17 270 9.7 20.9 0.00 0.00 0.00 1001.6
20260507041407 -17 225 9.7 20.9 0.00 0.00 0.00 1001.6
20260507041357 -17 270 9.7 20.9 0.00 0.00 0.00 1001.6
20260507041347 -17 270 11.3 20.9 0.00 0.00 0.00 1001.6
20260507041337 -17 248 12.9 20.9 0.00 0.00 0.00 1001.6
20260507041327 -17 225 12.9 20.9 0.00 0.00 0.00 1001.6
20260507041317 -17 270 12.9 20.9 0.00 0.00 0.00 1001.6
20260507041257 -17 225 14.5 20.9 0.00 0.00 0.00 1001.6
20260507041247 -17 248 14.5 20.9 0.00 0.00 0.00 1001.6
20260507041237 -17 270 14.5 20.9 0.00 0.00 0.00 1001.6
20260507041207 -17 270 12.9 17.7 0.00 0.00 0.00 1001.6
20260507041157 -17 225 12.9 17.7 0.00 0.00 0.00 1001.6
20260507041147 -17 248 12.9 17.7 0.00 0.00 0.00 1001.6
20260507041127 -17 270 11.3 17.7 0.00 0.00 0.00 1001.6
20260507041117 -17 270 9.7 16.1 0.00 0.00 0.00 1001.6
20260507041107 -17 270 9.7 16.1 0.00 0.00 0.00 1001.5
20260507041037 -17 225 9.7 16.1 0.00 0.00 0.00 1001.5
20260507041028 -17 225 9.7 16.1 0.00 0.00 0.00 1001.6
20260507041018 -17 248 9.7 16.1 0.00 0.00 0.00 1001.6
20260507041008 -17 270 9.7 16.1 0.00 0.00 0.00 1001.5
20260507040958 -17 225 9.7 16.1 0.00 0.00 0.00 1001.5
20260507040948 -17 270 9.7 16.1 0.00 0.00 0.00 1001.6
20260507040938 -17 270 8.0 16.1 0.00 0.00 0.00 1001.6
20260507040928 -17 225 9.7 16.1 0.00 0.00 0.00 1001.6
20260507040908 -17 270 9.7 16.1 0.00 0.00 0.00 1001.6
20260507040858 -17 225 9.7 16.1 0.00 0.00 0.00 1001.5
20260507040848 -17 270 9.7 16.1 0.00 0.00 0.00 1001.5
20260507040818 -17 270 9.7 16.1 0.00 0.00 0.00 1001.6
20260507040758 -17 270 9.7 14.5 0.00 0.00 0.00 1001.5
20260507040718 -17 270 9.7 14.5 0.00 0.00 0.00 1001.6
20260507040658 -17 270 9.7 12.9 0.00 0.00 0.00 1001.5
20260507040628 -17 270 9.7 12.9 0.00 0.00 0.00 1001.6
20260507040618 -17 270 9.7 12.9 0.00 0.00 0.00 1001.5
20260507040548 -17 270 8.0 12.9 0.00 0.00 0.00 1001.5
20260507040538 -17 248 8.0 12.9 0.00 0.00 0.00 1001.5
20260507040458 -17 270 8.0 12.9 0.00 0.00 0.00 1001.5
20260507040418 -17 270 8.0 12.9 0.00 0.00 0.00 1001.5
20260507040358 -17 225 8.0 12.9 0.00 0.00 0.00 1001.5
20260507040338 -17 270 8.0 12.9 0.00 0.00 0.00 1001.5
20260507040308 -17 270 9.7 12.9 0.00 0.00 0.00 1001.5
20260507040258 -17 248 9.7 12.9 0.00 0.00 0.00 1001.6
20260507040249 -17 270 8.0 12.9 0.00 0.00 0.00 1001.6
20260507040239 -17 270 8.0 12.9 0.00 0.00 0.00 1001.5
20260507040229 -17 270 8.0 11.3 0.00 0.00 0.00 1001.5
20260507040219 -17 270 6.4 11.3 0.00 0.00 0.00 1001.5
20260507040209 -17 270 6.4 12.9 0.00 0.00 0.00 1001.5
20260507040149 -17 270 8.0 12.9 0.00 0.00 0.00 1001.5
20260507040129 -17 270 6.4 12.9 0.00 0.00 0.00 1001.5
20260507040109 -17 270 6.4 12.9 0.00 0.00 0.00 1001.6
20260507040049 -17 270 6.4 12.9 0.00 0.00 0.00 1001.5
20260507040039 -17 270 8.0 12.9 0.00 0.00 0.00 1001.5
20260507040029 -17 270 8.0 12.9 0.00 0.00 0.00 1001.6
20260507035959 -17 270 8.0 12.9 0.00 0.00 0.00 1001.5
20260507035949 -17 248 8.0 12.9 0.00 0.00 0.00 1001.5
20260507035929 -17 270 8.0 12.9 0.00 0.00 0.00 1001.6
20260507035919 -17 270 8.0 12.9 0.00 0.00 0.00 1001.5
20260507035839 -17 270 8.0 12.9 0.00 0.00 0.00 1001.5
20260507035829 -17 270 8.0 14.5 0.00 0.00 0.00 1001.5
20260507035819 -17 248 8.0 14.5 0.00 0.00 0.00 1001.5
20260507035809 -17 225 8.0 14.5 0.00 0.00 0.00 1001.5
20260507035749 -17 270 8.0 14.5 0.00 0.00 0.00 1001.5
20260507035709 -17 270 9.7 14.5 0.00 0.00 0.00 1001.5
20260507035649 -17 225 9.7 14.5 0.00 0.00 0.00 1001.5
20260507035629 -17 270 8.0 14.5 0.00 0.00 0.00 1001.5
20260507035550 -17 270 8.0 14.5 0.00 0.00 0.00 1001.5
20260507035540 -17 225 8.0 14.5 0.00 0.00 0.00 1001.5
20260507035510 -17 270 8.0 14.5 0.00 0.00 0.00 1001.5
20260507035440 -17 270 9.7 14.5 0.00 0.00 0.00 1001.5
20260507035420 -17 225 9.7 14.5 0.00 0.00 0.00 1001.5
20260507035410 -17 225 9.7 14.5 0.00 0.00 0.00 1001.6
20260507035350 -17 248 9.7 14.5 0.00 0.00 0.00 1001.5
20260507035340 -17 225 9.7 14.5 0.00 0.00 0.00 1001.5
20260507035330 -17 225 9.7 12.9 0.00 0.00 0.00 1001.5
20260507035310 -17 270 9.7 12.9 0.00 0.00 0.00 1001.5
20260507035250 -17 225 9.7 12.9 0.00 0.00 0.00 1001.5
20260507035200 -17 225 8.0 12.9 0.00 0.00 0.00 1001.5
20260507035150 -17 248 8.0 14.5 0.00 0.00 0.00 1001.5
20260507035110 -17 225 8.0 14.5 0.00 0.00 0.00 1001.5
20260507035100 -17 225 6.4 14.5 0.00 0.00 0.00 1001.5
20260507035020 -17 225 6.4 14.5 0.00 0.00 0.00 1001.5
20260507035000 -17 225 8.0 14.5 0.00 0.00 0.00 1001.5
20260507034940 -17 225 9.7 14.5 0.00 0.00 0.00 1001.5
20260507034920 -17 225 8.0 14.5 0.00 0.00 0.00 1001.5
20260507034910 -17 225 6.4 14.5 0.00 0.00 0.00 1001.6
20260507034840 -17 225 6.4 16.1 0.00 0.00 0.00 1001.5
20260507034820 -17 225 4.8 16.1 0.00 0.00 0.00 1001.5
20260507034751 -17 225 6.4 16.1 0.00 0.00 0.00 1001.5
20260507034721 -17 248 8.0 16.1 0.00 0.00 0.00 1001.5
20260507034711 -17 225 8.0 16.1 0.00 0.00 0.00 1001.5
20260507034701 -17 270 9.7 16.1 0.00 0.00 0.00 1001.5
20260507034641 -17 225 9.7 16.1 0.00 0.00 0.00 1001.5
20260507034601 -17 225 9.7 16.1 0.00 0.00 0.00 1001.5
20260507034551 -17 225 8.0 16.1 0.00 0.00 0.00 1001.5
20260507034511 -17 225 9.7 16.1 0.00 0.00 0.00 1001.5
20260507034501 -17 270 9.7 16.1 0.00 0.00 0.00 1001.5
20260507034451 -17 225 11.3 16.1 0.00 0.00 0.00 1001.5
20260507034411 -17 225 9.7 16.1 0.00 0.00 0.00 1001.5
20260507034401 -17 270 9.7 14.5 0.00 0.00 0.00 1001.5
20260507034341 -17 225 9.7 14.5 0.00 0.00 0.00 1001.5
20260507034301 -17 225 9.7 14.5 0.00 0.00 0.00 1001.5
20260507034231 -17 270 9.7 14.5 0.00 0.00 0.00 1001.5
20260507034221 -17 225 9.7 12.9 0.00 0.00 0.00 1001.5
20260507034211 -17 270 9.7 12.9 0.00 0.00 0.00 964.7
20260507034151 -17 270 9.7 12.9 0.00 0.00 0.00 1020.5
20260507034141 -17 270 9.7 12.9 0.00 0.00 0.00 1001.5
20260507034131 10 225 9.7 12.9 0.00 0.00 0.00 82 1001.4
20260507034051 -17 270 9.7 12.9 0.00 0.00 0.00 1001.5
20260507034041 -17 248 9.7 12.9 0.00 0.00 0.00 1001.5
20260507034021 -17 225 9.7 12.9 0.00 0.00 0.00 1001.4
20260507034001 -17 270 9.7 12.9 0.00 0.00 0.00 1001.5
20260507033952 -17 225 9.7 12.9 0.00 0.00 0.00 1001.5
20260507033942 -17 248 9.7 12.9 0.00 0.00 0.00 1001.4
20260507033932 -17 270 9.7 12.9 0.00 0.00 0.00 1001.4
20260507033912 -17 248 9.7 12.9 0.00 0.00 0.00 1001.5
20260507033842 -17 270 9.7 12.9 0.00 0.00 0.00 1001.5
20260507033802 -17 270 9.7 12.9 0.00 0.00 0.00 1001.4
20260507033752 -17 225 9.7 12.9 0.00 0.00 0.00 1001.5
20260507033742 -17 248 9.7 12.9 0.00 0.00 0.00 1001.5
20260507033722 -17 270 9.7 12.9 0.00 0.00 0.00 1001.5
20260507033702 -17 225 9.7 12.9 0.00 0.00 0.00 1001.4
20260507033652 -17 248 9.7 12.9 0.00 0.00 0.00 1001.4
20260507033642 -17 225 8.0 12.9 0.00 0.00 0.00 1001.4
20260507033632 -17 270 8.0 12.9 0.00 0.00 0.00 1001.4
20260507033602 -17 270 6.4 11.3 0.00 0.00 0.00 1001.4
20260507033532 -17 225 6.4 11.3 0.00 0.00 0.00 1001.4
20260507033512 -17 248 6.4 11.3 0.00 0.00 0.00 1001.4
20260507033452 -17 225 6.4 11.3 0.00 0.00 0.00 1001.4
20260507033412 -17 225 6.4 11.3 0.00 0.00 0.00 1001.4
20260507033402 -17 225 4.8 9.7 0.00 0.00 0.00 1001.4
20260507033332 -17 225 4.8 8.0 0.00 0.00 0.00 1001.4
20260507033322 -17 225 3.2 8.0 0.00 0.00 0.00 1001.4
20260507033243 -17 225 3.2 8.0 0.00 0.00 0.00 1001.4
20260507033203 -17 225 3.2 8.0 0.00 0.00 0.00 1001.4
20260507033143 -17 225 1.6 8.0 0.00 0.00 0.00 1001.4
20260507033123 -17 225 3.2 8.0 0.00 0.00 0.00 1001.4
20260507033043 -17 225 3.2 8.0 0.00 0.00 0.00 1001.4
20260507033003 -17 225 3.2 8.0 0.00 0.00 0.00 1001.4
20260507032933 -17 225 3.2 8.0 0.00 0.00 0.00 1001.5
20260507032923 -17 225 3.2 8.0 0.00 0.00 0.00 1001.4
20260507032843 -17 225 3.2 8.0 0.00 0.00 0.00 1001.4
20260507032833 -17 225 3.2 9.7 0.00 0.00 0.00 1001.4
20260507032803 -17 225 3.2 11.3 0.00 0.00 0.00 1001.4
20260507032753 -17 180 3.2 11.3 0.00 0.00 0.00 1001.4
20260507032743 -17 180 3.2 11.3 0.00 0.00 0.00 1001.3
20260507032733 -17 225 1.6 11.3 0.00 0.00 0.00 1001.4
20260507032723 -17 225 1.6 11.3 0.00 0.00 0.00 1001.3
20260507032713 -17 203 3.2 11.3 0.00 0.00 0.00 1001.3
20260507032703 -17 225 3.2 11.3 0.00 0.00 0.00 1001.3
20260507032653 -17 225 3.2 11.3 0.00 0.00 0.00 1001.4
20260507032623 -17 225 3.2 11.3 0.00 0.00 0.00 1001.3
20260507032603 -17 225 3.2 11.3 0.00 0.00 0.00 1001.4
20260507032554 -17 225 3.2 12.9 0.00 0.00 0.00 1001.3
20260507032543 -17 180 1.6 12.9 0.00 0.00 0.00 1001.4
20260507032523 -17 225 1.6 12.9 0.00 0.00 0.00 1001.3
20260507032513 -17 270 1.6 12.9 0.00 0.00 0.00 1001.4
20260507032504 -17 270 1.6 12.9 0.00 0.00 0.00 1001.3
20260507032453 -17 203 1.6 12.9 0.00 0.00 0.00 1001.3
20260507032443 -17 225 3.2 12.9 0.00 0.00 0.00 1001.3
20260507032433 -17 225 3.2 12.9 0.00 0.00 0.00 1001.4
20260507032423 -17 180 4.8 12.9 0.00 0.00 0.00 1001.4
20260507032404 -17 225 6.4 12.9 0.00 0.00 0.00 1001.4
20260507032334 -17 225 6.4 12.9 0.00 0.00 0.00 1001.3
20260507032314 -17 225 6.4 12.9 0.00 0.00 0.00 1001.4
20260507032254 -17 225 6.4 12.9 0.00 0.00 0.00 1001.3
20260507032244 -17 248 6.4 12.9 0.00 0.00 0.00 1001.4
20260507032234 -17 225 6.4 12.9 0.00 0.00 0.00 1001.4
20260507032224 -17 248 8.0 12.9 0.00 0.00 0.00 1001.4
20260507032154 -17 225 8.0 12.9 0.00 0.00 0.00 1001.4
20260507032134 -17 225 8.0 12.9 0.00 0.00 0.00 1001.3
20260507032124 -17 248 8.0 12.9 0.00 0.00 0.00 1001.4
20260507032114 -17 225 6.4 12.9 0.00 0.00 0.00 1001.3
20260507032104 -17 225 6.4 12.9 0.00 0.00 0.00 1001.4
20260507032044 -17 225 4.8 12.9 0.00 0.00 0.00 1001.4
20260507032034 -17 225 6.4 12.9 0.00 0.00 0.00 1001.3
20260507032024 -17 225 6.4 12.9 0.00 0.00 0.00 1001.4
20260507031954 -17 225 6.4 12.9 0.00 0.00 0.00 1001.3
20260507031934 -17 225 8.0 12.9 0.00 0.00 0.00 1001.3
20260507031914 -17 225 6.4 12.9 0.00 0.00 0.00 1001.3
20260507031904 -17 270 8.0 12.9 0.00 0.00 0.00 1001.3
20260507031854 -17 225 8.0 12.9 0.00 0.00 0.00 1001.3
20260507031824 -17 248 8.0 12.9 0.00 0.00 0.00 1001.3
20260507031814 -17 225 8.0 12.9 0.00 0.00 0.00 1001.3
20260507031754 -17 270 8.0 12.9 0.00 0.00 0.00 1001.4
20260507031744 -17 225 8.0 12.9 0.00 0.00 0.00 1001.4
20260507031715 -17 225 8.0 12.9 0.00 0.00 0.00 1001.3
20260507031704 -17 270 8.0 16.1 0.00 0.00 0.00 1001.4
20260507031654 -17 225 8.0 16.1 0.00 0.00 0.00 1001.3
20260507031645 -17 270 6.4 16.1 0.00 0.00 0.00 1001.3
20260507031635 -17 225 6.4 16.1 0.00 0.00 0.00 1001.3
20260507031615 -17 270 8.0 16.1 0.00 0.00 0.00 1001.3
20260507031605 -17 225 8.0 16.1 0.00 0.00 0.00 1001.3
20260507031545 -17 225 9.7 16.1 0.00 0.00 0.00 1001.3
20260507031525 -17 248 8.0 16.1 0.00 0.00 0.00 1001.3
20260507031505 -17 225 8.0 16.1 0.00 0.00 0.00 1001.4
20260507031455 -17 225 8.0 16.1 0.00 0.00 0.00 1001.3
20260507031435 -17 225 6.4 16.1 0.00 0.00 0.00 1001.3
20260507031426 -17 270 6.4 16.1 0.00 0.00 0.00 1001.3
20260507031415 -17 248 6.4 16.1 0.00 0.00 0.00 1001.3
20260507031355 -17 225 6.4 16.1 0.00 0.00 0.00 1001.3
20260507031345 -17 225 6.4 16.1 0.00 0.00 0.00 1001.4
20260507031325 -17 225 8.0 16.1 0.00 0.00 0.00 1001.3
20260507031255 -17 225 9.7 16.1 0.00 0.00 0.00 1001.3
20260507031245 -17 270 9.7 16.1 0.00 0.00 0.00 1001.3
20260507031215 -17 225 9.7 16.1 0.00 0.00 0.00 1001.3
20260507031145 -17 225 9.7 16.1 0.00 0.00 0.00 1001.4
20260507031135 -17 225 9.7 16.1 0.00 0.00 0.00 1001.3
20260507031105 -17 225 8.0 16.1 0.00 0.00 0.00 1001.3
20260507031055 -17 248 6.4 16.1 0.00 0.00 0.00 1001.3
20260507031046 -17 225 6.4 16.1 0.00 0.00 0.00 1001.3
20260507031035 -17 225 8.0 16.1 0.00 0.00 0.00 1001.4
20260507031025 -17 225 8.0 16.1 0.00 0.00 0.00 1001.3
20260507030955 -17 225 9.7 16.1 0.00 0.00 0.00 1001.3
20260507030915 -17 225 9.7 16.1 0.00 0.00 0.00 1001.3
20260507030855 -17 270 9.7 16.1 0.00 0.00 0.00 1001.4
20260507030836 -17 248 9.7 16.1 0.00 0.00 0.00 1001.3
20260507030806 -17 225 9.7 14.5 0.00 0.00 0.00 1001.3
20260507030746 -17 225 9.7 14.5 0.00 0.00 0.00 1001.4
20260507030726 -17 248 9.7 14.5 0.00 0.00 0.00 1001.3
20260507030646 -17 225 9.7 14.5 0.00 0.00 0.00 1001.3
20260507030636 -17 225 9.7 14.5 0.00 0.00 0.00 1001.4
20260507030626 -17 225 9.7 12.9 0.00 0.00 0.00 1001.4
20260507030606 -17 248 9.7 12.9 0.00 0.00 0.00 1001.3
20260507030556 -17 270 9.7 12.9 0.00 0.00 0.00 1001.3
20260507030546 -17 225 9.7 12.9 0.00 0.00 0.00 1001.4
20260507030526 -17 225 9.7 14.5 0.00 0.00 0.00 1001.4
20260507030516 -17 225 9.7 14.5 0.00 0.00 0.00 1001.3
20260507030506 -17 248 9.7 14.5 0.00 0.00 0.00 1001.3
20260507030456 -17 225 8.0 14.5 0.00 0.00 0.00 1001.4
20260507030426 -17 225 8.0 14.5 0.00 0.00 0.00 1001.3
20260507030416 -17 225 8.0 14.5 0.00 0.00 0.00 1001.4
20260507030356 -17 225 9.7 14.5 0.00 0.00 0.00 1001.4
20260507030336 -17 225 9.7 14.5 0.00 0.00 0.00 1001.3
20260507030326 -17 270 9.7 14.5 0.00 0.00 0.00 1001.4
20260507030316 -17 225 8.0 14.5 0.00 0.00 0.00
20260507030306 -17 225 8.0 14.5 0.00 0.00 0.00 1001.4
20260507030256 -17 225 9.7 14.5 0.00 0.00 0.00 1001.4
20260507030246 -17 270 9.7 14.5 0.00 0.00 0.00 1001.3
20260507030236 -17 225 9.7 14.5 0.00 0.00 0.00 1001.3
20260507030216 -17 225 9.7 14.5 0.00 0.00 0.00 1001.4
20260507030206 -17 225 8.0 14.5 0.00 0.00 0.00 1001.4
20260507030146 -17 225 8.0 14.5 0.00 0.00 0.00 1001.3
20260507030117 -17 270 9.7 14.5 0.00 0.00 0.00 1001.4
20260507030107 -17 225 9.7 14.5 0.00 0.00 0.00 1001.3
20260507030047 -17 225 9.7 14.5 0.00 0.00 0.00 1001.4
20260507030017 -17 225 8.0 12.9 0.00 0.00 0.00 1001.4
20260507030007 -17 225 8.0 12.9 0.00 0.00 0.00 1001.3
20260507025957 -17 270 8.0 12.9 0.00 0.00 0.00 1001.3
20260507025947 -17 270 6.4 12.9 0.00 0.00 0.00 1001.4
20260507025907 -17 225 6.4 12.9 0.00 0.00 0.00 1001.4
20260507025847 -17 225 6.4 12.9 0.00 0.00 0.00 1001.3
20260507025817 -17 225 6.4 12.9 0.00 0.00 0.00 1001.4
20260507025737 -17 225 6.4 14.5 0.00 0.00 0.00 1001.4
20260507025717 -17 225 8.0 14.5 0.00 0.00 0.00 1001.4
20260507025647 -17 225 9.7 14.5 0.00 0.00 0.00 1001.4
20260507025627 -17 0 9.7 14.5 0.00 0.00 0.00 1001.3
20260507025607 -17 225 9.7 14.5 0.00 0.00 0.00 1001.4
20260507025527 -17 225 9.7 14.5 0.00 0.00 0.00 1001.4
20260507025507 -17 270 9.7 14.5 0.00 0.00 0.00 1001.4
20260507025447 -17 225 9.7 14.5 0.00 0.00 0.00 1001.4
20260507025437 -17 248 9.7 14.5 0.00 0.00 0.00 1001.4
20260507025427 -17 225 9.7 14.5 0.00 0.00 0.00 1001.3
20260507025407 -17 225 9.7 14.5 0.00 0.00 0.00 1001.4
20260507025358 -17 248 9.7 14.5 0.00 0.00 0.00 1001.4
20260507025347 -17 248 9.7 14.5 0.00 0.00 0.00 1001.3
20260507025337 -17 270 11.3 14.5 0.00 0.00 0.00 1001.3
20260507025328 -17 225 11.3 14.5 0.00 0.00 0.00 1001.4
20260507025308 -17 270 9.7 14.5 0.00 0.00 0.00 1001.3
20260507025248 -17 225 9.7 14.5 0.00 0.00 0.00 1001.4
20260507025228 -17 225 9.7 14.5 0.00 0.00 0.00 1001.3
20260507025208 -17 225 9.7 14.5 0.00 0.00 0.00 1001.4
20260507025158 -17 0 9.7 14.5 0.00 0.00 0.00 1001.3
20260507025148 -17 225 9.7 14.5 0.00 0.00 0.00 1001.3
20260507025138 -17 248 9.7 14.5 0.00 0.00 0.00 1001.4
20260507025128 -17 225 9.7 14.5 0.00 0.00 0.00 1001.4
20260507025108 -17 270 9.7 14.5 0.00 0.00 0.00 1001.4
20260507025058 -17 270 9.7 14.5 0.00 0.00 0.00 1001.3
20260507025048 -17 225 9.7 14.5 0.00 0.00 0.00 1001.4
20260507025018 -17 225 9.7 14.5 0.00 0.00 0.00 1001.3
20260507025008 -17 225 9.7 14.5 0.00 0.00 0.00 1001.4
20260507024958 -17 225 9.7 12.9 0.00 0.00 0.00 1001.3
20260507024948 -17 270 9.7 12.9 0.00 0.00 0.00 1001.3
20260507024938 -17 225 9.7 12.9 0.00 0.00 0.00 1001.4
20260507024928 -17 248 9.7 12.9 0.00 0.00 0.00 1001.4
20260507024918 -17 270 9.7 12.9 0.00 0.00 0.00 1001.4
20260507024858 -17 270 9.7 12.9 0.00 0.00 0.00 1001.3
20260507024848 -17 225 9.7 12.9 0.00 0.00 0.00 1001.4
20260507024838 -17 225 9.7 12.9 0.00 0.00 0.00 1001.3
20260507024818 -17 225 8.0 12.9 0.00 0.00 0.00 1001.3
20260507024808 -17 270 8.0 12.9 0.00 0.00 0.00 1001.3
20260507024758 -17 225 6.4 12.9 0.00 0.00 0.00 1001.4
20260507024718 -17 225 6.4 12.9 0.00 0.00 0.00 1001.3
20260507024658 -17 225 8.0 12.9 0.00 0.00 0.00 1001.3
20260507024648 -17 225 9.7 12.9 0.00 0.00 0.00 1001.3
20260507024628 -17 225 9.7 12.9 0.00 0.00 0.00 1001.4
20260507024608 -17 225 9.7 12.9 0.00 0.00 0.00 1001.3
20260507024559 -17 225 8.0 12.9 0.00 0.00 0.00 1001.3
20260507024549 -17 225 8.0 11.3 0.00 0.00 0.00 1001.4
20260507024539 -17 225 8.0 11.3 0.00 0.00 0.00 1001.3
20260507024509 -17 225 6.4 11.3 0.00 0.00 0.00 1001.3
20260507024459 -17 225 4.8 11.3 0.00 0.00 0.00 1001.3
20260507024449 -17 225 4.8 11.3 0.00 0.00 0.00 1001.4
20260507024419 -17 225 4.8 11.3 0.00 0.00 0.00 1001.3
20260507024339 -17 225 4.8 11.3 0.00 0.00 0.00 1001.3
20260507024309 -17 225 3.2 11.3 0.00 0.00 0.00 1001.3
20260507024259 -17 225 3.2 11.3 0.00 0.00 0.00 1001.4
20260507024249 -17 203 3.2 11.3 0.00 0.00 0.00 1001.3
20260507024219 -17 225 3.2 11.3 0.00 0.00 0.00 1001.3
20260507024149 -17 225 4.8 11.3 0.00 0.00 0.00 1001.3
20260507024109 -17 225 4.8 11.3 0.00 0.00 0.00 1001.3
20260507024039 -17 225 6.4 11.3 0.00 0.00 0.00 1001.3
20260507024019 -17 225 4.8 11.3 0.00 0.00 0.00 1001.3
20260507023959 -17 225 6.4 11.3 0.00 0.00 0.00 1001.3
20260507023949 -17 225 6.4 11.3 0.00 0.00 0.00 1001.2
20260507023939 -17 225 4.8 11.3 0.00 0.00 0.00 1001.2
20260507023909 -17 225 6.4 11.3 0.00 0.00 0.00 1001.2
20260507023900 -17 225 4.8 11.3 0.00 0.00 0.00 1001.2
20260507023850 -17 225 6.4 11.3 0.00 0.00 0.00 1001.3
20260507023839 -17 225 4.8 11.3 0.00 0.00 0.00 1001.3
20260507023820 -17 225 4.8 11.3 0.00 0.00 0.00 1001.2
20260507023800 -17 225 4.8 11.3 0.00 0.00 0.00 1001.3
20260507023720 -17 225 4.8 9.7 0.00 0.00 0.00 1001.3
20260507023710 -17 225 3.2 9.7 0.00 0.00 0.00 1001.2
20260507023650 -17 225 3.2 8.0 0.00 0.00 0.00 1001.3
20260507023630 -17 225 3.2 6.4 0.00 0.00 0.00 1001.3
20260507023550 -17 225 3.2 6.4 0.00 0.00 0.00 1001.3
20260507023540 -17 225 3.2 6.4 0.00 0.00 0.00 1001.2
20260507023500 -17 225 3.2 6.4 0.00 0.00 0.00 1001.3
20260507023430 -17 225 3.2 4.8 0.00 0.00 0.00 1001.3
20260507023410 -17 203 1.6 6.4 0.00 0.00 0.00 1001.2
20260507023400 -17 225 3.2 6.4 0.00 0.00 0.00 1001.3
20260507023340 -17 225 1.6 8.0 0.00 0.00 0.00 1001.2
20260507023310 -17 225 1.6 8.0 0.00 0.00 0.00 1001.3
20260507023250 -17 225 1.6 8.0 0.00 0.00 0.00 1001.2
20260507023240 -17 180 1.6 8.0 0.00 0.00 0.00 1001.3
20260507023210 -17 225 3.2 8.0 0.00 0.00 0.00 1001.2
20260507023200 -17 203 1.6 8.0 0.00 0.00 0.00 1001.2
20260507023150 -17 225 1.6 8.0 0.00 0.00 0.00 1001.2
20260507023140 -17 180 1.6 8.0 0.00 0.00 0.00 1001.2
20260507023130 -17 180 0.0 8.0 0.00 0.00 0.00 1001.2
20260507023121 -17 225 0.0 8.0 0.00 0.00 0.00 1001.2
20260507023110 -17 225 1.6 8.0 0.00 0.00 0.00 1001.3
20260507023051 -17 203 1.6 8.0 0.00 0.00 0.00 1001.2
20260507023041 -17 225 1.6 8.0 0.00 0.00 0.00 1001.2
20260507023031 -17 225 3.2 8.0 0.00 0.00 0.00 1001.2
20260507022951 -17 225 3.2 8.0 0.00 0.00 0.00 1001.2
20260507022941 -17 225 4.8 8.0 0.00 0.00 0.00 1001.2
20260507022901 -17 225 4.8 8.0 0.00 0.00 0.00 1001.2
20260507022851 -17 225 3.2 9.7 0.00 0.00 0.00 1001.2
20260507022811 -17 225 3.2 9.7 0.00 0.00 0.00 1001.2
20260507022731 -17 225 3.2 9.7 0.00 0.00 0.00 1001.2
20260507022651 -17 225 4.8 9.7 0.00 0.00 0.00 1001.2
20260507022631 -17 225 6.4 9.7 0.00 0.00 0.00 1001.2
20260507022621 -17 225 4.8 9.7 0.00 0.00 0.00 1001.3
20260507022601 -17 225 6.4 9.7 0.00 0.00 0.00 1001.3
20260507022531 -17 225 6.4 9.7 0.00 0.00 0.00 1001.2
20260507022511 -17 225 6.4 9.7 0.00 0.00 0.00 1001.3
20260507022451 -17 225 6.4 9.7 0.00 0.00 0.00 1001.2
20260507022422 -17 225 6.4 9.7 0.00 0.00 0.00 1001.3
20260507022401 -17 225 6.4 9.7 0.00 0.00 0.00 1001.2
20260507022352 -17 225 6.4 8.0 0.00 0.00 0.00 1001.2
20260507022341 -17 225 4.8 8.0 0.00 0.00 0.00 1001.3
20260507022332 -17 225 3.2 8.0 0.00 0.00 0.00 1001.2
20260507022312 -17 225 3.2 8.0 0.00 0.00 0.00 1001.3
20260507022302 -17 225 3.2 9.7 0.00 0.00 0.00 1001.3
20260507022222 -17 225 3.2 11.3 0.00 0.00 0.00 1001.3
20260507022202 -17 225 3.2 11.3 0.00 0.00 0.00 1001.2
20260507022142 -17 225 3.2 11.3 0.00 0.00 0.00 1001.3
20260507022122 -17 225 3.2 11.3 0.00 0.00 0.00 1001.2
20260507022112 -17 225 1.6 11.3 0.00 0.00 0.00 1001.2
20260507022042 -17 225 3.2 11.3 0.00 0.00 0.00 1001.2
20260507022022 -17 225 3.2 11.3 0.00 0.00 0.00 1001.3
20260507022002 -17 225 3.2 11.3 0.00 0.00 0.00 1001.2
20260507021932 -17 225 3.2 11.3 0.00 0.00 0.00 1001.3
20260507021922 -17 203 3.2 12.9 0.00 0.00 0.00 1001.3
20260507021902 -17 225 3.2 12.9 0.00 0.00 0.00 1001.3
20260507021842 -17 225 4.8 12.9 0.00 0.00 0.00 1001.3
20260507021832 -17 203 4.8 12.9 0.00 0.00 0.00 1001.3
20260507021802 -17 225 4.8 12.9 0.00 0.00 0.00 1001.3
20260507021732 -17 225 3.2 12.9 0.00 0.00 0.00 1001.3
20260507021652 -17 225 3.2 12.9 0.00 0.00 0.00 1001.3
20260507021622 -17 225 3.2 12.9 0.00 0.00 0.00 1001.2
20260507021613 -17 225 3.2 12.9 0.00 0.00 0.00 1001.3
20260507021553 -17 180 3.2 12.9 0.00 0.00 0.00 1001.3
20260507021533 -17 225 3.2 12.9 0.00 0.00 0.00 1001.3
20260507021523 -17 225 4.8 12.9 0.00 0.00 0.00 1001.2
20260507021503 -17 225 6.4 12.9 0.00 0.00 0.00 1001.2
20260507021453 -17 225 6.4 12.9 0.00 0.00 0.00 1001.3
20260507021433 -17 225 8.0 12.9 0.00 0.00 0.00 1001.3
20260507021423 -17 270 6.4 12.9 0.00 0.00 0.00 1001.3
20260507021413 -17 270 6.4 11.3 0.00 0.00 0.00 1001.3
20260507021404 -17 225 4.8 11.3 0.00 0.00 0.00 1001.3
20260507021353 -17 270 3.2 11.3 0.00 0.00 0.00 1001.2
20260507021323 -17 225 3.2 8.0 0.00 0.00 0.00 1001.3
20260507021313 -17 225 3.2 8.0 0.00 0.00 0.00 1001.2
20260507021303 -17 225 4.8 11.3 0.00 0.00 0.00 1001.3
20260507021223 -17 225 4.8 12.9 0.00 0.00 0.00 1001.3
20260507021213 -17 225 4.8 12.9 0.00 0.00 0.00 1001.2
20260507021133 -17 225 4.8 12.9 0.00 0.00 0.00 1001.2
20260507021123 -17 225 4.8 12.9 0.00 0.00 0.00 1001.3
20260507021103 -17 225 3.2 12.9 0.00 0.00 0.00 1001.2
20260507021043 -17 225 3.2 12.9 0.00 0.00 0.00 1001.3
20260507021023 -17 225 3.2 12.9 0.00 0.00 0.00 1001.2
20260507021013 -17 180 3.2 12.9 0.00 0.00 0.00 1001.2
20260507021003 -17 225 3.2 12.9 0.00 0.00 0.00 1001.3
20260507020923 -17 225 3.2 12.9 0.00 0.00 0.00 1001.2
20260507020914 -17 225 4.8 12.9 0.00 0.00 0.00 1001.2
20260507020903 -17 225 6.4 12.9 0.00 0.00 0.00 1001.2
20260507020824 -17 225 6.4 12.9 0.00 0.00 0.00 1001.2
20260507020814 -17 270 6.4 12.9 0.00 0.00 0.00 1001.2
20260507020754 -17 225 4.8 12.9 0.00 0.00 0.00 1001.2
20260507020734 -17 225 3.2 12.9 0.00 0.00 0.00 1001.2
20260507020714 -17 135 4.8 12.9 0.00 0.00 0.00 1001.2
20260507020704 -17 225 4.8 12.9 0.00 0.00 0.00 1001.2
20260507020644 -17 225 6.4 12.9 0.00 0.00 0.00 1001.1
20260507020624 -17 225 6.4 12.9 0.00 0.00 0.00 1001.2
20260507020614 -17 225 8.0 12.9 0.00 0.00 0.00 1001.1
20260507020554 -17 225 8.0 12.9 0.00 0.00 0.00 1001.2
20260507020534 -17 225 6.4 12.9 0.00 0.00 0.00 1001.2
20260507020504 -17 225 6.4 14.5 0.00 0.00 0.00 1001.2
20260507020454 -17 225 8.0 14.5 0.00 0.00 0.00 1001.2
20260507020444 -17 225 9.7 14.5 0.00 0.00 0.00 1001.2
20260507020404 -17 225 9.7 14.5 0.00 0.00 0.00 1001.2
20260507020354 -17 248 9.7 14.5 0.00 0.00 0.00 1001.2
20260507020344 -17 225 9.7 14.5 0.00 0.00 0.00 1001.1
20260507020304 -17 225 9.7 14.5 0.00 0.00 0.00 1001.2
20260507020224 -17 225 8.0 14.5 0.00 0.00 0.00 1001.2
20260507020145 -17 225 8.0 14.5 0.00 0.00 0.00 1001.2
20260507020115 -17 225 9.7 14.5 0.00 0.00 0.00 1001.2
20260507020105 -17 225 8.0 14.5 0.00 0.00 0.00 1001.2
20260507020035 -17 225 9.7 14.5 0.00 0.00 0.00 1001.2
20260507020025 -17 225 8.0 14.5 0.00 0.00 0.00 1001.2
20260507020005 -17 270 8.0 16.1 0.00 0.00 0.00 1001.1
20260507015945 -17 225 8.0 16.1 0.00 0.00 0.00 1001.2
20260507015925 -17 225 9.7 16.1 0.00 0.00 0.00 1001.2
20260507015905 -17 225 8.0 16.1 0.00 0.00 0.00 1001.2
20260507015835 -17 225 8.0 16.1 0.00 0.00 0.00 1001.1
20260507015825 -17 225 8.0 16.1 0.00 0.00 0.00 1001.2
20260507015805 -17 225 9.7 16.1 0.00 0.00 0.00 1001.2
20260507015755 -17 225 9.7 17.7 0.00 0.00 0.00 1001.2
20260507015725 -17 225 9.7 17.7 0.00 0.00 0.00 1001.1
20260507015705 -17 225 8.0 17.7 0.00 0.00 0.00 1001.2
20260507015655 -17 225 8.0 17.7 0.00 0.00 0.00 1001.1
20260507015635 11 225 8.0 17.7 0.00 0.00 0.00 80 1001.1
20260507015625 -17 225 8.0 17.7 0.00 0.00 0.00 1001.2
20260507015615 -17 225 9.7 17.7 0.00 0.00 0.00 1001.2
20260507015555 -17 270 9.7 17.7 0.00 0.00 0.00 1001.1
20260507015545 -17 225 9.7 17.7 0.00 0.00 0.00 1001.1
20260507015535 -17 225 9.7 17.7 0.00 0.00 0.00 1001.2
20260507015455 -17 225 9.7 17.7 0.00 0.00 0.00 1001.1
20260507015445 -17 225 8.0 17.7 0.00 0.00 0.00 1001.1
20260507015436 -17 225 8.0 19.3 0.00 0.00 0.00 1001.1
20260507015426 -17 225 9.7 19.3 0.00 0.00 0.00 1001.2
20260507015416 -17 225 9.7 19.3 0.00 0.00 0.00 1001.1
20260507015406 -17 270 9.7 19.3 0.00 0.00 0.00 1001.1
20260507015336 -17 225 11.3 19.3 0.00 0.00 0.00 1001.1
20260507015326 -17 225 9.7 19.3 0.00 0.00 0.00 1001.1
20260507015256 -17 225 11.3 19.3 0.00 0.00 0.00 1001.1
20260507015246 -17 270 11.3 19.3 0.00 0.00 0.00 1001.0
20260507015236 -17 180 11.3 19.3 0.00 0.00 0.00 1001.1
20260507015206 -17 225 12.9 19.3 0.00 0.00 0.00 1001.1
20260507015136 -17 225 11.3 19.3 0.00 0.00 0.00 1001.0
20260507015126 -17 225 11.3 19.3 0.00 0.00 0.00 1001.1
20260507015116 -17 248 9.7 19.3 0.00 0.00 0.00 1001.1
20260507015106 -17 225 9.7 19.3 0.00 0.00 0.00 1001.1
20260507015036 -17 225 11.3 19.3 0.00 0.00 0.00 1001.1
20260507015006 -17 225 12.9 19.3 0.00 0.00 0.00 1001.1
20260507014956 -17 225 12.9 19.3 0.00 0.00 0.00 1001.0
20260507014946 -17 225 11.3 19.3 0.00 0.00 0.00 1001.0
20260507014926 -17 225 9.7 19.3 0.00 0.00 0.00 1001.0
20260507014916 -17 225 9.7 19.3 0.00 0.00 0.00 1001.1
20260507014856 -17 225 11.3 19.3 0.00 0.00 0.00 1001.0
20260507014846 -17 225 11.3 19.3 0.00 0.00 0.00 1001.1
20260507014836 -17 248 12.9 19.3 0.00 0.00 0.00 1001.1
20260507014816 -17 270 11.3 19.3 0.00 0.00 0.00 1001.1
20260507014757 -17 225 11.3 19.3 0.00 0.00 0.00 1001.1
20260507014727 -17 225 11.3 19.3 0.00 0.00 0.00 1001.0
20260507014707 -17 225 11.3 19.3 0.00 0.00 0.00 1001.1
20260507014647 -17 270 11.3 19.3 0.00 0.00 0.00 1001.0
20260507014637 -17 225 11.3 19.3 0.00 0.00 0.00 1001.0
20260507014627 -17 225 9.7 19.3 0.00 0.00 0.00 1001.1
20260507014617 -17 225 9.7 19.3 0.00 0.00 0.00 1001.0
20260507014607 -17 270 9.7 19.3 0.00 0.00 0.00 1001.0
20260507014557 -17 248 9.7 19.3 0.00 0.00 0.00 1001.0
20260507014537 -17 225 9.7 19.3 0.00 0.00 0.00 1000.9
20260507014527 -17 225 9.7 19.3 0.00 0.00 0.00 1001.0
20260507014507 -17 225 11.3 19.3 0.00 0.00 0.00 1001.0
20260507014437 -17 225 12.9 19.3 0.00 0.00 0.00 1001.0
20260507014417 -17 225 14.5 20.9 0.00 0.00 0.00 1001.0
20260507014357 -17 225 12.9 20.9 0.00 0.00 0.00 1001.0
20260507014347 -17 225 12.9 20.9 0.00 0.00 0.00 1000.9
20260507014317 -17 225 11.3 20.9 0.00 0.00 0.00 1001.0
20260507014307 -17 248 11.3 20.9 0.00 0.00 0.00 1001.0
20260507014247 -17 225 11.3 20.9 0.00 0.00 0.00 1000.9
20260507014237 -17 225 12.9 20.9 0.00 0.00 0.00 1001.0
20260507014207 -17 225 11.3 20.9 0.00 0.00 0.00 1001.0
20260507014157 -17 225 12.9 20.9 0.00 0.00 0.00 1001.0
20260507014137 -17 225 12.9 20.9 0.00 0.00 0.00 1000.9
20260507014117 -17 225 12.9 20.9 0.00 0.00 0.00 1001.0
20260507014038 -17 225 12.9 20.9 0.00 0.00 0.00 1001.0
20260507014018 -17 270 12.9 22.5 0.00 0.00 0.00 1001.0
20260507014008 -17 225 12.9 22.5 0.00 0.00 0.00 1001.0
20260507013958 -17 225 14.5 22.5 0.00 0.00 0.00 1001.0
20260507013948 -17 225 14.5 24.1 0.00 0.00 0.00 1000.9
20260507013938 -17 225 14.5 25.7 0.00 0.00 0.00 1000.9
20260507013928 -17 270 12.9 25.7 0.00 0.00 0.00 1001.0
20260507013908 -17 270 12.9 25.7 0.00 0.00 0.00 1000.9
20260507013858 -17 225 12.9 25.7 0.00 0.00 0.00 1000.9
20260507013828 -17 225 12.9 25.7 0.00 0.00 0.00 1001.0
20260507013818 -17 225 12.9 25.7 0.00 0.00 0.00 1000.9
20260507013808 -17 225 14.5 25.7 0.00 0.00 0.00 1000.9
20260507013758 -17 270 14.5 25.7 0.00 0.00 0.00 1001.0
20260507013738 -17 225 14.5 25.7 0.00 0.00 0.00 1001.0
20260507013728 -17 270 12.9 25.7 0.00 0.00 0.00 1001.0
20260507013718 -17 225 12.9 25.7 0.00 0.00 0.00 1000.9
20260507013658 -17 248 12.9 25.7 0.00 0.00 0.00 1001.0
20260507013648 -17 270 12.9 25.7 0.00 0.00 0.00 1000.9
20260507013638 -17 225 12.9 25.7 0.00 0.00 0.00 1001.0
20260507013628 -17 225 12.9 25.7 0.00 0.00 0.00 1000.9
20260507013618 -17 225 14.5 25.7 0.00 0.00 0.00 1001.0
20260507013608 -17 248 14.5 25.7 0.00 0.00 0.00 1001.0
20260507013558 -17 225 16.1 25.7 0.00 0.00 0.00 1001.0
20260507013548 -17 225 16.1 25.7 0.00 0.00 0.00 1000.9
20260507013538 -17 248 16.1 25.7 0.00 0.00 0.00 1001.0
20260507013528 -17 270 16.1 25.7 0.00 0.00 0.00 1001.0
20260507013458 -17 225 16.1 25.7 0.00 0.00 0.00 1001.0
20260507013448 -17 225 16.1 25.7 0.00 0.00 0.00 1000.9
20260507013438 -17 270 16.1 24.1 0.00 0.00 0.00 1000.9
20260507013359 -17 225 14.5 22.5 0.00 0.00 0.00 1000.9
20260507013348 -17 270 12.9 25.7 0.00 0.00 0.00 1000.9
20260507013339 -17 225 12.9 25.7 0.00 0.00 0.00 1000.9
20260507013259 -17 225 12.9 25.7 0.00 0.00 0.00 1000.9
20260507013249 -17 225 14.5 25.7 0.00 0.00 0.00 1000.9
20260507013239 -17 248 14.5 25.7 0.00 0.00 0.00 1000.9
20260507013229 -17 225 16.1 25.7 0.00 0.00 0.00 1000.9
20260507013149 -17 225 16.1 25.7 0.00 0.00 0.00 1001.0
20260507013139 -17 270 16.1 25.7 0.00 0.00 0.00 1000.9
20260507013109 -17 225 16.1 25.7 0.00 0.00 0.00 1000.9
20260507013059 -17 248 17.7 25.7 0.00 0.00 0.00 1001.0
20260507013049 -17 270 17.7 25.7 0.00 0.00 0.00 1000.8
20260507013039 -17 248 17.7 25.7 0.00 0.00 0.00
20260507013019 -17 225 16.1 25.7 0.00 0.00 0.00 1000.9
20260507013009 -17 248 16.1 25.7 0.00 0.00 0.00 1001.0
20260507012949 -17 225 16.1 25.7 0.00 0.00 0.00 1001.0
20260507012939 -17 225 16.1 25.7 0.00 0.00 0.00 1000.9
20260507012919 -17 225 17.7 25.7 0.00 0.00 0.00 1000.9
20260507012859 -17 270 17.7 25.7 0.00 0.00 0.00 1000.9
20260507012849 -17 270 17.7 24.1 0.00 0.00 0.00 1000.9
20260507012839 -17 225 16.1 22.5 0.00 0.00 0.00 1000.9
20260507012819 -17 270 16.1 22.5 0.00 0.00 0.00 1000.9
20260507012809 -17 270 14.5 22.5 0.00 0.00 0.00 1000.9
20260507012749 -17 225 12.9 22.5 0.00 0.00 0.00 1000.9
20260507012739 -17 225 12.9 22.5 0.00 0.00 0.00 1001.0
20260507012729 -17 270 12.9 22.5 0.00 0.00 0.00 1001.0
20260507012719 -17 248 12.9 22.5 0.00 0.00 0.00 1001.0
20260507012709 -17 225 14.5 22.5 0.00 0.00 0.00 1000.9
20260507012659 -17 225 16.1 22.5 0.00 0.00 0.00 1000.9
20260507012649 -17 225 16.1 22.5 0.00 0.00 0.00 1001.0
20260507012620 -17 248 16.1 22.5 0.00 0.00 0.00 1000.9
20260507012610 -17 225 16.1 22.5 0.00 0.00 0.00 1001.0
20260507012530 -17 225 16.1 22.5 0.00 0.00 0.00 1001.0
20260507012510 -17 248 16.1 22.5 0.00 0.00 0.00 1001.0
20260507012500 -17 270 16.1 22.5 0.00 0.00 0.00 1001.0
20260507012450 -17 270 14.5 22.5 0.00 0.00 0.00 1001.0
20260507012430 -17 225 14.5 22.5 0.00 0.00 0.00 1001.0
20260507012420 -17 225 12.9 22.5 0.00 0.00 0.00 1000.9
20260507012400 -17 225 12.9 22.5 0.00 0.00 0.00 1001.0
20260507012350 -17 225 14.5 22.5 0.00 0.00 0.00 1000.9
20260507012340 -17 270 14.5 22.5 0.00 0.00 0.00 1001.0
20260507012330 -17 248 14.5 22.5 0.00 0.00 0.00 1000.9
20260507012310 -17 270 12.9 22.5 0.00 0.00 0.00 1000.9
20260507012250 -17 225 12.9 22.5 0.00 0.00 0.00 1000.9
20260507012220 -17 270 12.9 22.5 0.00 0.00 0.00 1000.9
20260507012210 -17 225 12.9 22.5 0.00 0.00 0.00 1001.0
20260507012200 -17 225 12.9 22.5 0.00 0.00 0.00 1000.9
20260507012150 -17 225 14.5 22.5 0.00 0.00 0.00 1001.0
20260507012140 -17 248 14.5 22.5 0.00 0.00 0.00 1001.0
20260507012130 -17 270 14.5 22.5 0.00 0.00 0.00 1000.9
20260507012110 -17 248 16.1 22.5 0.00 0.00 0.00 1000.9
20260507012100 -17 270 16.1 22.5 0.00 0.00 0.00 1001.0
20260507012050 -17 225 14.5 22.5 0.00 0.00 0.00 1000.9
20260507012040 11 225 14.5 22.5 0.00 0.00 0.00 79 1000.9
20260507012030 -17 270 12.9 22.5 0.00 0.00 0.00 1000.9
20260507012020 -17 225 12.9 22.5 0.00 0.00 0.00 1000.9
20260507012010 -17 225 11.3 22.5 0.00 0.00 0.00 1000.9
20260507012000 -17 248 11.3 22.5 0.00 0.00 0.00 1000.9
20260507011940 -17 225 12.9 22.5 0.00 0.00 0.00 1001.0
20260507011920 -17 225 12.9 22.5 0.00 0.00 0.00 1000.9
20260507011911 -17 270 12.9 22.5 0.00 0.00 0.00 1000.8
20260507011901 -17 248 12.9 22.5 0.00 0.00 0.00 1000.9
20260507011831 -17 270 12.9 22.5 0.00 0.00 0.00 1000.9
20260507011821 -17 248 12.9 22.5 0.00 0.00 0.00 1000.9
20260507011811 -17 225 14.5 22.5 0.00 0.00 0.00 1000.9
20260507011801 -17 248 14.5 22.5 0.00 0.00 0.00 1000.9
20260507011741 -17 270 14.5 22.5 0.00 0.00 0.00 1000.9
20260507011731 -17 225 14.5 22.5 0.00 0.00 0.00 1000.9
20260507011721 -17 248 12.9 22.5 0.00 0.00 0.00 1000.9
20260507011711 -17 270 12.9 17.7 0.00 0.00 0.00 1000.9
20260507011701 -17 225 12.9 17.7 0.00 0.00 0.00 1000.9
20260507011631 -17 270 11.3 17.7 0.00 0.00 0.00 1000.9
20260507011611 -17 225 11.3 17.7 0.00 0.00 0.00 1000.9
20260507011551 -17 270 9.7 17.7 0.00 0.00 0.00 1000.8
20260507011531 -17 270 9.7 17.7 0.00 0.00 0.00 1000.9
20260507011521 -17 225 9.7 17.7 0.00 0.00 0.00 1000.8
20260507011511 -17 270 8.0 16.1 0.00 0.00 0.00 1000.9
20260507011501 -17 270 6.4 16.1 0.00 0.00 0.00 1000.9
20260507011441 -17 225 6.4 16.1 0.00 0.00 0.00 1000.9
20260507011431 -17 225 8.0 16.1 0.00 0.00 0.00 1000.9
20260507011421 -17 225 8.0 16.1 0.00 0.00 0.00 1000.8
20260507011411 -17 270 9.7 17.7 0.00 0.00 0.00 1000.9
20260507011401 -17 225 9.7 17.7 0.00 0.00 0.00 1000.8
20260507011341 -17 225 9.7 17.7 0.00 0.00 0.00 1000.9
20260507011331 -17 225 11.3 17.7 0.00 0.00 0.00 1000.8
20260507011311 -17 225 11.3 17.7 0.00 0.00 0.00 1000.9
20260507011251 -17 270 11.3 17.7 0.00 0.00 0.00 1000.9
20260507011241 -17 270 11.3 17.7 0.00 0.00 0.00 1000.8
20260507011231 -17 270 9.7 17.7 0.00 0.00 0.00 1000.9
20260507011152 -17 270 9.7 17.7 0.00 0.00 0.00 1000.9
20260507011142 -17 248 9.7 17.7 0.00 0.00 0.00 1000.9
20260507011102 -17 225 8.0 17.7 0.00 0.00 0.00 1000.8
20260507011022 -17 225 9.7 17.7 0.00 0.00 0.00 1000.8
20260507011012 -17 270 11.3 17.7 0.00 0.00 0.00 1000.8
20260507010932 -17 225 11.3 17.7 0.00 0.00 0.00 1000.8
20260507010922 -17 270 12.9 17.7 0.00 0.00 0.00 1000.9
20260507010912 -17 248 12.9 17.7 0.00 0.00 0.00 1000.9
20260507010842 -17 225 12.9 17.7 0.00 0.00 0.00 1000.9
20260507010832 -17 225 12.9 17.7 0.00 0.00 0.00 1000.8
20260507010822 -17 225 11.3 17.7 0.00 0.00 0.00 1000.8
20260507010812 -17 270 11.3 16.1 0.00 0.00 0.00
20260507010802 -17 225 11.3 16.1 0.00 0.00 0.00 1000.9
20260507010752 -17 225 9.7 16.1 0.00 0.00 0.00 1000.9
20260507010732 -17 248 9.7 16.1 0.00 0.00 0.00 1000.9
20260507010722 -17 225 9.7 16.1 0.00 0.00 0.00 1000.8
20260507010712 -17 270 9.7 16.1 0.00 0.00 0.00 1000.9
20260507010642 -17 225 9.7 16.1 0.00 0.00 0.00 1000.9
20260507010602 -17 225 9.7 16.1 0.00 0.00 0.00 1000.8
20260507010552 -17 225 9.7 16.1 0.00 0.00 0.00 1000.9
20260507010513 -17 225 9.7 14.5 0.00 0.00 0.00 1000.8
20260507010503 -17 225 9.7 14.5 0.00 0.00 0.00 1000.9
20260507010453 -17 225 9.7 17.7 0.00 0.00 0.00 1000.8
20260507010443 -17 225 9.7 17.7 0.00 0.00 0.00 1000.9
20260507010413 -17 270 9.7 17.7 0.00 0.00 0.00 1000.8
20260507010403 -17 225 9.7 17.7 0.00 0.00 0.00 1000.9
20260507010353 -17 225 9.7 17.7 0.00 0.00 0.00 1000.8
20260507010333 -17 270 9.7 17.7 0.00 0.00 0.00 1000.8
20260507010313 -17 248 9.7 17.7 0.00 0.00 0.00 1000.8
20260507010253 -17 225 9.7 17.7 0.00 0.00 0.00 1000.8
20260507010213 -17 270 9.7 17.7 0.00 0.00 0.00 1000.8
20260507010153 -17 225 9.7 17.7 0.00 0.00 0.00 1000.8
20260507010113 -17 225 9.7 17.7 0.00 0.00 0.00 1000.8
20260507010033 -17 225 9.7 17.7 0.00 0.00 0.00 1000.8
20260507010023 -17 225 11.3 17.7 0.00 0.00 0.00 1000.8
20260507010013 -17 225 12.9 17.7 0.00 0.00 0.00 1000.8
20260507010004 -17 248 12.9 17.7 0.00 0.00 0.00 1000.8
20260507005933 -17 225 12.9 17.7 0.00 0.00 0.00 1000.8
20260507005913 -17 248 11.3 17.7 0.00 0.00 0.00 1000.8
20260507005854 -17 225 12.9 17.7 0.00 0.00 0.00 1000.8
20260507005824 -17 270 12.9 17.7 0.00 0.00 0.00 1000.7
20260507005814 -17 225 12.9 17.7 0.00 0.00 0.00 1000.8
20260507005804 -17 270 12.9 17.7 0.00 0.00 0.00 1000.8
20260507005734 -17 225 12.9 19.3 0.00 0.00 0.00 1000.8
20260507005714 -17 248 12.9 19.3 0.00 0.00 0.00 1000.9
20260507005704 -17 270 12.9 19.3 0.00 0.00 0.00 1000.8
20260507005644 -17 248 12.9 19.3 0.00 0.00 0.00 1000.8
20260507005634 -17 225 12.9 19.3 0.00 0.00 0.00 1000.8
20260507005624 -17 225 12.9 19.3 0.00 0.00 0.00 1000.7
20260507005604 -17 270 12.9 19.3 0.00 0.00 0.00 1000.8
20260507005534 -17 248 12.9 19.3 0.00 0.00 0.00 1000.8
20260507005524 -17 270 12.9 19.3 0.00 0.00 0.00 1000.8
20260507005444 -17 270 12.9 19.3 0.00 0.00 0.00 1000.8
20260507005424 -17 225 11.3 19.3 0.00 0.00 0.00 1000.8
20260507005414 -17 270 11.3 19.3 0.00 0.00 0.00 1000.8
20260507005404 -17 270 12.9 19.3 0.00 0.00 0.00 1000.8
20260507005354 -17 225 12.9 19.3 0.00 0.00 0.00 1000.8
20260507005334 -17 225 12.9 19.3 0.00 0.00 0.00 1000.7
20260507005324 -17 270 12.9 19.3 0.00 0.00 0.00 1000.8
20260507005315 -17 248 12.9 19.3 0.00 0.00 0.00 1000.8
20260507005306 -17 225 12.9 19.3 0.00 0.00 0.00 1000.8
20260507005244 -17 248 12.9 19.3 0.00 0.00 0.00 1000.7
20260507005234 -17 270 12.9 19.3 0.00 0.00 0.00 1000.7
20260507005225 -17 225 12.9 19.3 0.00 0.00 0.00 1000.8
20260507005215 -17 270 12.9 19.3 0.00 0.00 0.00 1000.8
20260507005155 -17 270 12.9 19.3 0.00 0.00 0.00 1000.7
20260507005145 -17 225 12.9 19.3 0.00 0.00 0.00 1000.8
20260507005105 -17 225 12.9 19.3 0.00 0.00 0.00 1000.7
20260507005045 -17 225 12.9 19.3 0.00 0.00 0.00 1000.8
20260507005015 -17 270 11.3 17.7 0.00 0.00 0.00 1000.7
20260507005005 -17 270 11.3 17.7 0.00 0.00 0.00 1000.8
20260507004955 -17 225 11.3 17.7 0.00 0.00 0.00 1000.8
20260507004945 -17 0 12.9 17.7 0.00 0.00 0.00 1000.8
20260507004915 -17 225 12.9 17.7 0.00 0.00 0.00 1000.8
20260507004855 -17 248 12.9 17.7 0.00 0.00 0.00 1000.8
20260507004845 -17 270 12.9 17.7 0.00 0.00 0.00 1000.8
20260507004835 -17 225 11.3 17.7 0.00 0.00 0.00 1000.8
20260507004815 -17 225 11.3 17.7 0.00 0.00 0.00 1000.7
20260507004805 -17 270 9.7 17.7 0.00 0.00 0.00 1000.8
20260507004745 -17 225 9.7 17.7 0.00 0.00 0.00 1000.7
20260507004725 -17 270 9.7 17.7 0.00 0.00 0.00 1000.7
20260507004715 -17 225 9.7 17.7 0.00 0.00 0.00 1000.8
20260507004705 -17 225 11.3 17.7 0.00 0.00 0.00 1000.7
20260507004655 -17 248 9.7 17.7 0.00 0.00 0.00 1000.7
20260507004635 -17 225 9.7 17.7 0.00 0.00 0.00 1000.7
20260507004625 -17 225 9.7 17.7 0.00 0.00 0.00 1000.6
20260507004616 -17 270 9.7 17.7 0.00 0.00 0.00 1000.7
20260507004605 -17 248 9.7 17.7 0.00 0.00 0.00 1000.8
20260507004536 -17 225 9.7 17.7 0.00 0.00 0.00 1000.8
20260507004526 -17 225 9.7 17.7 0.00 0.00 0.00 1000.7
20260507004516 -17 225 11.3 17.7 0.00 0.00 0.00 1000.8
20260507004446 -17 225 12.9 17.7 0.00 0.00 0.00 1000.8
20260507004436 -17 225 12.9 17.7 0.00 0.00 0.00 1000.7
20260507004356 -17 225 12.9 17.7 0.00 0.00 0.00 1000.8
20260507004346 -17 248 12.9 17.7 0.00 0.00 0.00 1000.7
20260507004336 -17 225 12.9 17.7 0.00 0.00 0.00 1000.7
20260507004326 -17 225 12.9 17.7 0.00 0.00 0.00 1000.6
20260507004306 -17 248 12.9 17.7 0.00 0.00 0.00 1000.7
20260507004256 -17 248 12.9 17.7 0.00 0.00 0.00 1000.8
20260507004246 -17 225 12.9 17.7 0.00 0.00 0.00 1000.7
20260507004226 -17 225 11.3 17.7 0.00 0.00 0.00 1000.7
20260507004206 -17 270 11.3 17.7 0.00 0.00 0.00 1000.8
20260507004156 -17 270 11.3 17.7 0.00 0.00 0.00 1000.7
20260507004146 -17 225 11.3 17.7 0.00 0.00 0.00 1000.8
20260507004126 -17 225 12.9 17.7 0.00 0.00 0.00 1000.8
20260507004116 -17 225 12.9 17.7 0.00 0.00 0.00 1000.7
20260507004056 -17 225 11.3 16.1 0.00 0.00 0.00 1000.7
20260507004036 -17 225 11.3 16.1 0.00 0.00 0.00 1000.8
20260507004016 -17 270 9.7 16.1 0.00 0.00 0.00 1000.7
20260507003956 -17 225 11.3 16.1 0.00 0.00 0.00 1000.7
20260507003936 -17 248 11.3 16.1 0.00 0.00 0.00 1000.7
20260507003926 -17 270 11.3 16.1 0.00 0.00 0.00 1000.7
20260507003906 -17 225 11.3 16.1 0.00 0.00 0.00 1000.8
20260507003856 -17 225 11.3 16.1 0.00 0.00 0.00 1000.7
20260507003847 -17 248 11.3 16.1 0.00 0.00 0.00 1000.7
20260507003837 -17 225 9.7 16.1 0.00 0.00 0.00 1000.8
20260507003757 -17 270 9.7 17.7 0.00 0.00 0.00 1000.7
20260507003747 -17 248 9.7 17.7 0.00 0.00 0.00 1000.7
20260507003727 -17 225 9.7 20.9 0.00 0.00 0.00 1000.7
20260507003717 -17 270 9.7 22.5 0.00 0.00 0.00 1000.8
20260507003707 -17 270 9.7 22.5 0.00 0.00 0.00 1000.6
20260507003647 -17 270 9.7 22.5 0.00 0.00 0.00 1000.7
20260507003617 -17 270 9.7 22.5 0.00 0.00 0.00 1000.8
20260507003607 -17 225 9.7 22.5 0.00 0.00 0.00 1000.7
20260507003557 -17 248 11.3 22.5 0.00 0.00 0.00 1000.8
20260507003547 -17 270 11.3 22.5 0.00 0.00 0.00 1000.7
20260507003537 -17 270 9.7 22.5 0.00 0.00 0.00 1000.7
20260507003527 -17 248 9.7 22.5 0.00 0.00 0.00 1000.7
20260507003517 -17 225 9.7 22.5 0.00 0.00 0.00 1000.8
20260507003507 -17 270 9.7 22.5 0.00 0.00 0.00 1000.8
20260507003447 -17 270 9.7 22.5 0.00 0.00 0.00 1000.7
20260507003427 -17 225 11.3 22.5 0.00 0.00 0.00 1000.7
20260507003417 -17 225 12.9 22.5 0.00 0.00 0.00 1000.7
20260507003347 -17 225 12.9 22.5 0.00 0.00 0.00 1000.8
20260507003337 -17 248 14.5 22.5 0.00 0.00 0.00 1000.8
20260507003327 -17 225 14.5 22.5 0.00 0.00 0.00 1000.8
20260507003317 -17 225 14.5 22.5 0.00 0.00 0.00 1000.9
20260507003307 -17 270 16.1 22.5 0.00 0.00 0.00 1000.8
20260507003257 -17 225 16.1 22.5 0.00 0.00 0.00 1000.8
20260507003247 -17 225 17.7 22.5 0.00 0.00 0.00 1000.8
20260507003237 -17 248 17.7 22.5 0.00 0.00 0.00 1000.9
20260507003227 -17 248 16.1 22.5 0.00 0.00 0.00 1000.8
20260507003217 -17 225 16.1 22.5 0.00 0.00 0.00 1000.8
20260507003157 -17 225 14.5 22.5 0.00 0.00 0.00 1000.8
20260507003148 -17 225 12.9 22.5 0.00 0.00 0.00 1000.8
20260507003137 -17 225 12.9 20.9 0.00 0.00 0.00 1000.8
20260507003128 -17 270 12.9 20.9 0.00 0.00 0.00 1000.7
20260507003118 -17 270 12.9 20.9 0.00 0.00 0.00 1000.8
20260507003058 -17 225 12.9 20.9 0.00 0.00 0.00 1000.8
20260507003048 -17 270 12.9 20.9 0.00 0.00 0.00 1000.7
20260507003038 -17 270 12.9 20.9 0.00 0.00 0.00 1000.8
20260507003008 -17 225 12.9 20.9 0.00 0.00 0.00 1000.7
20260507002958 -17 225 11.3 20.9 0.00 0.00 0.00 1000.8
20260507002928 -17 225 11.3 20.9 0.00 0.00 0.00 1000.7
20260507002918 -17 248 11.3 20.9 0.00 0.00 0.00 1000.7
20260507002908 -17 270 11.3 20.9 0.00 0.00 0.00 1000.7
20260507002838 -17 248 12.9 20.9 0.00 0.00 0.00 1000.7
20260507002828 -17 225 12.9 20.9 0.00 0.00 0.00 1000.8
20260507002758 -17 270 12.9 20.9 0.00 0.00 0.00 1000.7
20260507002738 -17 225 12.9 20.9 0.00 0.00 0.00 1000.7
20260507002718 -17 225 14.5 20.9 0.00 0.00 0.00 1000.7
20260507002708 -17 270 12.9 20.9 0.00 0.00 0.00 1000.7
20260507002638 -17 225 14.5 20.9 0.00 0.00 0.00 1000.7
20260507002618 -17 270 14.5 20.9 0.00 0.00 0.00 1000.7
20260507002558 -17 225 14.5 20.9 0.00 0.00 0.00 1000.7
20260507002538 -17 270 12.9 20.9 0.00 0.00 0.00 1000.7
20260507002528 -17 270 12.9 22.5 0.00 0.00 0.00 1000.7
20260507002518 -17 270 11.3 22.5 0.00 0.00 0.00 1000.8
20260507002459 -17 225 11.3 22.5 0.00 0.00 0.00 1000.7
20260507002429 -17 270 12.9 22.5 0.00 0.00 0.00 1000.7
20260507002419 -17 270 14.5 22.5 0.00 0.00 0.00 1000.7
20260507002409 -17 225 16.1 22.5 0.00 0.00 0.00 1000.7
20260507002359 -17 248 14.5 22.5 0.00 0.00 0.00 1000.7
20260507002349 -17 225 12.9 22.5 0.00 0.00 0.00 1000.7
20260507002339 -17 225 12.9 22.5 0.00 0.00 0.00 1000.6
20260507002329 -17 270 12.9 22.5 0.00 0.00 0.00 1000.7
20260507002319 -17 225 11.3 22.5 0.00 0.00 0.00 1000.7
20260507002309 -17 248 9.7 22.5 0.00 0.00 0.00 1000.8
20260507002259 -17 225 9.7 22.5 0.00 0.00 0.00 706.5
20260507002249 -17 225 9.7 22.5 0.00 0.00 0.00 1000.7
20260507002239 -17 270 11.3 22.5 0.00 0.00 0.00 1000.7
20260507002229 -17 270 12.9 22.5 0.00 0.00 0.00 1000.7
20260507002219 -17 225 12.9 22.5 0.00 0.00 0.00 1000.8
20260507002149 -17 225 12.9 22.5 0.00 0.00 0.00 1000.7
20260507002139 -17 225 14.5 22.5 0.00 0.00 0.00 1000.7
20260507002119 -17 270 14.5 22.5 0.00 0.00 0.00 1000.7
20260507002109 -17 225 16.1 22.5 0.00 0.00 0.00 1000.8
20260507002059 -17 225 16.1 22.5 0.00 0.00 0.00 1000.7
20260507002039 -17 270 16.1 22.5 0.00 0.00 0.00 1000.7
20260507002029 -17 225 16.1 22.5 0.00 0.00 0.00 1000.8
20260507002019 -17 225 17.7 22.5 0.00 0.00 0.00 1000.7
20260507001959 -17 225 16.1 22.5 0.00 0.00 0.00 1000.7
20260507001949 -17 270 16.1 22.5 0.00 0.00 0.00 1000.7
20260507001929 -17 225 16.1 22.5 0.00 0.00 0.00 1000.8
20260507001919 -17 248 14.5 22.5 0.00 0.00 0.00 1000.8
20260507001909 -17 225 14.5 22.5 0.00 0.00 0.00 1000.8
20260507001859 -17 270 14.5 22.5 0.00 0.00 0.00 1000.8
20260507001839 -17 270 14.5 22.5 0.00 0.00 0.00 1000.7
20260507001829 -17 225 16.1 22.5 0.00 0.00 0.00 1000.7
20260507001820 -17 225 14.5 22.5 0.00 0.00 0.00 1000.8
20260507001800 -17 248 14.5 22.5 0.00 0.00 0.00 1000.7
20260507001750 -17 225 14.5 22.5 0.00 0.00 0.00 1000.7
20260507001740 -17 225 14.5 22.5 0.00 0.00 0.00 1000.8
20260507001730 -17 248 12.9 22.5 0.00 0.00 0.00 1000.8
20260507001720 -17 270 14.5 22.5 0.00 0.00 0.00 1000.8
20260507001700 -17 225 14.5 22.5 0.00 0.00 0.00 1000.7
20260507001650 -17 248 16.1 22.5 0.00 0.00 0.00 1000.7
20260507001640 -17 225 16.1 22.5 0.00 0.00 0.00 1000.7
20260507001630 -17 225 16.1 22.5 0.00 0.00 0.00 1000.8
20260507001620 -17 248 14.5 22.5 0.00 0.00 0.00 1000.7
20260507001600 -17 225 12.9 22.5 0.00 0.00 0.00 1000.7
20260507001550 -17 270 12.9 20.9 0.00 0.00 0.00 1000.7
20260507001540 -17 270 11.3 22.5 0.00 0.00 0.00 1000.7
20260507001500 -17 225 12.9 22.5 0.00 0.00 0.00 1000.7
20260507001450 -17 225 11.3 22.5 0.00 0.00 0.00 1000.7
20260507001420 -17 225 12.9 22.5 0.00 0.00 0.00 1000.7
20260507001340 -17 225 12.9 22.5 0.00 0.00 0.00 1000.7
20260507001320 -17 270 11.3 22.5 0.00 0.00 0.00 1000.7
20260507001300 -17 225 11.3 22.5 0.00 0.00 0.00 1000.7
20260507001250 -17 225 9.7 22.5 0.00 0.00 0.00 1000.8
20260507001240 -17 203 9.7 22.5 0.00 0.00 0.00 1000.7
20260507001230 -17 270 9.7 22.5 0.00 0.00 0.00 1000.7
20260507001210 -17 225 9.7 22.5 0.00 0.00 0.00 1000.7
20260507001151 -17 225 11.3 22.5 0.00 0.00 0.00 1000.7
20260507001130 -17 225 12.9 22.5 0.00 0.00 0.00 1000.7
20260507001101 -17 225 12.9 24.1 0.00 0.00 0.00 1000.7
20260507001051 -17 270 11.3 24.1 0.00 0.00 0.00 1000.8
20260507001041 -17 225 9.7 24.1 0.00 0.00 0.00 1000.7
20260507001031 -17 248 9.7 24.1 0.00 0.00 0.00 1000.7
20260507001011 -17 270 9.7 24.1 0.00 0.00 0.00 1000.7
20260507001001 -17 225 9.7 24.1 0.00 0.00 0.00 1000.7
20260507000931 -17 225 9.7 24.1 0.00 0.00 0.00 1000.8
20260507000921 -17 248 9.7 24.1 0.00 0.00 0.00 1000.8
20260507000901 -17 225 9.7 24.1 0.00 0.00 0.00 1000.7
20260507000851 -17 270 11.3 24.1 0.00 0.00 0.00 1000.7
20260507000821 -17 225 11.3 24.1 0.00 0.00 0.00 1000.8
20260507000751 -17 225 12.9 24.1 0.00 0.00 0.00 1000.8
20260507000741 -17 225 14.5 24.1 0.00 0.00 0.00 1000.8
20260507000731 -17 225 16.1 24.1 0.00 0.00 0.00 1000.8
20260507000711 -17 270 16.1 24.1 0.00 0.00 0.00 1000.8
20260507000701 -17 225 16.1 24.1 0.00 0.00 0.00 1000.7
20260507000651 -17 225 16.1 24.1 0.00 0.00 0.00 1000.8
20260507000641 -17 225 12.9 24.1 0.00 0.00 0.00 1000.7
20260507000631 -17 225 12.9 24.1 0.00 0.00 0.00 1000.8
20260507000621 -17 225 12.9 22.5 0.00 0.00 0.00 1000.8
20260507000611 -17 225 11.3 20.9 0.00 0.00 0.00 1000.8
20260507000551 12 225 9.7 20.9 0.00 0.00 0.00 77 1000.7
20260507000541 -17 225 9.7 20.9 0.00 0.00 0.00 1000.8
20260507000531 12 225 9.7 20.9 0.00 0.00 0.00 76 1000.7
20260507000521 -17 225 8.0 16.1 0.00 0.00 0.00 1000.8
20260507000501 -17 225 8.0 19.3 0.00 0.00 0.00 1000.8
20260507000451 -17 225 8.0 19.3 0.00 0.00 0.00 1000.7
20260507000442 -17 225 6.4 19.3 0.00 0.00 0.00 1000.8
20260507000432 -17 270 6.4 19.3 0.00 0.00 0.00 1000.8
20260507000412 -17 180 6.4 19.3 0.00 0.00 0.00 1000.8
20260507000402 -17 225 6.4 19.3 0.00 0.00 0.00 1000.7
20260507000352 -17 270 6.4 19.3 0.00 0.00 0.00 1000.7
20260507000332 -17 225 6.4 19.3 0.00 0.00 0.00 1000.8
20260507000322 -17 180 6.4 19.3 0.00 0.00 0.00 1000.7
20260507000314 -17 225 6.4 19.3 0.00 0.00 0.00 1000.7
20260507000242 -17 225 6.4 19.3 0.00 0.00 0.00 1000.8
20260507000233 -17 270 6.4 19.3 0.00 0.00 0.00 1000.8
20260507000222 -17 225 8.0 19.3 0.00 0.00 0.00 1000.7
20260507000212 -17 225 9.7 19.3 0.00 0.00 0.00 1000.8
20260507000152 -17 225 9.7 19.3 0.00 0.00 0.00 1000.7
20260507000132 -17 225 9.7 19.3 0.00 0.00 0.00 1000.8
20260507000122 -17 270 9.7 19.3 0.00 0.00 0.00 1000.7
20260507000112 -17 225 9.7 19.3 0.00 0.00 0.00 1000.7
20260507000052 -17 225 9.7 19.3 0.00 0.00 0.00 1000.8
20260507000032 -17 225 11.3 19.3 0.00 0.00 0.00 1000.7
20260507000023 -17 225 11.3 19.3 0.00 0.00 0.00 1000.8
20260507000012 -17 225 9.7 17.7 0.00 0.00 0.00 1000.7
20260507000002 -17 225 9.7 17.7 0.00 0.00 0.00 1000.8
20260506235952 -17 225 8.0 17.7 0.00 0.00 0.00 1000.8
20260506235942 -17 270 6.4 17.7 0.00 0.00 0.00 1000.7
20260506235922 -17 225 6.4 17.7 0.00 0.00 0.00 1000.7
20260506235912 -17 225 6.4 17.7 0.00 0.00 0.00 1000.8
20260506235902 -17 225 8.0 17.7 0.00 0.00 0.00 1000.7
20260506235852 -17 225 9.7 17.7 0.00 0.00 0.00 1000.8
20260506235832 -17 225 9.7 17.7 0.00 0.00 0.00 1000.7
20260506235823 -17 270 9.7 17.7 0.00 0.00 0.00 1000.7
20260506235813 -17 225 9.7 17.7 0.00 0.00 0.00 1000.8
20260506235803 -17 225 8.0 17.7 0.00 0.00 0.00 1000.8
20260506235733 -17 225 9.7 17.7 0.00 0.00 0.00 1000.8
20260506235723 -17 225 9.7 17.7 0.00 0.00 0.00 1000.7
20260506235713 -17 225 11.3 17.7 0.00 0.00 0.00 1000.7
20260506235703 -17 225 12.9 17.7 0.00 0.00 0.00 1000.8
20260506235623 -17 225 11.3 17.7 0.00 0.00 0.00 1000.8
20260506235553 -17 225 9.7 17.7 0.00 0.00 0.00 1000.7
20260506235543 -17 225 9.7 17.7 0.00 0.00 0.00 1000.8
20260506235533 -17 225 8.0 17.7 0.00 0.00 0.00 1000.8
20260506235523 -17 225 6.4 14.5 0.00 0.00 0.00 1000.7
20260506235513 12 225 8.0 14.5 0.00 0.00 0.00 77 1000.7
20260506235453 -17 225 9.7 14.5 0.00 0.00 0.00 1000.7
20260506235443 -17 270 9.7 14.5 0.00 0.00 0.00 1000.7
20260506235423 -17 225 11.3 14.5 0.00 0.00 0.00 1000.7
20260506235403 -17 225 9.7 14.5 0.00 0.00 0.00 1000.7
20260506235353 -17 248 9.7 14.5 0.00 0.00 0.00 1000.7
20260506235343 -17 225 8.0 14.5 0.00 0.00 0.00 1000.8
20260506235313 -17 225 6.4 12.9 0.00 0.00 0.00 1000.7
20260506235243 -17 270 6.4 12.9 0.00 0.00 0.00 1000.7
20260506235233 -17 225 6.4 12.9 0.00 0.00 0.00 1000.7
20260506235223 -17 248 6.4 12.9 0.00 0.00 0.00 1000.7
20260506235153 -17 225 6.4 12.9 0.00 0.00 0.00 1000.8
20260506235143 -17 225 6.4 12.9 0.00 0.00 0.00 1000.7
20260506235114 -17 225 6.4 12.9 0.00 0.00 0.00 1000.8
20260506235104 -17 225 6.4 12.9 0.00 0.00 0.00 1000.7
20260506235034 -17 225 6.4 12.9 0.00 0.00 0.00 1000.8
20260506235024 -17 225 6.4 12.9 0.00 0.00 0.00 1000.7
20260506235014 -17 225 6.4 14.5 0.00 0.00 0.00 1000.7
20260506235004 -17 225 6.4 16.1 0.00 0.00 0.00 1000.8
20260506234954 -17 225 4.8 16.1 0.00 0.00 0.00 1000.8
20260506234924 -17 225 3.2 16.1 0.00 0.00 0.00 1000.8
20260506234914 -17 225 3.2 16.1 0.00 0.00 0.00 1000.7
20260506234904 -17 180 3.2 16.1 0.00 0.00 0.00 1000.8
20260506234854 -17 180 4.8 17.7 0.00 0.00 0.00 1000.8
20260506234834 -17 225 6.4 17.7 0.00 0.00 0.00 1000.7
20260506234824 -17 225 6.4 17.7 0.00 0.00 0.00 1000.8
20260506234814 -17 248 8.0 17.7 0.00 0.00 0.00 1000.8
20260506234755 -17 180 8.0 17.7 0.00 0.00 0.00 1000.8
20260506234744 -17 225 8.0 17.7 0.00 0.00 0.00 1000.8
20260506234734 -17 225 6.4 17.7 0.00 0.00 0.00 1000.8
20260506234724 -17 225 6.4 17.7 0.00 0.00 0.00 1000.7
20260506234714 -17 225 6.4 20.9 0.00 0.00 0.00 1000.8
20260506234644 -17 225 8.0 20.9 0.00 0.00 0.00 1000.8
20260506234634 -17 248 8.0 20.9 0.00 0.00 0.00 1000.8
20260506234614 -17 225 9.7 20.9 0.00 0.00 0.00 1000.8
20260506234534 -17 225 9.7 20.9 0.00 0.00 0.00 1000.8
20260506234505 -17 248 9.7 20.9 0.00 0.00 0.00 1000.8
20260506234455 -17 225 9.7 20.9 0.00 0.00 0.00 1000.8
20260506234425 -17 270 12.9 20.9 0.00 0.00 0.00 1000.8
20260506234415 -17 225 11.3 20.9 0.00 0.00 0.00 1000.8
20260506234405 -17 225 12.9 20.9 0.00 0.00 0.00 1000.7
20260506234355 -17 225 12.9 20.9 0.00 0.00 0.00 1000.8
20260506234345 -17 270 11.3 20.9 0.00 0.00 0.00 1000.8
20260506234335 -17 270 9.7 20.9 0.00 0.00 0.00 1000.7
20260506234315 -17 225 9.7 20.9 0.00 0.00 0.00 1000.8
20260506234245 -17 225 9.7 20.9 0.00 0.00 0.00 1000.7
20260506234235 -17 225 11.3 20.9 0.00 0.00 0.00 1000.7
20260506234225 -17 270 11.3 20.9 0.00 0.00 0.00 1000.8
20260506234215 -17 270 11.3 17.7 0.00 0.00 0.00 1000.7
20260506234205 -17 270 9.7 17.7 0.00 0.00 0.00 1000.7
20260506234135 -17 225 9.7 17.7 0.00 0.00 0.00 1000.8
20260506234125 -17 225 9.7 17.7 0.00 0.00 0.00 1000.7
20260506234105 -17 225 9.7 16.1 0.00 0.00 0.00 1000.6
20260506234055 -17 225 9.7 16.1 0.00 0.00 0.00 1000.7
20260506234045 -17 225 11.3 16.1 0.00 0.00 0.00 1000.7
20260506234035 -17 270 11.3 16.1 0.00 0.00 0.00 1000.7
20260506233955 -17 225 11.3 16.1 0.00 0.00 0.00 1000.8
20260506233945 -17 225 9.7 16.1 0.00 0.00 0.00 1000.7
20260506233935 -17 248 9.7 16.1 0.00 0.00 0.00 1000.7
20260506233925 -17 270 11.3 16.1 0.00 0.00 0.00 1000.7
20260506233915 -17 225 11.3 16.1 0.00 0.00 0.00 1000.7
20260506233835 -17 225 11.3 16.1 0.00 0.00 0.00 1000.7
20260506233825 -17 270 11.3 16.1 0.00 0.00 0.00 1000.7
20260506233815 -17 225 11.3 16.1 0.00 0.00 0.00 1000.8
20260506233756 -17 225 11.3 16.1 0.00 0.00 0.00 1000.7
20260506233716 -17 270 11.3 16.1 0.00 0.00 0.00 1000.7
20260506233706 -17 248 11.3 16.1 0.00 0.00 0.00 1000.7
20260506233646 -17 225 11.3 16.1 0.00 0.00 0.00 1000.8
20260506233636 -17 225 11.3 16.1 0.00 0.00 0.00 1000.7
20260506233626 -17 248 11.3 16.1 0.00 0.00 0.00 1000.7
20260506233606 -17 225 11.3 17.7 0.00 0.00 0.00 1000.7
20260506233556 -17 270 9.7 17.7 0.00 0.00 0.00 1000.7
20260506233546 -17 225 9.7 17.7 0.00 0.00 0.00 1000.7
20260506233516 -17 270 9.7 17.7 0.00 0.00 0.00 1000.7
20260506233506 -17 248 9.7 17.7 0.00 0.00 0.00 1000.7
20260506233436 -17 225 9.7 17.7 0.00 0.00 0.00 1000.7
20260506233406 -17 270 9.7 17.7 0.00 0.00 0.00 1000.7
20260506233356 -17 225 9.7 17.7 0.00 0.00 0.00 1000.8
20260506233347 -17 225 9.7 17.7 0.00 0.00 0.00 1000.7
20260506233326 -17 225 11.3 17.7 0.00 0.00 0.00 1000.7
20260506233306 -17 225 9.7 17.7 0.00 0.00 0.00 1000.7
20260506233256 -17 270 9.7 17.7 0.00 0.00 0.00 1000.7
20260506233236 -17 225 8.0 17.7 0.00 0.00 0.00 1000.7
20260506233216 -17 225 9.7 17.7 0.00 0.00 0.00 1000.8
20260506233206 -17 225 9.7 17.7 0.00 0.00 0.00 1000.7
20260506233136 -17 225 11.3 17.7 0.00 0.00 0.00 1000.7
20260506233126 -17 225 11.3 17.7 0.00 0.00 0.00 1000.8
20260506233116 -17 248 11.3 17.7 0.00 0.00 0.00 1000.7
20260506233047 -17 225 11.3 17.7 0.00 0.00 0.00 1000.7
20260506233027 -17 225 12.9 17.7 0.00 0.00 0.00 1000.7
20260506232947 -17 225 12.9 17.7 0.00 0.00 0.00 1000.7
20260506232937 -17 225 11.3 17.7 0.00 0.00 0.00 1000.7
20260506232917 -17 225 9.7 17.7 0.00 0.00 0.00 1000.8
20260506232907 -17 248 9.7 17.7 0.00 0.00 0.00 1000.7
20260506232857 -17 225 9.7 17.7 0.00 0.00 0.00 1000.7
20260506232837 -17 225 11.3 17.7 0.00 0.00 0.00 1000.7
20260506232827 -17 180 11.3 17.7 0.00 0.00 0.00 1000.7
20260506232817 -17 225 12.9 17.7 0.00 0.00 0.00 1000.7
20260506232757 -17 225 11.3 17.7 0.00 0.00 0.00 1000.6
20260506232707 -17 225 11.3 17.7 0.00 0.00 0.00 1000.7
20260506232627 -17 225 9.7 17.7 0.00 0.00 0.00 1000.7
20260506232617 -17 225 9.7 19.3 0.00 0.00 0.00 1000.7
20260506232607 -17 248 11.3 20.9 0.00 0.00 0.00 1000.6
20260506232557 -17 248 12.9 20.9 0.00 0.00 0.00 1000.7
20260506232527 -17 225 12.9 20.9 0.00 0.00 0.00 1000.7
20260506232517 -17 225 11.3 20.9 0.00 0.00 0.00 1000.6
20260506232507 -17 225 11.3 20.9 0.00 0.00 0.00 1000.7
20260506232457 -17 225 9.7 20.9 0.00 0.00 0.00 1000.7
20260506232427 -17 225 9.7 20.9 0.00 0.00 0.00 1000.6
20260506232358 -17 248 9.7 20.9 0.00 0.00 0.00 1000.7
20260506232348 -17 225 9.7 20.9 0.00 0.00 0.00 1000.7
20260506232338 -17 225 9.7 20.9 0.00 0.00 0.00 1000.6
20260506232308 -17 225 8.0 20.9 0.00 0.00 0.00 1000.6
20260506232258 -17 225 8.0 20.9 0.00 0.00 0.00 1000.7
20260506232248 -17 180 8.0 20.9 0.00 0.00 0.00 1000.6
20260506232228 -17 225 9.7 20.9 0.00 0.00 0.00 1000.7
20260506232218 -17 225 11.3 20.9 0.00 0.00 0.00 1000.7
20260506232208 -17 225 12.9 20.9 0.00 0.00 0.00 1000.7
20260506232128 -17 225 12.9 20.9 0.00 0.00 0.00 1000.7
20260506232118 -17 225 11.3 20.9 0.00 0.00 0.00 1000.7
20260506232108 -17 270 11.3 19.3 0.00 0.00 0.00 1000.6
20260506232058 -17 225 9.7 17.7 0.00 0.00 0.00 1000.7
20260506232048 -17 225 11.3 17.7 0.00 0.00 0.00 1000.7
20260506232028 -17 225 12.9 17.7 0.00 0.00 0.00 1000.7
20260506231958 -17 225 11.3 17.7 0.00 0.00 0.00 1000.7
20260506231948 -17 225 9.7 17.7 0.00 0.00 0.00 1000.7
20260506231938 -17 203 9.7 17.7 0.00 0.00 0.00 1000.7
20260506231928 -17 248 8.0 17.7 0.00 0.00 0.00 1000.7
20260506231918 -17 225 8.0 19.3 0.00 0.00 0.00 1000.8
20260506231908 -17 225 8.0 19.3 0.00 0.00 0.00 1000.7
20260506231858 -17 225 6.4 19.3 0.00 0.00 0.00 1000.7
20260506231848 -17 225 6.4 20.9 0.00 0.00 0.00 1000.7
20260506231838 -17 203 6.4 20.9 0.00 0.00 0.00 1000.7
20260506231818 -17 203 6.4 20.9 0.00 0.00 0.00 1000.8
20260506231808 -17 225 6.4 20.9 0.00 0.00 0.00 1000.8
20260506231758 -17 225 6.4 20.9 0.00 0.00 0.00 1000.7
20260506231738 -17 225 6.4 20.9 0.00 0.00 0.00 1000.6
20260506231728 -17 270 6.4 20.9 0.00 0.00 0.00 1000.6
20260506231718 -17 225 6.4 20.9 0.00 0.00 0.00 1000.8
20260506231708 -17 225 6.4 20.9 0.00 0.00 0.00 1000.7
20260506231639 -17 225 6.4 20.9 0.00 0.00 0.00 1000.8
20260506231629 -17 225 8.0 20.9 0.00 0.00 0.00 1000.7
20260506231559 -17 225 6.4 20.9 0.00 0.00 0.00 1000.8
20260506231539 -17 225 6.4 20.9 0.00 0.00 0.00 1000.7
20260506231529 -17 180 6.4 20.9 0.00 0.00 0.00 1000.7
20260506231519 -17 225 6.4 20.9 0.00 0.00 0.00 1000.8
20260506231509 -17 225 8.0 20.9 0.00 0.00 0.00 1000.7
20260506231459 -17 225 9.7 20.9 0.00 0.00 0.00 1000.7
20260506231439 -17 225 12.9 20.9 0.00 0.00 0.00 1000.7
20260506231429 -17 225 12.9 20.9 0.00 0.00 0.00 1000.8
20260506231419 -17 225 11.3 20.9 0.00 0.00 0.00 1000.8
20260506231409 -17 225 9.7 20.9 0.00 0.00 0.00 1000.7
20260506231359 -17 225 9.7 20.9 0.00 0.00 0.00 1000.8
20260506231349 -17 203 8.0 17.7 0.00 0.00 0.00 1000.8
20260506231339 -17 270 8.0 17.7 0.00 0.00 0.00 1000.7
20260506231329 -17 225 8.0 17.7 0.00 0.00 0.00 1000.7
20260506231309 -17 225 9.7 17.7 0.00 0.00 0.00 1000.8
20260506231249 -17 225 9.7 17.7 0.00 0.00 0.00 1000.7
20260506231239 -17 180 8.0 17.7 0.00 0.00 0.00 1000.8
20260506231209 -17 225 6.4 17.7 0.00 0.00 0.00 1000.7
20260506231159 -17 225 6.4 17.7 0.00 0.00 0.00 1000.8
20260506231119 -17 225 6.4 17.7 0.00 0.00 0.00 1000.7
20260506231109 -17 135 6.4 17.7 0.00 0.00 0.00 1000.7
20260506231059 -17 180 6.4 17.7 0.00 0.00 0.00 1000.8
20260506231039 -17 225 6.4 17.7 0.00 0.00 0.00 1000.7
20260506231029 -17 225 4.8 17.7 0.00 0.00 0.00 1000.8
20260506231019 -17 248 6.4 17.7 0.00 0.00 0.00 1000.6
20260506230959 -17 225 6.4 17.7 0.00 0.00 0.00 1000.8
20260506230949 -17 270 6.4 17.7 0.00 0.00 0.00 1000.7
20260506230940 -17 203 8.0 17.7 0.00 0.00 0.00 1000.7
20260506230930 -17 270 9.7 17.7 0.00 0.00 0.00 1000.7
20260506230910 -17 225 9.7 19.3 0.00 0.00 0.00 1000.8
20260506230900 -17 203 11.3 19.3 0.00 0.00 0.00 1000.7
20260506230830 -17 225 12.9 19.3 0.00 0.00 0.00 1000.7
20260506230820 -17 225 12.9 19.3 0.00 0.00 0.00 1000.8
20260506230800 -17 225 11.3 19.3 0.00 0.00 0.00 1000.7
20260506230740 -17 225 11.3 19.3 0.00 0.00 0.00 1000.8
20260506230730 -17 225 9.7 19.3 0.00 0.00 0.00 1000.8
20260506230720 -17 225 9.7 22.5 0.00 0.00 0.00 1000.7
20260506230710 -17 270 8.0 22.5 0.00 0.00 0.00 1000.7
20260506230700 -17 225 8.0 22.5 0.00 0.00 0.00 1000.8
20260506230640 -17 225 6.4 25.7 0.00 0.00 0.00 1000.8
20260506230630 -17 270 6.4 25.7 0.00 0.00 0.00 1000.7
20260506230620 -17 225 6.4 25.7 0.00 0.00 0.00 1000.7
20260506230610 -17 203 8.0 25.7 0.00 0.00 0.00 1000.7
20260506230550 -17 225 9.7 25.7 0.00 0.00 0.00 1000.8
20260506230531 -17 225 9.7 25.7 0.00 0.00 0.00 1000.7
20260506230520 -17 225 11.3 25.7 0.00 0.00 0.00 1000.7
20260506230500 -17 225 11.3 25.7 0.00 0.00 0.00 1000.6
20260506230440 -17 225 12.9 25.7 0.00 0.00 0.00 1000.6
20260506230430 -17 225 12.9 25.7 0.00 0.00 0.00 1000.7
20260506230350 -17 225 11.3 25.7 0.00 0.00 0.00 1000.7
20260506230340 -17 270 11.3 25.7 0.00 0.00 0.00 1000.7
20260506230331 -17 225 11.3 25.7 0.00 0.00 0.00 1000.6
20260506230320 -17 270 12.9 25.7 0.00 0.00 0.00 1000.7
20260506230311 -17 225 12.9 25.7 0.00 0.00 0.00 1000.7
20260506230301 -17 248 14.5 25.7 0.00 0.00 0.00 1000.7
20260506230251 -17 225 14.5 25.7 0.00 0.00 0.00 1000.6
20260506230241 -17 225 16.1 25.7 0.00 0.00 0.00 1000.7
20260506230231 -17 248 16.1 25.7 0.00 0.00 0.00 1000.7
20260506230221 -17 225 12.9 25.7 0.00 0.00 0.00 1000.7
20260506230211 -17 225 12.9 25.7 0.00 0.00 0.00 1000.6
20260506230201 -17 225 11.3 25.7 0.00 0.00 0.00 1000.6
20260506230141 -17 225 9.7 22.5 0.00 0.00 0.00 1000.6
20260506230121 -17 180 8.0 22.5 0.00 0.00 0.00 1000.6
20260506230111 -17 225 8.0 22.5 0.00 0.00 0.00 1000.6
20260506230051 -17 248 6.4 22.5 0.00 0.00 0.00 1000.7
20260506230031 -17 225 6.4 22.5 0.00 0.00 0.00 1000.6
20260506230021 -17 225 8.0 22.5 0.00 0.00 0.00 1000.6
20260506230011 -17 248 8.0 22.5 0.00 0.00 0.00 1000.6
20260506225951 -17 225 9.7 22.5 0.00 0.00 0.00 1000.6
20260506225941 -17 225 12.9 22.5 0.00 0.00 0.00 1000.6
20260506225931 -17 180 12.9 22.5 0.00 0.00 0.00 1000.6
20260506225921 -17 270 12.9 22.5 0.00 0.00 0.00 1000.6
20260506225851 -17 270 14.5 22.5 0.00 0.00 0.00 1000.6
20260506225831 -17 225 14.5 22.5 0.00 0.00 0.00 1000.5
20260506225821 -17 225 14.5 22.5 0.00 0.00 0.00 1000.6
20260506225811 -17 270 16.1 22.5 0.00 0.00 0.00 1000.6
20260506225751 -17 248 16.1 22.5 0.00 0.00 0.00 1000.5
20260506225741 -17 248 16.1 22.5 0.00 0.00 0.00 1000.6
20260506225731 -17 248 14.5 22.5 0.00 0.00 0.00 1000.6
20260506225721 -17 225 14.5 22.5 0.00 0.00 0.00 1000.6
20260506225651 -17 225 16.1 22.5 0.00 0.00 0.00 1000.6
20260506225641 -17 225 14.5 22.5 0.00 0.00 0.00 1000.6
20260506225632 -17 225 14.5 22.5 0.00 0.00 0.00 1000.5
20260506225621 -17 248 12.9 22.5 0.00 0.00 0.00 1000.6
20260506225611 -17 225 12.9 20.9 0.00 0.00 0.00 1000.6
20260506225602 -17 225 11.3 20.9 0.00 0.00 0.00 1000.5
20260506225552 -17 225 9.7 19.3 0.00 0.00 0.00 1000.6
20260506225542 -17 270 11.3 19.3 0.00 0.00 0.00 1000.6
20260506225532 -17 270 11.3 19.3 0.00 0.00 0.00 1000.5
20260506225522 -17 225 11.3 19.3 0.00 0.00 0.00 1000.5
20260506225452 -17 270 11.3 19.3 0.00 0.00 0.00 1000.6
20260506225442 -17 225 11.3 19.3 0.00 0.00 0.00 1000.6
20260506225432 -17 225 11.3 19.3 0.00 0.00 0.00 1000.5
20260506225422 -17 225 9.7 19.3 0.00 0.00 0.00 1000.5
20260506225412 -17 270 11.3 19.3 0.00 0.00 0.00 1000.6
20260506225352 -17 180 11.3 19.3 0.00 0.00 0.00 1000.6
20260506225332 -17 225 11.3 19.3 0.00 0.00 0.00 1000.6
20260506225305 -17 248 11.3 19.3 0.00 0.00 0.00 1000.6
20260506225252 -17 225 11.3 19.3 0.00 0.00 0.00 1000.6
20260506225232 -17 225 9.7 19.3 0.00 0.00 0.00 1000.6
20260506225222 -17 270 9.7 19.3 0.00 0.00 0.00 1000.6
20260506225212 -17 225 9.7 19.3 0.00 0.00 0.00 1000.7
20260506225202 -17 225 8.0 17.7 0.00 0.00 0.00 1000.6
20260506225152 -17 225 8.0 17.7 0.00 0.00 0.00 1000.7
20260506225122 -17 225 6.4 17.7 0.00 0.00 0.00 1000.6
20260506225102 -17 203 6.4 17.7 0.00 0.00 0.00 1000.7
20260506225052 -17 225 8.0 17.7 0.00 0.00 0.00 1000.7
20260506225042 -17 225 9.7 17.7 0.00 0.00 0.00 1000.7
20260506225032 -17 270 9.7 17.7 0.00 0.00 0.00 1000.7
20260506225022 -17 135 9.7 17.7 0.00 0.00 0.00 1000.6
20260506225012 -17 225 9.7 17.7 0.00 0.00 0.00 1000.6
20260506225002 -17 225 9.7 17.7 0.00 0.00 0.00 1000.5
20260506224952 -17 225 8.0 17.7 0.00 0.00 0.00 1000.7
20260506224943 -17 225 6.4 17.7 0.00 0.00 0.00 1000.6
20260506224913 -17 225 6.4 17.7 0.00 0.00 0.00 1000.7
20260506224903 -17 203 6.4 17.7 0.00 0.00 0.00 1000.6
20260506224853 -17 180 4.8 17.7 0.00 0.00 0.00 1000.6
20260506224823 -17 225 6.4 17.7 0.00 0.00 0.00 1000.6
20260506224813 -17 225 8.0 17.7 0.00 0.00 0.00 1000.7
20260506224733 -17 225 9.7 17.7 0.00 0.00 0.00 1000.6
20260506224723 -17 225 9.7 17.7 0.00 0.00 0.00 1000.7
20260506224703 -17 248 6.4 17.7 0.00 0.00 0.00 1000.6
20260506224653 -17 248 8.0 17.7 0.00 0.00 0.00 1000.6
20260506224643 -17 225 8.0 17.7 0.00 0.00 0.00 1000.6
20260506224633 -17 225 8.0 17.7 0.00 0.00 0.00 1000.7
20260506224623 -17 225 9.7 17.7 0.00 0.00 0.00 1000.7
20260506224603 -17 180 9.7 17.7 0.00 0.00 0.00 1000.6
20260506224543 -17 225 9.7 17.7 0.00 0.00 0.00 1000.6
20260506224533 -17 225 8.0 16.1 0.00 0.00 0.00 1000.7
20260506224523 -17 225 8.0 16.1 0.00 0.00 0.00 1000.6
20260506224513 -17 225 6.4 16.1 0.00 0.00 0.00 1000.7
20260506224503 -17 203 6.4 16.1 0.00 0.00 0.00 1000.6
20260506224453 -17 270 6.4 17.7 0.00 0.00 0.00 1000.6
20260506224443 -17 225 6.4 17.7 0.00 0.00 0.00 1000.6
20260506224423 -17 225 6.4 19.3 0.00 0.00 0.00 1000.6
20260506224413 -17 225 6.4 19.3 0.00 0.00 0.00 1000.7
20260506224403 -17 248 6.4 19.3 0.00 0.00 0.00 1000.6
20260506224353 -17 225 4.8 19.3 0.00 0.00 0.00 1000.6
20260506224343 -17 180 4.8 19.3 0.00 0.00 0.00 1000.7
20260506224333 -17 203 3.2 19.3 0.00 0.00 0.00 1000.6
20260506224323 -17 203 4.8 19.3 0.00 0.00 0.00 1000.7
20260506224313 -17 225 4.8 25.7 0.00 0.00 0.00 1000.7
20260506224244 -17 225 4.8 25.7 0.00 0.00 0.00 1000.6
20260506224234 -17 270 4.8 29.0 0.00 0.00 0.00 1000.6
20260506224224 -17 225 4.8 29.0 0.00 0.00 0.00 1000.6
20260506224214 -17 135 6.4 29.0 0.00 0.00 0.00 1000.6
20260506224204 -17 180 6.4 29.0 0.00 0.00 0.00 1000.7
20260506224154 -17 180 6.4 29.0 0.00 0.00 0.00 1000.6
20260506224144 -17 270 6.4 29.0 0.00 0.00 0.00 1000.5
20260506224134 -17 270 8.0 29.0 0.00 0.00 0.00 1000.5
20260506224114 -17 225 9.7 29.0 0.00 0.00 0.00 1000.6
20260506224104 -17 270 9.7 29.0 0.00 0.00 0.00 1000.6
20260506224054 -17 225 11.3 29.0 0.00 0.00 0.00 1000.6
20260506224034 -17 225 12.9 29.0 0.00 0.00 0.00 1000.6
20260506223954 -17 225 12.9 29.0 0.00 0.00 0.00 1000.6
20260506223944 -17 225 12.9 29.0 0.00 0.00 0.00 1000.5
20260506223924 -17 225 11.3 29.0 0.00 0.00 0.00 1000.6
20260506223914 -17 225 12.9 29.0 0.00 0.00 0.00 1000.6
20260506223904 -17 270 14.5 29.0 0.00 0.00 0.00 1000.5
20260506223854 -17 225 16.1 29.0 0.00 0.00 0.00 1000.5
20260506223844 -17 225 17.7 29.0 0.00 0.00 0.00 1000.6
20260506223824 -17 225 20.9 29.0 0.00 0.00 0.00 1000.6
20260506223814 -17 225 19.3 29.0 0.00 0.00 0.00 1000.5
20260506223804 -17 225 19.3 29.0 0.00 0.00 0.00 1000.6
20260506223754 -17 270 17.7 29.0 0.00 0.00 0.00 1000.5
20260506223744 -17 225 16.1 29.0 0.00 0.00 0.00 1000.6
20260506223734 -17 225 16.1 27.4 0.00 0.00 0.00 1000.6
20260506223724 -17 270 12.9 24.1 0.00 0.00 0.00 1000.5
20260506223714 -17 225 12.9 24.1 0.00 0.00 0.00 1000.5
20260506223654 -17 248 12.9 24.1 0.00 0.00 0.00 1000.5
20260506223644 -17 225 14.5 24.1 0.00 0.00 0.00 1000.5
20260506223634 -17 225 14.5 24.1 0.00 0.00 0.00 1000.6
20260506223615 -17 225 16.1 24.1 0.00 0.00 0.00 1000.5
20260506223605 -17 225 14.5 24.1 0.00 0.00 0.00 1000.5
20260506223555 -17 225 12.9 24.1 0.00 0.00 0.00 1000.5
20260506223545 -17 225 12.9 24.1 0.00 0.00 0.00 1000.6
20260506223535 -17 225 11.3 24.1 0.00 0.00 0.00 1000.6
20260506223505 -17 248 9.7 24.1 0.00 0.00 0.00 1000.5
20260506223455 -17 225 9.7 24.1 0.00 0.00 0.00 1000.5
20260506223445 -17 270 11.3 24.1 0.00 0.00 0.00 1000.5
20260506223425 -17 225 12.9 24.1 0.00 0.00 0.00 1000.5
20260506223415 -17 180 16.1 24.1 0.00 0.00 0.00 1000.5
20260506223405 -17 225 16.1 24.1 0.00 0.00 0.00 1000.6
20260506223335 -17 225 17.7 24.1 0.00 0.00 0.00 1000.6
20260506223325 -17 270 17.7 24.1 0.00 0.00 0.00 1000.5
20260506223315 -17 225 16.1 24.1 0.00 0.00 0.00 1000.6
20260506223305 -17 270 16.1 24.1 0.00 0.00 0.00 1000.6
20260506223245 -17 225 16.1 25.7 0.00 0.00 0.00 1000.6
20260506223235 -17 270 16.1 25.7 0.00 0.00 0.00 1000.5
20260506223225 -17 225 14.5 27.4 0.00 0.00 0.00 1000.5
20260506223215 -17 203 14.5 27.4 0.00 0.00 0.00 1000.6
20260506223155 -17 225 16.1 27.4 0.00 0.00 0.00 1000.6
20260506223145 -17 270 16.1 27.4 0.00 0.00 0.00 1000.5
20260506223115 -17 248 16.1 27.4 0.00 0.00 0.00 1000.5
20260506223105 -17 225 16.1 27.4 0.00 0.00 0.00 1000.5
20260506223035 -17 270 12.9 27.4 0.00 0.00 0.00 1000.5
20260506223025 -17 225 12.9 27.4 0.00 0.00 0.00 1000.5
20260506222956 -17 225 14.5 27.4 0.00 0.00 0.00 1000.5
20260506222946 -17 270 14.5 27.4 0.00 0.00 0.00 1000.5
20260506222936 -17 225 16.1 27.4 0.00 0.00 0.00 1000.5
20260506222926 -17 270 16.1 27.4 0.00 0.00 0.00 1000.5
20260506222916 -17 225 14.5 27.4 0.00 0.00 0.00 1000.5
20260506222906 -17 225 14.5 27.4 0.00 0.00 0.00 1000.4
20260506222856 -17 225 16.1 27.4 0.00 0.00 0.00 1000.5
20260506222836 -17 270 16.1 27.4 0.00 0.00 0.00 1000.5
20260506222826 -17 225 17.7 27.4 0.00 0.00 0.00 1000.5
20260506222816 -17 225 19.3 27.4 0.00 0.00 0.00 1000.5
20260506222806 -17 225 19.3 30.6 0.00 0.00 0.00 1000.5
20260506222746 -17 225 17.7 30.6 0.00 0.00 0.00 1000.4
20260506222736 -17 225 17.7 30.6 0.00 0.00 0.00 1000.5
20260506222726 -17 225 16.1 30.6 0.00 0.00 0.00 1000.5
20260506222656 -17 225 14.5 30.6 0.00 0.00 0.00 1000.5
20260506222646 -17 225 12.9 30.6 0.00 0.00 0.00 1000.5
20260506222626 -17 225 12.9 30.6 0.00 0.00 0.00 1000.4
20260506222606 -17 225 14.5 30.6 0.00 0.00 0.00 1000.4
20260506222556 -17 225 16.1 30.6 0.00 0.00 0.00 1000.5
20260506222536 -17 225 16.1 30.6 0.00 0.00 0.00 1000.4
20260506222526 -17 225 16.1 30.6 0.00 0.00 0.00 1000.6
20260506222516 -17 225 16.1 30.6 0.00 0.00 0.00 1000.5
20260506222456 -17 248 16.1 30.6 0.00 0.00 0.00 1000.5
20260506222446 -17 270 16.1 30.6 0.00 0.00 0.00 1000.5
20260506222436 -17 225 16.1 30.6 0.00 0.00 0.00 1000.5
20260506222426 -17 270 17.7 30.6 0.00 0.00 0.00 1000.5
20260506222416 -17 270 17.7 30.6 0.00 0.00 0.00 1000.4
20260506222406 -17 270 19.3 30.6 0.00 0.00 0.00 1000.5
20260506222346 -17 225 17.7 30.6 0.00 0.00 0.00 1000.5
20260506222337 -17 270 17.7 30.6 0.00 0.00 0.00 1000.5
20260506222327 -17 248 17.7 30.6 0.00 0.00 0.00 1000.4
20260506222317 -17 225 17.7 30.6 0.00 0.00 0.00 1000.4
20260506222307 -17 225 16.1 29.0 0.00 0.00 0.00 1000.4
20260506222257 -17 203 16.1 29.0 0.00 0.00 0.00 1000.3
20260506222247 -17 248 16.1 29.0 0.00 0.00 0.00 1000.4
20260506222217 -17 270 16.1 29.0 0.00 0.00 0.00 1000.4
20260506222207 -17 225 16.1 29.0 0.00 0.00 0.00 1000.4
20260506222147 -17 270 14.5 29.0 0.00 0.00 0.00 1000.4
20260506222107 -17 270 16.1 29.0 0.00 0.00 0.00 1000.4
20260506222057 -17 225 17.7 29.0 0.00 0.00 0.00 1000.3
20260506222047 -17 270 19.3 29.0 0.00 0.00 0.00 1000.3
20260506222037 -17 225 19.3 29.0 0.00 0.00 0.00 1000.4
20260506222027 -17 225 17.7 29.0 0.00 0.00 0.00 1000.4
20260506222017 -17 248 17.7 29.0 0.00 0.00 0.00 1000.4
20260506222007 -17 248 16.1 25.7 0.00 0.00 0.00 1000.3
20260506221957 -17 225 16.1 25.7 0.00 0.00 0.00 1000.3
20260506221947 -17 0 16.1 25.7 0.00 0.00 0.00 1000.4
20260506221927 -17 225 16.1 25.7 0.00 0.00 0.00 1000.4
20260506221917 -17 270 16.1 25.7 0.00 0.00 0.00 1000.4
20260506221907 -17 225 14.5 25.7 0.00 0.00 0.00 1000.3
20260506221857 -17 225 12.9 25.7 0.00 0.00 0.00 1000.3
20260506221837 -17 270 12.9 25.7 0.00 0.00 0.00 1000.4
20260506221827 -17 225 12.9 25.7 0.00 0.00 0.00 1000.4
20260506221817 -17 248 11.3 25.7 0.00 0.00 0.00 1000.4
20260506221807 -17 225 11.3 25.7 0.00 0.00 0.00 1000.3
20260506221757 -17 225 11.3 25.7 0.00 0.00 0.00 1000.4
20260506221747 -17 248 12.9 25.7 0.00 0.00 0.00 1000.4
20260506221738 -17 248 12.9 25.7 0.00 0.00 0.00 1000.3
20260506221728 -17 225 14.5 25.7 0.00 0.00 0.00 1000.3
20260506221708 -17 225 16.1 25.7 0.00 0.00 0.00 1000.3
20260506221658 -17 270 16.1 25.7 0.00 0.00 0.00 1000.3
20260506221638 -17 270 14.5 25.7 0.00 0.00 0.00 1000.4
20260506221628 -17 225 12.9 25.7 0.00 0.00 0.00 1000.3
20260506221618 -17 270 12.9 25.7 0.00 0.00 0.00 1000.2
20260506221608 -17 225 12.9 25.7 0.00 0.00 0.00 1000.2
20260506221558 -17 225 11.3 25.7 0.00 0.00 0.00 1000.3
20260506221548 -17 225 12.9 25.7 0.00 0.00 0.00 1000.3
20260506221538 -17 270 12.9 27.4 0.00 0.00 0.00 1000.3
20260506221528 -17 225 11.3 30.6 0.00 0.00 0.00 1000.4
20260506221518 -17 180 11.3 30.6 0.00 0.00 0.00 1000.3
20260506221458 -17 270 12.9 30.6 0.00 0.00 0.00 1000.3
20260506221448 -17 270 11.3 30.6 0.00 0.00 0.00 1000.3
20260506221438 -17 225 11.3 30.6 0.00 0.00 0.00 1000.3
20260506221428 -17 225 12.9 30.6 0.00 0.00 0.00 1000.3
20260506221418 -17 225 12.9 30.6 0.00 0.00 0.00 1000.4
20260506221408 -17 270 12.9 30.6 0.00 0.00 0.00 1000.4
20260506221358 -17 225 11.3 30.6 0.00 0.00 0.00 1000.4
20260506221348 -17 225 12.9 30.6 0.00 0.00 0.00 1000.3
20260506221338 -17 270 14.5 30.6 0.00 0.00 0.00 1000.4
20260506221328 -17 225 16.1 30.6 0.00 0.00 0.00 1000.4
20260506221318 -17 270 16.1 30.6 0.00 0.00 0.00 1000.3
20260506221308 -17 270 17.7 30.6 0.00 0.00 0.00 1000.4
20260506221258 -17 270 19.3 30.6 0.00 0.00 0.00 1000.4
20260506221238 -17 225 17.7 30.6 0.00 0.00 0.00 1000.4
20260506221208 -17 248 16.1 30.6 0.00 0.00 0.00 1000.4
20260506221158 -17 270 14.5 30.6 0.00 0.00 0.00 1000.3
20260506221148 -17 225 16.1 30.6 0.00 0.00 0.00 1000.4
20260506221129 -17 225 16.1 30.6 0.00 0.00 0.00 1000.3
20260506221119 -17 270 17.7 30.6 0.00 0.00 0.00 1000.3
20260506221109 -17 225 19.3 30.6 0.00 0.00 0.00 1000.3
20260506221059 -17 225 19.3 30.6 0.00 0.00 0.00 1000.4
20260506221039 -17 225 17.7 30.6 0.00 0.00 0.00 1000.4
20260506221029 -17 270 16.1 25.7 0.00 0.00 0.00 1000.2
20260506221019 -17 270 16.1 25.7 0.00 0.00 0.00 1000.4
20260506221009 -17 225 16.1 25.7 0.00 0.00 0.00 1000.3
20260506220959 -17 225 16.1 25.7 0.00 0.00 0.00 1000.4
20260506220949 -17 248 17.7 25.7 0.00 0.00 0.00 1000.3
20260506220939 -17 270 17.7 25.7 0.00 0.00 0.00 671.2
20260506220929 -17 270 16.1 25.7 0.00 0.00 0.00 1000.4
20260506220919 -17 225 16.1 25.7 0.00 0.00 0.00 1000.4
20260506220909 -17 225 16.1 25.7 0.00 0.00 0.00 1000.3
20260506220849 -17 248 12.9 25.7 0.00 0.00 0.00 1000.3
20260506220839 -17 270 14.5 25.7 0.00 0.00 0.00 1000.3
20260506220829 -17 225 14.5 25.7 0.00 0.00 0.00 1000.4
20260506220819 -17 225 16.1 25.7 0.00 0.00 0.00 1000.4
20260506220809 -17 225 16.1 25.7 0.00 0.00 0.00 1000.3
20260506220759 -17 225 17.7 25.7 0.00 0.00 0.00 1000.3
20260506220749 -17 225 17.7 25.7 0.00 0.00 0.00 1000.4
20260506220719 -17 270 17.7 25.7 0.00 0.00 0.00 1000.4
20260506220709 -17 225 16.1 25.7 0.00 0.00 0.00 1000.4
20260506220659 -17 248 17.7 25.7 0.00 0.00 0.00 1000.3
20260506220639 -17 248 19.3 25.7 0.00 0.00 0.00 1000.3
20260506220629 -17 225 17.7 25.7 0.00 0.00 0.00 1000.3
20260506220619 -17 225 16.1 25.7 0.00 0.00 0.00 1000.2
20260506220559 -17 248 16.1 25.7 0.00 0.00 0.00 1000.3
20260506220550 -17 270 16.1 25.7 0.00 0.00 0.00 1000.3
20260506220540 -17 225 16.1 25.7 0.00 0.00 0.00 1000.3
20260506220530 -17 225 16.1 25.7 0.00 0.00 0.00 1000.4
20260506220520 -17 225 17.7 25.7 0.00 0.00 0.00 1000.3
20260506220510 -17 248 19.3 25.7 0.00 0.00 0.00 1000.3
20260506220500 -17 225 19.3 25.7 0.00 0.00 0.00 1000.4
20260506220440 -17 225 19.3 25.7 0.00 0.00 0.00 1000.3
20260506220430 -17 225 16.1 25.7 0.00 0.00 0.00 1000.3
20260506220420 -17 270 16.1 25.7 0.00 0.00 0.00 1000.3
20260506220410 -17 225 16.1 27.4 0.00 0.00 0.00 1000.4
20260506220400 -17 248 14.5 27.4 0.00 0.00 0.00 1000.2
20260506220350 -17 225 14.5 27.4 0.00 0.00 0.00 1000.3
20260506220340 -17 225 14.5 27.4 0.00 0.00 0.00 1000.2
20260506220310 -17 225 16.1 27.4 0.00 0.00 0.00 1000.3
20260506220300 -17 225 14.5 27.4 0.00 0.00 0.00 1000.3
20260506220250 -17 225 16.1 27.4 0.00 0.00 0.00 1000.4
20260506220240 -17 248 16.1 27.4 0.00 0.00 0.00 1000.3
20260506220230 -17 270 16.1 27.4 0.00 0.00 0.00 1000.3
20260506220200 -17 225 16.1 27.4 0.00 0.00 0.00 1000.3
20260506220150 -17 225 17.7 27.4 0.00 0.00 0.00 1000.3
20260506220110 -17 225 17.7 27.4 0.00 0.00 0.00 1000.3
20260506220100 -17 225 19.3 29.0 0.00 0.00 0.00 1000.3
20260506220050 -17 248 17.7 29.0 0.00 0.00 0.00 1000.3
20260506220040 -17 225 17.7 29.0 0.00 0.00 0.00 1000.4
20260506220030 -17 225 16.1 29.0 0.00 0.00 0.00 1000.3
20260506220020 -17 270 16.1 29.0 0.00 0.00 0.00 1000.4
20260506220010 -17 270 16.1 29.0 0.00 0.00 0.00 1000.3
20260506215950 -17 225 16.1 29.0 0.00 0.00 0.00 1000.3
20260506215930 -17 270 17.7 29.0 0.00 0.00 0.00 1000.3
20260506215910 -17 270 16.1 29.0 0.00 0.00 0.00 1000.3
20260506215900 -17 270 16.1 29.0 0.00 0.00 0.00 1000.2
20260506215850 -17 225 16.1 29.0 0.00 0.00 0.00 1000.3
20260506215841 -17 225 14.5 29.0 0.00 0.00 0.00 1000.2
20260506215821 -17 225 16.1 29.0 0.00 0.00 0.00 1000.2
20260506215811 -17 225 16.1 29.0 0.00 0.00 0.00 1000.3
20260506215751 -17 248 16.1 29.0 0.00 0.00 0.00 1000.3
20260506215741 -17 248 14.5 29.0 0.00 0.00 0.00 1000.3
20260506215731 -17 225 16.1 29.0 0.00 0.00 0.00 1000.3
20260506215721 -17 180 16.1 29.0 0.00 0.00 0.00 1000.2
20260506215711 -17 270 16.1 29.0 0.00 0.00 0.00 1000.3
20260506215701 -17 225 16.1 29.0 0.00 0.00 0.00 1000.4
20260506215651 -17 270 16.1 29.0 0.00 0.00 0.00 1000.2
20260506215641 -17 225 16.1 29.0 0.00 0.00 0.00 1000.3
20260506215631 -17 225 14.5 29.0 0.00 0.00 0.00 1000.2
20260506215621 -17 270 14.5 29.0 0.00 0.00 0.00 1000.4
20260506215611 -17 225 12.9 29.0 0.00 0.00 0.00 1000.3
20260506215601 -17 225 12.9 22.5 0.00 0.00 0.00 1000.4
20260506215551 -17 270 11.3 22.5 0.00 0.00 0.00 1000.3
20260506215541 -17 135 11.3 22.5 0.00 0.00 0.00 1000.3
20260506215521 -17 225 12.9 22.5 0.00 0.00 0.00 1000.3
20260506215511 -17 225 11.3 22.5 0.00 0.00 0.00 1000.3
20260506215451 -17 270 11.3 24.1 0.00 0.00 0.00 1000.3
20260506215431 -17 225 11.3 24.1 0.00 0.00 0.00 1000.3
20260506215421 -17 225 12.9 24.1 0.00 0.00 0.00 1000.3
20260506215341 -17 225 12.9 25.7 0.00 0.00 0.00 1000.3
20260506215331 -17 225 12.9 27.4 0.00 0.00 0.00 1000.3
20260506215321 -17 225 14.5 27.4 0.00 0.00 0.00 1000.3
20260506215301 -17 225 16.1 27.4 0.00 0.00 0.00 1000.3
20260506215241 -17 248 17.7 27.4 0.00 0.00 0.00 1000.2
20260506215221 -17 225 16.1 27.4 0.00 0.00 0.00 1000.3
20260506215212 -17 248 14.5 27.4 0.00 0.00 0.00 1000.3
20260506215202 -17 225 14.5 27.4 0.00 0.00 0.00 1000.3
20260506215152 -17 225 12.9 27.4 0.00 0.00 0.00 1000.3
20260506215142 -17 225 12.9 29.0 0.00 0.00 0.00 1000.3
20260506215132 -17 270 12.9 29.0 0.00 0.00 0.00 1000.3
20260506215112 -17 225 14.5 29.0 0.00 0.00 0.00 1000.3
20260506215052 -17 270 16.1 29.0 0.00 0.00 0.00 1000.2
20260506215032 -17 225 16.1 29.0 0.00 0.00 0.00 1000.2
20260506215022 -17 225 17.7 29.0 0.00 0.00 0.00 1000.2
20260506215012 -17 225 19.3 29.0 0.00 0.00 0.00 1000.2
20260506214952 -17 248 19.3 29.0 0.00 0.00 0.00 1000.3
20260506214942 -17 225 19.3 29.0 0.00 0.00 0.00 1000.3
20260506214922 -17 225 19.3 29.0 0.00 0.00 0.00 1000.2
20260506214902 -17 248 19.3 29.0 0.00 0.00 0.00 1000.2
20260506214852 -17 225 19.3 29.0 0.00 0.00 0.00 1000.3
20260506214842 -17 225 17.7 29.0 0.00 0.00 0.00 1000.3
20260506214822 -17 225 16.1 29.0 0.00 0.00 0.00 1000.2
20260506214802 -17 225 12.9 29.0 0.00 0.00 0.00 1000.1
20260506214752 -17 225 14.5 29.0 0.00 0.00 0.00 1000.2
20260506214742 -17 225 14.5 29.0 0.00 0.00 0.00 1000.1
20260506214702 -17 225 16.1 29.0 0.00 0.00 0.00 1000.2
20260506214652 -17 270 16.1 29.0 0.00 0.00 0.00 1000.2
20260506214632 -17 225 14.5 25.7 0.00 0.00 0.00 1000.1
20260506214622 -17 225 14.5 25.7 0.00 0.00 0.00 1000.2
20260506214612 -17 270 16.1 25.7 0.00 0.00 0.00 1000.2
20260506214532 -17 225 16.1 25.7 0.00 0.00 0.00 1000.2
20260506214523 -17 225 17.7 25.7 0.00 0.00 0.00 1000.1
20260506214453 -17 225 19.3 25.7 0.00 0.00 0.00 1000.1
20260506214443 -17 225 17.7 25.7 0.00 0.00 0.00 1000.2
20260506214433 -17 225 16.1 25.7 0.00 0.00 0.00 1000.2
20260506214423 -17 225 16.1 25.7 0.00 0.00 0.00 1000.3
20260506214413 -17 225 14.5 25.7 0.00 0.00 0.00 1000.1
20260506214353 -17 225 12.9 25.7 0.00 0.00 0.00 1000.2
20260506214323 -17 270 12.9 25.7 0.00 0.00 0.00 1000.2
20260506214313 -17 270 14.5 25.7 0.00 0.00 0.00 1000.2
20260506214253 -17 270 16.1 25.7 0.00 0.00 0.00 1000.2
20260506214243 -17 225 16.1 25.7 0.00 0.00 0.00 1000.2
20260506214223 -17 270 19.3 25.7 0.00 0.00 0.00 1000.2
20260506214213 -17 225 19.3 25.7 0.00 0.00 0.00 1000.2
20260506214203 -17 270 17.7 25.7 0.00 0.00 0.00 1000.1
20260506214153 -17 225 17.7 25.7 0.00 0.00 0.00 1000.2
20260506214143 -17 248 17.7 25.7 0.00 0.00 0.00 1000.2
20260506214133 -17 270 16.1 25.7 0.00 0.00 0.00 1000.1
20260506214113 -17 225 16.1 24.1 0.00 0.00 0.00 1000.2
20260506214053 -17 248 16.1 24.1 0.00 0.00 0.00 1000.2
20260506214043 -17 270 16.1 24.1 0.00 0.00 0.00 1000.2
20260506214033 -17 225 16.1 24.1 0.00 0.00 0.00 1000.2
20260506214023 -17 270 16.1 24.1 0.00 0.00 0.00 1000.1
20260506213943 -17 270 16.1 24.1 0.00 0.00 0.00 1000.2
20260506213933 -17 248 16.1 24.1 0.00 0.00 0.00 1000.2
20260506213923 -17 225 16.1 24.1 0.00 0.00 0.00 1000.2
20260506213913 -17 248 14.5 24.1 0.00 0.00 0.00 1000.1
20260506213853 -17 270 16.1 24.1 0.00 0.00 0.00 1000.1
20260506213834 -17 225 14.5 24.1 0.00 0.00 0.00 1000.2
20260506213824 -17 270 12.9 24.1 0.00 0.00 0.00 1000.2
20260506213814 -17 225 12.9 24.1 0.00 0.00 0.00 1000.1
20260506213804 -17 248 12.9 24.1 0.00 0.00 0.00 1000.1
20260506213754 -17 270 12.9 20.9 0.00 0.00 0.00 1000.2
20260506213744 -17 225 12.9 20.9 0.00 0.00 0.00 1000.2
20260506213724 -17 225 14.5 20.9 0.00 0.00 0.00 1000.1
20260506213714 -17 270 16.1 20.9 0.00 0.00 0.00 1000.1
20260506213704 -17 270 12.9 19.3 0.00 0.00 0.00 1000.2
20260506213644 -17 225 12.9 19.3 0.00 0.00 0.00 1000.1
20260506213634 -17 225 12.9 19.3 0.00 0.00 0.00 1000.2
20260506213624 -17 225 12.9 19.3 0.00 0.00 0.00 698.2
20260506213604 -17 225 12.9 20.9 0.00 0.00 0.00 1000.1
20260506213554 -17 225 12.9 20.9 0.00 0.00 0.00 1000.2
20260506213544 -17 248 12.9 20.9 0.00 0.00 0.00 1000.1
20260506213454 -17 270 12.9 20.9 0.00 0.00 0.00 1000.2
20260506213444 -17 225 12.9 20.9 0.00 0.00 0.00 1000.2
20260506213434 -17 225 12.9 20.9 0.00 0.00 0.00 1000.1
20260506213414 -17 248 12.9 20.9 0.00 0.00 0.00 1000.1
20260506213404 -17 225 12.9 20.9 0.00 0.00 0.00 1000.2
20260506213354 -17 225 11.3 20.9 0.00 0.00 0.00 1000.2
20260506213344 -17 225 11.3 20.9 0.00 0.00 0.00 1000.1
20260506213324 -17 225 9.7 20.9 0.00 0.00 0.00 1000.2
20260506213314 -17 225 11.3 20.9 0.00 0.00 0.00 1000.2
20260506213304 -17 248 11.3 20.9 0.00 0.00 0.00 1000.2
20260506213254 -17 225 12.9 20.9 0.00 0.00 0.00 1000.1
20260506213244 -17 248 12.9 20.9 0.00 0.00 0.00 1000.1
20260506213234 -17 225 14.5 20.9 0.00 0.00 0.00 1000.1
20260506213224 -17 248 14.5 20.9 0.00 0.00 0.00 1000.1
20260506213215 -17 270 14.5 20.9 0.00 0.00 0.00 1000.1
20260506213205 -17 270 16.1 20.9 0.00 0.00 0.00 1000.2
20260506213155 -17 225 16.1 20.9 0.00 0.00 0.00 1000.2
20260506213145 -17 0 16.1 22.5 0.00 0.00 0.00 1000.2
20260506213135 -17 225 14.5 22.5 0.00 0.00 0.00 1000.2
20260506213125 -17 270 14.5 22.5 0.00 0.00 0.00 1000.1
20260506213115 -17 270 12.9 22.5 0.00 0.00 0.00 1000.1
20260506213105 -17 248 12.9 22.5 0.00 0.00 0.00 1000.2
20260506213045 -17 225 11.3 22.5 0.00 0.00 0.00 1000.1
20260506213035 -17 225 12.9 22.5 0.00 0.00 0.00 1000.0
20260506213025 -17 270 12.9 22.5 0.00 0.00 0.00 1000.1
20260506213015 -17 225 12.9 22.5 0.00 0.00 0.00 1000.2
20260506212945 -17 248 16.1 22.5 0.00 0.00 0.00 1000.2
20260506212935 -17 225 14.5 22.5 0.00 0.00 0.00 1000.1
20260506212915 -17 248 14.5 22.5 0.00 0.00 0.00 1000.1
20260506212905 -17 270 14.5 22.5 0.00 0.00 0.00 1000.1
20260506212855 -17 225 14.5 22.5 0.00 0.00 0.00 1000.1
20260506212835 -17 270 12.9 22.5 0.00 0.00 0.00 1000.1
20260506212825 -17 225 12.9 22.5 0.00 0.00 0.00 1000.1
20260506212755 -17 225 14.5 22.5 0.00 0.00 0.00 1000.1
20260506212745 -17 248 16.1 22.5 0.00 0.00 0.00 1000.1
20260506212735 -17 225 16.1 22.5 0.00 0.00 0.00 1000.1
20260506212725 -17 270 16.1 22.5 0.00 0.00 0.00 1000.1
20260506212715 -17 225 14.5 22.5 0.00 0.00 0.00 1000.1
20260506212705 -17 270 12.9 22.5 0.00 0.00 0.00 1000.0
20260506212655 -17 270 12.9 22.5 0.00 0.00 0.00 1000.1
20260506212645 -17 248 12.9 20.9 0.00 0.00 0.00 1000.1
20260506212635 -17 270 12.9 20.9 0.00 0.00 0.00 1000.1
20260506212625 -17 225 12.9 20.9 0.00 0.00 0.00 1000.0
20260506212605 -17 270 12.9 20.9 0.00 0.00 0.00 1000.0
20260506212555 -17 225 12.9 20.9 0.00 0.00 0.00 1000.1
20260506212545 -17 225 12.9 20.9 0.00 0.00 0.00 1000.0
20260506212536 -17 270 14.5 20.9 0.00 0.00 0.00 1000.1
20260506212525 -17 225 14.5 20.9 0.00 0.00 0.00 1000.0
20260506212516 -17 270 14.5 20.9 0.00 0.00 0.00 1000.0
20260506212506 -17 270 12.9 20.9 0.00 0.00 0.00 1000.0
20260506212456 -17 270 12.9 20.9 0.00 0.00 0.00 1000.1
20260506212446 -17 225 12.9 20.9 0.00 0.00 0.00 1000.0
20260506212436 -17 225 11.3 20.9 0.00 0.00 0.00 1000.1
20260506212416 -17 270 11.3 20.9 0.00 0.00 0.00 1000.0
20260506212406 -17 248 12.9 20.9 0.00 0.00 0.00 1000.1
20260506212346 -17 225 12.9 20.9 0.00 0.00 0.00 1000.1
20260506212336 -17 225 14.5 20.9 0.00 0.00 0.00 1000.1
20260506212326 -17 225 14.5 22.5 0.00 0.00 0.00 1000.1
20260506212316 -17 270 14.5 22.5 0.00 0.00 0.00 1000.0
20260506212236 -17 270 12.9 22.5 0.00 0.00 0.00 1000.0
20260506212226 -17 270 12.9 22.5 0.00 0.00 0.00 1000.1
20260506212216 -17 225 12.9 22.5 0.00 0.00 0.00 1000.1
20260506212206 -17 225 14.5 22.5 0.00 0.00 0.00 1000.0
20260506212156 -17 225 14.5 22.5 0.00 0.00 0.00 1000.1
20260506212146 -17 270 16.1 22.5 0.00 0.00 0.00 1000.0
20260506212136 -17 270 16.1 22.5 0.00 0.00 0.00 1000.1
20260506212126 -17 225 16.1 22.5 0.00 0.00 0.00 1000.1
20260506212116 -17 225 16.1 22.5 0.00 0.00 0.00 1000.0
20260506212106 -17 248 14.5 24.1 0.00 0.00 0.00 1000.1
20260506212056 -17 248 14.5 24.1 0.00 0.00 0.00 1000.0
20260506212046 -17 270 14.5 24.1 0.00 0.00 0.00 1000.0
20260506212036 -17 225 14.5 24.1 0.00 0.00 0.00 1000.1
20260506212026 -17 270 16.1 24.1 0.00 0.00 0.00 1000.0
20260506212006 -17 225 16.1 24.1 0.00 0.00 0.00 1000.1
20260506211946 -17 225 16.1 24.1 0.00 0.00 0.00 1000.0
20260506211936 -17 248 16.1 24.1 0.00 0.00 0.00 1000.1
20260506211916 -17 270 16.1 24.1 0.00 0.00 0.00 1000.0
20260506211906 -17 248 16.1 24.1 0.00 0.00 0.00 1000.0
20260506211847 -17 225 14.5 24.1 0.00 0.00 0.00 1000.0
20260506211837 -17 270 14.5 25.7 0.00 0.00 0.00 1000.0
20260506211826 -17 225 12.9 25.7 0.00 0.00 0.00 1000.0
20260506211817 -17 225 14.5 25.7 0.00 0.00 0.00 1000.0
20260506211807 -17 248 16.1 25.7 0.00 0.00 0.00 1000.0
20260506211757 -17 225 16.1 25.7 0.00 0.00 0.00 999.9
20260506211747 -17 270 16.1 25.7 0.00 0.00 0.00 999.9
20260506211737 -17 270 16.1 30.6 0.00 0.00 0.00 1000.0
20260506211727 -17 225 16.1 30.6 0.00 0.00 0.00 999.9
20260506211717 -17 270 16.1 30.6 0.00 0.00 0.00 999.9
20260506211707 -17 270 17.7 30.6 0.00 0.00 0.00 999.9
20260506211657 -17 225 17.7 30.6 0.00 0.00 0.00 999.9
20260506211647 -17 225 16.1 30.6 0.00 0.00 0.00 999.9
20260506211627 -17 270 16.1 30.6 0.00 0.00 0.00 862.1
20260506211617 -17 248 16.1 30.6 0.00 0.00 0.00 999.9
20260506211607 -17 225 16.1 30.6 0.00 0.00 0.00 999.9
20260506211547 -17 225 16.1 30.6 0.00 0.00 0.00 999.8
20260506211537 13 270 17.7 30.6 0.00 0.00 0.00 78 999.8
20260506211527 -17 225 17.7 30.6 0.00 0.00 0.00 999.9
20260506211517 -17 270 17.7 30.6 0.00 0.00 0.00 999.8
20260506211457 -17 270 16.1 30.6 0.00 0.00 0.00 999.8
20260506211437 -17 225 16.1 30.6 0.00 0.00 0.00 999.8
20260506211427 -17 270 17.7 30.6 0.00 0.00 0.00 999.8
20260506211417 -17 225 17.7 30.6 0.00 0.00 0.00 999.8
20260506211407 -17 270 19.3 32.2 0.00 0.00 0.00 999.8
20260506211347 -17 270 19.3 32.2 0.00 0.00 0.00 999.9
20260506211327 -17 270 19.3 32.2 0.00 0.00 0.00 999.8
20260506211307 -17 225 20.9 32.2 0.00 0.00 0.00 999.8
20260506211247 -17 270 20.9 32.2 0.00 0.00 0.00 999.8
20260506211227 -17 225 19.3 32.2 0.00 0.00 0.00 999.8
20260506211207 -17 270 19.3 32.2 0.00 0.00 0.00 999.8
20260506211147 -17 225 19.3 32.2 0.00 0.00 0.00 999.7
20260506211137 -17 225 19.3 32.2 0.00 0.00 0.00 999.8
20260506211127 -17 270 19.3 32.2 0.00 0.00 0.00 999.8
20260506211118 -17 270 19.3 32.2 0.00 0.00 0.00 999.7
20260506211058 -17 225 19.3 32.2 0.00 0.00 0.00 999.8
20260506211048 -17 270 19.3 32.2 0.00 0.00 0.00 999.8
20260506211038 -17 270 20.9 32.2 0.00 0.00 0.00 999.8
20260506211028 -17 248 20.9 32.2 0.00 0.00 0.00 999.8
20260506211008 -17 248 22.5 32.2 0.00 0.00 0.00 999.8
20260506210938 -17 270 22.5 32.2 0.00 0.00 0.00 999.8
20260506210918 -17 270 22.5 32.2 0.00 0.00 0.00 999.7
20260506210908 -17 270 20.9 27.4 0.00 0.00 0.00 999.7
20260506210858 -17 225 22.5 27.4 0.00 0.00 0.00 999.7
20260506210848 -17 225 20.9 27.4 0.00 0.00 0.00 999.7
20260506210838 -17 225 20.9 27.4 0.00 0.00 0.00 999.8
20260506210828 -17 225 19.3 27.4 0.00 0.00 0.00 999.8
20260506210818 -17 270 19.3 27.4 0.00 0.00 0.00 999.7
20260506210758 -17 270 16.1 27.4 0.00 0.00 0.00 999.8
20260506210728 -17 225 16.1 27.4 0.00 0.00 0.00 999.8
20260506210718 -17 225 16.1 27.4 0.00 0.00 0.00 999.7
20260506210708 -17 270 17.7 30.6 0.00 0.00 0.00 999.8
20260506210628 -17 270 17.7 32.2 0.00 0.00 0.00 999.8
20260506210618 -17 225 17.7 32.2 0.00 0.00 0.00 4566.5
20260506210608 -17 248 19.3 32.2 0.00 0.00 0.00 999.8
20260506210558 -17 270 19.3 32.2 0.00 0.00 0.00 999.8
20260506210548 -17 225 19.3 32.2 0.00 0.00 0.00 999.8
20260506210508 -17 225 19.3 32.2 0.00 0.00 0.00 999.8
20260506210448 -17 248 19.3 32.2 0.00 0.00 0.00 999.8
20260506210419 -17 225 19.3 32.2 0.00 0.00 0.00 999.8
20260506210409 -17 270 19.3 35.4 0.00 0.00 0.00 999.7
20260506210359 -17 248 19.3 35.4 0.00 0.00 0.00 999.8
20260506210329 -17 225 16.1 35.4 0.00 0.00 0.00 999.8
20260506210319 -17 225 17.7 35.4 0.00 0.00 0.00 999.8
20260506210259 -17 225 19.3 35.4 0.00 0.00 0.00 999.9
20260506210249 -17 270 20.9 35.4 0.00 0.00 0.00 999.8
20260506210239 -17 225 22.5 35.4 0.00 0.00 0.00 999.8
20260506210229 -17 225 20.9 35.4 0.00 0.00 0.00 999.9
20260506210219 -17 225 19.3 35.4 0.00 0.00 0.00 999.8
20260506210209 -17 225 16.1 35.4 0.00 0.00 0.00 999.8
20260506210159 -17 225 14.5 35.4 0.00 0.00 0.00 999.8
20260506210149 -17 225 14.5 35.4 0.00 0.00 0.00 999.7
20260506210139 -17 225 14.5 35.4 0.00 0.00 0.00 999.9
20260506210129 -17 225 16.1 35.4 0.00 0.00 0.00 999.8
20260506210119 -17 225 17.7 35.4 0.00 0.00 0.00 999.9
20260506210109 -17 225 19.3 35.4 0.00 0.00 0.00 999.8
20260506210059 -17 225 20.9 35.4 0.00 0.00 0.00 999.8
20260506210039 -17 225 19.3 35.4 0.00 0.00 0.00 999.9
20260506210019 -17 225 19.3 35.4 0.00 0.00 0.00 999.8
20260506210009 -17 225 17.7 35.4 0.00 0.00 0.00 999.8
20260506205959 -17 270 19.3 35.4 0.00 0.00 0.00 999.8
20260506205949 -17 225 19.3 35.4 0.00 0.00 0.00 999.7
20260506205929 -17 225 19.3 35.4 0.00 0.00 0.00 999.6
20260506205909 -17 225 19.3 35.4 0.00 0.00 0.00 999.8
20260506205849 -17 225 19.3 33.8 0.00 0.00 0.00 999.9
20260506205829 -17 225 20.9 33.8 0.00 0.00 0.00 999.8
20260506205819 -17 248 22.5 33.8 0.00 0.00 0.00 999.9
20260506205809 -17 270 20.9 33.8 0.00 0.00 0.00 999.9
20260506205749 -17 225 19.3 33.8 0.00 0.00 0.00 999.9
20260506205730 -17 225 16.1 33.8 0.00 0.00 0.00 999.9
20260506205720 -17 225 14.5 33.8 0.00 0.00 0.00 999.8
20260506205710 -17 225 16.1 33.8 0.00 0.00 0.00 999.6
20260506205650 -17 225 16.1 33.8 0.00 0.00 0.00 999.8
20260506205640 -17 225 19.3 33.8 0.00 0.00 0.00 999.9
20260506205620 -17 203 19.3 33.8 0.00 0.00 0.00 999.8
20260506205610 -17 225 20.9 33.8 0.00 0.00 0.00 999.8
20260506205600 -17 225 20.9 33.8 0.00 0.00 0.00 999.7
20260506205550 -17 270 22.5 33.8 0.00 0.00 0.00 999.9
20260506205540 -17 270 20.9 33.8 0.00 0.00 0.00 999.8
20260506205530 -17 225 19.3 33.8 0.00 0.00 0.00 999.9
20260506205520 -17 225 17.7 32.2 0.00 0.00 0.00 999.9
20260506205510 -17 225 16.1 29.0 0.00 0.00 0.00 999.9
20260506205500 -17 225 14.5 29.0 0.00 0.00 0.00 999.8
20260506205450 -17 225 14.5 29.0 0.00 0.00 0.00 999.7
20260506205430 -17 225 16.1 29.0 0.00 0.00 0.00 999.9
20260506205420 -17 225 17.7 29.0 0.00 0.00 0.00 999.9
20260506205410 -17 225 16.1 30.6 0.00 0.00 0.00 999.7
20260506205400 -17 225 16.1 30.6 0.00 0.00 0.00 999.8
20260506205350 -17 225 14.5 30.6 0.00 0.00 0.00 999.9
20260506205340 -17 225 12.9 30.6 0.00 0.00 0.00 999.8
20260506205330 -17 225 12.9 30.6 0.00 0.00 0.00 999.9
20260506205320 -17 225 12.9 30.6 0.00 0.00 0.00 999.7
20260506205310 -17 270 12.9 30.6 0.00 0.00 0.00 999.7
20260506205250 -17 225 12.9 30.6 0.00 0.00 0.00 999.8
20260506205240 -17 225 11.3 30.6 0.00 0.00 0.00 999.8
20260506205220 -17 225 9.7 30.6 0.00 0.00 0.00 999.9
20260506205210 -17 225 11.3 30.6 0.00 0.00 0.00 999.7
20260506205200 -17 225 12.9 30.6 0.00 0.00 0.00 999.8
20260506205150 -17 225 12.9 30.6 0.00 0.00 0.00 999.9
20260506205140 -17 225 16.1 30.6 0.00 0.00 0.00 999.9
20260506205130 -17 225 14.5 30.6 0.00 0.00 0.00 999.8
20260506205110 -17 225 16.1 30.6 0.00 0.00 0.00 999.8
20260506205101 -17 225 12.9 30.6 0.00 0.00 0.00 999.9
20260506205041 -17 270 12.9 30.6 0.00 0.00 0.00 999.8
20260506205031 -17 270 12.9 30.6 0.00 0.00 0.00 999.9
20260506205021 -17 225 14.5 30.6 0.00 0.00 0.00 999.8
20260506205001 -17 225 14.5 30.6 0.00 0.00 0.00 999.7
20260506204931 -17 225 14.5 30.6 0.00 0.00 0.00 999.6
20260506204921 -17 225 14.5 30.6 0.00 0.00 0.00 999.8
20260506204911 -17 225 12.9 25.7 0.00 0.00 0.00 999.7
20260506204901 -17 270 12.9 25.7 0.00 0.00 0.00 999.6
20260506204851 -17 158 12.9 25.7 0.00 0.00 0.00 999.7
20260506204841 -17 270 11.3 24.1 0.00 0.00 0.00 999.6
20260506204831 -17 225 11.3 24.1 0.00 0.00 0.00 999.8
20260506204821 -17 225 9.7 24.1 0.00 0.00 0.00 999.8
20260506204811 -17 270 9.7 24.1 0.00 0.00 0.00 999.5
20260506204801 -17 225 11.3 27.4 0.00 0.00 0.00 999.7
20260506204741 -17 180 11.3 30.6 0.00 0.00 0.00 999.7
20260506204731 -17 225 11.3 30.6 0.00 0.00 0.00 999.7
20260506204721 -17 248 11.3 30.6 0.00 0.00 0.00 999.7
20260506204711 -17 225 12.9 30.6 0.00 0.00 0.00 999.7
20260506204701 -17 180 12.9 30.6 0.00 0.00 0.00 999.7
20260506204651 -17 180 12.9 30.6 0.00 0.00 0.00 999.6
20260506204641 -17 270 11.3 30.6 0.00 0.00 0.00
20260506204631 -17 248 12.9 30.6 0.00 0.00 0.00 999.8
20260506204621 -17 225 12.9 30.6 0.00 0.00 0.00 999.7
20260506204601 -17 203 9.7 30.6 0.00 0.00 0.00 999.7
20260506204551 -17 225 9.7 30.6 0.00 0.00 0.00 999.5
20260506204541 -17 270 9.7 30.6 0.00 0.00 0.00 999.4
20260506204531 -17 225 9.7 30.6 0.00 0.00 0.00 999.6
20260506204521 -17 180 9.7 30.6 0.00 0.00 0.00 999.5
20260506204511 -17 180 9.7 30.6 0.00 0.00 0.00 999.6
20260506204501 13 270 9.7 30.6 0.00 0.00 0.00 80 999.6
20260506204441 -17 248 11.3 30.6 0.00 0.00 0.00 999.7
20260506204431 -17 225 11.3 30.6 0.00 0.00 0.00 999.7
20260506204421 -17 180 12.9 30.6 0.00 0.00 0.00 3487.9
20260506204412 -17 180 12.9 30.6 0.00 0.00 0.00 999.7
20260506204402 -17 225 12.9 30.6 0.00 0.00 0.00 999.6
20260506204352 -17 225 12.9 30.6 0.00 0.00 0.00 999.7
20260506204332 -17 225 14.5 30.6 0.00 0.00 0.00 999.7
20260506204322 -17 248 12.9 30.6 0.00 0.00 0.00 999.6
20260506204312 -17 225 12.9 30.6 0.00 0.00 0.00 999.7
20260506204302 -17 225 12.9 30.6 0.00 0.00 0.00 999.5
20260506204252 -17 225 12.9 27.4 0.00 0.00 0.00 999.6
20260506204242 -17 270 12.9 27.4 0.00 0.00 0.00 999.4
20260506204232 -17 158 12.9 27.4 0.00 0.00 0.00 706.5
20260506204212 -17 225 12.9 27.4 0.00 0.00 0.00 999.6
20260506204202 -17 225 12.9 27.4 0.00 0.00 0.00 999.7
20260506204152 -17 203 12.9 27.4 0.00 0.00 0.00 999.6
20260506204142 -17 225 12.9 27.4 0.00 0.00 0.00 999.4
20260506204132 -17 225 12.9 27.4 0.00 0.00 0.00 999.6
20260506204122 -17 293 14.5 27.4 0.00 0.00 0.00 807.0
20260506204112 -17 225 14.5 27.4 0.00 0.00 0.00 999.7
20260506204042 -17 248 11.3 27.4 0.00 0.00 0.00 999.6
20260506204032 -17 225 12.9 27.4 0.00 0.00 0.00 999.6
20260506204022 -17 225 9.7 27.4 0.00 0.00 0.00 999.6
20260506204013 -17 225 11.3 27.4 0.00 0.00 0.00 999.7
20260506204002 13 180 11.3 27.4 0.00 0.00 0.00 80 999.6
20260506203952 -17 270 11.3 27.4 0.00 0.00 0.00 999.6
20260506203942 -17 225 11.3 27.4 0.00 0.00 0.00 999.6
20260506203932 -17 225 9.7 24.1 0.00 0.00 0.00 999.6
20260506203922 -17 225 11.3 24.1 0.00 0.00 0.00 999.6
20260506203912 -17 180 11.3 24.1 0.00 0.00 0.00 999.5
20260506203902 -17 180 12.9 24.1 0.00 0.00 0.00 999.7
20260506203852 -17 225 12.9 24.1 0.00 0.00 0.00 999.7
20260506203832 -17 270 12.9 24.1 0.00 0.00 0.00 999.6
20260506203822 -17 225 11.3 24.1 0.00 0.00 0.00 999.6
20260506203812 -17 225 9.7 24.1 0.00 0.00 0.00 773.0
20260506203802 -17 180 9.7 24.1 0.00 0.00 0.00 999.6
20260506203742 -17 180 9.7 24.1 0.00 0.00 0.00 999.5
20260506203732 -17 225 9.7 24.1 0.00 0.00 0.00 999.6
20260506203722 -17 180 12.9 25.7 0.00 0.00 0.00 999.6
20260506203713 -17 225 12.9 27.4 0.00 0.00 0.00 999.6
20260506203703 -17 248 12.9 27.4 0.00 0.00 0.00 999.7
20260506203653 -17 225 11.3 27.4 0.00 0.00 0.00 999.7
20260506203643 -17 180 11.3 27.4 0.00 0.00 0.00 999.6
20260506203623 -17 225 9.7 27.4 0.00 0.00 0.00 999.6
20260506203613 -17 225 8.0 27.4 0.00 0.00 0.00 999.5
20260506203543 -17 203 9.7 27.4 0.00 0.00 0.00 999.6
20260506203533 -17 225 9.7 27.4 0.00 0.00 0.00 999.5
20260506203523 -17 225 9.7 27.4 0.00 0.00 0.00 999.6
20260506203513 -17 203 8.0 27.4 0.00 0.00 0.00 999.5
20260506203453 -17 225 8.0 27.4 0.00 0.00 0.00 999.6
20260506203443 -17 225 9.7 27.4 0.00 0.00 0.00 999.5
20260506203433 -17 225 9.7 27.4 0.00 0.00 0.00 999.6
20260506203423 -17 180 9.7 27.4 0.00 0.00 0.00 807.0
20260506203413 -17 315 12.9 27.4 0.00 0.00 0.00 999.4
20260506203353 13 225 12.9 27.4 0.00 0.00 0.00 81 999.6
20260506203333 -17 225 12.9 27.4 0.00 0.00 0.00 999.5
20260506203323 -17 225 16.1 27.4 0.00 0.00 0.00 999.6
20260506203313 -17 225 16.1 27.4 0.00 0.00 0.00 999.5
20260506203303 -17 225 16.1 27.4 0.00 0.00 0.00
20260506203253 14 270 16.1 27.4 0.00 0.00 0.00 80 999.5
20260506203243 -17 225 16.1 27.4 0.00 0.00 0.00 999.7
20260506203233 -17 225 14.5 27.4 0.00 0.00 0.00 999.6
20260506203223 -17 225 12.9 27.4 0.00 0.00 0.00 999.5
20260506203213 -17 225 12.9 27.4 0.00 0.00 0.00 999.6
20260506203203 -17 225 11.3 25.7 0.00 0.00 0.00 999.5
20260506203143 -17 225 12.9 25.7 0.00 0.00 0.00 999.6
20260506203133 -17 225 14.5 27.4 0.00 0.00 0.00 999.5
20260506203123 -17 225 14.5 27.4 0.00 0.00 0.00 999.6
20260506203113 -17 225 16.1 27.4 0.00 0.00 0.00 999.5
20260506203103 -17 225 16.1 27.4 0.00 0.00 0.00 999.6
20260506203053 -17 225 14.5 27.4 0.00 0.00 0.00 999.5
20260506203043 -17 270 14.5 27.4 0.00 0.00 0.00 999.5
20260506203033 -17 180 12.9 27.4 0.00 0.00 0.00 999.5
20260506203024 -17 248 14.5 27.4 0.00 0.00 0.00 999.6
20260506202944 -17 225 14.5 27.4 0.00 0.00 0.00 999.5
20260506202934 -17 270 16.1 27.4 0.00 0.00 0.00 999.5
20260506202924 -17 225 16.1 27.4 0.00 0.00 0.00 999.5
20260506202914 -17 270 14.5 27.4 0.00 0.00 0.00 999.5
20260506202904 -17 225 14.5 27.4 0.00 0.00 0.00 999.5
20260506202844 -17 225 16.1 27.4 0.00 0.00 0.00 999.4
20260506202834 -17 225 16.1 27.4 0.00 0.00 0.00 999.5
20260506202824 -17 225 16.1 27.4 0.00 0.00 0.00 999.6
20260506202814 -17 270 17.7 27.4 0.00 0.00 0.00 999.5
20260506202804 -17 248 17.7 27.4 0.00 0.00 0.00 999.5
20260506202754 -17 225 19.3 27.4 0.00 0.00 0.00 999.5
20260506202724 -17 270 19.3 27.4 0.00 0.00 0.00 999.5
20260506202714 -17 225 19.3 27.4 0.00 0.00 0.00 999.5
20260506202704 -17 270 17.7 27.4 0.00 0.00 0.00 999.5
20260506202654 -17 225 17.7 27.4 0.00 0.00 0.00 999.5
20260506202644 -17 270 16.1 27.4 0.00 0.00 0.00 999.4
20260506202634 -17 225 16.1 25.7 0.00 0.00 0.00 999.5
20260506202624 -17 225 14.5 22.5 0.00 0.00 0.00 999.5
20260506202604 -17 270 12.9 22.5 0.00 0.00 0.00 999.5
20260506202544 -17 270 12.9 22.5 0.00 0.00 0.00 999.4
20260506202534 -17 225 12.9 22.5 0.00 0.00 0.00 999.5
20260506202524 -17 270 12.9 22.5 0.00 0.00 0.00 999.5
20260506202514 -17 225 14.5 22.5 0.00 0.00 0.00 999.4
20260506202504 -17 225 16.1 22.5 0.00 0.00 0.00 999.4
20260506202454 -17 270 16.1 22.5 0.00 0.00 0.00 999.4
20260506202444 -17 225 16.1 22.5 0.00 0.00 0.00 999.5
20260506202424 -17 270 14.5 22.5 0.00 0.00 0.00 999.4
20260506202354 -17 0 12.9 22.5 0.00 0.00 0.00 999.4
20260506202344 -17 270 12.9 22.5 0.00 0.00 0.00 999.4
20260506202334 -17 225 12.9 22.5 0.00 0.00 0.00 999.4
20260506202324 -17 270 14.5 22.5 0.00 0.00 0.00 999.4
20260506202314 -17 270 16.1 22.5 0.00 0.00 0.00 999.4
20260506202235 -17 270 16.1 22.5 0.00 0.00 0.00 999.4
20260506202215 -17 225 16.1 22.5 0.00 0.00 0.00 999.4
20260506202145 -17 270 16.1 22.5 0.00 0.00 0.00 999.4
20260506202125 -17 225 16.1 22.5 0.00 0.00 0.00 999.4
20260506202045 -17 225 16.1 22.5 0.00 0.00 0.00 999.4
20260506202035 -17 270 16.1 22.5 0.00 0.00 0.00 999.4
20260506202015 -17 225 16.1 22.5 0.00 0.00 0.00 999.3
20260506201955 -17 225 16.1 22.5 0.00 0.00 0.00 999.4
20260506201945 -17 225 14.5 22.5 0.00 0.00 0.00 999.5
20260506201925 -17 225 14.5 22.5 0.00 0.00 0.00 999.4
20260506201905 -17 270 14.5 22.5 0.00 0.00 0.00 999.4
20260506201845 -17 225 16.1 22.5 0.00 0.00 0.00 999.4
20260506201835 -17 270 16.1 22.5 0.00 0.00 0.00 999.4
20260506201825 -17 270 16.1 22.5 0.00 0.00 0.00 999.3
20260506201745 -17 225 14.5 22.5 0.00 0.00 0.00 999.4
20260506201735 -17 225 14.5 22.5 0.00 0.00 0.00 999.3
20260506201725 -17 225 16.1 22.5 0.00 0.00 0.00 999.3
20260506201715 -17 248 16.1 24.1 0.00 0.00 0.00 999.3
20260506201705 -17 225 16.1 24.1 0.00 0.00 0.00 999.4
20260506201645 -17 225 16.1 25.7 0.00 0.00 0.00 999.3
20260506201606 -17 225 16.1 25.7 0.00 0.00 0.00 999.3
20260506201556 -17 270 16.1 25.7 0.00 0.00 0.00 999.3
20260506201546 -17 248 16.1 25.7 0.00 0.00 0.00 999.4
20260506201536 -17 225 14.5 25.7 0.00 0.00 0.00 999.3
20260506201526 -17 248 14.5 25.7 0.00 0.00 0.00 999.4
20260506201516 -17 225 12.9 25.7 0.00 0.00 0.00 999.3
20260506201506 -17 225 12.9 25.7 0.00 0.00 0.00 999.2
20260506201436 -17 225 12.9 25.7 0.00 0.00 0.00 999.3
20260506201426 -17 225 14.5 25.7 0.00 0.00 0.00 999.3
20260506201406 -17 225 14.5 25.7 0.00 0.00 0.00 999.2
20260506201356 -17 270 14.5 25.7 0.00 0.00 0.00 999.3
20260506201346 -17 270 16.1 25.7 0.00 0.00 0.00 999.2
20260506201336 -17 248 16.1 25.7 0.00 0.00 0.00 999.3
20260506201326 -17 270 16.1 25.7 0.00 0.00 0.00 999.3
20260506201316 -17 225 17.7 25.7 0.00 0.00 0.00 999.3
20260506201306 -17 270 17.7 25.7 0.00 0.00 0.00 999.2
20260506201246 -17 270 19.3 25.7 0.00 0.00 0.00 999.2
20260506201236 -17 270 19.3 25.7 0.00 0.00 0.00 999.3
20260506201226 -17 225 19.3 25.7 0.00 0.00 0.00 999.3
20260506201216 -17 225 19.3 25.7 0.00 0.00 0.00 999.2
20260506201206 -17 225 17.7 25.7 0.00 0.00 0.00 999.2
20260506201156 -17 270 17.7 25.7 0.00 0.00 0.00 999.2
20260506201146 -17 225 16.1 25.7 0.00 0.00 0.00 999.2
20260506201136 -17 225 16.1 25.7 0.00 0.00 0.00 999.3
20260506201126 -17 248 16.1 25.7 0.00 0.00 0.00 999.2
20260506201116 -17 270 14.5 25.7 0.00 0.00 0.00 999.2
20260506201106 -17 225 14.5 25.7 0.00 0.00 0.00 999.3
20260506201056 -17 225 14.5 25.7 0.00 0.00 0.00 999.2
20260506201046 -17 225 12.9 25.7 0.00 0.00 0.00 999.2
20260506201036 -17 270 14.5 25.7 0.00 0.00 0.00 999.2
20260506200956 -17 270 16.1 25.7 0.00 0.00 0.00 999.2
20260506200936 -17 270 17.7 25.7 0.00 0.00 0.00 999.2
20260506200926 -17 270 16.1 30.6 0.00 0.00 0.00 999.2
20260506200856 -17 248 19.3 30.6 0.00 0.00 0.00 999.2
20260506200846 -17 225 17.7 30.6 0.00 0.00 0.00 999.2
20260506200816 -17 225 16.1 30.6 0.00 0.00 0.00 999.2
20260506200807 -17 225 14.5 30.6 0.00 0.00 0.00 999.3
20260506200747 -17 270 12.9 30.6 0.00 0.00 0.00 999.3
20260506200737 -17 270 14.5 30.6 0.00 0.00 0.00 999.2
20260506200727 -17 225 14.5 30.6 0.00 0.00 0.00 999.2
20260506200717 -17 248 16.1 30.6 0.00 0.00 0.00 999.2
20260506200707 -17 270 16.1 30.6 0.00 0.00 0.00 999.2
20260506200657 -17 225 16.1 30.6 0.00 0.00 0.00 999.2
20260506200647 -17 270 17.7 30.6 0.00 0.00 0.00 999.2
20260506200637 -17 225 17.7 30.6 0.00 0.00 0.00 999.2
20260506200627 -17 270 19.3 30.6 0.00 0.00 0.00 999.3
20260506200607 -17 225 19.3 30.6 0.00 0.00 0.00 999.2
20260506200557 -17 248 19.3 30.6 0.00 0.00 0.00 999.2
20260506200527 -17 270 19.3 30.6 0.00 0.00 0.00 999.2
20260506200517 -17 225 19.3 30.6 0.00 0.00 0.00 999.2
20260506200507 -17 225 20.9 30.6 0.00 0.00 0.00 999.3
20260506200457 -17 270 22.5 30.6 0.00 0.00 0.00 999.2
20260506200447 -17 248 20.9 30.6 0.00 0.00 0.00 999.2
20260506200437 -17 270 20.9 30.6 0.00 0.00 0.00 999.2
20260506200407 -17 270 19.3 29.0 0.00 0.00 0.00 999.2
20260506200357 -17 270 17.7 24.1 0.00 0.00 0.00 999.1
20260506200327 -17 270 16.1 24.1 0.00 0.00 0.00 999.2
20260506200317 -17 270 14.5 22.5 0.00 0.00 0.00 999.1
20260506200307 -17 270 14.5 22.5 0.00 0.00 0.00 999.2
20260506200237 -17 225 14.5 22.5 0.00 0.00 0.00 671.2
20260506200227 -17 270 14.5 22.5 0.00 0.00 0.00 999.1
20260506200217 -17 248 14.5 22.5 0.00 0.00 0.00
20260506200157 -17 225 12.9 22.5 0.00 0.00 0.00 999.2
20260506200137 -17 225 12.9 22.5 0.00 0.00 0.00 999.1
20260506200127 -17 270 12.9 24.1 0.00 0.00 0.00
20260506200117 -17 225 12.9 27.4 0.00 0.00 0.00 999.2
20260506200108 -17 270 12.9 27.4 0.00 0.00 0.00 999.2
20260506200058 -17 248 12.9 30.6 0.00 0.00 0.00 999.1
20260506200048 -17 225 12.9 30.6 0.00 0.00 0.00 918.4
20260506200038 -17 270 14.5 30.6 0.00 0.00 0.00 999.1
20260506200028 -17 248 16.1 35.4 0.00 0.00 0.00 999.1
20260506200018 -17 270 16.1 35.4 0.00 0.00 0.00 999.2
20260506195948 -17 225 16.1 35.4 0.00 0.00 0.00 999.1
20260506195938 -17 270 16.1 35.4 0.00 0.00 0.00 999.1
20260506195928 -17 270 14.5 35.4 0.00 0.00 0.00 852.7
20260506195918 -17 248 14.5 35.4 0.00 0.00 0.00 999.1
20260506195908 -17 270 14.5 35.4 0.00 0.00 0.00 999.1
20260506195858 -17 270 16.1 35.4 0.00 0.00 0.00 999.1
20260506195848 -17 225 16.1 35.4 0.00 0.00 0.00 999.1
20260506195818 -17 270 16.1 35.4 0.00 0.00 0.00 999.2
20260506195808 -17 248 17.7 35.4 0.00 0.00 0.00 999.2
20260506195758 -17 270 17.7 35.4 0.00 0.00 0.00 999.2
20260506195728 -17 270 16.1 35.4 0.00 0.00 0.00 999.2
20260506195718 -17 225 17.7 35.4 0.00 0.00 0.00 999.2
20260506195708 -17 270 17.7 35.4 0.00 0.00 0.00 999.2
20260506195658 -17 270 19.3 35.4 0.00 0.00 0.00 999.1
20260506195648 -17 225 20.9 35.4 0.00 0.00 0.00 999.2
20260506195638 -17 225 20.9 35.4 0.00 0.00 0.00 999.3
20260506195628 -17 270 22.5 35.4 0.00 0.00 0.00 999.1
20260506195608 -17 270 20.9 35.4 0.00 0.00 0.00 999.2
20260506195558 -17 225 19.3 35.4 0.00 0.00 0.00 999.2
20260506195548 -17 248 19.3 35.4 0.00 0.00 0.00 999.2
20260506195538 -17 270 19.3 35.4 0.00 0.00 0.00 999.2
20260506195528 -17 248 19.3 30.6 0.00 0.00 0.00 999.2
20260506195518 -17 270 19.3 30.6 0.00 0.00 0.00 999.2
20260506195508 -17 225 20.9 30.6 0.00 0.00 0.00 999.2
20260506195458 -17 270 22.5 30.6 0.00 0.00 0.00 999.2
20260506195448 -17 270 22.5 30.6 0.00 0.00 0.00 999.3
20260506195408 -17 225 22.5 30.6 0.00 0.00 0.00 999.3
20260506195358 -17 248 22.5 30.6 0.00 0.00 0.00 999.3
20260506195339 -17 225 20.9 30.6 0.00 0.00 0.00 999.3
20260506195329 -17 270 17.7 30.6 0.00 0.00 0.00 999.3
20260506195319 -17 225 17.7 30.6 0.00 0.00 0.00 999.3
20260506195309 -17 225 17.7 30.6 0.00 0.00 0.00 999.2
20260506195259 -17 180 17.7 30.6 0.00 0.00 0.00 999.3
20260506195249 -17 270 16.1 30.6 0.00 0.00 0.00 999.3
20260506195239 -17 225 17.7 30.6 0.00 0.00 0.00 999.3
20260506195219 -17 225 19.3 30.6 0.00 0.00 0.00 999.3
20260506195209 -17 225 19.3 30.6 0.00 0.00 0.00 999.2
20260506195159 -17 248 16.1 30.6 0.00 0.00 0.00 999.3
20260506195119 -17 225 16.1 30.6 0.00 0.00 0.00 999.3
20260506195109 -17 225 17.7 30.6 0.00 0.00 0.00 999.2
20260506195039 -17 225 19.3 30.6 0.00 0.00 0.00 999.3
20260506195019 -17 225 19.3 30.6 0.00 0.00 0.00 999.2
20260506195009 -17 225 17.7 25.7 0.00 0.00 0.00 999.2
20260506194959 -17 225 19.3 25.7 0.00 0.00 0.00 999.3
20260506194939 -17 225 19.3 25.7 0.00 0.00 0.00 999.2
20260506194919 -17 225 19.3 25.7 0.00 0.00 0.00 999.3
20260506194909 -17 248 19.3 25.7 0.00 0.00 0.00 999.3
20260506194859 -17 270 17.7 25.7 0.00 0.00 0.00 999.3
20260506194849 -17 270 16.1 25.7 0.00 0.00 0.00 999.3
20260506194829 -17 225 16.1 25.7 0.00 0.00 0.00 999.2
20260506194809 -17 270 16.1 25.7 0.00 0.00 0.00 999.2
20260506194759 -17 180 16.1 25.7 0.00 0.00 0.00 999.2
20260506194749 -17 225 17.7 25.7 0.00 0.00 0.00 999.2
20260506194739 -17 270 16.1 30.6 0.00 0.00 0.00 999.2
20260506194729 -17 248 16.1 30.6 0.00 0.00 0.00 999.2
20260506194719 -17 225 16.1 30.6 0.00 0.00 0.00 999.2
20260506194709 -17 225 17.7 30.6 0.00 0.00 0.00 999.2
20260506194700 -17 225 19.3 30.6 0.00 0.00 0.00 999.1
20260506194620 -17 225 19.3 30.6 0.00 0.00 0.00 999.2
20260506194610 -17 225 19.3 30.6 0.00 0.00 0.00 999.1
20260506194600 -17 225 17.7 30.6 0.00 0.00 0.00 999.1
20260506194540 -17 225 16.1 30.6 0.00 0.00 0.00 999.2
20260506194530 -17 270 16.1 30.6 0.00 0.00 0.00 999.2
20260506194500 -17 225 16.1 30.6 0.00 0.00 0.00 999.2
20260506194450 -17 225 16.1 30.6 0.00 0.00 0.00 999.1
20260506194430 -17 270 16.1 30.6 0.00 0.00 0.00 999.2
20260506194420 -17 270 16.1 30.6 0.00 0.00 0.00 999.1
20260506194410 -17 225 17.7 30.6 0.00 0.00 0.00 999.2
20260506194400 -17 225 16.1 30.6 0.00 0.00 0.00 999.1
20260506194350 -17 270 16.1 30.6 0.00 0.00 0.00 999.2
20260506194340 -17 270 17.7 30.6 0.00 0.00 0.00 807.0
20260506194310 -17 225 19.3 30.6 0.00 0.00 0.00 999.2
20260506194300 -17 225 19.3 30.6 0.00 0.00 0.00 999.1
20260506194250 -17 270 20.9 30.6 0.00 0.00 0.00 999.2
20260506194210 -17 225 19.3 30.6 0.00 0.00 0.00 999.2
20260506194150 -17 225 20.9 30.6 0.00 0.00 0.00 999.2
20260506194120 -17 225 19.3 30.6 0.00 0.00 0.00 999.1
20260506194100 -17 270 17.7 30.6 0.00 0.00 0.00 999.2
20260506194050 -17 225 17.7 30.6 0.00 0.00 0.00 999.0
20260506194041 -17 225 19.3 30.6 0.00 0.00 0.00 999.2
20260506194031 -17 248 20.9 30.6 0.00 0.00 0.00 999.1
20260506194021 -17 270 20.9 30.6 0.00 0.00 0.00 999.0
20260506193941 -17 225 22.5 30.6 0.00 0.00 0.00 999.1
20260506193921 -17 225 19.3 30.6 0.00 0.00 0.00 999.1
20260506193911 -17 270 19.3 30.6 0.00 0.00 0.00 999.1
20260506193901 -17 225 19.3 30.6 0.00 0.00 0.00 999.0
20260506193851 -17 225 19.3 30.6 0.00 0.00 0.00 999.2
20260506193841 -17 248 19.3 30.6 0.00 0.00 0.00 999.1
20260506193831 -17 225 20.9 30.6 0.00 0.00 0.00 999.2
20260506193821 -17 225 22.5 30.6 0.00 0.00 0.00 998.9
20260506193811 -17 270 22.5 30.6 0.00 0.00 0.00 999.1
20260506193801 -17 270 22.5 30.6 0.00 0.00 0.00 999.2
20260506193741 -17 225 22.5 30.6 0.00 0.00 0.00 999.1
20260506193721 -17 225 22.5 30.6 0.00 0.00 0.00 999.2
20260506193701 -17 248 20.9 30.6 0.00 0.00 0.00 999.1
20260506193651 -17 225 20.9 30.6 0.00 0.00 0.00 999.2
20260506193641 -17 225 19.3 30.6 0.00 0.00 0.00 999.1
20260506193631 -17 248 19.3 30.6 0.00 0.00 0.00 999.1
20260506193621 -17 270 19.3 30.6 0.00 0.00 0.00 999.1
20260506193611 -17 225 17.7 30.6 0.00 0.00 0.00 999.1
20260506193601 -17 270 16.1 30.6 0.00 0.00 0.00 999.1
20260506193551 -17 225 16.1 30.6 0.00 0.00 0.00 999.2
20260506193541 -17 270 16.1 30.6 0.00 0.00 0.00 999.2
20260506193521 -17 225 16.1 30.6 0.00 0.00 0.00 999.1
20260506193511 -17 225 17.7 30.6 0.00 0.00 0.00 999.2
20260506193501 -17 248 19.3 30.6 0.00 0.00 0.00 999.1
20260506193441 -17 225 19.3 30.6 0.00 0.00 0.00 999.2
20260506193431 -17 225 17.7 30.6 0.00 0.00 0.00 999.1
20260506193421 -17 270 17.7 30.6 0.00 0.00 0.00 999.1
20260506193411 -17 225 17.7 30.6 0.00 0.00 0.00 999.2
20260506193402 -17 270 16.1 30.6 0.00 0.00 0.00 999.1
20260506193352 -17 225 16.1 30.6 0.00 0.00 0.00 999.2
20260506193342 -17 225 16.1 30.6 0.00 0.00 0.00 999.1
20260506193332 -17 225 17.7 30.6 0.00 0.00 0.00 999.1
20260506193322 -17 225 19.3 30.6 0.00 0.00 0.00 999.0
20260506193312 -17 225 19.3 30.6 0.00 0.00 0.00 999.1
20260506193302 -17 248 19.3 30.6 0.00 0.00 0.00 999.1
20260506193252 -17 225 20.9 30.6 0.00 0.00 0.00 999.1
20260506193242 -17 248 22.5 30.6 0.00 0.00 0.00 999.1
20260506193232 -17 270 20.9 30.6 0.00 0.00 0.00 999.0
20260506193222 -17 225 19.3 30.6 0.00 0.00 0.00 999.1
20260506193212 -17 225 19.3 30.6 0.00 0.00 0.00 998.9
20260506193202 -17 225 17.7 30.6 0.00 0.00 0.00 999.1
20260506193152 -17 225 16.1 30.6 0.00 0.00 0.00 999.0
20260506193142 -17 225 14.5 25.7 0.00 0.00 0.00 999.0
20260506193132 -17 225 12.9 25.7 0.00 0.00 0.00 999.0
20260506193122 -17 135 14.5 25.7 0.00 0.00 0.00 999.0
20260506193112 -17 270 16.1 25.7 0.00 0.00 0.00 999.0
20260506193102 -17 225 16.1 25.7 0.00 0.00 0.00 999.0
20260506193042 -17 225 19.3 25.7 0.00 0.00 0.00 999.1
20260506193032 -17 225 19.3 25.7 0.00 0.00 0.00 999.0
20260506193022 -17 225 17.7 25.7 0.00 0.00 0.00 999.1
20260506193012 -17 248 16.1 25.7 0.00 0.00 0.00 999.0
20260506193002 -17 225 14.5 25.7 0.00 0.00 0.00 999.0
20260506192932 -17 225 12.9 25.7 0.00 0.00 0.00 999.0
20260506192912 -17 225 11.3 25.7 0.00 0.00 0.00 999.0
20260506192902 -17 270 11.3 25.7 0.00 0.00 0.00 999.0
20260506192822 -17 225 9.7 25.7 0.00 0.00 0.00 998.9
20260506192802 -17 225 11.3 25.7 0.00 0.00 0.00 999.0
20260506192743 -17 225 12.9 25.7 0.00 0.00 0.00 998.9
20260506192732 -17 180 16.1 25.7 0.00 0.00 0.00 999.0
20260506192713 -17 225 16.1 25.7 0.00 0.00 0.00 999.0
20260506192703 -17 270 14.5 25.7 0.00 0.00 0.00 999.0
20260506192643 -17 225 14.5 24.1 0.00 0.00 0.00 999.0
20260506192633 -17 225 12.9 22.5 0.00 0.00 0.00 998.8
20260506192613 -17 203 12.9 22.5 0.00 0.00 0.00 998.9
20260506192603 -17 180 12.9 22.5 0.00 0.00 0.00 999.0
20260506192553 -17 225 12.9 22.5 0.00 0.00 0.00 999.0
20260506192543 -17 225 11.3 22.5 0.00 0.00 0.00 998.9
20260506192513 -17 225 11.3 22.5 0.00 0.00 0.00 999.0
20260506192503 -17 225 12.9 22.5 0.00 0.00 0.00 999.0
20260506192453 -17 270 11.3 22.5 0.00 0.00 0.00 998.9
20260506192443 -17 225 12.9 22.5 0.00 0.00 0.00 998.9
20260506192433 -17 225 11.3 20.9 0.00 0.00 0.00 998.9
20260506192423 -17 225 12.9 20.9 0.00 0.00 0.00 999.0
20260506192413 -17 225 11.3 20.9 0.00 0.00 0.00 999.0
20260506192403 -17 225 11.3 19.3 0.00 0.00 0.00 999.0
20260506192353 -17 225 11.3 19.3 0.00 0.00 0.00 998.9
20260506192333 -17 225 11.3 17.7 0.00 0.00 0.00 999.0
20260506192323 -17 225 9.7 17.7 0.00 0.00 0.00 999.0
20260506192313 -17 225 9.7 17.7 0.00 0.00 0.00 998.9
20260506192305 -17 225 8.0 19.3 0.00 0.00 0.00 999.0
20260506192243 -17 225 6.4 19.3 0.00 0.00 0.00 999.0
20260506192233 -17 225 4.8 19.3 0.00 0.00 0.00 999.0
20260506192223 -17 270 3.2 19.3 0.00 0.00 0.00 999.0
20260506192213 -17 203 3.2 19.3 0.00 0.00 0.00 999.0
20260506192203 -17 225 3.2 19.3 0.00 0.00 0.00 998.9
20260506192153 -17 225 3.2 19.3 0.00 0.00 0.00 999.0
20260506192144 -17 225 4.8 19.3 0.00 0.00 0.00 884.0
20260506192133 -17 225 4.8 19.3 0.00 0.00 0.00 998.9
20260506192124 -17 180 4.8 19.3 0.00 0.00 0.00 998.9
20260506192114 -17 135 4.8 19.3 0.00 0.00 0.00 998.9
20260506192104 -17 158 6.4 19.3 0.00 0.00 0.00 999.0
20260506192054 -17 225 6.4 19.3 0.00 0.00 0.00 999.0
20260506192044 -17 225 6.4 19.3 0.00 0.00 0.00 998.9
20260506192024 -17 225 8.0 19.3 0.00 0.00 0.00 998.9
20260506192014 -17 180 9.7 19.3 0.00 0.00 0.00 999.0
20260506191944 -17 225 9.7 19.3 0.00 0.00 0.00 998.9
20260506191934 -17 225 9.7 19.3 0.00 0.00 0.00 999.0
20260506191904 -17 225 11.3 19.3 0.00 0.00 0.00 999.0
20260506191854 -17 225 11.3 19.3 0.00 0.00 0.00 998.9
20260506191814 -17 225 9.7 19.3 0.00 0.00 0.00 999.0
20260506191804 -17 225 9.7 17.7 0.00 0.00 0.00 999.0
20260506191734 14 45 6.4 17.7 0.00 0.00 0.00 77 998.9
20260506191724 -17 225 8.0 17.7 0.00 0.00 0.00 998.9
20260506191714 -17 225 6.4 17.7 0.00 0.00 0.00 999.0
20260506191644 -17 225 6.4 17.7 0.00 0.00 0.00 998.9
20260506191634 -17 270 8.0 17.7 0.00 0.00 0.00 998.9
20260506191604 -17 293 6.4 16.1 0.00 0.00 0.00 999.0
20260506191554 -17 225 6.4 16.1 0.00 0.00 0.00 998.9
20260506191544 -17 270 4.8 16.1 0.00 0.00 0.00 998.9
20260506191534 -17 225 4.8 17.7 0.00 0.00 0.00 998.8
20260506191524 -17 180 4.8 19.3 0.00 0.00 0.00 998.8
20260506191505 -17 225 4.8 20.9 0.00 0.00 0.00 998.9
20260506191455 -17 270 6.4 24.1 0.00 0.00 0.00 998.9
20260506191445 -17 45 6.4 24.1 0.00 0.00 0.00 998.8
20260506191435 -17 225 6.4 24.1 0.00 0.00 0.00 998.8
20260506191425 -17 225 8.0 24.1 0.00 0.00 0.00 998.8
20260506191415 -17 203 9.7 24.1 0.00 0.00 0.00 998.8
20260506191405 -17 90 9.7 24.1 0.00 0.00 0.00 998.9
20260506191355 -17 270 9.7 24.1 0.00 0.00 0.00 998.8
20260506191345 -17 180 8.0 24.1 0.00 0.00 0.00 998.9
20260506191335 -17 225 6.4 24.1 0.00 0.00 0.00 998.9
20260506191325 -17 225 6.4 24.1 0.00 0.00 0.00 998.8
20260506191315 -17 270 6.4 24.1 0.00 0.00 0.00 998.8
20260506191305 -17 135 6.4 24.1 0.00 0.00 0.00 998.9
20260506191255 -17 225 4.8 24.1 0.00 0.00 0.00 998.9
20260506191245 -17 225 6.4 24.1 0.00 0.00 0.00 998.9
20260506191235 -17 315 4.8 24.1 0.00 0.00 0.00 998.9
20260506191225 -17 180 4.8 24.1 0.00 0.00 0.00 998.9
20260506191215 -17 225 4.8 24.1 0.00 0.00 0.00 998.9
20260506191155 -17 225 6.4 24.1 0.00 0.00 0.00 998.8
20260506191145 -17 203 8.0 24.1 0.00 0.00 0.00 998.9
20260506191135 -17 225 9.7 24.1 0.00 0.00 0.00 998.9
20260506191125 13 225 9.7 24.1 0.00 0.00 0.00 78 998.9
20260506191115 -17 225 11.3 24.1 0.00 0.00 0.00 998.9
20260506191105 -17 180 11.3 24.1 0.00 0.00 0.00 998.9
20260506191045 -17 225 12.9 24.1 0.00 0.00 0.00 998.9
20260506191035 -17 225 11.3 24.1 0.00 0.00 0.00 998.9
20260506191025 -17 225 9.7 24.1 0.00 0.00 0.00 998.8
20260506191005 -17 225 9.7 24.1 0.00 0.00 0.00 998.9
20260506190955 -17 225 6.4 22.5 0.00 0.00 0.00 998.9
20260506190935 -17 225 6.4 20.9 0.00 0.00 0.00 998.9
20260506190925 -17 225 6.4 20.9 0.00 0.00 0.00 998.8
20260506190905 -17 225 6.4 20.9 0.00 0.00 0.00 998.7
20260506190855 -17 180 6.4 20.9 0.00 0.00 0.00 998.8
20260506190835 -17 225 6.4 20.9 0.00 0.00 0.00 998.8
20260506190816 -17 225 6.4 20.9 0.00 0.00 0.00 998.9
20260506190756 -17 225 8.0 20.9 0.00 0.00 0.00 998.8
20260506190746 -17 270 8.0 20.9 0.00 0.00 0.00 998.8
20260506190736 -17 270 9.7 20.9 0.00 0.00 0.00 998.8
20260506190726 -17 225 9.7 20.9 0.00 0.00 0.00 998.8
20260506190656 -17 225 12.9 20.9 0.00 0.00 0.00 998.8
20260506190636 -17 225 11.3 20.9 0.00 0.00 0.00 998.8
20260506190616 -17 225 9.7 20.9 0.00 0.00 0.00 998.8
20260506190556 -17 225 8.0 20.9 0.00 0.00 0.00 998.8
20260506190546 -17 225 8.0 20.9 0.00 0.00 0.00
20260506190536 -17 225 8.0 20.9 0.00 0.00 0.00 998.7
20260506190526 -17 270 9.7 20.9 0.00 0.00 0.00 998.7
20260506190516 -17 225 9.7 20.9 0.00 0.00 0.00 998.7
20260506190506 -17 225 9.7 20.9 0.00 0.00 0.00 998.8
20260506190456 -17 225 11.3 20.9 0.00 0.00 0.00 998.8
20260506190446 -17 225 11.3 20.9 0.00 0.00 0.00
20260506190416 -17 225 11.3 20.9 0.00 0.00 0.00 998.8
20260506190406 -17 180 11.3 20.9 0.00 0.00 0.00 998.8
20260506190356 13 225 11.3 20.9 0.00 0.00 0.00 78 998.8
20260506190326 -17 225 11.3 20.9 0.00 0.00 0.00 998.8
20260506190316 -17 225 9.7 20.9 0.00 0.00 0.00 998.7
20260506190306 -17 248 9.7 19.3 0.00 0.00 0.00 998.8
20260506190256 -17 270 8.0 17.7 0.00 0.00 0.00 998.7
20260506190246 -17 270 6.4 17.7 0.00 0.00 0.00 998.8
20260506190226 -17 225 8.0 17.7 0.00 0.00 0.00 998.8
20260506190217 -17 225 9.7 17.7 0.00 0.00 0.00 998.8
20260506190206 -17 180 9.7 19.3 0.00 0.00 0.00 800.2
20260506190147 -17 225 9.7 19.3 0.00 0.00 0.00 998.8
20260506190127 -17 225 6.4 19.3 0.00 0.00 0.00 998.8
20260506190117 -17 270 8.0 19.3 0.00 0.00 0.00 998.8
20260506190107 -17 225 8.0 19.3 0.00 0.00 0.00 998.7
20260506190057 -17 225 8.0 19.3 0.00 0.00 0.00 998.8
20260506190047 -17 180 8.0 19.3 0.00 0.00 0.00 998.8
20260506190027 -17 225 6.4 19.3 0.00 0.00 0.00
20260506190018 -17 225 6.4 19.3 0.00 0.00 0.00 998.8
20260506190007 -17 225 6.4 19.3 0.00 0.00 0.00 998.7
20260506185957 -17 203 6.4 19.3 0.00 0.00 0.00 998.7
20260506185947 -17 203 6.4 22.5 0.00 0.00 0.00 998.8
20260506185937 -17 225 6.4 22.5 0.00 0.00 0.00 998.8
20260506185917 -17 225 6.4 22.5 0.00 0.00 0.00 998.7
20260506185907 -17 135 6.4 22.5 0.00 0.00 0.00 998.7
20260506185857 -17 225 6.4 22.5 0.00 0.00 0.00 998.8
20260506185847 -17 225 6.4 22.5 0.00 0.00 0.00 998.9
20260506185837 -17 180 6.4 22.5 0.00 0.00 0.00 998.7
20260506185817 -17 225 6.4 22.5 0.00 0.00 0.00 998.8
20260506185737 -17 225 8.0 22.5 0.00 0.00 0.00 998.8
20260506185727 -17 203 8.0 22.5 0.00 0.00 0.00 998.7
20260506185717 13 225 6.4 22.5 0.00 0.00 0.00 79 998.8
20260506185657 -17 180 6.4 22.5 0.00 0.00 0.00 998.8
20260506185647 -17 225 6.4 22.5 0.00 0.00 0.00 998.8
20260506185637 -17 180 6.4 22.5 0.00 0.00 0.00 998.7
20260506185627 -17 225 6.4 22.5 0.00 0.00 0.00
20260506185617 -17 225 6.4 22.5 0.00 0.00 0.00 998.7
20260506185607 -17 225 8.0 22.5 0.00 0.00 0.00 998.7
20260506185557 -17 180 8.0 22.5 0.00 0.00 0.00
20260506185548 -17 180 9.7 22.5 0.00 0.00 0.00 998.8
20260506185538 -17 225 9.7 22.5 0.00 0.00 0.00 998.6
20260506185518 -17 225 9.7 22.5 0.00 0.00 0.00 800.2
20260506185508 -17 203 9.7 22.5 0.00 0.00 0.00 998.7
20260506185458 -17 225 9.7 22.5 0.00 0.00 0.00 998.7
20260506185448 -17 225 8.0 19.3 0.00 0.00 0.00 809.3
20260506185438 -17 225 6.4 19.3 0.00 0.00 0.00 998.6
20260506185428 -17 270 6.4 19.3 0.00 0.00 0.00 998.7
20260506185418 13 225 8.0 19.3 0.00 0.00 0.00 80 998.7
20260506185408 -17 203 8.0 19.3 0.00 0.00 0.00 998.6
20260506185358 -17 270 9.7 19.3 0.00 0.00 0.00 998.7
20260506185348 -17 248 9.7 19.3 0.00 0.00 0.00 998.7
20260506185338 -17 180 9.7 19.3 0.00 0.00 0.00 998.7
20260506185328 -17 225 9.7 19.3 0.00 0.00 0.00 998.7
20260506185318 -17 225 9.7 19.3 0.00 0.00 0.00 998.8
20260506185308 -17 225 8.0 19.3 0.00 0.00 0.00 998.6
20260506185248 -17 225 8.0 19.3 0.00 0.00 0.00 998.7
20260506185238 -17 225 9.7 19.3 0.00 0.00 0.00 998.7
20260506185228 13 225 8.0 19.3 0.00 0.00 0.00 80 998.6
20260506185218 -17 225 8.0 19.3 0.00 0.00 0.00 998.6
20260506185208 -17 270 8.0 19.3 0.00 0.00 0.00 998.5
20260506185158 -17 225 8.0 19.3 0.00 0.00 0.00
20260506185148 -17 225 8.0 19.3 0.00 0.00 0.00 998.7
20260506185138 -17 225 6.4 19.3 0.00 0.00 0.00 998.6
20260506185118 -17 203 8.0 19.3 0.00 0.00 0.00 998.5
20260506185108 -17 270 8.0 19.3 0.00 0.00 0.00 998.6
20260506185058 -17 225 8.0 19.3 0.00 0.00 0.00 998.6
20260506185038 -17 225 8.0 19.3 0.00 0.00 0.00 998.5
20260506185018 -17 225 6.4 19.3 0.00 0.00 0.00 998.6
20260506185008 -17 203 8.0 19.3 0.00 0.00 0.00 998.5
20260506184958 -17 180 8.0 19.3 0.00 0.00 0.00 998.4
20260506184948 -17 225 8.0 19.3 0.00 0.00 0.00 998.4
20260506184938 -17 225 8.0 24.1 0.00 0.00 0.00 998.5
20260506184908 -17 225 9.7 24.1 0.00 0.00 0.00 998.5
20260506184858 13 225 9.7 24.1 0.00 0.00 0.00 81 998.4
20260506184829 -17 225 9.7 24.1 0.00 0.00 0.00 998.5
20260506184819 -17 225 8.0 24.1 0.00 0.00 0.00 998.5
20260506184809 -17 225 8.0 24.1 0.00 0.00 0.00 998.4
20260506184749 -17 248 9.7 24.1 0.00 0.00 0.00 998.5
20260506184729 -17 225 9.7 24.1 0.00 0.00 0.00 998.4
20260506184709 -17 225 11.3 24.1 0.00 0.00 0.00 998.4
20260506184649 -17 225 9.7 24.1 0.00 0.00 0.00 998.3
20260506184629 -17 225 9.7 24.1 0.00 0.00 0.00 998.4
20260506184609 -17 225 11.3 24.1 0.00 0.00 0.00 998.3
20260506184549 -17 225 12.9 24.1 0.00 0.00 0.00 998.2
20260506184539 -17 225 12.9 24.1 0.00 0.00 0.00 998.3
20260506184529 -17 225 16.1 24.1 0.00 0.00 0.00 998.3
20260506184519 -17 270 16.1 24.1 0.00 0.00 0.00 998.2
20260506184509 -17 225 14.5 24.1 0.00 0.00 0.00 998.3
20260506184459 -17 225 14.5 24.1 0.00 0.00 0.00 998.2
20260506184449 -17 248 12.9 24.1 0.00 0.00 0.00 998.2
20260506184429 -17 225 12.9 22.5 0.00 0.00 0.00 998.2
20260506184419 -17 225 11.3 22.5 0.00 0.00 0.00 998.2
20260506184409 -17 180 12.9 22.5 0.00 0.00 0.00 998.2
20260506184349 -17 225 12.9 22.5 0.00 0.00 0.00 998.2
20260506184339 -17 225 14.5 22.5 0.00 0.00 0.00 877.7
20260506184329 -17 225 16.1 22.5 0.00 0.00 0.00 998.2
20260506184309 -17 225 16.1 22.5 0.00 0.00 0.00 827.8
20260506184249 -17 225 16.1 22.5 0.00 0.00 0.00 998.2
20260506184239 -17 225 16.1 22.5 0.00 0.00 0.00
20260506184210 -17 225 14.5 22.5 0.00 0.00 0.00 998.1
20260506184200 -17 225 14.5 22.5 0.00 0.00 0.00 943.3
20260506184150 -17 225 14.5 22.5 0.00 0.00 0.00 998.2
20260506184140 -17 225 16.1 22.5 0.00 0.00 0.00 998.2
20260506184130 13 225 16.1 22.5 0.00 0.00 0.00 82 998.1
20260506184110 -17 225 16.1 22.5 0.00 0.00 0.00 998.1
20260506184050 -17 270 16.1 22.5 0.00 0.00 0.00 998.1
20260506184040 -17 225 14.5 22.5 0.00 0.00 0.00 998.2
20260506184030 -17 225 12.9 22.5 0.00 0.00 0.00 998.1
20260506184010 -17 225 14.5 22.5 0.00 0.00 0.00 998.1
20260506184000 -17 270 16.1 22.5 0.00 0.00 0.00 998.1
20260506183950 -17 225 16.1 22.5 0.00 0.00 0.00 998.1
20260506183920 -17 270 16.1 22.5 0.00 0.00 0.00 807.0
20260506183910 -17 270 16.1 22.5 0.00 0.00 0.00 998.1
20260506183900 -17 225 16.1 22.5 0.00 0.00 0.00 998.1
20260506183850 -17 225 14.5 22.5 0.00 0.00 0.00 998.0
20260506183840 -17 225 12.9 22.5 0.00 0.00 0.00 998.0
20260506183830 -17 270 12.9 22.5 0.00 0.00 0.00 998.1
20260506183820 -17 270 12.9 22.5 0.00 0.00 0.00 807.0
20260506183810 -17 248 14.5 22.5 0.00 0.00 0.00 998.0
20260506183800 -17 225 14.5 22.5 0.00 0.00 0.00 998.0
20260506183750 -17 270 16.1 22.5 0.00 0.00 0.00 998.0
20260506183740 -17 270 16.1 22.5 0.00 0.00 0.00 687.3
20260506183730 -17 225 16.1 22.5 0.00 0.00 0.00 998.0
20260506183720 13 225 16.1 22.5 0.00 0.00 0.00 83 998.0
20260506183710 -17 225 16.1 24.1 0.00 0.00 0.00 998.0
20260506183640 -17 270 14.5 24.1 0.00 0.00 0.00 998.0
20260506183610 -17 270 12.9 24.1 0.00 0.00 0.00 998.0
20260506183600 13 270 12.9 25.7 0.00 0.00 0.00 83 998.0
20260506183550 -17 248 14.5 25.7 0.00 0.00 0.00 998.0
20260506183540 -17 270 14.5 25.7 0.00 0.00 0.00 679.2
20260506183531 -17 270 14.5 25.7 0.00 0.00 0.00 998.0
20260506183520 -17 225 14.5 25.7 0.00 0.00 0.00 998.0
20260506183511 -17 270 16.1 25.7 0.00 0.00 0.00 998.0
20260506183441 -17 248 16.1 25.7 0.00 0.00 0.00 998.0
20260506183421 -17 270 16.1 25.7 0.00 0.00 0.00 998.0
20260506183411 13 248 16.1 25.7 0.00 0.00 0.00 85 998.1
20260506183401 13 270 14.5 25.7 0.00 0.00 0.00 85 998.1
20260506183341 -17 225 16.1 25.7 0.00 0.00 0.00 998.0
20260506183331 -17 225 16.1 25.7 0.00 0.00 0.00 998.1
20260506183321 -17 270 16.1 25.7 0.00 0.00 0.00 998.0
20260506183311 -17 225 17.7 25.7 0.00 0.00 0.00 998.1
20260506183301 -17 270 19.3 25.7 0.00 0.00 0.00 1075.3
20260506183251 13 270 19.3 25.7 0.00 0.00 0.00 85 998.0
20260506183241 -17 270 19.3 25.7 0.00 0.00 0.00
20260506183231 13 270 17.7 25.7 0.00 0.00 0.00 85 998.1
20260506183221 -17 270 17.7 25.7 0.00 0.00 0.00
20260506183211 -17 225 17.7 25.7 0.00 0.00 0.00 998.1
20260506183201 -17 225 17.7 25.7 0.00 0.00 0.00
20260506183151 -17 270 17.7 25.7 0.00 0.00 0.00 955.5
20260506183141 -17 225 17.7 25.7 0.00 0.00 0.00 998.0
20260506183131 -17 248 17.7 25.7 0.00 0.00 0.00 998.1
20260506183121 -17 270 17.7 25.7 0.00 0.00 0.00 998.1
20260506183111 13 248 17.7 25.7 0.00 0.00 0.00 86 998.0
20260506183101 -17 248 17.7 25.7 0.00 0.00 0.00 998.0
20260506183051 -17 270 16.1 25.7 0.00 0.00 0.00 998.0
20260506183031 13 225 16.1 25.7 0.00 0.00 0.00 86 998.0
20260506183021 -17 225 16.1 25.7 0.00 0.00 0.00 998.0
20260506183001 -17 270 16.1 25.7 0.00 0.00 0.00 998.0
20260506182931 -17 225 16.1 25.7 0.00 0.00 0.00 998.1
20260506182921 -17 225 16.1 25.7 0.00 0.00 0.00 998.0
20260506182901 -17 225 16.1 25.7 0.00 0.00 0.00 997.9
20260506182841 -17 225 16.1 25.7 0.00 0.00 0.00 998.0
20260506182832 -17 248 16.1 25.7 0.00 0.00 0.00 998.0
20260506182812 -17 225 17.7 30.6 0.00 0.00 0.00 998.0
20260506182802 -17 248 17.7 30.6 0.00 0.00 0.00 998.0
20260506182742 -17 270 19.3 30.6 0.00 0.00 0.00 998.0
20260506182732 -17 270 17.7 30.6 0.00 0.00 0.00 998.0
20260506182722 -17 225 17.7 30.6 0.00 0.00 0.00 997.9
20260506182712 -17 225 16.1 30.6 0.00 0.00 0.00 998.0
20260506182702 -17 248 16.1 30.6 0.00 0.00 0.00 998.0
20260506182642 -17 225 12.9 30.6 0.00 0.00 0.00 998.0
20260506182632 -17 225 12.9 30.6 0.00 0.00 0.00 997.9
20260506182622 -17 270 12.9 30.6 0.00 0.00 0.00 998.0
20260506182612 -17 225 14.5 30.6 0.00 0.00 0.00 998.0
20260506182602 -17 225 16.1 30.6 0.00 0.00 0.00 998.0
20260506182522 -17 225 16.1 30.6 0.00 0.00 0.00 998.0
20260506182442 -17 225 16.1 30.6 0.00 0.00 0.00 998.0
20260506182422 -17 225 19.3 30.6 0.00 0.00 0.00 998.0
20260506182402 -17 225 17.7 30.6 0.00 0.00 0.00 998.0
20260506182342 -17 225 16.1 30.6 0.00 0.00 0.00 998.0
20260506182332 -17 225 14.5 30.6 0.00 0.00 0.00
20260506182312 -17 225 11.3 20.9 0.00 0.00 0.00 998.0
20260506182306 -17 225 12.9 20.9 0.00 0.00 0.00 998.0
20260506182252 -17 225 12.9 22.5 0.00 0.00 0.00 998.0
20260506182242 -17 225 11.3 25.7 0.00 0.00 0.00 998.0
20260506182232 -17 225 11.3 27.4 0.00 0.00 0.00 998.0
20260506182223 -17 225 11.3 27.4 0.00 0.00 0.00 997.9
20260506182213 -17 225 12.9 27.4 0.00 0.00 0.00
20260506182203 -17 225 12.9 27.4 0.00 0.00 0.00 998.0
20260506182123 -17 225 12.9 27.4 0.00 0.00 0.00 998.0
20260506182113 -17 225 11.3 27.4 0.00 0.00 0.00 998.0
20260506182103 -17 225 9.7 27.4 0.00 0.00 0.00 807.0
20260506182053 -17 180 9.7 27.4 0.00 0.00 0.00 997.9
20260506182023 13 225 9.7 27.4 0.00 0.00 0.00 88 998.0
20260506182013 -17 270 9.7 27.4 0.00 0.00 0.00 998.0
20260506181943 -17 225 9.7 27.4 0.00 0.00 0.00 997.9
20260506181933 -17 225 9.7 27.4 0.00 0.00 0.00 998.0
20260506181923 -17 225 9.7 27.4 0.00 0.00 0.00 997.8
20260506181903 -17 225 9.7 27.4 0.00 0.00 0.00 997.9
20260506181854 -17 225 12.9 27.4 0.00 0.00 0.00 998.0
20260506181843 -17 225 12.9 27.4 0.00 0.00 0.00 997.9
20260506181813 -17 225 16.1 27.4 0.00 0.00 0.00 997.9
20260506181803 -17 203 17.7 27.4 0.00 0.00 0.00 997.9
20260506181753 -17 225 17.7 27.4 0.00 0.00 0.00 997.8
20260506181743 -17 225 16.1 27.4 0.00 0.00 0.00 997.8
20260506181723 -17 225 14.5 24.1 0.00 0.00 0.00 997.8
20260506181713 -17 225 16.1 24.1 0.00 0.00 0.00 997.8
20260506181703 -17 248 14.5 24.1 0.00 0.00 0.00 997.8
20260506181633 -17 225 14.5 24.1 0.00 0.00 0.00 997.8
20260506181623 -17 225 16.1 24.1 0.00 0.00 0.00 997.8
20260506181613 -17 270 16.1 24.1 0.00 0.00 0.00 997.8
20260506181543 -17 225 16.1 24.1 0.00 0.00 0.00 997.8
20260506181533 -17 270 16.1 24.1 0.00 0.00 0.00 997.8
20260506181504 -17 225 16.1 22.5 0.00 0.00 0.00 997.8
20260506181454 -17 225 16.1 22.5 0.00 0.00 0.00 997.7
20260506181444 -17 225 14.5 22.5 0.00 0.00 0.00 997.7
20260506181434 -17 248 14.5 22.5 0.00 0.00 0.00 997.7
20260506181424 -17 225 12.9 22.5 0.00 0.00 0.00 997.7
20260506181354 -17 225 12.9 17.7 0.00 0.00 0.00 997.7
20260506181344 -17 248 12.9 17.7 0.00 0.00 0.00 997.7
20260506181314 -17 225 12.9 17.7 0.00 0.00 0.00 997.7
20260506181304 -17 225 11.3 17.7 0.00 0.00 0.00 997.7
20260506181224 -17 225 11.3 17.7 0.00 0.00 0.00 997.7
20260506181214 -17 225 11.3 17.7 0.00 0.00 0.00 997.6
20260506181204 -17 225 12.9 17.7 0.00 0.00 0.00 997.6
20260506181154 -17 248 12.9 17.7 0.00 0.00 0.00 997.6
20260506181124 -17 225 12.9 17.7 0.00 0.00 0.00 997.6
20260506181114 -17 225 11.3 17.7 0.00 0.00 0.00 997.6
20260506181104 -17 248 11.3 16.1 0.00 0.00 0.00 997.6
20260506181054 -17 225 11.3 17.7 0.00 0.00 0.00 997.5
20260506181014 -17 225 11.3 17.7 0.00 0.00 0.00 997.6
20260506181004 -17 270 11.3 17.7 0.00 0.00 0.00 997.6
20260506180934 -17 225 11.3 17.7 0.00 0.00 0.00 997.6
20260506180904 -17 225 11.3 17.7 0.00 0.00 0.00 997.5
20260506180854 -17 225 11.3 17.7 0.00 0.00 0.00 997.6
20260506180844 -17 270 9.7 17.7 0.00 0.00 0.00 997.5
20260506180815 -17 225 9.7 17.7 0.00 0.00 0.00 997.5
20260506180805 -17 270 9.7 17.7 0.00 0.00 0.00 997.5
20260506180755 -17 270 8.0 17.7 0.00 0.00 0.00 997.5
20260506180745 -17 225 8.0 17.7 0.00 0.00 0.00 997.5
20260506180725 -17 248 9.7 17.7 0.00 0.00 0.00 997.5
20260506180715 -17 270 9.7 17.7 0.00 0.00 0.00 997.5
20260506180655 -17 270 11.3 17.7 0.00 0.00 0.00 997.5
20260506180645 -17 225 9.7 17.7 0.00 0.00 0.00 997.5
20260506180635 -17 270 9.7 17.7 0.00 0.00 0.00 997.5
20260506180625 -17 225 8.0 17.7 0.00 0.00 0.00 997.5
20260506180545 -17 225 6.4 17.7 0.00 0.00 0.00 997.5
20260506180525 -17 225 8.0 17.7 0.00 0.00 0.00 997.5
20260506180455 -17 248 8.0 17.7 0.00 0.00 0.00 997.5
20260506180445 -17 225 8.0 17.7 0.00 0.00 0.00 997.5
20260506180435 -17 225 9.7 17.7 0.00 0.00 0.00 997.6
20260506180415 -17 225 9.7 17.7 0.00 0.00 0.00 997.5
20260506180405 -17 225 11.3 17.7 0.00 0.00 0.00 997.5
20260506180355 -17 225 11.3 19.3 0.00 0.00 0.00 997.5
20260506180335 -17 225 11.3 19.3 0.00 0.00 0.00 997.6
20260506180325 -17 225 9.7 19.3 0.00 0.00 0.00 997.5
20260506180255 -17 225 11.3 19.3 0.00 0.00 0.00 997.6
20260506180245 -17 225 9.7 19.3 0.00 0.00 0.00 997.5
20260506180225 -17 225 11.3 19.3 0.00 0.00 0.00 997.5
20260506180215 -17 270 12.9 19.3 0.00 0.00 0.00 997.5
20260506180206 -17 270 12.9 19.3 0.00 0.00 0.00 997.6
20260506180156 -17 225 12.9 19.3 0.00 0.00 0.00 997.5
20260506180146 -17 270 11.3 19.3 0.00 0.00 0.00 997.5
20260506180136 -17 270 11.3 20.9 0.00 0.00 0.00 997.5
20260506180126 -17 225 11.3 22.5 0.00 0.00 0.00 997.6
20260506180116 12 270 11.3 25.7 0.00 0.00 0.00 82 997.5
20260506180056 -17 270 11.3 27.4 0.00 0.00 0.00 997.6
20260506180046 -17 225 11.3 27.4 0.00 0.00 0.00 997.6
20260506180026 -17 270 11.3 27.4 0.00 0.00 0.00 997.5
20260506180016 -17 270 12.9 27.4 0.00 0.00 0.00 997.5
20260506175936 -17 270 12.9 29.0 0.00 0.00 0.00 997.5
20260506175926 -17 270 12.9 29.0 0.00 0.00 0.00 997.6
20260506175916 -17 248 12.9 29.0 0.00 0.00 0.00 997.5
20260506175856 -17 270 12.9 29.0 0.00 0.00 0.00 997.5
20260506175816 -17 270 12.9 29.0 0.00 0.00 0.00 997.5
20260506175806 -17 270 12.9 29.0 0.00 0.00 0.00 997.6
20260506175756 -17 225 12.9 29.0 0.00 0.00 0.00 997.6
20260506175746 -17 225 12.9 30.6 0.00 0.00 0.00 997.5
20260506175726 -17 270 14.5 30.6 0.00 0.00 0.00 997.6
20260506175716 -17 270 16.1 30.6 0.00 0.00 0.00 997.6
20260506175706 -17 270 17.7 32.2 0.00 0.00 0.00 997.5
20260506175656 -17 270 19.3 37.0 0.00 0.00 0.00 997.5
20260506175646 -17 270 19.3 37.0 0.00 0.00 0.00 997.6
20260506175636 -17 270 20.9 37.0 0.00 0.00 0.00 997.6
20260506175626 -17 270 20.9 37.0 0.00 0.00 0.00 997.5
20260506175616 -17 270 22.5 40.2 0.00 0.00 0.00 997.5
20260506175606 -17 248 22.5 40.2 0.00 0.00 0.00 997.6
20260506175556 -17 270 20.9 40.2 0.00 0.00 0.00 997.5
20260506175527 -17 225 19.3 40.2 0.00 0.00 0.00 997.5
20260506175517 -17 270 19.3 40.2 0.00 0.00 0.00 997.5
20260506175507 -17 270 17.7 40.2 0.00 0.00 0.00 997.5
20260506175457 -17 270 17.7 40.2 0.00 0.00 0.00 997.6
20260506175447 -17 248 19.3 40.2 0.00 0.00 0.00 997.5
20260506175427 -17 225 19.3 40.2 0.00 0.00 0.00 997.5
20260506175417 -17 270 19.3 40.2 0.00 0.00 0.00 997.6
20260506175407 -17 270 19.3 40.2 0.00 0.00 0.00 997.5
20260506175357 -17 225 20.9 40.2 0.00 0.00 0.00 997.5
20260506175347 -17 270 20.9 40.2 0.00 0.00 0.00 997.6
20260506175337 -17 270 20.9 40.2 0.00 0.00 0.00 997.5
20260506175327 -17 270 22.5 40.2 0.00 0.00 0.00 997.5
20260506175317 -17 248 22.5 40.2 0.00 0.00 0.00 997.6
20260506175307 -17 270 22.5 40.2 0.00 0.00 0.00 997.6
20260506175257 -17 270 24.1 40.2 0.00 0.00 0.00 997.6
20260506175247 -17 225 25.7 40.2 0.00 0.00 0.00 997.5
20260506175227 -17 270 25.7 40.2 0.00 0.00 0.00 997.5
20260506175217 -17 225 27.4 40.2 0.00 0.00 0.00 997.5
20260506175207 -17 270 29.0 40.2 0.00 0.00 0.00 997.6
20260506175157 -17 270 27.4 40.2 0.00 0.00 0.00 997.5
20260506175137 -17 270 29.0 40.2 0.00 0.00 0.00 997.5
20260506175127 -17 225 29.0 40.2 0.00 0.00 0.00 997.6
20260506175117 -17 270 27.4 40.2 0.00 0.00 0.00 997.5
20260506175057 -17 270 25.7 40.2 0.00 0.00 0.00 997.5
20260506175047 -17 270 25.7 37.0 0.00 0.00 0.00 997.5
20260506175037 -17 248 22.5 37.0 0.00 0.00 0.00 997.5
20260506175027 -17 270 22.5 37.0 0.00 0.00 0.00 997.5
20260506175017 -17 270 22.5 37.0 0.00 0.00 0.00 997.6
20260506175007 -17 270 24.1 41.8 0.00 0.00 0.00 997.6
20260506174957 -17 225 24.1 41.8 0.00 0.00 0.00 997.6
20260506174947 -17 248 24.1 41.8 0.00 0.00 0.00 997.5
20260506174928 -17 270 25.7 41.8 0.00 0.00 0.00 997.6
20260506174918 -17 225 27.4 41.8 0.00 0.00 0.00 997.6
20260506174908 -17 270 25.7 41.8 0.00 0.00 0.00 997.5
20260506174858 -17 270 25.7 41.8 0.00 0.00 0.00 997.4
20260506174848 -17 270 24.1 41.8 0.00 0.00 0.00 997.5
20260506174838 -17 270 24.1 45.1 0.00 0.00 0.00 997.5
20260506174828 -17 225 24.1 46.7 0.00 0.00 0.00 997.5
20260506174818 -17 270 24.1 49.9 0.00 0.00 0.00 997.5
20260506174748 -17 225 25.7 53.1 0.00 0.00 0.00 997.6
20260506174738 -17 270 24.1 53.1 0.00 0.00 0.00 997.5
20260506174728 -17 270 24.1 56.3 0.00 0.00 0.00 997.5
20260506174718 -17 270 24.1 57.9 0.00 0.00 0.00 997.4
20260506174708 -17 270 24.1 57.9 0.00 0.00 0.00 997.3
20260506174658 -17 225 24.1 57.9 0.00 0.00 0.00 874.6
20260506174648 -17 270 25.7 57.9 0.00 0.00 0.00 997.5
20260506174638 -17 270 27.4 57.9 0.00 0.00 0.00 997.5
20260506174628 -17 270 27.4 57.9 0.00 0.00 0.00 997.4
20260506174618 -17 248 29.0 57.9 0.00 0.00 0.00 997.4
20260506174608 -17 270 29.0 57.9 0.00 0.00 0.00 997.5
20260506174558 -17 248 29.0 57.9 0.00 0.00 0.00 997.2
20260506174528 -17 248 29.0 57.9 0.00 0.00 0.00 997.4
20260506174518 -17 270 29.0 57.9 0.00 0.00 0.00 997.4
20260506174508 -17 270 29.0 57.9 0.00 0.00 0.00 997.5
20260506174458 -17 270 30.6 57.9 0.00 0.00 0.00 997.4
20260506174448 -17 270 32.2 57.9 0.00 0.00 0.00 997.5
20260506174438 -17 270 32.2 57.9 0.00 0.00 0.00 997.4
20260506174418 -17 270 35.4 57.9 0.00 0.00 0.00 997.3
20260506174408 -17 225 38.6 57.9 0.00 0.00 0.00 997.3
20260506174358 -17 270 40.2 57.9 0.00 0.00 0.00 997.3
20260506174339 -17 270 41.8 57.9 0.00 0.00 0.00 997.2
20260506174329 -17 270 41.8 57.9 0.00 0.00 0.00 997.1
20260506174319 -17 270 43.5 57.9 0.00 0.00 0.00 997.3
20260506174259 -17 270 43.5 57.9 0.00 0.00 0.00 997.1
20260506174249 -17 270 41.8 57.9 0.00 0.00 0.00 997.2
20260506174239 -17 270 41.8 57.9 0.00 0.00 0.00 996.9
20260506174229 -17 248 40.2 57.9 0.00 0.00 0.00 997.0
20260506174219 -17 270 37.0 54.7 0.00 0.00 0.00 997.0
20260506174209 -17 270 37.0 49.9 0.00 0.00 0.00 997.0
20260506174159 -17 270 35.4 49.9 0.00 0.00 0.00 997.3
20260506174149 -17 270 33.8 49.9 0.00 0.00 0.00 997.3
20260506174139 -17 270 32.2 49.9 0.00 0.00 0.00 997.1
20260506174129 -17 225 32.2 49.9 0.00 0.00 0.00 997.3
20260506174119 -17 270 30.6 49.9 0.00 0.00 0.00 997.2
20260506174109 -17 270 29.0 46.7 0.00 0.00 0.00 996.9
20260506174059 -17 270 30.6 46.7 0.00 0.00 0.00 997.2
20260506174049 -17 270 30.6 46.7 0.00 0.00 0.00 997.1
20260506174039 -17 225 32.2 46.7 0.00 0.00 0.00 997.1
20260506174029 -17 225 32.2 53.1 0.00 0.00 0.00 997.2
20260506174019 -17 225 32.2 53.1 0.00 0.00 0.00 997.0
20260506174009 -17 270 30.6 53.1 0.00 0.00 0.00 997.1
20260506173959 -17 270 29.0 53.1 0.00 0.00 0.00 997.1
20260506173949 -17 225 27.4 53.1 0.00 0.00 0.00 997.0
20260506173939 -17 225 25.7 53.1 0.00 0.00 0.00 997.1
20260506173929 -17 270 25.7 53.1 0.00 0.00 0.00 997.2
20260506173909 -17 270 25.7 53.1 0.00 0.00 0.00 997.1
20260506173859 -17 225 25.7 53.1 0.00 0.00 0.00 997.1
20260506173849 -17 225 27.4 53.1 0.00 0.00 0.00 997.0
20260506173839 -17 225 27.4 53.1 0.00 0.00 0.00 996.9
20260506173829 -17 135 29.0 53.1 0.00 0.00 0.00 997.2
20260506173819 -17 248 27.4 53.1 0.00 0.00 0.00 997.0
20260506173809 -17 225 27.4 53.1 0.00 0.00 0.00 997.1
20260506173750 -17 270 29.0 53.1 0.00 0.00 0.00 996.9
20260506173740 -17 225 29.0 53.1 0.00 0.00 0.00 997.0
20260506173730 -17 225 29.0 53.1 0.00 0.00 0.00 997.1
20260506173710 -17 248 29.0 53.1 0.00 0.00 0.00 996.9
20260506173700 -17 270 29.0 53.1 0.00 0.00 0.00 997.0
20260506173650 -17 225 29.0 53.1 0.00 0.00 0.00 997.1
20260506173640 -17 270 29.0 53.1 0.00 0.00 0.00 996.9
20260506173630 -17 225 29.0 53.1 0.00 0.00 0.00 997.0
20260506173610 -17 225 32.2 53.1 0.00 0.00 0.00 997.0
20260506173600 -17 225 32.2 53.1 0.00 0.00 0.00 996.9
20260506173550 -17 270 29.0 53.1 0.00 0.00 0.00 997.0
20260506173540 -17 225 25.7 53.1 0.00 0.00 0.00 996.8
20260506173530 -17 225 22.5 51.5 0.00 0.00 0.00 997.0
20260506173520 -17 225 17.7 45.1 0.00 0.00 0.00 996.7
20260506173510 -17 90 16.1 32.2 0.00 0.00 0.00 996.6
20260506173500 -17 158 14.5 32.2 0.00 0.00 0.00 996.6
20260506173450 -17 203 14.5 32.2 0.00 0.00 0.00 997.0
20260506173440 -17 248 12.9 32.2 0.00 0.00 0.00 996.9
20260506173430 -17 180 12.9 32.2 0.00 0.00 0.00 996.8
20260506173420 -17 270 11.3 32.2 0.00 0.00 0.00 996.8
20260506173400 -17 225 9.7 32.2 0.00 0.00 0.00 996.8
20260506173350 -17 135 8.0 25.7 0.00 0.00 0.00 996.7
20260506173330 -17 180 9.7 25.7 0.00 0.00 0.00 996.8
20260506173320 -17 158 9.7 25.7 0.00 0.00 0.00 996.8
20260506173310 -17 225 9.7 25.7 0.00 0.00 0.00 996.8
20260506173240 -17 225 9.7 25.7 0.00 0.00 0.00 996.7
20260506173230 -17 180 9.7 25.7 0.00 0.00 0.00 996.8
20260506173220 -17 180 11.3 25.7 0.00 0.00 0.00 996.8
20260506173201 -17 180 12.9 25.7 0.00 0.00 0.00 996.6
20260506173151 -17 180 12.9 25.7 0.00 0.00 0.00 996.7
20260506173141 -17 225 12.9 25.7 0.00 0.00 0.00 996.7
20260506173121 -17 135 12.9 25.7 0.00 0.00 0.00 996.7
20260506173111 -17 225 12.9 25.7 0.00 0.00 0.00 996.6
20260506173101 -17 180 12.9 25.7 0.00 0.00 0.00 996.6
20260506173051 -17 180 14.5 25.7 0.00 0.00 0.00 996.6
20260506173041 -17 180 16.1 25.7 0.00 0.00 0.00 996.6
20260506173031 -17 180 14.5 25.7 0.00 0.00 0.00 996.5
20260506173021 -17 180 16.1 25.7 0.00 0.00 0.00 996.5
20260506173001 -17 135 16.1 25.7 0.00 0.00 0.00 996.5
20260506172941 -17 180 16.1 25.7 0.00 0.00 0.00 996.5
20260506172931 -17 135 17.7 25.7 0.00 0.00 0.00 996.5
20260506172921 -17 180 16.1 25.7 0.00 0.00 0.00 996.4
20260506172911 -17 180 17.7 25.7 0.00 0.00 0.00 996.4
20260506172901 -17 180 17.7 25.7 0.00 0.00 0.00 996.5
20260506172831 -17 180 16.1 25.7 0.00 0.00 0.00 996.4
20260506172821 -17 180 12.9 25.7 0.00 0.00 0.00 996.5
20260506172801 -17 180 12.9 25.7 0.00 0.00 0.00 996.4
20260506172721 -17 180 12.9 25.7 0.00 0.00 0.00 996.4
20260506172711 -17 158 12.9 25.7 0.00 0.00 0.00 996.5
20260506172701 -17 180 12.9 25.7 0.00 0.00 0.00 996.3
20260506172641 -17 180 12.9 24.1 0.00 0.00 0.00 996.4
20260506172631 -17 203 12.9 24.1 0.00 0.00 0.00 996.4
20260506172551 -17 180 12.9 24.1 0.00 0.00 0.00 996.4
20260506172542 -17 180 12.9 24.1 0.00 0.00 0.00 996.3
20260506172512 -17 180 12.9 24.1 0.00 0.00 0.00 996.4
20260506172502 -17 180 12.9 24.1 0.00 0.00 0.00 996.3
20260506172452 -17 225 14.5 24.1 0.00 0.00 0.00 996.4
20260506172432 -17 180 16.1 24.1 0.00 0.00 0.00 996.3
20260506172422 -17 0 14.5 24.1 0.00 0.00 0.00 996.3
20260506172402 -17 180 14.5 24.1 0.00 0.00 0.00 996.3
20260506172352 -17 180 12.9 24.1 0.00 0.00 0.00 996.4
20260506172322 -17 180 12.9 24.1 0.00 0.00 0.00 996.3
20260506172312 -17 180 14.5 24.1 0.00 0.00 0.00 996.3
20260506172306 -17 180 14.5 24.1 0.00 0.00 0.00 996.4
20260506172252 -17 180 16.1 24.1 0.00 0.00 0.00 996.4
20260506172222 -17 180 16.1 24.1 0.00 0.00 0.00 996.3
20260506172202 -17 180 16.1 24.1 0.00 0.00 0.00 996.2
20260506172142 -17 180 16.1 24.1 0.00 0.00 0.00 996.3
20260506172112 -17 203 16.1 24.1 0.00 0.00 0.00 996.2
20260506172102 -17 180 16.1 24.1 0.00 0.00 0.00 996.2
20260506172052 -17 180 16.1 22.5 0.00 0.00 0.00 996.3
20260506172042 -17 203 16.1 22.5 0.00 0.00 0.00 996.2
20260506172022 -17 180 16.1 22.5 0.00 0.00 0.00 996.2
20260506172002 -17 180 16.1 22.5 0.00 0.00 0.00 996.1
20260506171952 -17 180 16.1 22.5 0.00 0.00 0.00 996.0
20260506171913 -17 180 16.1 22.5 0.00 0.00 0.00 996.1
20260506171843 -17 180 16.1 22.5 0.00 0.00 0.00 996.0
20260506171833 -17 180 16.1 22.5 0.00 0.00 0.00 996.1
20260506171803 -17 180 16.1 25.7 0.00 0.00 0.00 996.1
20260506171753 -17 180 16.1 25.7 0.00 0.00 0.00 996.0
20260506171723 -17 180 16.1 25.7 0.00 0.00 0.00 996.1
20260506171633 -17 180 16.1 25.7 0.00 0.00 0.00 996.1
20260506171613 -17 180 16.1 25.7 0.00 0.00 0.00 996.0
20260506171603 -17 225 16.1 25.7 0.00 0.00 0.00 996.0
20260506171553 17 180 16.1 25.7 0.00 0.00 0.00 62 996.0
20260506171523 -17 180 16.1 25.7 0.00 0.00 0.00 996.0
20260506171453 -17 180 16.1 25.7 0.00 0.00 0.00 995.9
20260506171443 -17 180 16.1 25.7 0.00 0.00 0.00 996.0
20260506171433 -17 180 17.7 25.7 0.00 0.00 0.00 996.0
20260506171413 -17 180 19.3 25.7 0.00 0.00 0.00 996.0
20260506171353 -17 180 17.7 25.7 0.00 0.00 0.00 996.0
20260506171343 -17 180 17.7 25.7 0.00 0.00 0.00 995.9
20260506171334 -17 180 19.3 25.7 0.00 0.00 0.00 996.0
20260506171304 -17 180 17.7 25.7 0.00 0.00 0.00 996.0
20260506171254 -17 180 16.1 25.7 0.00 0.00 0.00 996.0
20260506171244 -17 180 16.1 25.7 0.00 0.00 0.00 995.9
20260506171224 -17 180 16.1 24.1 0.00 0.00 0.00 807.0
20260506171214 -17 180 16.1 24.1 0.00 0.00 0.00 996.0
20260506171144 -17 180 16.1 24.1 0.00 0.00 0.00 995.9
20260506171134 -17 180 14.5 24.1 0.00 0.00 0.00 995.9
20260506171124 -17 180 12.9 24.1 0.00 0.00 0.00 995.9
20260506171114 -17 180 12.9 24.1 0.00 0.00 0.00 996.0
20260506171104 -17 180 12.9 24.1 0.00 0.00 0.00 995.8
20260506171054 -17 180 14.5 24.1 0.00 0.00 0.00 996.0
20260506171024 -17 180 14.5 24.1 0.00 0.00 0.00 995.9
20260506171014 -17 180 14.5 24.1 0.00 0.00 0.00 995.8
20260506171004 -17 180 14.5 22.5 0.00 0.00 0.00 995.8
20260506170954 -17 180 12.9 20.9 0.00 0.00 0.00 995.8
20260506170934 -17 180 12.9 20.9 0.00 0.00 0.00 995.9
20260506170914 -17 180 11.3 20.9 0.00 0.00 0.00 995.8
20260506170904 -17 180 11.3 17.7 0.00 0.00 0.00 995.8
20260506170854 -17 180 9.7 17.7 0.00 0.00 0.00 995.8
20260506170844 -17 225 9.7 17.7 0.00 0.00 0.00 995.8
20260506170824 -17 180 11.3 17.7 0.00 0.00 0.00 995.8
20260506170814 -17 180 9.7 17.7 0.00 0.00 0.00 995.8
20260506170735 -17 180 9.7 17.7 0.00 0.00 0.00 995.8
20260506170725 -17 180 9.7 17.7 0.00 0.00 0.00 995.7
20260506170715 -17 203 9.7 17.7 0.00 0.00 0.00 995.8
20260506170705 -17 180 11.3 17.7 0.00 0.00 0.00 995.7
20260506170655 -17 203 9.7 17.7 0.00 0.00 0.00 995.7
20260506170625 -17 180 9.7 17.7 0.00 0.00 0.00 995.7
20260506170615 -17 180 9.7 17.7 0.00 0.00 0.00 995.8
20260506170605 17 180 9.7 17.7 0.00 0.00 0.00 62 995.7
20260506170535 -17 225 9.7 17.7 0.00 0.00 0.00 995.7
20260506170525 -17 180 9.7 17.7 0.00 0.00 0.00 995.7
20260506170515 -17 180 11.3 17.7 0.00 0.00 0.00 995.7
20260506170505 -17 180 9.7 16.1 0.00 0.00 0.00 995.6
20260506170455 -17 203 9.7 16.1 0.00 0.00 0.00 995.7
20260506170445 -17 180 11.3 17.7 0.00 0.00 0.00 995.6
20260506170435 -17 180 9.7 17.7 0.00 0.00 0.00 995.6
20260506170425 -17 180 9.7 17.7 0.00 0.00 0.00 995.7
20260506170405 -17 180 11.3 17.7 0.00 0.00 0.00 995.6
20260506170335 -17 180 9.7 17.7 0.00 0.00 0.00 995.6
20260506170325 -17 180 9.7 19.3 0.00 0.00 0.00
20260506170315 -17 180 9.7 19.3 0.00 0.00 0.00 995.6
20260506170255 -17 180 9.7 20.9 0.00 0.00 0.00 995.6
20260506170245 -17 180 9.7 22.5 0.00 0.00 0.00 995.6
20260506170235 -17 180 9.7 22.5 0.00 0.00 0.00 995.5
20260506170215 -17 180 11.3 22.5 0.00 0.00 0.00 995.5
20260506170136 -17 180 11.3 22.5 0.00 0.00 0.00 995.5
20260506170126 -17 180 11.3 22.5 0.00 0.00 0.00 995.4
20260506170056 -17 180 12.9 22.5 0.00 0.00 0.00 995.5
20260506170016 -17 180 12.9 22.5 0.00 0.00 0.00 995.5
20260506165946 -17 180 12.9 22.5 0.00 0.00 0.00 995.4
20260506165936 -17 180 12.9 22.5 0.00 0.00 0.00 995.5
20260506165906 -17 180 14.5 22.5 0.00 0.00 0.00 995.5
20260506165846 -17 180 16.1 25.7 0.00 0.00 0.00 995.5
20260506165816 -17 180 16.1 25.7 0.00 0.00 0.00 995.4
20260506165806 -17 180 16.1 25.7 0.00 0.00 0.00 995.5
20260506165736 -17 180 16.1 25.7 0.00 0.00 0.00 995.4
20260506165726 -17 180 16.1 25.7 0.00 0.00 0.00 995.5
20260506165646 -17 180 16.1 25.7 0.00 0.00 0.00 995.5
20260506165626 -17 180 16.1 25.7 0.00 0.00 0.00 995.4
20260506165547 -17 180 17.7 25.7 0.00 0.00 0.00 995.5
20260506165517 -17 180 17.7 25.7 0.00 0.00 0.00 995.4
20260506165507 -17 180 17.7 25.7 0.00 0.00 0.00 995.5
20260506165447 -17 180 19.3 25.7 0.00 0.00 0.00 995.4
20260506165417 -17 180 17.7 25.7 0.00 0.00 0.00 995.5
20260506165407 -17 180 17.7 25.7 0.00 0.00 0.00 995.4
20260506165347 -17 180 17.7 22.5 0.00 0.00 0.00 995.4
20260506165337 -17 180 17.7 22.5 0.00 0.00 0.00 995.5
20260506165327 -17 180 16.1 22.5 0.00 0.00 0.00 995.4
20260506165257 -17 0 16.1 22.5 0.00 0.00 0.00 995.5
20260506165247 -17 180 16.1 22.5 0.00 0.00 0.00 995.5
20260506165237 -17 180 16.1 22.5 0.00 0.00 0.00 995.4
20260506165227 -17 180 17.7 22.5 0.00 0.00 0.00 995.5
20260506165207 -17 180 17.7 22.5 0.00 0.00 0.00 995.4
20260506165147 -17 180 17.7 22.5 0.00 0.00 0.00 995.5
20260506165117 -17 180 17.7 22.5 0.00 0.00 0.00 995.4
20260506165107 -17 180 17.7 22.5 0.00 0.00 0.00 995.5
20260506165057 -17 180 19.3 22.5 0.00 0.00 0.00 995.4
20260506165047 -17 180 19.3 22.5 0.00 0.00 0.00 995.5
20260506165038 -17 180 17.7 22.5 0.00 0.00 0.00 995.4
20260506165028 -17 180 17.7 22.5 0.00 0.00 0.00 995.5
20260506165008 -17 180 16.1 22.5 0.00 0.00 0.00 995.3
20260506164948 -17 180 16.1 22.5 0.00 0.00 0.00 995.4
20260506164938 -17 180 14.5 22.5 0.00 0.00 0.00 995.4
20260506164918 -17 180 16.1 22.5 0.00 0.00 0.00 995.5
20260506164908 -17 180 16.1 22.5 0.00 0.00 0.00 995.4
20260506164858 -17 158 16.1 22.5 0.00 0.00 0.00 995.4
20260506164838 -17 158 16.1 22.5 0.00 0.00 0.00 995.5
20260506164828 -17 180 16.1 22.5 0.00 0.00 0.00 995.4
20260506164818 -17 180 16.1 22.5 0.00 0.00 0.00 995.3
20260506164808 -17 158 14.5 22.5 0.00 0.00 0.00 995.4
20260506164758 -17 180 14.5 22.5 0.00 0.00 0.00 995.5
20260506164748 -17 180 14.5 22.5 0.00 0.00 0.00 995.4
20260506164718 -17 180 14.5 22.5 0.00 0.00 0.00 995.5
20260506164708 -17 158 14.5 22.5 0.00 0.00 0.00 995.5
20260506164658 -17 135 16.1 22.5 0.00 0.00 0.00 995.5
20260506164648 -17 180 16.1 22.5 0.00 0.00 0.00 995.5
20260506164638 -17 158 16.1 22.5 0.00 0.00 0.00 995.4
20260506164628 -17 158 16.1 22.5 0.00 0.00 0.00 995.5
20260506164608 -17 135 16.1 22.5 0.00 0.00 0.00 995.5
20260506164558 -17 135 16.1 22.5 0.00 0.00 0.00
20260506164548 -17 158 16.1 22.5 0.00 0.00 0.00 995.5
20260506164529 -17 135 14.5 22.5 0.00 0.00 0.00 995.5
20260506164519 -17 135 12.9 22.5 0.00 0.00 0.00 995.4
20260506164449 -17 135 12.9 22.5 0.00 0.00 0.00 995.5
20260506164439 -17 135 12.9 22.5 0.00 0.00 0.00 995.4
20260506164429 -17 180 12.9 22.5 0.00 0.00 0.00 995.5
20260506164409 -17 135 12.9 22.5 0.00 0.00 0.00 995.5
20260506164359 -17 158 12.9 22.5 0.00 0.00 0.00 995.4
20260506164349 -17 180 12.9 22.5 0.00 0.00 0.00 995.5
20260506164339 -17 158 12.9 22.5 0.00 0.00 0.00 995.5
20260506164309 20 158 12.9 22.5 0.00 0.00 0.00 52 995.5
20260506164259 -17 180 12.9 22.5 0.00 0.00 0.00 995.5
20260506164249 -17 158 14.5 22.5 0.00 0.00 0.00 995.5
20260506164239 -17 180 16.1 22.5 0.00 0.00 0.00 995.6
20260506164209 -17 180 16.1 22.5 0.00 0.00 0.00 995.5
20260506164159 -17 180 14.5 22.5 0.00 0.00 0.00 995.6
20260506164139 -17 180 14.5 22.5 0.00 0.00 0.00 995.5
20260506164119 -17 180 12.9 22.5 0.00 0.00 0.00 995.6
20260506164109 -17 158 12.9 22.5 0.00 0.00 0.00 995.5
20260506164100 -17 135 12.9 22.5 0.00 0.00 0.00 995.5
20260506164049 -17 158 14.5 22.5 0.00 0.00 0.00 995.6
20260506164039 -17 180 14.5 22.5 0.00 0.00 0.00 995.5
20260506164019 -17 158 16.1 22.5 0.00 0.00 0.00 995.5
20260506164009 -17 135 16.1 22.5 0.00 0.00 0.00 995.5
20260506163940 -17 180 16.1 22.5 0.00 0.00 0.00 995.6
20260506163930 -17 135 16.1 22.5 0.00 0.00 0.00 995.6
20260506163920 -17 158 17.7 22.5 0.00 0.00 0.00 995.5
20260506163910 -17 135 17.7 22.5 0.00 0.00 0.00 995.6
20260506163900 -17 180 16.1 22.5 0.00 0.00 0.00 995.6
20260506163850 -17 158 16.1 22.5 0.00 0.00 0.00 995.5
20260506163840 -17 135 16.1 22.5 0.00 0.00 0.00 995.5
20260506163830 -17 180 16.1 22.5 0.00 0.00 0.00 995.5
20260506163800 -17 180 14.5 22.5 0.00 0.00 0.00 995.5
20260506163750 -17 180 16.1 22.5 0.00 0.00 0.00 995.6
20260506163740 -17 180 16.1 22.5 0.00 0.00 0.00 995.5
20260506163730 -17 135 16.1 22.5 0.00 0.00 0.00 995.6
20260506163700 -17 180 16.1 22.5 0.00 0.00 0.00 995.5
20260506163650 -17 180 16.1 22.5 0.00 0.00 0.00 995.6
20260506163640 -17 180 16.1 22.5 0.00 0.00 0.00 995.7
20260506163600 -17 180 16.1 22.5 0.00 0.00 0.00 995.6
20260506163540 -17 158 16.1 22.5 0.00 0.00 0.00 995.5
20260506163530 -17 180 16.1 22.5 0.00 0.00 0.00 995.5
20260506163500 -17 158 16.1 22.5 0.00 0.00 0.00 995.6
20260506163450 -17 158 17.7 22.5 0.00 0.00 0.00 995.6
20260506163430 -17 180 16.1 22.5 0.00 0.00 0.00 995.5
20260506163411 -17 158 17.7 22.5 0.00 0.00 0.00 995.6
20260506163400 -17 158 16.1 22.5 0.00 0.00 0.00 995.6
20260506163351 -17 180 16.1 22.5 0.00 0.00 0.00 995.6
20260506163341 -17 180 16.1 22.5 0.00 0.00 0.00 995.4
20260506163331 -17 158 16.1 22.5 0.00 0.00 0.00 995.5
20260506163311 -17 180 16.1 22.5 0.00 0.00 0.00 995.5
20260506163301 -17 180 16.1 20.9 0.00 0.00 0.00 740.6
20260506163231 -17 180 16.1 20.9 0.00 0.00 0.00 995.5
20260506163221 -17 158 16.1 20.9 0.00 0.00 0.00 995.5
20260506163211 -17 180 16.1 22.5 0.00 0.00 0.00 995.5
20260506163201 -17 158 14.5 22.5 0.00 0.00 0.00 995.5
20260506163141 -17 180 14.5 22.5 0.00 0.00 0.00 995.5
20260506163121 -17 180 12.9 22.5 0.00 0.00 0.00 995.5
20260506163051 -17 158 12.9 22.5 0.00 0.00 0.00 995.5
20260506163041 -17 180 12.9 22.5 0.00 0.00 0.00 995.5
20260506163031 -17 135 11.3 22.5 0.00 0.00 0.00 995.5
20260506163011 -17 158 11.3 22.5 0.00 0.00 0.00 995.5
20260506163001 -17 180 11.3 22.5 0.00 0.00 0.00 995.5
20260506162951 -17 158 12.9 25.7 0.00 0.00 0.00 995.5
20260506162941 -17 180 12.9 25.7 0.00 0.00 0.00 995.5
20260506162931 -17 158 14.5 25.7 0.00 0.00 0.00 995.5
20260506162921 -17 135 14.5 25.7 0.00 0.00 0.00 995.5
20260506162851 -17 180 16.1 25.7 0.00 0.00 0.00 995.5
20260506162831 -17 180 16.1 25.7 0.00 0.00 0.00 995.4
20260506162811 -17 180 16.1 25.7 0.00 0.00 0.00 995.5
20260506162732 -17 180 16.1 25.7 0.00 0.00 0.00 995.5
20260506162712 -17 180 16.1 25.7 0.00 0.00 0.00 995.6
20260506162702 -17 158 16.1 25.7 0.00 0.00 0.00 995.6
20260506162632 -17 180 16.1 25.7 0.00 0.00 0.00 995.5
20260506162622 -17 158 16.1 25.7 0.00 0.00 0.00 995.6
20260506162612 -17 180 16.1 25.7 0.00 0.00 0.00 995.7
20260506162552 -17 180 16.1 25.7 0.00 0.00 0.00 995.6
20260506162532 -17 180 16.1 25.7 0.00 0.00 0.00 995.7
20260506162512 -17 180 16.1 25.7 0.00 0.00 0.00 995.6
20260506162502 -17 180 14.5 25.7 0.00 0.00 0.00 995.7
20260506162452 -17 180 14.5 22.5 0.00 0.00 0.00 995.6
20260506162442 -17 180 14.5 22.5 0.00 0.00 0.00 995.7
20260506162432 -17 180 16.1 22.5 0.00 0.00 0.00 995.7
20260506162422 -17 158 16.1 22.5 0.00 0.00 0.00 995.7
20260506162412 -17 180 16.1 22.5 0.00 0.00 0.00 995.8
20260506162402 -17 180 14.5 22.5 0.00 0.00 0.00 995.8
20260506162352 -17 180 12.9 20.9 0.00 0.00 0.00 995.8
20260506162332 -17 180 12.9 17.7 0.00 0.00 0.00 995.8
20260506162322 -17 180 12.9 16.1 0.00 0.00 0.00 995.8
20260506162312 -17 158 12.9 16.1 0.00 0.00 0.00 995.8
20260506162306 -17 180 11.3 16.1 0.00 0.00 0.00 995.8
20260506162252 -17 158 11.3 16.1 0.00 0.00 0.00 995.9
20260506162242 -17 180 11.3 16.1 0.00 0.00 0.00 995.9
20260506162222 -17 180 11.3 16.1 0.00 0.00 0.00 995.8
20260506162203 -17 180 9.7 16.1 0.00 0.00 0.00 995.8
20260506162143 -17 180 11.3 16.1 0.00 0.00 0.00 995.8
20260506162133 -17 158 11.3 16.1 0.00 0.00 0.00 995.8
20260506162103 -17 180 11.3 16.1 0.00 0.00 0.00 995.8
20260506162053 -17 180 9.7 16.1 0.00 0.00 0.00 995.8
20260506162023 -17 180 9.7 16.1 0.00 0.00 0.00 995.7
20260506162013 -17 180 9.7 16.1 0.00 0.00 0.00 995.8
20260506162003 -17 180 11.3 16.1 0.00 0.00 0.00 995.7
20260506161953 -17 180 11.3 16.1 0.00 0.00 0.00 995.8
20260506161913 -17 180 12.9 16.1 0.00 0.00 0.00 995.8
20260506161843 -17 180 11.3 16.1 0.00 0.00 0.00 995.8
20260506161833 -17 180 11.3 16.1 0.00 0.00 0.00 995.7
20260506161813 -17 180 9.7 16.1 0.00 0.00 0.00 995.7
20260506161803 -17 180 9.7 16.1 0.00 0.00 0.00 995.8
20260506161753 -17 180 11.3 16.1 0.00 0.00 0.00 995.8
20260506161743 -17 180 11.3 17.7 0.00 0.00 0.00 995.8
20260506161723 -17 180 9.7 20.9 0.00 0.00 0.00 995.8
20260506161713 -17 180 11.3 20.9 0.00 0.00 0.00 995.8
20260506161633 -17 180 11.3 20.9 0.00 0.00 0.00 995.8
20260506161614 -17 180 9.7 20.9 0.00 0.00 0.00 995.8
20260506161604 -17 180 9.7 22.5 0.00 0.00 0.00 995.8
20260506161544 -17 180 9.7 25.7 0.00 0.00 0.00 995.8
20260506161534 -17 180 11.3 25.7 0.00 0.00 0.00 995.8
20260506161524 -17 158 11.3 25.7 0.00 0.00 0.00 995.9
20260506161444 -17 180 11.3 25.7 0.00 0.00 0.00 995.8
20260506161424 -17 180 11.3 25.7 0.00 0.00 0.00 995.9
20260506161354 -17 180 11.3 25.7 0.00 0.00 0.00 995.8
20260506161345 -17 180 11.3 25.7 0.00 0.00 0.00 995.9
20260506161334 -17 180 12.9 25.7 0.00 0.00 0.00 995.9
20260506161324 -17 180 12.9 25.7 0.00 0.00 0.00 995.8
20260506161314 -17 203 12.9 25.7 0.00 0.00 0.00 995.8
20260506161304 -17 180 14.5 25.7 0.00 0.00 0.00 995.8
20260506161244 -17 180 16.1 25.7 0.00 0.00 0.00 995.9
20260506161214 -17 180 16.1 25.7 0.00 0.00 0.00 995.8
20260506161204 -17 180 16.1 25.7 0.00 0.00 0.00 995.9
20260506161144 -17 180 17.7 25.7 0.00 0.00 0.00 995.9
20260506161114 -17 180 19.3 25.7 0.00 0.00 0.00 995.8
20260506161054 -17 180 19.3 25.7 0.00 0.00 0.00 995.9
20260506161045 -17 180 17.7 25.7 0.00 0.00 0.00 995.8
20260506161025 -17 180 17.7 25.7 0.00 0.00 0.00 995.9
20260506161015 -17 180 16.1 22.5 0.00 0.00 0.00 995.8
20260506160955 -17 180 16.1 22.5 0.00 0.00 0.00 995.9
20260506160945 21 180 14.5 22.5 0.00 0.00 0.00 52 995.8
20260506160935 -17 180 12.9 22.5 0.00 0.00 0.00 995.9
20260506160925 -17 180 12.9 22.5 0.00 0.00 0.00 995.8
20260506160915 -17 180 12.9 20.9 0.00 0.00 0.00 995.8
20260506160905 -17 180 11.3 20.9 0.00 0.00 0.00 995.8
20260506160835 -17 180 12.9 20.9 0.00 0.00 0.00 995.9
20260506160825 -17 180 12.9 20.9 0.00 0.00 0.00 995.8
20260506160815 -17 180 11.3 20.9 0.00 0.00 0.00 995.8
20260506160805 -17 180 11.3 17.7 0.00 0.00 0.00 995.8
20260506160745 -17 180 9.7 17.7 0.00 0.00 0.00 995.8
20260506160735 -17 180 8.0 17.7 0.00 0.00 0.00 995.9
20260506160725 -17 180 8.0 17.7 0.00 0.00 0.00 995.8
20260506160715 -17 180 6.4 17.7 0.00 0.00 0.00 995.8
20260506160705 -17 180 8.0 17.7 0.00 0.00 0.00 995.7
20260506160655 -17 158 8.0 17.7 0.00 0.00 0.00 995.8
20260506160635 -17 180 9.7 17.7 0.00 0.00 0.00 995.8
20260506160625 -17 225 9.7 17.7 0.00 0.00 0.00 995.8
20260506160615 -17 180 11.3 17.7 0.00 0.00 0.00 995.7
20260506160605 -17 180 9.7 16.1 0.00 0.00 0.00 995.7
20260506160555 -17 180 9.7 14.5 0.00 0.00 0.00 995.8
20260506160545 -17 180 9.7 14.5 0.00 0.00 0.00 995.7
20260506160535 21 180 9.7 12.9 0.00 0.00 0.00 51 995.8
20260506160505 -17 180 9.7 12.9 0.00 0.00 0.00 995.8
20260506160445 -17 180 8.0 12.9 0.00 0.00 0.00 995.8
20260506160426 -17 180 9.7 12.9 0.00 0.00 0.00 995.8
20260506160406 -17 180 8.0 12.9 0.00 0.00 0.00 995.8
20260506160336 -17 180 8.0 12.9 0.00 0.00 0.00 995.7
20260506160326 -17 180 8.0 12.9 0.00 0.00 0.00 995.8
20260506160256 -17 180 8.0 14.5 0.00 0.00 0.00 995.7
20260506160226 -17 180 8.0 14.5 0.00 0.00 0.00 995.8
20260506160216 -17 180 8.0 14.5 0.00 0.00 0.00 995.7
20260506160156 -17 180 9.7 14.5 0.00 0.00 0.00 995.7
20260506160146 20 180 9.7 14.5 0.00 0.00 0.00 52 995.7
20260506160136 -17 180 9.7 14.5 0.00 0.00 0.00 995.8
20260506160106 -17 180 9.7 14.5 0.00 0.00 0.00 995.7
20260506160056 -17 180 9.7 14.5 0.00 0.00 0.00 995.8
20260506160016 -17 180 9.7 14.5 0.00 0.00 0.00 995.7
20260506155956 -17 180 9.7 14.5 0.00 0.00 0.00 995.8
20260506155936 -17 180 8.0 14.5 0.00 0.00 0.00 995.8
20260506155926 -17 180 9.7 14.5 0.00 0.00 0.00 995.7
20260506155906 -17 158 9.7 14.5 0.00 0.00 0.00 995.7
20260506155856 -17 158 9.7 14.5 0.00 0.00 0.00 995.8
20260506155846 -17 180 9.7 14.5 0.00 0.00 0.00 995.7
20260506155836 -17 180 9.7 14.5 0.00 0.00 0.00 995.8
20260506155807 -17 180 9.7 14.5 0.00 0.00 0.00 995.7
20260506155747 -17 180 8.0 12.9 0.00 0.00 0.00 995.7
20260506155727 -17 180 8.0 11.3 0.00 0.00 0.00 995.7
20260506155717 -17 180 6.4 11.3 0.00 0.00 0.00 995.7
20260506155637 -17 180 6.4 9.7 0.00 0.00 0.00 995.7
20260506155617 -17 180 6.4 9.7 0.00 0.00 0.00 995.8
20260506155557 -17 180 6.4 9.7 0.00 0.00 0.00 995.7
20260506155547 -17 0 6.4 9.7 0.00 0.00 0.00 995.8
20260506155537 -17 180 6.4 9.7 0.00 0.00 0.00 995.8
20260506155517 -17 180 6.4 9.7 0.00 0.00 0.00 995.7
20260506155457 -17 180 6.4 9.7 0.00 0.00 0.00 995.8
20260506155447 -17 158 6.4 9.7 0.00 0.00 0.00 995.8
20260506155417 -17 180 6.4 9.7 0.00 0.00 0.00 995.8
20260506155357 -17 180 6.4 9.7 0.00 0.00 0.00 995.7
20260506155348 -17 180 6.4 8.0 0.00 0.00 0.00 995.8
20260506155337 -17 158 6.4 8.0 0.00 0.00 0.00 995.8
20260506155307 -17 180 4.8 8.0 0.00 0.00 0.00 995.8
20260506155257 -17 180 4.8 9.7 0.00 0.00 0.00 995.8
20260506155218 -17 180 4.8 9.7 0.00 0.00 0.00 995.8
20260506155138 -17 180 4.8 9.7 0.00 0.00 0.00 995.8
20260506155058 -17 180 4.8 9.7 0.00 0.00 0.00 995.8
20260506155018 -17 180 4.8 9.7 0.00 0.00 0.00 995.8
20260506154958 -17 180 4.8 9.7 0.00 0.00 0.00 995.7
20260506154938 -17 180 4.8 9.7 0.00 0.00 0.00 995.8
20260506154918 -17 180 4.8 9.7 0.00 0.00 0.00 995.7
20260506154908 -17 135 6.4 9.7 0.00 0.00 0.00 995.7
20260506154858 -17 180 6.4 9.7 0.00 0.00 0.00 995.7
20260506154848 -17 158 6.4 9.7 0.00 0.00 0.00 995.7
20260506154838 -17 135 6.4 11.3 0.00 0.00 0.00 995.7
20260506154828 -17 180 6.4 11.3 0.00 0.00 0.00 995.7
20260506154808 -17 135 4.8 11.3 0.00 0.00 0.00 995.7
20260506154758 -17 158 4.8 11.3 0.00 0.00 0.00 995.7
20260506154748 -17 180 4.8 11.3 0.00 0.00 0.00 995.7
20260506154738 -17 180 3.2 11.3 0.00 0.00 0.00 995.7
20260506154708 -17 135 4.8 11.3 0.00 0.00 0.00 995.7
20260506154658 -17 158 4.8 11.3 0.00 0.00 0.00 995.6
20260506154648 -17 135 4.8 11.3 0.00 0.00 0.00 995.6
20260506154638 -17 158 6.4 11.3 0.00 0.00 0.00 995.6
20260506154559 -17 135 6.4 11.3 0.00 0.00 0.00 995.6
20260506154549 -17 135 6.4 11.3 0.00 0.00 0.00 995.7
20260506154509 -17 135 6.4 11.3 0.00 0.00 0.00 995.6
20260506154439 -17 135 6.4 12.9 0.00 0.00 0.00 995.6
20260506154429 -17 135 8.0 12.9 0.00 0.00 0.00 995.6
20260506154349 -17 135 8.0 12.9 0.00 0.00 0.00 995.6
20260506154329 -17 135 6.4 12.9 0.00 0.00 0.00 995.5
20260506154309 -17 135 6.4 12.9 0.00 0.00 0.00 995.6
20260506154259 -17 135 8.0 12.9 0.00 0.00 0.00 995.6
20260506154219 -17 135 8.0 12.9 0.00 0.00 0.00 995.5
20260506154209 -17 135 8.0 14.5 0.00 0.00 0.00 995.6
20260506154149 -17 135 8.0 14.5 0.00 0.00 0.00 995.5
20260506154109 -17 135 8.0 14.5 0.00 0.00 0.00 995.5
20260506154039 -17 135 9.7 14.5 0.00 0.00 0.00 995.5
20260506154030 -17 135 9.7 14.5 0.00 0.00 0.00 995.4
20260506154000 -17 135 9.7 14.5 0.00 0.00 0.00 995.5
20260506153950 -17 135 9.7 14.5 0.00 0.00 0.00 995.4
20260506153920 -17 135 8.0 14.5 0.00 0.00 0.00 995.5
20260506153910 -17 135 9.7 14.5 0.00 0.00 0.00 995.4
20260506153850 -17 135 9.7 14.5 0.00 0.00 0.00 995.5
20260506153830 -17 135 9.7 14.5 0.00 0.00 0.00 995.4
20260506153810 -17 135 9.7 14.5 0.00 0.00 0.00 995.5
20260506153730 -17 135 9.7 14.5 0.00 0.00 0.00 995.5
20260506153720 -17 135 9.7 14.5 0.00 0.00 0.00 995.4
20260506153710 -17 135 9.7 12.9 0.00 0.00 0.00 995.5
20260506153630 -17 135 9.7 12.9 0.00 0.00 0.00 995.5
20260506153550 -17 135 9.7 12.9 0.00 0.00 0.00 995.5
20260506153510 -17 135 9.7 12.9 0.00 0.00 0.00 995.5
20260506153430 -17 135 9.7 12.9 0.00 0.00 0.00 995.5
20260506153351 -17 135 9.7 12.9 0.00 0.00 0.00 995.6
20260506153331 -17 135 8.0 12.9 0.00 0.00 0.00 995.6
20260506153311 -17 135 9.7 12.9 0.00 0.00 0.00 995.6
20260506153241 -17 135 8.0 12.9 0.00 0.00 0.00 995.6
20260506153211 -17 135 8.0 12.9 0.00 0.00 0.00 995.7
20260506153201 -17 135 9.7 12.9 0.00 0.00 0.00 995.7
20260506153141 -17 158 8.0 12.9 0.00 0.00 0.00 995.7
20260506153131 -17 135 8.0 12.9 0.00 0.00 0.00 995.7
20260506153111 -17 180 8.0 12.9 0.00 0.00 0.00 995.7
20260506153051 -17 158 8.0 12.9 0.00 0.00 0.00 995.7
20260506153031 -17 180 8.0 12.9 0.00 0.00 0.00 995.8
20260506153021 28 180 8.0 12.9 0.00 0.00 0.00 34 995.8
20260506153011 -17 180 8.0 12.9 0.00 0.00 0.00 995.7
20260506153001 -17 158 8.0 12.9 0.00 0.00 0.00 995.8
20260506152921 -17 158 8.0 12.9 0.00 0.00 0.00 995.8
20260506152911 -17 180 8.0 12.9 0.00 0.00 0.00 995.8
20260506152831 -17 180 8.0 12.9 0.00 0.00 0.00 995.8
20260506152752 -17 180 8.0 12.9 0.00 0.00 0.00 995.8
20260506152712 -17 180 9.7 12.9 0.00 0.00 0.00 995.8
20260506152632 -17 180 9.7 12.9 0.00 0.00 0.00 995.8
20260506152622 -17 180 8.0 12.9 0.00 0.00 0.00 995.8
20260506152612 -17 180 8.0 11.3 0.00 0.00 0.00 995.8
20260506152542 -17 180 6.4 11.3 0.00 0.00 0.00 995.8
20260506152452 -17 180 6.4 11.3 0.00 0.00 0.00 995.9
20260506152442 -17 180 6.4 11.3 0.00 0.00 0.00 995.8
20260506152412 -17 180 6.4 11.3 0.00 0.00 0.00 995.9
20260506152402 -17 180 6.4 11.3 0.00 0.00 0.00 995.8
20260506152322 -17 180 8.0 11.3 0.00 0.00 0.00 995.8
20260506152252 -17 158 8.0 11.3 0.00 0.00 0.00 995.8
20260506152242 -17 180 8.0 11.3 0.00 0.00 0.00 995.8
20260506152232 -17 180 6.4 11.3 0.00 0.00 0.00 995.8
20260506152153 -17 180 6.4 11.3 0.00 0.00 0.00 995.8
20260506152113 -17 180 8.0 11.3 0.00 0.00 0.00 995.8
20260506152033 -17 180 8.0 11.3 0.00 0.00 0.00 995.7
20260506151953 -17 180 8.0 11.3 0.00 0.00 0.00 995.7
20260506151923 -17 180 6.4 11.3 0.00 0.00 0.00 995.7
20260506151913 -17 158 6.4 11.3 0.00 0.00 0.00 995.6
20260506151903 -17 158 6.4 11.3 0.00 0.00 0.00 995.7
20260506151853 -17 135 6.4 11.3 0.00 0.00 0.00 995.7
20260506151843 -17 180 8.0 11.3 0.00 0.00 0.00 995.6
20260506151823 -17 158 8.0 11.3 0.00 0.00 0.00 995.7
20260506151813 -17 135 8.0 11.3 0.00 0.00 0.00 995.7
20260506151803 -17 158 8.0 11.3 0.00 0.00 0.00 995.6
20260506151743 -17 158 8.0 11.3 0.00 0.00 0.00 995.7
20260506151733 -17 158 8.0 9.7 0.00 0.00 0.00 995.6
20260506151723 -17 135 8.0 9.7 0.00 0.00 0.00 995.7
20260506151713 -17 158 8.0 9.7 0.00 0.00 0.00 995.7
20260506151653 -17 135 8.0 9.7 0.00 0.00 0.00 995.6
20260506151643 -17 135 8.0 9.7 0.00 0.00 0.00 995.7
20260506151613 -17 135 8.0 9.7 0.00 0.00 0.00 995.6
20260506151604 -17 135 6.4 9.7 0.00 0.00 0.00 995.6
20260506151544 -17 158 6.4 9.7 0.00 0.00 0.00 995.6
20260506151534 -17 135 6.4 9.7 0.00 0.00 0.00 995.7
20260506151524 -17 135 6.4 9.7 0.00 0.00 0.00 995.6
20260506151514 -17 158 6.4 8.0 0.00 0.00 0.00 995.6
20260506151504 -17 135 6.4 8.0 0.00 0.00 0.00 995.6
20260506151424 -17 135 6.4 8.0 0.00 0.00 0.00 995.6
20260506151344 -17 135 6.4 8.0 0.00 0.00 0.00 995.6
20260506151324 -17 135 6.4 8.0 0.00 0.03 0.00 995.6
20260506151304 -17 135 6.4 8.0 0.00 0.03 0.00 995.7
20260506151234 -17 135 6.4 8.0 0.00 0.03 0.00 995.6
20260506151214 -17 135 4.8 8.0 0.00 0.03 0.00 995.6
20260506151134 -17 135 4.8 8.0 0.00 0.03 0.00 995.6
20260506151114 -17 135 4.8 6.4 0.00 0.03 0.00 995.6
20260506151054 -17 135 4.8 6.4 0.00 0.03 0.00 995.7
20260506151015 -17 135 4.8 6.4 0.00 0.03 0.00 995.6
20260506151005 -17 135 4.8 6.4 0.00 0.03 0.00 995.7
20260506150925 -17 135 4.8 6.4 0.00 0.03 0.00 995.6
20260506150845 -17 135 4.8 6.4 0.00 0.03 0.00 995.6
20260506150825 -17 135 3.2 6.4 0.00 0.03 0.00 995.6
20260506150805 -17 135 3.2 6.4 0.00 0.03 0.00 995.7
20260506150725 -17 135 3.2 6.4 0.00 0.03 0.00 995.7
20260506150655 -17 135 3.2 8.0 0.00 0.03 0.00 995.7
20260506150645 -17 158 3.2 8.0 0.00 0.03 0.00 995.6
20260506150615 -17 158 3.2 8.0 0.00 0.03 0.00 995.7
20260506150605 -17 158 3.2 8.0 0.00 0.03 0.00 995.8
20260506150525 -17 180 3.2 8.0 0.00 0.03 0.00 995.7
20260506150505 -17 180 3.2 8.0 0.00 0.03 0.00 995.8
20260506150436 -17 180 3.2 8.0 0.00 0.03 0.00 995.7
20260506150416 -17 180 3.2 8.0 0.00 0.03 0.00 995.8
20260506150406 -17 180 4.8 8.0 0.00 0.03 0.00 995.8
20260506150356 -17 135 4.8 8.0 0.00 0.03 0.00 995.7
20260506150346 -17 135 4.8 8.0 0.00 0.03 0.00 995.8
20260506150326 -17 158 4.8 8.0 0.00 0.03 0.00 995.8
20260506150302 -17 135 4.8 8.0 0.00 0.03 0.00 995.8
20260506150246 -17 158 4.8 8.0 0.00 0.03 0.00 995.8
20260506150226 -17 180 4.8 8.0 0.00 0.03 0.00 995.8
20260506150216 -17 180 4.8 9.7 0.00 0.03 0.00 995.8
20260506150156 -17 158 4.8 11.3 0.00 0.03 0.00 995.8
20260506150136 -17 180 4.8 11.3 0.00 0.03 0.00 995.8
20260506150056 -17 180 4.8 11.3 0.00 0.03 0.00 995.8
20260506150016 -17 180 4.8 11.3 0.00 0.03 0.00 995.8
20260506150006 -17 180 3.2 11.3 0.00 0.03 0.00 995.8
20260506145946 -17 180 3.2 11.3 0.00 0.03 0.00 995.9
20260506145906 -17 180 3.2 11.3 0.00 0.03 0.00 995.9
20260506145846 -17 180 4.8 11.3 0.00 0.03 0.00 995.8
20260506145827 -17 180 4.8 11.3 0.00 0.03 0.00 995.9
20260506145757 -17 180 6.4 11.3 0.00 0.03 0.00 995.9
20260506145717 -17 180 6.4 11.3 0.00 0.03 0.00 995.9
20260506145657 -17 180 6.4 8.0 0.00 0.03 0.00 995.9
20260506145647 -17 180 4.8 8.0 0.00 0.03 0.00 995.9
20260506145637 -17 158 4.8 8.0 0.00 0.03 0.00 995.9
20260506145557 -17 180 4.8 8.0 0.00 0.03 0.00 995.9
20260506145517 -17 180 3.2 8.0 0.00 0.03 0.00 995.9
20260506145507 -17 135 3.2 8.0 0.00 0.03 0.00 995.9
20260506145427 -17 180 3.2 8.0 0.00 0.03 0.00 995.9
20260506145407 -17 180 3.2 6.4 0.00 0.03 0.00 995.8
20260506145347 -17 180 3.2 6.4 0.00 0.03 0.00 995.9
20260506145337 -17 158 3.2 6.4 0.00 0.03 0.00 995.9
20260506145327 -17 225 3.2 6.4 0.00 0.03 0.00 995.9
20260506145257 -17 203 3.2 6.4 0.00 0.03 0.00 995.9
20260506145247 -17 225 3.2 6.4 0.00 0.03 0.00 995.9
20260506145238 -17 270 3.2 6.4 0.00 0.03 0.00 995.9
20260506145208 -17 225 3.2 6.4 0.00 0.03 0.00 995.9
20260506145158 -17 293 3.2 6.4 0.00 0.03 0.00 995.9
20260506145148 -17 180 3.2 6.4 0.00 0.03 0.00 995.9
20260506145128 -17 270 3.2 8.0 0.00 0.03 0.00 995.9
20260506145118 -17 180 3.2 8.0 0.00 0.03 0.00 995.9
20260506145108 -17 203 3.2 8.0 0.00 0.03 0.00 995.9
20260506145058 -17 225 3.2 8.0 0.00 0.03 0.00 995.9
20260506145038 -17 180 3.2 8.0 0.00 0.03 0.00 995.9
20260506145018 -17 158 3.2 8.0 0.00 0.03 0.00 995.9
20260506144958 -17 180 3.2 8.0 0.00 0.03 0.00 995.9
20260506144928 -17 180 3.2 8.0 0.00 0.03 0.00 995.8
20260506144918 -17 180 3.2 8.0 0.00 0.03 0.00 995.9
20260506144908 -17 180 3.2 8.0 0.00 0.03 0.00 996.0
20260506144838 -17 180 3.2 8.0 0.00 0.03 0.00 995.9
20260506144828 -17 180 4.8 8.0 0.00 0.03 0.00 995.9
20260506144748 -17 180 4.8 8.0 0.00 0.03 0.00 995.9
20260506144708 -17 180 4.8 8.0 0.00 0.03 0.00 995.9
20260506144629 -17 180 4.8 8.0 0.00 0.03 0.00 995.9
20260506144549 -17 180 3.2 8.0 0.00 0.03 0.00 995.9
20260506144509 -17 180 3.2 8.0 0.00 0.03 0.00 995.9
20260506144459 -17 158 3.2 8.0 0.00 0.03 0.00 995.9
20260506144429 -17 180 3.2 8.0 0.00 0.03 0.00 995.9
20260506144339 -17 180 6.4 8.0 0.00 0.03 0.00 995.9
20260506144329 -17 180 4.8 8.0 0.00 0.03 0.00 995.9
20260506144249 -17 180 4.8 8.0 0.00 0.03 0.00 995.9
20260506144239 -17 180 4.8 9.7 0.00 0.03 0.00 995.9
20260506144229 -17 180 6.4 9.7 0.00 0.03 0.00 995.9
20260506144219 -17 180 6.4 9.7 0.00 0.03 0.00 995.8
20260506144149 -17 180 6.4 9.7 0.00 0.03 0.00 995.9
20260506144110 -17 180 6.4 9.7 0.00 0.03 0.00 995.9
20260506144030 -17 180 6.4 9.7 0.00 0.03 0.00 995.9
20260506144020 -17 180 4.8 9.7 0.00 0.03 0.00 995.8
20260506143950 -17 180 4.8 9.7 0.00 0.03 0.00 995.9
20260506143910 -17 180 4.8 9.7 0.00 0.03 0.00 995.9
20260506143850 -17 180 6.4 9.7 0.00 0.03 0.00 995.9
20260506143820 -17 180 6.4 9.7 0.00 0.03 0.00 995.8
20260506143810 -17 180 6.4 9.7 0.00 0.03 0.00 995.9
20260506143800 -17 180 4.8 9.7 0.00 0.03 0.00 995.8
20260506143750 -17 180 3.2 9.7 0.00 0.03 0.00 995.8
20260506143740 -17 180 3.2 8.0 0.00 0.03 0.00 995.8
20260506143730 -17 180 3.2 4.8 0.00 0.03 0.00 995.9
20260506143720 -17 180 1.6 4.8 0.00 0.03 0.00 995.9
20260506143650 -17 180 1.6 4.8 0.00 0.03 0.00 995.8
20260506143640 -17 180 1.6 4.8 0.00 0.03 0.00 995.9
20260506143620 -17 180 3.2 4.8 0.00 0.03 0.00 995.9
20260506143551 -17 180 1.6 4.8 0.00 0.03 0.00 995.9
20260506143541 -17 180 1.6 4.8 0.00 0.03 0.00 995.8
20260506143501 -17 180 1.6 4.8 0.00 0.03 0.00 995.8
20260506143451 -17 180 3.2 4.8 0.00 0.03 0.00 995.8
20260506143441 -17 135 3.2 4.8 0.00 0.03 0.00 995.8
20260506143421 -17 180 1.6 4.8 0.00 0.03 0.00 995.8
20260506143401 -17 180 0.0 4.8 0.00 0.03 0.00 995.8
20260506143331 -17 158 0.0 3.2 0.00 0.03 0.00 995.8
20260506143321 -17 180 0.0 3.2 0.00 0.03 0.00 995.8
20260506143311 -17 180 0.0 3.2 0.00 0.03 0.00 995.7
20260506143301 -17 203 0.0 3.2 0.00 0.03 0.00 995.8
20260506143251 -17 248 0.0 3.2 0.00 0.03 0.00 995.8
20260506143221 -17 180 0.0 3.2 0.00 0.03 0.00 995.7
20260506143141 -17 180 0.0 3.2 0.00 0.03 0.00 995.7
20260506143131 -17 315 0.0 3.2 0.00 0.03 0.00 995.7
20260506143121 -17 225 0.0 3.2 0.00 0.03 0.00 995.8
20260506143101 -17 225 0.0 3.2 0.00 0.03 0.00 995.7
20260506143041 -17 225 1.6 3.2 0.00 0.03 0.00 995.7
20260506143012 -17 225 0.0 3.2 0.00 0.03 0.00 995.7
20260506142942 -17 270 0.0 3.2 0.00 0.03 0.00 995.7
20260506142902 -17 270 0.0 3.2 0.00 0.03 0.00 995.7
20260506142822 -17 270 0.0 3.2 0.00 0.03 0.00 995.7
20260506142752 -17 270 0.0 3.2 0.00 0.03 0.00 995.6
20260506142742 -17 270 0.0 3.2 0.00 0.03 0.00 995.7
20260506142732 -17 270 0.0 1.6 0.00 0.03 0.00 995.7
20260506142712 -17 180 0.0 0.0 0.00 0.03 0.00 995.6
20260506142702 -17 225 0.0 0.0 0.00 0.03 0.00 995.6
20260506142643 -17 225 0.0 0.0 0.00 0.03 0.00 995.7
20260506142602 -17 225 0.0 0.0 0.00 0.03 0.00 995.7
20260506142542 -17 203 0.0 0.0 0.00 0.03 0.00 995.6
20260506142532 -17 225 0.0 0.0 0.00 0.03 0.00 995.6
20260506142512 -17 180 0.0 0.0 0.00 0.03 0.00 995.7
20260506142452 -17 180 0.0 0.0 0.00 0.03 0.00 995.6
20260506142442 -17 180 0.0 1.6 0.00 0.03 0.00 995.6
20260506142433 -17 90 0.0 1.6 0.00 0.03 0.00 995.6
20260506142353 -17 90 0.0 1.6 0.00 0.03 0.00 995.7
20260506142343 -17 90 0.0 1.6 0.00 0.03 0.00 995.6
20260506142305 -17 90 0.0 1.6 0.00 0.03 0.00 995.7
20260506142253 -17 90 0.0 1.6 0.00 0.03 0.00 995.6
20260506142213 -17 90 0.0 3.2 0.00 0.03 0.00 995.6
20260506142153 -17 90 0.0 3.2 0.00 0.03 0.00 995.7
20260506142123 -17 90 0.0 3.2 0.00 0.03 0.00 995.6
20260506142113 -17 0 0.0 3.2 0.00 0.03 0.00 995.7
20260506142043 -17 0 0.0 3.2 0.00 0.03 0.00 995.6
20260506142023 -17 0 0.0 4.8 0.00 0.03 0.00 995.6
20260506142003 -17 0 0.0 4.8 0.00 0.03 0.00 995.7
20260506141933 -17 0 0.0 4.8 0.00 0.03 0.00 995.6
20260506141913 -17 45 0.0 4.8 0.00 0.03 0.00 995.6
20260506141844 -17 0 0.0 4.8 0.00 0.03 0.00 995.6
20260506141834 -17 45 0.0 4.8 0.00 0.03 0.00 995.6
20260506141804 -17 45 1.6 4.8 0.00 0.03 0.00 995.7
20260506141754 -17 45 1.6 4.8 0.00 0.03 0.00 995.6
20260506141734 -17 45 3.2 4.8 0.00 0.03 0.00 995.6
20260506141724 -17 68 3.2 4.8 0.00 0.03 0.00 995.7
20260506141714 -17 45 1.6 4.8 0.00 0.03 0.00 995.7
20260506141634 -17 45 1.6 4.8 0.00 0.03 0.00 995.7
20260506141624 -17 90 3.2 4.8 0.00 0.03 0.00 995.6
20260506141554 -17 90 3.2 4.8 0.00 0.03 0.00 995.7
20260506141524 -17 90 3.2 4.8 0.00 0.03 0.00 995.6
20260506141444 -17 90 3.2 4.8 0.00 0.03 0.00 995.6
20260506141434 -17 90 3.2 4.8 0.00 0.03 0.00 995.7
20260506141404 -17 90 3.2 6.4 0.00 0.03 0.00 995.7
20260506141354 -17 90 1.6 6.4 0.00 0.03 0.00 995.7
20260506141315 -17 45 1.6 6.4 0.00 0.03 0.00 995.6
20260506141255 -17 45 1.6 6.4 0.00 0.03 0.00 995.7
20260506141245 -17 90 1.6 6.4 0.00 0.03 0.00 995.7
20260506141215 -17 90 3.2 6.4 0.00 0.03 0.00 995.7
20260506141145 -17 45 3.2 6.4 0.00 0.03 0.00 995.7
20260506141135 -17 90 1.6 6.4 0.00 0.03 0.00 995.7
20260506141125 -17 90 3.2 6.4 0.00 0.03 0.00 995.7
20260506141115 -17 68 3.2 6.4 0.00 0.03 0.00 995.7
20260506141105 -17 45 3.2 6.4 0.00 0.03 0.00 995.6
20260506141055 -17 45 3.2 6.4 0.00 0.03 0.00 995.7
20260506141015 -17 45 3.2 6.4 0.00 0.03 0.00 995.7
20260506141005 -17 0 3.2 6.4 0.00 0.03 0.00 995.7
20260506140955 -17 315 3.2 6.4 0.00 0.03 0.00 995.7
20260506140915 -17 0 3.2 6.4 0.00 0.03 0.00 995.7
20260506140835 -17 0 3.2 6.4 0.00 0.03 0.00 995.7
20260506140825 -17 45 3.2 6.4 0.00 0.03 0.00 995.7
20260506140816 -17 0 1.6 6.4 0.00 0.03 0.00 995.7
20260506140736 -17 0 1.6 6.4 0.00 0.03 0.00 995.7
20260506140726 -17 0 1.6 6.4 0.00 0.03 0.00 995.8
20260506140716 -17 0 3.2 6.4 0.00 0.03 0.00 995.7
20260506140656 -17 45 3.2 6.4 0.00 0.03 0.00 995.7
20260506140616 -17 45 3.2 6.4 0.00 0.03 0.00 995.7
20260506140536 -17 45 3.2 6.4 0.00 0.03 0.00 995.7
20260506140526 -17 45 1.6 6.4 0.00 0.03 0.00 995.7
20260506140506 -17 45 0.0 6.4 0.00 0.03 0.00 995.7
20260506140456 -17 45 0.0 6.4 0.00 0.03 0.00 995.8
20260506140446 -17 90 0.0 6.4 0.00 0.03 0.00 995.7
20260506140436 -17 135 0.0 6.4 0.00 0.03 0.00 995.7
20260506140356 -17 90 0.0 6.4 0.00 0.03 0.00 995.8
20260506140346 -17 90 0.0 6.4 0.00 0.03 0.00 995.7
20260506140336 -17 90 1.6 6.4 0.00 0.03 0.00 995.8
20260506140316 -17 90 1.6 6.4 0.00 0.03 0.00 995.7
20260506140256 -17 135 1.6 6.4 0.00 0.03 0.00 995.8
20260506140247 -17 135 0.0 6.4 0.00 0.03 0.00 995.7
20260506140237 -17 180 0.0 6.4 0.00 0.03 0.00 995.7
20260506140217 -17 90 1.6 6.4 0.00 0.03 0.00 995.7
20260506140207 -17 135 1.6 6.4 0.00 0.03 0.00 995.8
20260506140157 -17 135 3.2 6.4 0.00 0.03 0.00 995.7
20260506140147 -17 45 3.2 6.4 0.00 0.03 0.00 995.7
20260506140137 -17 45 3.2 6.4 0.00 0.03 0.00 995.8
20260506140127 -17 90 3.2 6.4 0.00 0.03 0.00 995.7
20260506140117 -17 90 3.2 6.4 0.00 0.03 0.00 995.8
20260506140037 -17 90 3.2 6.4 0.00 0.03 0.00 995.7
20260506140027 -17 135 3.2 6.4 0.00 0.03 0.00 995.7
20260506140017 -17 45 3.2 6.4 0.00 0.03 0.00 995.7
20260506140007 -17 68 3.2 6.4 0.00 0.03 0.00 995.7
20260506135947 -17 90 3.2 6.4 0.00 0.03 0.00 995.7
20260506135937 -17 45 3.2 6.4 0.00 0.03 0.00 995.7
20260506135928 -17 45 3.2 6.4 0.00 0.03 0.00 995.8
20260506135907 -17 68 3.2 6.4 0.00 0.03 0.00 995.7
20260506135857 -17 90 3.2 6.4 0.00 0.03 0.00 995.8
20260506135847 -17 90 3.2 6.4 0.00 0.03 0.00 995.7
20260506135807 -17 90 3.2 6.4 0.00 0.03 0.00 995.7
20260506135728 -17 90 3.2 6.4 0.00 0.03 0.00 995.7
20260506135708 -17 90 3.2 6.4 0.00 0.03 0.00 995.8
20260506135648 -17 90 3.2 6.4 0.00 0.03 0.00 995.7
20260506135638 -17 90 1.6 6.4 0.00 0.03 0.00 995.7
20260506135628 -17 90 1.6 4.8 0.00 0.03 0.00 995.7
20260506135618 -17 68 1.6 4.8 0.00 0.03 0.00 995.7
20260506135558 -17 45 3.2 4.8 0.00 0.03 0.00 995.7
20260506135548 -17 23 1.6 4.8 0.00 0.03 0.00 995.7
20260506135538 -17 45 1.6 4.8 0.00 0.03 0.00 995.7
20260506135528 -17 23 0.0 4.8 0.00 0.03 0.00 995.7
20260506135458 -17 45 0.0 4.8 0.00 0.03 0.00 995.7
20260506135448 -17 90 0.0 4.8 0.00 0.03 0.00 995.7
20260506135438 -17 180 0.0 4.8 0.00 0.03 0.00 995.7
20260506135428 -17 203 0.0 4.8 0.00 0.03 0.00 995.7
20260506135418 -17 315 0.0 4.8 0.00 0.03 0.00 995.7
20260506135408 -17 0 0.0 4.8 0.00 0.03 0.00 995.7
20260506135358 -17 0 1.6 4.8 0.00 0.03 0.00 995.7
20260506135348 -17 0 1.6 6.4 0.00 0.03 0.00 995.7
20260506135338 -17 0 3.2 8.0 0.00 0.03 0.00 995.7
20260506135328 -17 0 1.6 9.7 0.00 0.03 0.00 995.7
20260506135318 -17 315 1.6 9.7 0.00 0.03 0.00 995.7
20260506135238 -17 315 0.0 9.7 0.00 0.03 0.00 995.7
20260506135209 -17 90 0.0 9.7 0.00 0.03 0.00 995.7
20260506135159 -17 45 0.0 9.7 0.00 0.03 0.00 995.7
20260506135149 -17 0 0.0 9.7 0.00 0.03 0.00 995.7
20260506135129 -17 315 0.0 9.7 0.00 0.03 0.00 995.7
20260506135109 -17 45 0.0 9.7 0.00 0.03 0.00 995.7
20260506135059 -17 90 0.0 9.7 0.00 0.03 0.00 995.7
20260506135049 -17 315 0.0 9.7 0.00 0.03 0.00 995.7
20260506135009 -17 0 0.0 9.7 0.00 0.03 0.00 995.7
20260506134949 -17 0 1.6 9.7 0.00 0.03 0.00 995.7
20260506134929 -17 0 3.2 9.7 0.00 0.03 0.00 995.7
20260506134919 -17 45 4.8 9.7 0.00 0.03 0.00 995.7
20260506134859 -17 0 6.4 9.7 0.00 0.03 0.00 995.7
20260506134849 -17 45 6.4 9.7 0.00 0.03 0.00 995.7
20260506134839 -17 45 4.8 9.7 0.00 0.03 0.00 995.7
20260506134819 -17 45 3.2 9.7 0.00 0.03 0.00 995.7
20260506134809 -17 45 1.6 9.7 0.00 0.03 0.00 995.7
20260506134759 -17 45 0.0 6.4 0.00 0.03 0.00 995.7
20260506134749 -17 45 0.0 4.8 0.00 0.03 0.00 995.7
20260506134739 -17 0 0.0 4.8 0.00 0.03 0.00 995.8
20260506134729 -17 45 0.0 4.8 0.00 0.03 0.00 995.8
20260506134719 -17 90 0.0 6.4 0.00 0.03 0.00 995.8
20260506134710 -17 90 0.0 8.0 0.00 0.03 0.00 995.8
20260506134700 -17 225 1.6 8.0 0.00 0.03 0.00 995.8
20260506134650 -17 180 1.6 8.0 0.00 0.03 0.00 995.8
20260506134640 -17 90 1.6 8.0 0.00 0.03 0.00 995.8
20260506134620 -17 45 3.2 8.0 0.00 0.03 0.00 995.8
20260506134610 -17 45 3.2 8.0 0.00 0.03 0.00 995.7
20260506134550 -17 45 1.6 8.0 0.00 0.03 0.00 995.8
20260506134540 -17 23 0.0 8.0 0.00 0.03 0.00 995.8
20260506134530 -17 0 0.0 8.0 0.00 0.03 0.00 995.8
20260506134520 -17 45 0.0 9.7 0.00 0.03 0.00 995.8
20260506134510 -17 45 0.0 11.3 0.00 0.03 0.00 995.8
20260506134500 -17 0 0.0 12.9 0.00 0.03 0.00 995.8
20260506134420 -17 90 0.0 12.9 0.00 0.03 0.00 995.8
20260506134350 -17 90 1.6 12.9 0.00 0.03 0.00 995.8
20260506134340 -17 90 3.2 12.9 0.00 0.03 0.00 995.8
20260506134310 -17 45 3.2 12.9 0.00 0.03 0.00 995.8
20260506134250 -17 68 4.8 12.9 0.00 0.03 0.00 995.8
20260506134240 -17 45 4.8 12.9 0.00 0.03 0.00 995.8
20260506134200 -17 45 4.8 12.9 0.00 0.03 0.00 995.8
20260506134150 -17 90 4.8 12.9 0.00 0.03 0.00 995.8
20260506134141 -17 90 3.2 12.9 0.00 0.03 0.00 995.8
20260506134121 -17 135 4.8 12.9 0.00 0.03 0.00 995.8
20260506134041 -17 135 6.4 12.9 0.00 0.03 0.00 995.8
20260506134031 -17 90 8.0 12.9 0.00 0.03 0.00 995.8
20260506134021 -17 90 6.4 12.9 0.00 0.03 0.00 995.8
20260506134011 -17 90 6.4 12.9 0.00 0.03 0.00 995.7
20260506134001 -17 90 6.4 11.3 0.00 0.03 0.00 995.7
20260506133951 -17 90 6.4 11.3 0.00 0.03 0.00 995.8
20260506133941 -17 68 6.4 11.3 0.00 0.03 0.00 995.8
20260506133911 -17 45 4.8 11.3 0.00 0.03 0.00 995.8
20260506133901 -17 90 4.8 11.3 0.00 0.03 0.00 995.8
20260506133851 -17 45 3.2 11.3 0.00 0.03 0.00 995.7
20260506133831 -17 45 3.2 11.3 0.00 0.03 0.00 995.8
20260506133821 -17 68 3.2 11.3 0.00 0.03 0.00 995.8
20260506133811 -17 90 3.2 11.3 0.00 0.03 0.00 995.8
20260506133801 -17 90 4.8 11.3 0.00 0.03 0.00 995.8
20260506133751 -17 68 4.8 11.3 0.00 0.03 0.00 995.8
20260506133741 -17 90 6.4 11.3 0.00 0.03 0.00 995.8
20260506133701 -17 90 6.4 11.3 0.00 0.03 0.00 995.8
20260506133651 -17 45 4.8 11.3 0.00 0.03 0.00 995.8
20260506133641 -17 45 3.2 11.3 0.00 0.03 0.00 995.8
20260506133622 -17 90 3.2 11.3 0.00 0.03 0.00 995.8
20260506133552 -17 45 3.2 11.3 0.00 0.03 0.00 995.8
20260506133542 -17 90 3.2 11.3 0.00 0.03 0.00 995.8
20260506133522 -17 90 4.8 11.3 0.00 0.03 0.00 995.8
20260506133452 -17 45 6.4 11.3 0.00 0.03 0.00 995.8
20260506133442 -17 90 6.4 11.3 0.00 0.03 0.00 995.8
20260506133412 -17 45 6.4 9.7 0.00 0.03 0.00 995.8
20260506133402 -17 90 6.4 9.7 0.00 0.03 0.00 995.8
20260506133352 -17 68 4.8 8.0 0.00 0.03 0.00 995.8
20260506133342 -17 90 4.8 8.0 0.00 0.03 0.00 995.8
20260506133332 -17 90 3.2 8.0 0.00 0.03 0.00 995.8
20260506133322 -17 90 3.2 8.0 0.00 0.03 0.00 995.9
20260506133312 -17 90 1.6 6.4 0.00 0.03 0.00 995.8
20260506133252 -17 45 0.0 6.4 0.00 0.03 0.00 995.8
20260506133212 -17 45 0.0 6.4 0.00 0.03 0.00 995.8
20260506133202 -17 90 0.0 6.4 0.00 0.03 0.00 995.9
20260506133152 -17 90 0.0 6.4 0.00 0.03 0.00 995.8
20260506133142 -17 90 1.6 6.4 0.00 0.03 0.00 995.9
20260506133132 -17 90 1.6 6.4 0.00 0.03 0.00 995.8
20260506133053 -17 45 3.2 6.4 0.00 0.03 0.00 995.8
20260506133033 -17 90 3.2 6.4 0.00 0.03 0.00 995.8
20260506133013 -17 45 3.2 6.4 0.00 0.03 0.00 995.8
20260506132943 -17 90 3.2 6.4 0.00 0.03 0.00 995.8
20260506132933 -17 90 1.6 6.4 0.00 0.03 0.00 995.9
20260506132923 -17 90 1.6 6.4 0.00 0.03 0.00 995.8
20260506132913 -17 45 0.0 6.4 0.00 0.03 0.00 995.8
20260506132903 -17 90 0.0 4.8 0.00 0.03 0.00 995.9
20260506132833 -17 90 0.0 4.8 0.00 0.03 0.00 995.8
20260506132823 -17 225 0.0 4.8 0.00 0.03 0.00 995.9
20260506132803 -17 0 0.0 4.8 0.00 0.03 0.00 995.8
20260506132753 -17 0 1.6 4.8 0.00 0.03 0.00 995.8
20260506132743 -17 90 1.6 4.8 0.00 0.03 0.00 995.8
20260506132733 -17 90 3.2 6.4 0.00 0.03 0.00 995.8
20260506132723 -17 90 3.2 6.4 0.00 0.03 0.00 995.9
20260506132713 -17 113 3.2 6.4 0.00 0.03 0.00 995.8
20260506132703 -17 158 3.2 6.4 0.00 0.03 0.00 995.9
20260506132643 -17 180 1.6 8.0 0.00 0.03 0.00 995.8
20260506132633 -17 180 1.6 8.0 0.00 0.03 0.00 995.9
20260506132623 -17 225 1.6 8.0 0.00 0.03 0.00 995.9
20260506132613 -17 203 1.6 8.0 0.00 0.03 0.00 995.9
20260506132543 -17 180 1.6 8.0 0.00 0.03 0.00 995.9
20260506132533 -17 225 1.6 8.0 0.00 0.03 0.00 995.9
20260506132523 -17 270 1.6 8.0 0.00 0.03 0.00 995.9
20260506132514 -17 225 1.6 9.7 0.00 0.03 0.00 995.9
20260506132504 -17 180 3.2 9.7 0.00 0.03 0.00 995.9
20260506132454 -17 180 3.2 11.3 0.00 0.03 0.00 995.9
20260506132424 -17 180 3.2 12.9 0.00 0.03 0.00 995.9
20260506132414 -17 180 1.6 12.9 0.00 0.03 0.00 995.8
20260506132354 -17 90 3.2 12.9 0.00 0.03 0.00 995.9
20260506132344 -17 135 3.2 12.9 0.00 0.03 0.00 995.9
20260506132324 -17 113 3.2 12.9 0.00 0.03 0.00 995.9
20260506132307 -17 135 3.2 12.9 0.00 0.03 0.00 995.9
20260506132244 -17 135 4.8 12.9 0.00 0.03 0.00 996.0
20260506132234 -17 90 4.8 12.9 0.00 0.03 0.00 996.0
20260506132224 -17 90 4.8 12.9 0.00 0.03 0.00 995.9
20260506132214 -17 113 4.8 12.9 0.00 0.03 0.00 995.9
20260506132144 -17 135 6.4 12.9 0.00 0.03 0.00 995.9
20260506132134 -17 135 6.4 12.9 0.00 0.03 0.00 996.0
20260506132054 -17 135 6.4 12.9 0.00 0.03 0.00 995.9
20260506132044 -17 135 6.4 12.9 0.00 0.03 0.00 996.0
20260506132034 -17 135 8.0 12.9 0.00 0.03 0.00 996.0
20260506132024 -17 135 8.0 12.9 0.00 0.03 0.00 995.9
20260506131945 -17 135 8.0 12.9 0.00 0.03 0.00 996.0
20260506131925 -17 180 6.4 12.9 0.00 0.03 0.00 996.0
20260506131905 -17 158 8.0 12.9 0.00 0.03 0.00 996.0
20260506131845 -17 180 9.7 12.9 0.00 0.03 0.00 996.0
20260506131835 -17 180 9.7 12.9 0.00 0.03 0.00 995.9
20260506131825 -17 135 9.7 12.9 0.00 0.03 0.00 996.0
20260506131815 -17 135 9.7 12.9 0.00 0.03 0.00 995.9
20260506131755 -17 180 9.7 12.9 0.00 0.03 0.00 996.0
20260506131735 -17 180 9.7 12.9 0.00 0.03 0.00 995.9
20260506131715 -17 180 8.0 12.9 0.00 0.03 0.00 995.9
20260506131705 -17 135 8.0 11.3 0.00 0.03 0.00 996.0
20260506131645 -17 158 6.4 11.3 0.00 0.03 0.00 996.0
20260506131635 -17 135 6.4 11.3 0.00 0.03 0.00 996.0
20260506131615 -17 180 6.4 11.3 0.00 0.03 0.00 995.9
20260506131605 -17 135 6.4 8.0 0.00 0.03 0.00 995.9
20260506131535 -17 158 6.4 8.0 0.00 0.03 0.00 996.0
20260506131525 -17 135 6.4 8.0 0.00 0.03 0.00 996.0
20260506131515 -17 135 4.8 8.0 0.00 0.03 0.00 996.0
20260506131446 -17 135 3.2 8.0 0.00 0.03 0.00 996.0
20260506131436 -17 158 3.2 8.0 0.00 0.03 0.00 996.0
20260506131406 -17 113 3.2 8.0 0.00 0.03 0.00 996.0
20260506131356 -17 90 3.2 8.0 0.00 0.03 0.00 996.0
20260506131346 -17 90 1.6 8.0 0.00 0.03 0.00 996.0
20260506131336 -17 135 1.6 8.0 0.00 0.03 0.00 996.0
20260506131316 -17 135 0.0 8.0 0.00 0.03 0.00 996.0
20260506131306 -17 90 0.0 8.0 0.00 0.03 0.00 996.0
20260506131256 -17 180 0.0 8.0 0.00 0.03 0.00 996.0
20260506131236 -17 135 0.0 8.0 0.00 0.03 0.00 996.0
20260506131226 -17 158 0.0 8.0 0.00 0.03 0.00 996.0
20260506131206 -17 90 0.0 8.0 0.00 0.03 0.00 996.0
20260506131156 -17 135 0.0 8.0 0.00 0.03 0.00 996.0
20260506131146 -17 158 1.6 8.0 0.00 0.03 0.00 996.0
20260506131106 -17 135 3.2 9.7 0.00 0.03 0.00 996.0
20260506131036 -17 135 6.4 9.7 0.00 0.03 0.00 996.0
20260506131026 -17 135 4.8 9.7 0.00 0.03 0.00 996.0
20260506131016 -17 158 4.8 9.7 0.00 0.03 0.00 996.0
20260506130956 -17 135 3.2 9.7 0.00 0.03 0.00 996.0
20260506130946 -17 135 1.6 9.7 0.00 0.03 0.00 996.0
20260506130937 -17 158 0.0 9.7 0.00 0.03 0.00 996.0
20260506130927 -17 158 0.0 9.7 0.00 0.03 0.00 996.1
20260506130917 -17 180 0.0 9.7 0.00 0.03 0.00 996.1
20260506130907 -17 135 1.6 9.7 0.00 0.03 0.00 996.0
20260506130857 -17 135 3.2 9.7 0.00 0.03 0.00 996.0
20260506130827 -17 135 3.2 9.7 0.00 0.03 0.00 996.1
20260506130807 -17 90 3.2 9.7 0.00 0.03 0.00 996.1
20260506130757 -17 135 3.2 9.7 0.00 0.03 0.00 996.0
20260506130747 -17 135 3.2 9.7 0.00 0.03 0.00 996.1
20260506130737 -17 180 4.8 9.7 0.00 0.03 0.00 996.0
20260506130727 -17 180 6.4 9.7 0.00 0.03 0.00 996.1
20260506130717 -17 158 6.4 9.7 0.00 0.03 0.00 996.1
20260506130707 -17 158 6.4 9.7 0.00 0.03 0.00 996.0
20260506130657 -17 135 6.4 9.7 0.00 0.03 0.00 996.0
20260506130647 -17 135 4.8 9.7 0.00 0.03 0.00 996.1
20260506130637 -17 135 4.8 8.0 0.00 0.03 0.00 996.0
20260506130627 -17 135 3.2 8.0 0.00 0.03 0.00 996.1
20260506130617 -17 90 3.2 8.0 0.00 0.03 0.00 996.1
20260506130547 -17 135 3.2 8.0 0.00 0.03 0.00 996.1
20260506130537 -17 90 3.2 8.0 0.00 0.03 0.00 996.1
20260506130527 -17 68 3.2 6.4 0.00 0.03 0.00 996.1
20260506130457 -17 90 3.2 6.4 0.00 0.03 0.00 996.1
20260506130447 -17 135 3.2 6.4 0.00 0.03 0.00 996.1
20260506130437 -17 180 3.2 6.4 0.00 0.03 0.00 996.1
20260506130418 -17 225 3.2 6.4 0.00 0.03 0.00 996.1
20260506130358 -17 180 3.2 6.4 0.00 0.03 0.00 996.1
20260506130338 -17 135 3.2 8.0 0.00 0.03 0.00 996.1
20260506130328 -17 180 1.6 8.0 0.00 0.03 0.00 996.1
20260506130318 -17 135 1.6 9.7 0.00 0.03 0.00 996.1
20260506130258 -17 90 1.6 9.7 0.00 0.03 0.00 996.1
20260506130248 -17 90 3.2 9.7 0.00 0.03 0.00 996.1
20260506130218 -17 90 1.6 9.7 0.00 0.03 0.00 996.1
20260506130208 -17 90 0.0 9.7 0.00 0.03 0.00 996.1
20260506130158 -17 113 0.0 9.7 0.00 0.03 0.00 996.1
20260506130128 -17 113 0.0 9.7 0.00 0.03 0.00 996.2
20260506130118 -17 90 0.0 9.7 0.00 0.03 0.00 996.2
20260506130058 -17 135 1.6 9.7 0.00 0.03 0.00 996.2
20260506130048 -17 90 1.6 9.7 0.00 0.03 0.00 996.2
20260506130038 -17 135 3.2 9.7 0.00 0.03 0.00 996.2
20260506130028 -17 180 3.2 9.7 0.00 0.03 0.00 996.2
20260506125958 -17 135 3.2 9.7 0.00 0.03 0.00 996.2
20260506125938 -17 135 4.8 9.7 0.00 0.03 0.00 996.2
20260506125928 -17 158 4.8 9.7 0.00 0.03 0.00 996.2
20260506125909 -17 135 6.4 9.7 0.00 0.03 0.00 996.2
20260506125829 -17 135 6.4 9.7 0.00 0.03 0.00 996.2
20260506125809 -17 180 4.8 9.7 0.00 0.03 0.00 996.2
20260506125749 -17 158 6.4 9.7 0.00 0.03 0.00 996.2
20260506125739 -17 180 6.4 9.7 0.00 0.03 0.00 996.2
20260506125719 -17 135 6.4 9.7 0.00 0.03 0.00 996.2
20260506125709 -17 135 6.4 11.3 0.00 0.03 0.00 996.2
20260506125659 -17 135 6.4 12.9 0.00 0.03 0.00 996.3
20260506125649 -17 135 4.8 12.9 0.00 0.03 0.00 996.3
20260506125639 -17 135 3.2 12.9 0.00 0.03 0.00 996.3
20260506125619 -17 135 3.2 12.9 0.00 0.03 0.00 996.2
20260506125609 -17 90 3.2 12.9 0.00 0.03 0.00 996.3
20260506125559 -17 135 3.2 12.9 0.00 0.03 0.00 996.3
20260506125549 -17 158 3.2 12.9 0.00 0.03 0.00 996.3
20260506125539 -17 45 3.2 12.9 0.00 0.03 0.00 996.3
20260506125529 -17 90 4.8 12.9 0.00 0.03 0.00 996.3
20260506125519 -17 90 4.8 12.9 0.00 0.03 0.00 996.2
20260506125509 -17 45 4.8 12.9 0.00 0.03 0.00 996.3
20260506125439 -17 90 4.8 12.9 0.00 0.03 0.00 996.3
20260506125429 -17 135 4.8 12.9 0.00 0.03 0.00 996.3
20260506125350 -17 135 4.8 12.9 0.00 0.03 0.00 996.3
20260506125330 -17 113 6.4 12.9 0.00 0.03 0.00 996.3
20260506125310 -17 135 6.4 12.9 0.00 0.03 0.00 996.3
20260506125300 -17 135 8.0 12.9 0.00 0.03 0.00 996.3
20260506125230 -17 135 9.7 12.9 0.00 0.03 0.00 996.3
20260506125220 -17 135 8.0 12.9 0.00 0.03 0.00 996.2
20260506125210 -17 135 6.4 12.9 0.00 0.03 0.00 996.3
20260506125200 -17 135 6.4 12.9 0.00 0.03 0.00 996.2
20260506125150 -17 90 4.8 11.3 0.00 0.03 0.00 996.3
20260506125130 -17 135 4.8 11.3 0.00 0.03 0.00 996.2
20260506125120 -17 135 4.8 11.3 0.00 0.03 0.00 996.3
20260506125110 -17 135 6.4 11.3 0.00 0.03 0.00 996.2
20260506125050 -17 135 6.4 11.3 0.00 0.03 0.00 996.3
20260506125040 -17 135 4.8 11.3 0.00 0.03 0.00 996.3
20260506125030 -17 135 4.8 11.3 0.00 0.03 0.00 996.2
20260506125020 -17 135 3.2 12.9 0.00 0.03 0.00 996.3
20260506125000 -17 135 3.2 12.9 0.00 0.03 0.00 996.2
20260506124950 -17 90 3.2 12.9 0.00 0.03 0.00 996.2
20260506124940 -17 45 3.2 12.9 0.00 0.03 0.00 996.2
20260506124930 -17 113 3.2 12.9 0.00 0.03 0.00 996.2
20260506124911 -17 90 3.2 12.9 0.00 0.03 0.00 996.2
20260506124901 -17 135 3.2 12.9 0.00 0.03 0.00 996.2
20260506124851 -17 135 4.8 12.9 0.00 0.03 0.00 996.2
20260506124841 -17 113 6.4 12.9 0.00 0.03 0.00 996.2
20260506124821 -17 90 6.4 12.9 0.00 0.03 0.00 996.2
20260506124801 -17 135 6.4 12.9 0.00 0.03 0.00 996.2
20260506124741 -17 135 4.8 12.9 0.00 0.03 0.00 996.2
20260506124731 -17 90 4.8 12.9 0.00 0.03 0.00 996.2
20260506124721 -17 68 4.8 12.9 0.00 0.03 0.00 996.2
20260506124651 -17 135 3.2 12.9 0.00 0.03 0.00 996.2
20260506124641 -17 90 3.2 12.9 0.00 0.03 0.00 996.2
20260506124631 -17 90 4.8 12.9 0.00 0.03 0.00 996.2
20260506124621 -17 45 4.8 12.9 0.00 0.03 0.00 996.2
20260506124551 -17 90 6.4 12.9 0.00 0.03 0.00 996.2
20260506124541 -17 68 8.0 12.9 0.00 0.03 0.00 996.2
20260506124521 -17 90 8.0 12.9 0.00 0.03 0.00 996.2
20260506124511 -17 45 8.0 12.9 0.00 0.03 0.00 996.2
20260506124501 -17 68 9.7 12.9 0.00 0.03 0.00 996.2
20260506124451 -17 45 9.7 12.9 0.00 0.03 0.00 996.2
20260506124431 -17 45 8.0 12.9 0.00 0.03 0.00 996.2
20260506124411 -17 45 6.4 12.9 0.00 0.03 0.00 996.2
20260506124401 -17 45 4.8 12.9 0.00 0.03 0.00 996.2
20260506124352 -17 0 4.8 9.7 0.00 0.03 0.00 996.2
20260506124332 -17 45 4.8 9.7 0.00 0.03 0.00 996.2
20260506124302 -17 90 6.4 9.7 0.00 0.03 0.00 996.2
20260506124252 -17 45 6.4 9.7 0.00 0.03 0.00 996.2
20260506124242 -17 90 4.8 9.7 0.00 0.03 0.00 996.3
20260506124232 -17 45 3.2 9.7 0.00 0.03 0.00 996.2
20260506124222 -17 45 3.2 11.3 0.00 0.03 0.00 996.3
20260506124212 -17 45 1.6 11.3 0.00 0.03 0.00 996.3
20260506124202 -17 0 1.6 11.3 0.00 0.03 0.00 996.3
20260506124142 -17 135 1.6 11.3 0.00 0.03 0.00 996.3
20260506124132 -17 45 1.6 11.3 0.00 0.03 0.00 996.3
20260506124122 -17 180 1.6 11.3 0.00 0.03 0.00 996.3
20260506124102 -17 90 3.2 11.3 0.00 0.03 0.00 996.3
20260506124052 -17 68 3.2 11.3 0.00 0.03 0.00 996.3
20260506124022 -17 90 3.2 11.3 0.00 0.03 0.00 996.3
20260506124002 -17 45 3.2 11.3 0.00 0.03 0.00 996.3
20260506123952 -17 0 3.2 11.3 0.00 0.03 0.00 996.4
20260506123922 -17 0 3.2 11.3 0.00 0.03 0.00 996.3
20260506123912 -17 45 3.2 11.3 0.00 0.03 0.00 996.3
20260506123902 -17 0 4.8 11.3 0.00 0.03 0.00 996.3
20260506123853 -17 45 4.8 11.3 0.00 0.03 0.00 996.3
20260506123843 -17 45 6.4 11.3 0.00 0.03 0.00 996.3
20260506123803 -17 45 6.4 11.3 0.00 0.03 0.00 996.3
20260506123733 -17 90 6.4 11.3 0.00 0.03 0.00 996.3
20260506123723 -17 90 6.4 9.7 0.00 0.03 0.00 996.3
20260506123713 -17 90 4.8 9.7 0.00 0.03 0.00 996.3
20260506123643 -17 45 3.2 8.0 0.00 0.03 0.00 996.4
20260506123633 -17 0 3.2 8.0 0.00 0.03 0.00 996.3
20260506123623 -17 0 3.2 8.0 0.00 0.03 0.00 996.4
20260506123553 -17 45 3.2 8.0 0.00 0.03 0.00 996.3
20260506123543 -17 68 3.2 8.0 0.00 0.03 0.00 996.3
20260506123533 -17 45 3.2 8.0 0.00 0.03 0.00 996.4
20260506123523 -17 23 4.8 8.0 0.00 0.03 0.00 996.4
20260506123513 -17 45 4.8 8.0 0.00 0.03 0.00 996.3
20260506123503 -17 90 3.2 8.0 0.00 0.03 0.00 996.3
20260506123433 -17 45 3.2 8.0 0.00 0.03 0.00 996.3
20260506123423 -17 45 1.6 8.0 0.00 0.03 0.00 996.3
20260506123413 -17 23 1.6 8.0 0.00 0.03 0.00 996.4
20260506123404 -17 90 1.6 8.0 0.00 0.03 0.00 996.4
20260506123354 -17 113 0.0 8.0 0.00 0.03 0.00 996.3
20260506123344 -17 0 0.0 8.0 0.00 0.03 0.00 996.3
20260506123324 -17 45 0.0 8.0 0.00 0.03 0.00 996.4
20260506123304 -17 90 1.6 8.0 0.00 0.03 0.00 996.4
20260506123254 -17 90 3.2 8.0 0.00 0.03 0.00 996.4
20260506123224 -17 45 3.2 8.0 0.00 0.03 0.00 996.4
20260506123214 -17 45 4.8 8.0 0.00 0.03 0.00 996.3
20260506123204 -17 90 3.2 8.0 0.00 0.03 0.00 996.4
20260506123144 -17 45 3.2 8.0 0.00 0.03 0.00 996.4
20260506123134 -17 68 3.2 8.0 0.00 0.03 0.00 996.4
20260506123124 -17 90 3.2 8.0 0.00 0.03 0.00 996.4
20260506123104 -17 90 1.6 6.4 0.00 0.03 0.00 996.4
20260506123024 -17 90 1.6 6.4 0.00 0.03 0.00 996.4
20260506123014 -17 68 1.6 6.4 0.00 0.03 0.00 996.4
20260506122954 -17 90 3.2 6.4 0.00 0.03 0.00 996.4
20260506122914 -17 90 3.2 6.4 0.00 0.03 0.00 996.4
20260506122905 -17 45 3.2 6.4 0.00 0.03 0.00 996.4
20260506122825 -17 45 3.2 6.4 0.00 0.03 0.00 996.4
20260506122805 -17 90 3.2 6.4 0.00 0.03 0.00 996.4
20260506122755 -17 45 3.2 6.4 0.00 0.03 0.00 996.5
20260506122745 -17 158 3.2 6.4 0.00 0.03 0.00 996.5
20260506122725 -17 90 3.2 6.4 0.00 0.03 0.00 996.4
20260506122715 -17 135 3.2 6.4 0.00 0.03 0.00 996.4
20260506122705 -17 135 3.2 6.4 0.00 0.03 0.00 996.5
20260506122655 -17 113 3.2 6.4 0.00 0.03 0.00 996.4
20260506122645 -17 90 3.2 6.4 0.00 0.03 0.00 996.4
20260506122625 -17 135 3.2 6.4 0.00 0.03 0.00 996.5
20260506122615 -17 135 1.6 6.4 0.00 0.03 0.00 996.4
20260506122605 -17 135 1.6 6.4 0.00 0.03 0.00 996.5
20260506122545 -17 135 0.0 6.4 0.00 0.03 0.00 996.5
20260506122535 -17 135 0.0 6.4 0.00 0.03 0.00 996.4
20260506122515 -17 90 0.0 6.4 0.00 0.03 0.00 996.4
20260506122505 -17 90 0.0 6.4 0.00 0.03 0.00 996.5
20260506122455 -17 135 1.6 6.4 0.00 0.03 0.00 996.5
20260506122445 -17 135 3.2 6.4 0.00 0.03 0.00 996.5
20260506122426 -17 90 3.2 6.4 0.00 0.03 0.00 996.5
20260506122416 -17 135 3.2 6.4 0.00 0.03 0.00 996.4
20260506122406 -17 135 3.2 6.4 0.00 0.03 0.00 996.5
20260506122346 -17 180 3.2 6.4 0.00 0.03 0.00 996.4
20260506122326 -17 135 3.2 6.4 0.00 0.03 0.00 996.5
20260506122306 -17 90 1.6 6.4 0.00 0.03 0.00 996.5
20260506122246 -17 180 1.6 6.4 0.00 0.03 0.00 996.5
20260506122216 -17 135 1.6 6.4 0.00 0.03 0.00 996.5
20260506122206 -17 113 1.6 6.4 0.00 0.03 0.00 996.5
20260506122156 -17 45 1.6 6.4 0.00 0.03 0.00 996.5
20260506122136 -17 135 1.6 6.4 0.00 0.03 0.00 996.5
20260506122126 -17 90 1.6 6.4 0.00 0.03 0.00 996.5
20260506122106 -17 90 3.2 6.4 0.00 0.03 0.00 996.5
20260506122036 -17 135 1.6 6.4 0.00 0.03 0.00 996.5
20260506122006 -17 90 1.6 6.4 0.00 0.03 0.00 996.5
20260506121956 -17 90 3.2 6.4 0.00 0.03 0.00 996.5
20260506121947 -17 68 3.2 8.0 0.00 0.03 0.00 996.5
20260506121937 -17 45 3.2 11.3 0.00 0.03 0.00 996.5
20260506121907 -17 90 3.2 11.3 0.00 0.03 0.00 996.5
20260506121857 -17 45 3.2 11.3 0.00 0.03 0.00 996.5
20260506121847 -17 68 3.2 11.3 0.00 0.03 0.00 996.5
20260506121837 -17 0 3.2 12.9 0.00 0.03 0.00 996.5
20260506121817 -17 45 3.2 12.9 0.00 0.03 0.00 996.5
20260506121757 -17 0 3.2 12.9 0.00 0.03 0.00 996.6
20260506121747 -17 0 3.2 12.9 0.00 0.03 0.00 996.5
20260506121737 -17 68 3.2 12.9 0.00 0.03 0.00 996.6
20260506121727 -17 45 3.2 12.9 0.00 0.03 0.00 996.6
20260506121717 -17 68 3.2 12.9 0.00 0.03 0.00 996.5
20260506121657 -17 45 3.2 12.9 0.00 0.03 0.00 996.5
20260506121647 -17 45 3.2 12.9 0.00 0.03 0.00 996.6
20260506121637 -17 68 3.2 12.9 0.00 0.03 0.00 996.6
20260506121627 -17 135 3.2 12.9 0.00 0.03 0.00 996.6
20260506121607 -17 90 3.2 12.9 0.00 0.03 0.00 996.5
20260506121557 -17 113 3.2 12.9 0.00 0.03 0.00 996.6
20260506121547 -17 90 3.2 12.9 0.00 0.03 0.00 996.6
20260506121537 -17 45 4.8 12.9 0.00 0.03 0.00 996.6
20260506121527 -17 90 4.8 12.9 0.00 0.03 0.00 996.6
20260506121507 -17 45 6.4 12.9 0.00 0.03 0.00 996.5
20260506121437 -17 45 6.4 12.9 0.00 0.03 0.00 996.6
20260506121418 -17 45 6.4 12.9 0.00 0.03 0.00 996.5
20260506121408 -17 90 6.4 12.9 0.00 0.03 0.00 996.5
20260506121338 -17 45 6.4 12.9 0.00 0.03 0.00 996.5
20260506121328 -17 45 6.4 11.3 0.00 0.03 0.00 996.6
20260506121308 -17 45 6.4 12.9 0.00 0.03 0.00 996.6
20260506121248 -17 45 6.4 12.9 0.00 0.03 0.00 996.5
20260506121238 -17 45 4.8 12.9 0.00 0.03 0.00 996.5
20260506121228 -17 0 6.4 12.9 0.00 0.03 0.00 996.6
20260506121218 -17 68 6.4 12.9 0.00 0.03 0.00 996.6
20260506121158 -17 45 6.4 12.9 0.00 0.03 0.00 996.6
20260506121138 -17 45 4.8 12.9 0.00 0.03 0.00 996.6
20260506121128 -17 45 3.2 12.9 0.00 0.03 0.00 996.6
20260506121108 -17 23 3.2 12.9 0.00 0.03 0.00 996.6
20260506121048 -17 45 3.2 12.9 0.00 0.03 0.00 996.6
20260506121038 -17 90 3.2 12.9 0.00 0.03 0.00 996.6
20260506121028 -17 45 4.8 12.9 0.00 0.03 0.00 996.6
20260506121018 -17 45 6.4 12.9 0.00 0.03 0.00 996.6
20260506121008 -17 45 6.4 12.9 0.00 0.03 0.00 996.7
20260506120948 -17 0 6.4 12.9 0.00 0.03 0.00 996.7
20260506120938 -17 45 6.4 12.9 0.00 0.03 0.00 996.6
20260506120929 -17 0 6.4 12.9 0.00 0.03 0.00 996.6
20260506120919 -17 45 8.0 12.9 0.00 0.03 0.00 996.6
20260506120849 -17 90 6.4 12.9 0.00 0.03 0.00 996.6
20260506120819 -17 45 6.4 12.9 0.00 0.03 0.00 996.6
20260506120739 -17 45 6.4 12.9 0.00 0.03 0.00 996.6
20260506120659 -17 45 8.0 12.9 0.00 0.03 0.00 996.6
20260506120649 -17 45 8.0 12.9 0.00 0.03 0.00 996.7
20260506120639 -17 45 9.7 12.9 0.00 0.03 0.00 996.6
20260506120619 -17 45 9.7 12.9 0.00 0.03 0.00 996.7
20260506120559 -17 45 9.7 12.9 0.00 0.03 0.00 996.6
20260506120549 -17 90 6.4 12.9 0.00 0.03 0.00 996.6
20260506120539 -17 45 6.4 12.9 0.00 0.03 0.00 996.6
20260506120529 -17 90 4.8 12.9 0.00 0.03 0.00 996.6
20260506120519 -17 45 3.2 11.3 0.00 0.03 0.00 996.6
20260506120509 -17 90 3.2 11.3 0.00 0.03 0.00 996.6
20260506120449 -17 90 3.2 8.0 0.00 0.03 0.00 996.6
20260506120429 -17 45 4.8 8.0 0.00 0.03 0.00 996.6
20260506120420 -17 45 3.2 8.0 0.00 0.03 0.00 996.6
20260506120340 -17 90 3.2 8.0 0.00 0.03 0.00 996.6
20260506120330 -17 0 4.8 8.0 0.00 0.03 0.00 996.6
20260506120250 -17 45 4.8 8.0 0.00 0.03 0.00 996.6
20260506120240 -17 90 4.8 8.0 0.00 0.03 0.00 996.6
20260506120220 -17 23 4.8 8.0 0.00 0.03 0.00 996.6
20260506120210 -17 45 4.8 8.0 0.00 0.03 0.00 996.6
20260506120200 -17 23 3.2 8.0 0.00 0.03 0.00 996.6
20260506120140 -17 45 3.2 8.0 0.00 0.03 0.00 996.6
20260506120130 -17 45 1.6 8.0 0.00 0.03 0.00 996.6
20260506120120 -17 0 1.6 8.0 0.00 0.03 0.00 996.6
20260506120100 -17 0 0.0 11.3 0.00 0.03 0.00 996.6
20260506120040 -17 45 0.0 11.3 0.00 0.03 0.00 996.6
20260506120030 -17 270 0.0 11.3 0.00 0.03 0.00 996.6
20260506120020 -17 315 0.0 11.3 0.00 0.03 0.00 996.6
20260506115950 -17 0 0.0 11.3 0.00 0.03 0.00 996.6
20260506115940 -17 315 0.0 11.3 0.00 0.03 0.00 996.6
20260506115921 -17 0 1.6 11.3 0.00 0.03 0.00 996.6
20260506115911 -17 45 1.6 11.3 0.00 0.03 0.00 996.6
20260506115901 -17 0 1.6 12.9 0.00 0.03 0.00 996.6
20260506115831 -17 315 1.6 12.9 0.00 0.03 0.00 996.6
20260506115821 -17 0 1.6 12.9 0.00 0.03 0.00 996.6
20260506115811 -17 270 3.2 12.9 0.00 0.03 0.00 996.6
20260506115801 -17 315 3.2 12.9 0.00 0.03 0.00 996.7
20260506115751 -17 23 3.2 12.9 0.00 0.03 0.00 996.6
20260506115741 -17 0 4.8 12.9 0.00 0.03 0.00 996.6
20260506115731 -17 315 4.8 16.1 0.00 0.03 0.00 996.7
20260506115721 -17 45 6.4 16.1 0.00 0.03 0.00 996.7
20260506115711 -17 45 6.4 16.1 0.00 0.03 0.00 996.6
20260506115701 -17 23 6.4 16.1 0.00 0.03 0.00 996.7
20260506115651 -17 45 6.4 17.7 0.00 0.03 0.00 996.6
20260506115631 -17 0 6.4 17.7 0.00 0.03 0.00 996.6
20260506115621 -17 45 6.4 17.7 0.00 0.03 0.00 996.7
20260506115611 -17 45 6.4 17.7 0.00 0.03 0.00 996.6
20260506115531 -17 45 6.4 17.7 0.00 0.03 0.00 996.6
20260506115501 -17 45 8.0 17.7 0.00 0.03 0.00 996.6
20260506115451 -17 68 9.7 17.7 0.00 0.03 0.00 996.6
20260506115441 -17 90 9.7 17.7 0.00 0.03 0.00 996.6
20260506115431 -17 45 9.7 17.7 0.00 0.03 0.00 996.6
20260506115421 -17 0 9.7 17.7 0.00 0.03 0.00 996.6
20260506115411 -17 45 9.7 17.7 0.00 0.03 0.00 996.5
20260506115342 -17 45 9.7 17.7 0.00 0.03 0.00 996.6
20260506115312 -17 45 9.7 17.7 0.00 0.03 0.00 996.5
20260506115306 -17 45 9.7 17.7 0.00 0.03 0.00 996.6
20260506115232 -17 45 11.3 17.7 0.00 0.03 0.00 996.5
20260506115212 -17 45 11.3 17.7 0.00 0.03 0.00 996.6
20260506115202 -17 45 9.7 17.7 0.00 0.03 0.00 996.5
20260506115152 -17 45 9.7 14.5 0.00 0.03 0.00 996.6
20260506115142 -17 68 8.0 14.5 0.00 0.03 0.00 996.6
20260506115132 -17 90 6.4 14.5 0.00 0.03 0.00 996.6
20260506115122 -17 45 6.4 14.5 0.00 0.03 0.00 996.6
20260506115112 -17 90 4.8 12.9 0.00 0.03 0.00 996.6
20260506115102 -17 90 3.2 12.9 0.00 0.03 0.00 996.6
20260506115052 -17 68 3.2 12.9 0.00 0.03 0.00 996.6
20260506115032 -17 45 3.2 12.9 0.00 0.03 0.00 996.6
20260506115022 -17 90 3.2 12.9 0.00 0.03 0.00 996.7
20260506115012 -17 45 4.8 12.9 0.00 0.03 0.00 996.7
20260506115002 -17 45 4.8 12.9 0.00 0.03 0.00 996.6
20260506114952 -17 45 6.4 12.9 0.00 0.03 0.00 996.7
20260506114942 -17 45 6.4 12.9 0.00 0.03 0.00 996.6
20260506114922 -17 90 6.4 12.9 0.00 0.03 0.00 996.7
20260506114912 -17 90 6.4 12.9 0.00 0.03 0.00 996.6
20260506114842 -17 90 6.4 12.9 0.00 0.03 0.00 996.7
20260506114833 -17 45 6.4 12.9 0.00 0.03 0.00 996.7
20260506114823 -17 68 6.4 12.9 0.00 0.03 0.00 996.6
20260506114813 -17 90 6.4 12.9 0.00 0.03 0.00 996.6
20260506114803 -17 90 4.8 11.3 0.00 0.03 0.00 996.7
20260506114753 -17 90 3.2 9.7 0.00 0.03 0.00 996.7
20260506114743 -17 45 3.2 9.7 0.00 0.03 0.00 996.7
20260506114733 -17 90 3.2 8.0 0.00 0.03 0.00 996.7
20260506114723 -17 45 3.2 8.0 0.00 0.03 0.00 996.7
20260506114703 -17 45 4.8 8.0 0.00 0.03 0.00 996.6
20260506114643 -17 68 4.8 8.0 0.00 0.03 0.00 996.7
20260506114633 -17 45 4.8 8.0 0.00 0.03 0.00 996.7
20260506114553 -17 90 4.8 8.0 0.00 0.03 0.00 996.7
20260506114523 -17 45 4.8 8.0 0.00 0.03 0.00 996.7
20260506114513 -17 90 4.8 8.0 0.00 0.03 0.00 996.7
20260506114503 -17 90 4.8 9.7 0.00 0.03 0.00 996.7
20260506114443 -17 90 3.2 9.7 0.00 0.03 0.00 996.7
20260506114433 -17 68 3.2 9.7 0.00 0.03 0.00 996.7
20260506114413 -17 90 3.2 12.9 0.00 0.03 0.00 996.7
20260506114353 -17 135 3.2 12.9 0.00 0.03 0.00 996.7
20260506114343 -17 113 3.2 12.9 0.00 0.03 0.00 996.7
20260506114333 -17 90 3.2 12.9 0.00 0.03 0.00 996.7
20260506114304 -17 68 3.2 12.9 0.00 0.03 0.00 996.7
20260506114254 -17 90 3.2 12.9 0.00 0.03 0.00 996.7
20260506114244 -17 45 3.2 12.9 0.00 0.03 0.00 996.7
20260506114234 -17 90 4.8 12.9 0.00 0.03 0.00 996.7
20260506114214 -17 45 4.8 12.9 0.00 0.03 0.00 996.6
20260506114204 -17 45 4.8 12.9 0.00 0.03 0.00 996.7
20260506114154 -17 45 3.2 12.9 0.00 0.03 0.00 996.7
20260506114144 -17 90 3.2 12.9 0.00 0.03 0.00 996.7
20260506114134 -17 68 3.2 12.9 0.00 0.03 0.00 996.7
20260506114114 -17 45 3.2 12.9 0.00 0.03 0.00 996.7
20260506114104 -17 90 3.2 12.9 0.00 0.03 0.00 996.7
20260506114054 -17 45 4.8 12.9 0.00 0.03 0.00 996.7
20260506114034 -17 0 6.4 16.1 0.00 0.03 0.00 996.7
20260506114024 -17 23 6.4 16.1 0.00 0.03 0.00 996.7
20260506114014 -17 45 6.4 16.1 0.00 0.03 0.00 996.7
20260506114005 -17 45 8.0 16.1 0.00 0.03 0.00 996.7
20260506113954 -17 90 8.0 16.1 0.00 0.03 0.00 996.7
20260506113944 -17 45 9.7 16.1 0.00 0.03 0.00 996.6
20260506113934 -17 90 9.7 16.1 0.00 0.03 0.00 996.7
20260506113924 -17 90 9.7 16.1 0.00 0.03 0.00 996.6
20260506113844 -17 45 9.7 16.1 0.00 0.03 0.00 996.7
20260506113834 -17 45 9.7 16.1 0.00 0.03 0.00 996.6
20260506113824 -17 45 8.0 16.1 0.00 0.03 0.00 996.7
20260506113814 -17 23 8.0 16.1 0.00 0.03 0.00 996.6
20260506113804 -17 0 6.4 16.1 0.00 0.03 0.00 996.7
20260506113755 -17 45 6.4 16.1 0.00 0.03 0.00 996.6
20260506113745 -17 90 4.8 16.1 0.00 0.03 0.00 996.6
20260506113735 -17 45 3.2 16.1 0.00 0.03 0.00 996.7
20260506113725 -17 90 3.2 16.1 0.00 0.03 0.00 996.7
20260506113715 -17 113 3.2 16.1 0.00 0.03 0.00 996.7
20260506113705 -17 135 3.2 16.1 0.00 0.03 0.00 996.7
20260506113655 -17 90 4.8 16.1 0.00 0.03 0.00 996.7
20260506113645 -17 45 6.4 16.1 0.00 0.03 0.00 996.7
20260506113635 -17 90 6.4 16.1 0.00 0.03 0.00 996.7
20260506113615 -17 135 6.4 16.1 0.00 0.03 0.00 996.7
20260506113555 -17 90 6.4 16.1 0.00 0.03 0.00 996.7
20260506113545 -17 0 6.4 16.1 0.00 0.03 0.00 996.7
20260506113535 -17 0 6.4 16.1 0.00 0.03 0.00 996.8
20260506113525 -17 45 8.0 16.1 0.00 0.03 0.00 996.7
20260506113515 -17 90 9.7 16.1 0.00 0.03 0.00 996.8
20260506113505 -17 90 9.7 16.1 0.00 0.03 0.00 996.7
20260506113445 -17 45 9.7 16.1 0.00 0.03 0.00 996.8
20260506113425 -17 90 9.7 16.1 0.00 0.03 0.00 996.7
20260506113415 -17 90 9.7 16.1 0.00 0.03 0.00 996.8
20260506113405 -17 90 8.0 16.1 0.00 0.03 0.00 996.8
20260506113345 -17 90 9.7 16.1 0.00 0.03 0.00 996.7
20260506113325 -17 90 9.7 16.1 0.00 0.03 0.00 996.8
20260506113315 -17 90 8.0 16.1 0.00 0.03 0.00 996.7
20260506113306 -17 68 8.0 16.1 0.00 0.03 0.00 996.7
20260506113256 -17 68 6.4 16.1 0.00 0.03 0.00 996.7
20260506113246 -17 90 6.4 16.1 0.00 0.03 0.00 996.7
20260506113226 -17 68 3.2 16.1 0.00 0.03 0.00 996.8
20260506113216 -17 90 4.8 16.1 0.00 0.03 0.00 996.7
20260506113206 -17 45 6.4 16.1 0.00 0.03 0.00 996.8
20260506113156 -17 45 6.4 16.1 0.00 0.03 0.00 996.7
20260506113146 -17 90 9.7 16.1 0.00 0.03 0.00 996.8
20260506113136 -17 135 9.7 17.7 0.00 0.03 0.00 996.7
20260506113126 -17 68 9.7 17.7 0.00 0.03 0.00 996.7
20260506113106 -17 90 9.7 17.7 0.00 0.03 0.00 996.7
20260506113056 -17 90 8.0 17.7 0.00 0.03 0.00 996.7
20260506113046 -17 90 6.4 17.7 0.00 0.03 0.00 996.7
20260506113036 -17 90 6.4 17.7 0.00 0.03 0.00 996.8
20260506113016 -17 90 8.0 17.7 0.00 0.03 0.00 996.8
20260506112946 -17 90 9.7 17.7 0.00 0.03 0.00 996.7
20260506112936 -17 90 9.7 17.7 0.00 0.03 0.00 996.8
20260506112926 -17 90 6.4 17.7 0.00 0.03 0.00 996.8
20260506112916 -17 68 6.4 17.7 0.00 0.03 0.00 996.7
20260506112846 -17 90 6.4 17.7 0.00 0.03 0.00 996.8
20260506112807 -17 90 6.4 17.7 0.00 0.03 0.00 996.8
20260506112757 -17 90 6.4 17.7 0.00 0.03 0.00 996.9
20260506112747 -17 135 8.0 17.7 0.00 0.03 0.00 996.8
20260506112727 -17 90 9.7 17.7 0.00 0.03 0.00 996.8
20260506112717 -17 45 11.3 17.7 0.00 0.03 0.00 996.8
20260506112707 -17 45 11.3 17.7 0.00 0.03 0.00 996.9
20260506112637 -17 90 11.3 17.7 0.00 0.03 0.00 996.8
20260506112627 -17 45 11.3 17.7 0.00 0.03 0.00 996.8
20260506112617 -17 68 11.3 17.7 0.00 0.03 0.00 996.8
20260506112607 -17 45 9.7 17.7 0.00 0.03 0.00 996.8
20260506112557 -17 45 9.7 17.7 0.00 0.03 0.00 996.9
20260506112547 -17 45 8.0 17.7 0.00 0.03 0.00 996.8
20260506112537 -17 90 6.4 16.1 0.00 0.03 0.00 996.8
20260506112527 -17 90 6.4 12.9 0.00 0.03 0.00 996.9
20260506112517 -17 45 6.4 14.5 0.00 0.03 0.00 996.9
20260506112507 -17 113 6.4 14.5 0.00 0.03 0.00 996.9
20260506112457 -17 90 6.4 16.1 0.00 0.03 0.00 996.9
20260506112447 -17 45 6.4 16.1 0.00 0.03 0.00 996.9
20260506112437 -17 45 8.0 16.1 0.00 0.03 0.00 996.9
20260506112427 -17 45 8.0 17.7 0.00 0.03 0.00 996.9
20260506112407 -17 0 6.4 17.7 0.00 0.03 0.00 996.9
20260506112347 -17 45 6.4 17.7 0.00 0.03 0.00 997.0
20260506112338 -17 45 6.4 17.7 0.00 0.03 0.00 996.9
20260506112327 -17 45 4.8 17.7 0.00 0.03 0.00 996.9
20260506112308 -17 45 4.8 17.7 0.00 0.03 0.00 997.0
20260506112248 -17 23 3.2 17.7 0.00 0.03 0.00 997.0
20260506112228 -17 90 3.2 17.7 0.00 0.03 0.00 997.0
20260506112208 -17 135 3.2 17.7 0.00 0.03 0.00 997.0
20260506112158 -17 113 3.2 17.7 0.00 0.03 0.00 997.0
20260506112148 -17 90 3.2 17.7 0.00 0.03 0.00 997.0
20260506112138 -17 113 4.8 17.7 0.00 0.03 0.00 997.0
20260506112128 -17 90 4.8 17.7 0.00 0.03 0.00 997.0
20260506112118 -17 113 6.4 17.7 0.00 0.03 0.00 997.0
20260506112108 -17 90 6.4 17.7 0.00 0.03 0.00 997.0
20260506112058 -17 90 9.7 17.7 0.00 0.03 0.00 997.0
20260506112048 -17 68 9.7 17.7 0.00 0.03 0.00 997.0
20260506112028 -17 90 12.9 17.7 0.00 0.03 0.00 997.0
20260506112008 -17 90 11.3 17.7 0.00 0.03 0.00 997.0
20260506111958 -17 90 9.7 17.7 0.00 0.03 0.00 997.0
20260506111938 -17 45 9.7 17.7 0.00 0.03 0.00 997.0
20260506111928 -17 90 8.0 12.9 0.00 0.03 0.00 997.0
20260506111918 -17 45 6.4 12.9 0.00 0.03 0.00 997.0
20260506111908 -17 90 6.4 12.9 0.00 0.03 0.00 997.0
20260506111858 -17 45 4.8 12.9 0.00 0.03 0.00 997.0
20260506111848 -17 90 4.8 12.9 0.00 0.03 0.00 997.1
20260506111838 -17 45 3.2 12.9 0.00 0.03 0.00 997.1
20260506111828 -17 90 3.2 12.9 0.00 0.03 0.00 997.1
20260506111818 -17 68 3.2 12.9 0.00 0.03 0.00 997.1
20260506111809 -17 135 3.2 12.9 0.00 0.03 0.00 997.1
20260506111759 -17 90 4.8 12.9 0.00 0.03 0.00 997.1
20260506111749 -17 135 6.4 12.9 0.00 0.03 0.00 997.1
20260506111739 -17 68 6.4 12.9 0.00 0.03 0.00 997.1
20260506111729 -17 113 6.4 12.9 0.00 0.03 0.00 997.0
20260506111709 -17 135 8.0 12.9 0.00 0.03 0.00 997.1
20260506111659 -17 90 8.0 12.9 0.00 0.03 0.00 997.1
20260506111649 -17 90 6.4 11.3 0.00 0.03 0.00 997.1
20260506111639 -17 135 6.4 12.9 0.00 0.03 0.00 997.1
20260506111629 -17 135 4.8 12.9 0.00 0.03 0.00 997.1
20260506111559 -17 180 3.2 12.9 0.00 0.03 0.00 997.2
20260506111549 -17 135 3.2 12.9 0.00 0.03 0.00 997.1
20260506111539 -17 135 3.2 12.9 0.00 0.03 0.00 997.2
20260506111519 -17 113 3.2 12.9 0.00 0.03 0.00 997.2
20260506111459 -17 135 3.2 12.9 0.00 0.03 0.00 997.2
20260506111449 -17 135 4.8 12.9 0.00 0.03 0.00 997.2
20260506111429 -17 90 6.4 12.9 0.00 0.03 0.00 997.2
20260506111419 -17 113 6.4 12.9 0.00 0.03 0.00 997.2
20260506111359 -17 135 6.4 12.9 0.00 0.03 0.00 997.2
20260506111339 -17 90 6.4 12.9 0.00 0.03 0.00 997.2
20260506111329 -17 90 6.4 17.7 0.00 0.03 0.00 997.2
20260506111319 -17 135 6.4 17.7 0.00 0.03 0.00 997.3
20260506111310 -17 90 6.4 19.3 0.00 0.03 0.00 997.2
20260506111240 -17 68 6.4 19.3 0.00 0.03 0.00 997.3
20260506111230 -17 90 6.4 19.3 0.00 0.03 0.00 997.3
20260506111220 -17 0 6.4 19.3 0.00 0.03 0.00 997.3
20260506111210 -17 23 6.4 19.3 0.00 0.03 0.00 997.3
20260506111200 -17 68 6.4 19.3 0.00 0.03 0.00 997.2
20260506111150 -17 45 6.4 19.3 0.00 0.03 0.00 997.2
20260506111140 -17 90 4.8 19.3 0.00 0.03 0.00 997.3
20260506111130 -17 45 4.8 19.3 0.00 0.03 0.00 997.3
20260506111120 -17 90 3.2 19.3 0.00 0.03 0.00 997.3
20260506111110 -17 45 3.2 19.3 0.00 0.03 0.00 997.3
20260506111100 -17 0 4.8 19.3 0.00 0.03 0.00 997.3
20260506111050 -17 45 4.8 19.3 0.00 0.03 0.00 997.3
20260506111030 -17 90 6.4 19.3 0.00 0.03 0.00 997.3
20260506111020 -17 45 6.4 19.3 0.00 0.03 0.00 997.3
20260506111010 -17 68 8.0 19.3 0.00 0.03 0.00 997.3
20260506111000 -17 90 8.0 19.3 0.00 0.03 0.00 997.4
20260506110950 -17 45 9.7 19.3 0.00 0.03 0.00 997.4
20260506110930 -17 45 9.7 19.3 0.00 0.03 0.00 997.3
20260506110920 -17 45 11.3 19.3 0.00 0.03 0.00 997.3
20260506110910 -17 45 12.9 19.3 0.00 0.03 0.00 997.4
20260506110840 -17 45 12.9 19.3 0.00 0.03 0.00 997.3
20260506110830 -17 90 12.9 19.3 0.00 0.03 0.00 997.2
20260506110821 -17 90 11.3 19.3 0.00 0.03 0.00 997.3
20260506110811 -17 45 9.7 17.7 0.00 0.03 0.00 997.3
20260506110801 -17 45 9.7 17.7 0.00 0.03 0.00 997.2
20260506110751 -17 45 8.0 16.1 0.00 0.03 0.00 997.3
20260506110721 -17 90 9.7 16.1 0.00 0.03 0.00 997.3
20260506110701 -17 45 9.7 16.1 0.00 0.03 0.00 997.3
20260506110641 -17 45 6.4 16.1 0.00 0.03 0.00 997.3
20260506110631 -17 45 3.2 16.1 0.00 0.03 0.00 997.4
20260506110621 -17 90 3.2 16.1 0.00 0.03 0.00 997.3
20260506110611 -17 90 3.2 16.1 0.00 0.03 0.00 997.4
20260506110601 -17 270 3.2 16.1 0.00 0.03 0.00 997.4
20260506110551 -17 135 3.2 16.1 0.00 0.03 0.00 997.4
20260506110541 -17 90 4.8 16.1 0.00 0.03 0.00 997.4
20260506110531 -17 135 4.8 16.1 0.00 0.03 0.00 997.4
20260506110511 -17 113 4.8 16.1 0.00 0.03 0.00 997.4
20260506110451 -17 135 4.8 16.1 0.00 0.03 0.00 997.4
20260506110441 -17 135 6.4 16.1 0.00 0.03 0.00 997.4
20260506110401 -17 135 6.4 16.1 0.00 0.03 0.00 997.4
20260506110351 -17 135 4.8 16.1 0.00 0.03 0.00 997.4
20260506110341 -17 135 3.2 14.5 0.00 0.03 0.00 997.4
20260506110331 -17 135 1.6 14.5 0.00 0.03 0.00 997.4
20260506110321 -17 158 1.6 14.5 0.00 0.03 0.00 997.4
20260506110311 -17 180 1.6 14.5 0.00 0.03 0.00 997.4
20260506110302 -17 315 3.2 14.5 0.00 0.03 0.00 997.4
20260506110252 -17 45 3.2 14.5 0.00 0.03 0.00 997.4
20260506110242 -17 90 4.8 14.5 0.00 0.03 0.00 997.4
20260506110232 -17 90 6.4 14.5 0.00 0.03 0.00 997.4
20260506110222 -17 135 8.0 14.5 0.00 0.03 0.00 997.5
20260506110212 -17 135 9.7 14.5 0.00 0.03 0.00 997.4
20260506110202 -17 90 8.0 14.5 0.00 0.03 0.00 997.4
20260506110152 -17 135 8.0 14.5 0.00 0.03 0.00 997.4
20260506110142 -17 135 6.4 14.5 0.00 0.03 0.00 997.4
20260506110132 -17 135 4.8 12.9 0.00 0.03 0.00 997.4
20260506110112 -17 135 3.2 14.5 0.00 0.03 0.00 997.3
20260506110052 -17 135 3.2 14.5 0.00 0.03 0.00 997.4
20260506110042 -17 45 3.2 14.5 0.00 0.03 0.00 997.4
20260506110032 -17 135 1.6 14.5 0.00 0.03 0.00 997.4
20260506110002 -17 90 1.6 14.5 0.00 0.03 0.00 997.5
20260506105952 -17 135 1.6 14.5 0.00 0.03 0.00 997.4
20260506105942 -17 90 3.2 14.5 0.00 0.03 0.00 997.4
20260506105932 -17 135 3.2 14.5 0.00 0.03 0.00 997.5
20260506105912 -17 90 3.2 14.5 0.00 0.03 0.00 997.5
20260506105902 -17 90 4.8 14.5 0.00 0.03 0.00 997.5
20260506105852 -17 135 4.8 14.5 0.00 0.03 0.00 997.5
20260506105842 -17 90 6.4 14.5 0.00 0.03 0.00 997.5
20260506105813 -17 135 6.4 14.5 0.00 0.03 0.00 997.5
20260506105753 -17 135 8.0 14.5 0.00 0.03 0.00 997.5
20260506105713 -17 135 9.7 14.5 0.00 0.03 0.00 997.5
20260506105633 -17 135 9.7 14.5 0.00 0.03 0.00 997.5
20260506105623 -17 135 9.7 12.9 0.00 0.03 0.00 997.5
20260506105613 -17 135 8.0 12.9 0.00 0.03 0.00 997.5
20260506105543 -17 135 9.7 12.9 0.00 0.03 0.00 997.5
20260506105533 -17 135 8.0 12.9 0.00 0.03 0.00 997.5
20260506105513 -17 135 6.4 12.9 0.00 0.03 0.00 997.5
20260506105503 -17 135 4.8 12.9 0.00 0.03 0.00 997.5
20260506105453 -17 135 3.2 12.9 0.00 0.03 0.00 997.5
20260506105443 -17 135 3.2 8.0 0.00 0.03 0.00 997.6
20260506105433 -17 135 1.6 6.4 0.00 0.03 0.00 997.6
20260506105423 -17 135 0.0 3.2 0.00 0.03 0.00 997.6
20260506105353 -17 90 0.0 3.2 0.00 0.03 0.00 997.6
20260506105343 -17 68 0.0 3.2 0.00 0.03 0.00 997.6
20260506105333 -17 45 0.0 3.2 0.00 0.03 0.00 997.6
20260506105323 -17 135 0.0 3.2 0.00 0.03 0.00 997.6
20260506105254 -17 180 0.0 3.2 0.00 0.03 0.00 997.6
20260506105244 -17 135 0.0 3.2 0.00 0.03 0.00 997.6
20260506105234 -17 135 0.0 6.4 0.00 0.03 0.00 997.7
20260506105224 -17 180 0.0 6.4 0.00 0.03 0.00 997.7
20260506105214 -17 270 0.0 8.0 0.00 0.03 0.00 997.6
20260506105154 -17 180 0.0 8.0 0.00 0.03 0.00 997.6
20260506105144 -17 180 0.0 8.0 0.00 0.03 0.00 997.7
20260506105114 -17 225 0.0 8.0 0.00 0.03 0.00 997.7
20260506105054 -17 90 0.0 8.0 0.00 0.03 0.00 997.7
20260506105034 -17 180 0.0 8.0 0.00 0.03 0.00 997.7
20260506105024 -17 225 0.0 8.0 0.00 0.03 0.00 997.7
20260506105004 -17 135 0.0 8.0 0.00 0.03 0.00 997.7
20260506104944 -17 180 0.0 8.0 0.00 0.03 0.00 997.7
20260506104934 -17 180 0.0 9.7 0.00 0.03 0.00 997.7
20260506104924 -17 180 0.0 11.3 0.00 0.03 0.00 997.8
20260506104914 -17 180 0.0 11.3 0.00 0.03 0.00 997.7
20260506104854 -17 180 1.6 11.3 0.00 0.03 0.00 997.7
20260506104844 -17 135 1.6 11.3 0.00 0.03 0.00 997.7
20260506104835 -17 135 3.2 11.3 0.00 0.03 0.00 997.7
20260506104824 -17 158 3.2 11.3 0.00 0.03 0.00 997.8
20260506104814 -17 135 3.2 11.3 0.00 0.03 0.00 997.8
20260506104804 -17 90 4.8 11.3 0.00 0.03 0.00 997.8
20260506104755 -17 135 4.8 11.3 0.00 0.03 0.00 997.7
20260506104745 -17 113 4.8 11.3 0.00 0.03 0.00 997.7
20260506104735 -17 90 4.8 11.3 0.00 0.03 0.00 997.7
20260506104725 -17 113 4.8 11.3 0.00 0.03 0.00 997.6
20260506104715 -17 135 4.8 11.3 0.00 0.03 0.00 997.7
20260506104705 -17 135 3.2 11.3 0.00 0.03 0.00 997.6
20260506104635 -17 135 3.2 11.3 0.00 0.03 0.00 997.7
20260506104615 -17 90 3.2 11.3 0.00 0.03 0.00 997.7
20260506104605 -17 90 3.2 11.3 0.00 0.03 0.00 997.6
20260506104555 -17 45 3.2 11.3 0.00 0.03 0.00 997.7
20260506104545 -17 23 3.2 11.3 0.00 0.03 0.00 997.6
20260506104535 -17 0 4.8 11.3 0.00 0.03 0.00 997.6
20260506104525 -17 68 6.4 11.3 0.00 0.03 0.00 997.6
20260506104515 -17 45 6.4 11.3 0.00 0.03 0.00 997.5
20260506104455 -17 45 6.4 11.3 0.00 0.03 0.00 997.6
20260506104435 -17 45 4.8 11.3 0.00 0.03 0.00 997.6
20260506104405 -17 45 3.2 8.0 0.00 0.03 0.00 997.6
20260506104325 -17 45 1.6 8.0 0.00 0.03 0.00 997.6
20260506104315 -17 0 1.6 8.0 0.00 0.03 0.00 997.6
20260506104255 -17 90 1.6 8.0 0.00 0.03 0.00 997.6
20260506104246 -17 45 1.6 8.0 0.00 0.03 0.00 997.6
20260506104216 -17 0 3.2 8.0 0.00 0.03 0.00 997.6
20260506104156 -17 338 3.2 8.0 0.00 0.03 0.00 997.6
20260506104146 -17 315 3.2 8.0 0.00 0.03 0.00 997.6
20260506104136 -17 0 3.2 8.0 0.00 0.03 0.00 997.6
20260506104056 -17 0 3.2 8.0 0.00 0.03 0.00 997.6
20260506104036 -17 45 3.2 8.0 0.00 0.03 0.00 997.6
20260506104026 -17 45 3.2 8.0 0.00 0.03 0.00 997.7
20260506104016 -17 45 3.2 4.8 0.00 0.03 0.00 997.6
20260506103946 -17 45 1.6 4.8 0.00 0.03 0.00 997.6
20260506103936 -17 0 1.6 4.8 0.00 0.03 0.00 997.6
20260506103926 -17 0 0.0 4.8 0.00 0.03 0.00 997.7
20260506103916 -17 315 0.0 4.8 0.00 0.03 0.00 997.6
20260506103856 -17 135 0.0 4.8 0.00 0.03 0.00 997.6
20260506103826 -17 158 0.0 4.8 0.00 0.03 0.00 997.6
20260506103816 -17 90 0.0 4.8 0.00 0.03 0.00 997.6
20260506103806 -17 225 0.0 4.8 0.00 0.03 0.00 997.6
20260506103756 -17 248 0.0 4.8 0.00 0.03 0.00 997.6
20260506103736 -17 135 0.0 4.8 0.00 0.03 0.00 997.6
20260506103726 -17 135 1.6 4.8 0.00 0.03 0.00 997.6
20260506103647 -17 135 1.6 6.4 0.00 0.03 0.00 997.6
20260506103617 -17 135 0.0 8.0 0.00 0.03 0.00 997.6
20260506103557 -17 45 0.0 8.0 0.00 0.03 0.00 997.6
20260506103527 -17 90 0.0 8.0 0.00 0.03 0.00 997.6
20260506103517 -17 45 0.0 11.3 0.00 0.03 0.00 997.6
20260506103507 -17 113 0.0 11.3 0.00 0.03 0.00 997.6
20260506103457 -17 90 1.6 11.3 0.00 0.03 0.00 997.5
20260506103437 -17 90 1.6 11.3 0.00 0.03 0.00 997.6
20260506103427 -17 45 3.2 11.3 0.00 0.03 0.00 997.6
20260506103417 -17 45 3.2 11.3 0.00 0.03 0.00 997.5
20260506103347 -17 90 3.2 11.3 0.00 0.03 0.00 997.5
20260506103327 -17 90 1.6 11.3 0.00 0.03 0.00 997.5
20260506103257 -17 90 3.2 11.3 0.00 0.03 0.00 997.5
20260506103247 -17 135 3.2 11.3 0.00 0.03 0.00 997.5
20260506103217 -17 90 3.2 11.3 0.00 0.03 0.00 997.5
20260506103207 -17 135 3.2 11.3 0.00 0.03 0.00 997.5
20260506103148 -17 45 3.2 11.3 0.00 0.03 0.00 997.5
20260506103128 -17 90 3.2 11.3 0.00 0.03 0.00 997.5
20260506103058 -17 90 4.8 11.3 0.00 0.03 0.00 997.5
20260506103028 -17 90 6.4 11.3 0.00 0.03 0.00 997.5
20260506103018 -17 45 4.8 8.0 0.00 0.03 0.00 997.4
20260506102958 -17 90 4.8 8.0 0.00 0.03 0.00 997.5
20260506102948 -17 45 4.8 8.0 0.00 0.03 0.00 997.5
20260506102928 -17 45 3.2 8.0 0.00 0.03 0.00 997.5
20260506102918 -17 45 3.2 8.0 0.00 0.03 0.00 997.4
20260506102858 -17 0 3.2 8.0 0.00 0.03 0.00 997.5
20260506102838 -17 45 3.2 8.0 0.00 0.03 0.00 997.5
20260506102818 -17 45 1.6 8.0 0.00 0.03 0.00 997.5
20260506102758 -17 45 0.0 8.0 0.00 0.03 0.00 997.5
20260506102748 -17 90 0.0 8.0 0.00 0.03 0.00 997.5
20260506102728 -17 45 1.6 8.0 0.00 0.03 0.00 997.5
20260506102718 -17 0 1.6 8.0 0.00 0.03 0.00 997.5
20260506102708 -17 315 3.2 8.0 0.00 0.03 0.00 997.6
20260506102648 -17 45 3.2 8.0 0.00 0.03 0.00 997.5
20260506102639 -17 0 3.2 8.0 0.00 0.03 0.00 997.5
20260506102629 -17 0 3.2 8.0 0.00 0.03 0.00 997.6
20260506102559 -17 0 3.2 8.0 0.00 0.03 0.00 997.5
20260506102549 -17 45 3.2 8.0 0.00 0.03 0.00 997.5
20260506102539 -17 23 3.2 8.0 0.00 0.03 0.00 997.5
20260506102529 -17 0 3.2 8.0 0.00 0.03 0.00 997.6
20260506102519 -17 23 3.2 6.4 0.00 0.03 0.00 997.5
20260506102449 -17 45 3.2 6.4 0.00 0.03 0.00 997.6
20260506102419 -17 90 3.2 6.4 0.00 0.03 0.00 997.6
20260506102339 -17 90 3.2 6.4 0.00 0.03 0.00 997.6
20260506102319 -17 68 3.2 6.4 0.00 0.03 0.00 997.6
20260506102309 -17 45 3.2 6.4 0.00 0.03 0.00 997.6
20260506102259 -17 90 3.2 6.4 0.00 0.03 0.00 997.6
20260506102249 -17 90 1.6 3.2 0.00 0.03 0.00 997.6
20260506102229 -17 90 1.6 4.8 0.00 0.03 0.00 997.7
20260506102220 -17 113 3.2 6.4 0.00 0.03 0.00 997.7
20260506102209 -17 45 1.6 6.4 0.00 0.03 0.00 997.7
20260506102159 -17 135 1.6 6.4 0.00 0.03 0.00 997.7
20260506102149 -17 90 1.6 6.4 0.00 0.03 0.00 997.7
20260506102139 -17 90 0.0 8.0 0.00 0.03 0.00 997.7
20260506102119 -17 45 0.0 8.0 0.00 0.03 0.00 997.7
20260506102059 -17 90 0.0 8.0 0.00 0.03 0.00 997.7
20260506102040 -17 45 0.0 9.7 0.00 0.03 0.00 997.7
20260506102030 -17 135 0.0 11.3 0.00 0.03 0.00 997.7
20260506101950 -17 135 0.0 11.3 0.00 0.03 0.00 997.8
20260506101910 -17 135 0.0 11.3 0.00 0.03 0.00 997.8
20260506101840 -17 135 1.6 11.3 0.00 0.03 0.00 997.8
20260506101830 -17 135 3.2 11.3 0.00 0.03 0.00 997.8
20260506101820 -17 45 3.2 11.3 0.00 0.03 0.00 997.8
20260506101750 -17 90 3.2 11.3 0.00 0.03 0.00 997.8
20260506101740 25 90 3.2 11.3 0.00 0.03 0.00 42 997.8
20260506101730 -17 45 3.2 11.3 0.00 0.03 0.00 997.8
20260506101710 -17 90 3.2 11.3 0.00 0.03 0.00 997.8
20260506101640 -17 90 4.8 11.3 0.00 0.03 0.00 997.8
20260506101630 -17 90 6.4 11.3 0.00 0.03 0.00 997.9
20260506101550 -17 90 6.4 11.3 0.00 0.03 0.00 997.9
20260506101540 -17 90 4.8 11.3 0.00 0.03 0.00 997.9
20260506101511 -17 90 3.2 8.0 0.00 0.03 0.00 997.9
20260506101441 -17 90 1.6 8.0 0.00 0.03 0.00 997.9
20260506101431 -17 90 3.2 8.0 0.00 0.03 0.00 997.9
20260506101411 -17 90 3.2 8.0 0.00 0.03 0.00 998.0
20260506101401 -17 68 3.2 8.0 0.00 0.03 0.00 998.0
20260506101351 -17 135 3.2 8.0 0.00 0.03 0.00 997.9
20260506101341 -17 90 3.2 8.0 0.00 0.03 0.00 997.9
20260506101311 -17 45 3.2 8.0 0.00 0.03 0.00 997.9
20260506101301 -17 90 3.2 8.0 0.00 0.03 0.00 997.9
20260506101251 -17 68 3.2 8.0 0.00 0.03 0.00 997.9
20260506101241 -17 90 4.8 8.0 0.00 0.03 0.00 997.9
20260506101231 -17 90 4.8 8.0 0.00 0.03 0.00 998.0
20260506101201 -17 90 3.2 8.0 0.00 0.03 0.00 997.9
20260506101141 -17 90 3.2 6.4 0.00 0.03 0.00 997.9
20260506101131 -17 90 3.2 6.4 0.00 0.03 0.00 998.0
20260506101111 -17 113 3.2 6.4 0.00 0.03 0.00 998.0
20260506101052 -17 90 3.2 6.4 0.00 0.03 0.00 998.0
20260506101042 -17 90 3.2 6.4 0.00 0.03 0.00 997.9
20260506101022 -17 90 1.6 6.4 0.00 0.03 0.00 997.9
20260506101012 -17 68 1.6 6.4 0.00 0.03 0.00 997.9
20260506101002 -17 180 1.6 6.4 0.00 0.03 0.00 997.9
20260506100952 -17 135 1.6 6.4 0.00 0.03 0.00 997.9
20260506100942 -17 135 3.2 6.4 0.00 0.03 0.00 997.9
20260506100922 -17 135 3.2 6.4 0.00 0.03 0.00 998.0
20260506100902 -17 135 3.2 6.4 0.00 0.03 0.00 997.9
20260506100822 -17 135 3.2 6.4 0.00 0.03 0.00 997.9
20260506100742 -17 135 3.2 6.4 0.00 0.03 0.00 997.9
20260506100732 -17 135 1.6 6.4 0.00 0.03 0.00 997.8
20260506100722 -17 135 1.6 6.4 0.00 0.03 0.00 997.9
20260506100712 -17 180 1.6 6.4 0.00 0.03 0.00 997.9
20260506100702 -17 180 3.2 6.4 0.00 0.03 0.00 997.8
20260506100652 -17 180 3.2 6.4 0.00 0.03 0.00 997.9
20260506100642 -17 135 3.2 6.4 0.00 0.03 0.00 997.9
20260506100632 -17 90 3.2 6.4 0.00 0.03 0.00 997.8
20260506100622 -17 113 3.2 6.4 0.00 0.03 0.00 997.8
20260506100612 -17 135 3.2 6.4 0.00 0.03 0.00 997.8
20260506100552 -17 135 3.2 6.4 0.00 0.03 0.00 997.9
20260506100523 -17 135 3.2 4.8 0.00 0.03 0.00 997.9
20260506100513 -17 135 1.6 6.4 0.00 0.03 0.00 997.9
20260506100453 -17 135 1.6 6.4 0.00 0.03 0.00 997.8
20260506100443 -17 180 1.6 6.4 0.00 0.03 0.00 997.9
20260506100433 -17 135 1.6 6.4 0.00 0.03 0.00 997.9
20260506100423 -17 90 1.6 6.4 0.00 0.03 0.00 997.8
20260506100413 -17 45 1.6 6.4 0.00 0.03 0.00 997.9
20260506100403 -17 45 0.0 6.4 0.00 0.03 0.00 997.8
20260506100353 -17 0 0.0 6.4 0.00 0.03 0.00 997.8
20260506100343 -17 135 0.0 6.4 0.00 0.03 0.00 997.9
20260506100333 -17 270 0.0 6.4 0.00 0.03 0.00 997.9
20260506100323 -17 315 0.0 8.0 0.00 0.03 0.00 997.9
20260506100313 -17 270 0.0 9.7 0.00 0.03 0.00 997.9
20260506100253 -17 225 0.0 9.7 0.00 0.03 0.00 997.9
20260506100243 -17 90 0.0 9.7 0.00 0.03 0.00 997.9
20260506100233 -17 90 0.0 9.7 0.00 0.03 0.00 997.8
20260506100213 -17 90 0.0 11.3 0.00 0.03 0.00 997.8
20260506100203 -17 90 0.0 11.3 0.00 0.03 0.00 997.9
20260506100153 -17 135 0.0 11.3 0.00 0.03 0.00 997.9
20260506100113 -17 135 0.0 11.3 0.00 0.03 0.00 997.9
20260506100103 -17 135 1.6 11.3 0.00 0.03 0.00 997.9
20260506100053 -17 135 1.6 11.3 0.00 0.03 0.00 997.8
20260506100043 -17 90 3.2 11.3 0.00 0.03 0.00 997.9
20260506100033 -17 90 3.2 11.3 0.00 0.03 0.00 997.8
20260506100023 -17 68 3.2 11.3 0.00 0.03 0.00 997.9
20260506100004 -17 45 3.2 11.3 0.00 0.03 0.00 997.8
20260506095944 -17 135 3.2 11.3 0.00 0.03 0.00 997.8
20260506095924 -17 90 3.2 11.3 0.00 0.03 0.00 997.8
20260506095914 -17 90 4.8 11.3 0.00 0.03 0.00 997.8
20260506095834 -17 23 6.4 11.3 0.00 0.03 0.00 997.8
20260506095824 -17 45 6.4 11.3 0.00 0.03 0.00 997.8
20260506095804 -17 68 6.4 11.3 0.00 0.03 0.00 997.8
20260506095744 -17 45 6.4 11.3 0.00 0.03 0.00 997.8
20260506095734 -17 45 4.8 11.3 0.00 0.03 0.00 997.8
20260506095714 -17 45 4.8 8.0 0.00 0.03 0.00 997.8
20260506095644 -17 90 4.8 8.0 0.00 0.03 0.00 997.8
20260506095634 -17 45 4.8 8.0 0.00 0.03 0.00 997.8
20260506095624 -17 45 3.2 8.0 0.00 0.03 0.00 997.8
20260506095604 -17 45 3.2 6.4 0.00 0.03 0.00 997.8
20260506095534 -17 0 3.2 8.0 0.00 0.03 0.00 997.8
20260506095524 -17 45 3.2 8.0 0.00 0.03 0.00 997.8
20260506095514 -17 45 1.6 8.0 0.00 0.03 0.00 997.8
20260506095505 -17 90 1.6 9.7 0.00 0.03 0.00 997.8
20260506095425 -17 45 0.0 9.7 0.00 0.03 0.00 997.8
20260506095415 -17 90 0.0 9.7 0.00 0.03 0.00 997.8
20260506095405 -17 135 0.0 9.7 0.00 0.03 0.00 997.8
20260506095325 -17 90 0.0 9.7 0.00 0.03 0.00 997.8
20260506095315 -17 90 1.6 9.7 0.00 0.03 0.00 997.8
20260506095306 -17 0 1.6 9.7 0.00 0.03 0.00 997.8
20260506095245 -17 90 3.2 9.7 0.00 0.03 0.00 997.8
20260506095235 -17 90 3.2 9.7 0.00 0.03 0.00 997.9
20260506095205 -17 90 3.2 9.7 0.00 0.03 0.00 997.8
20260506095155 -17 45 3.2 9.7 0.00 0.03 0.00 997.8
20260506095125 -17 90 4.8 9.7 0.00 0.03 0.00 997.8
20260506095115 -17 90 6.4 9.7 0.00 0.03 0.00 997.9
20260506095105 -17 90 6.4 9.7 0.00 0.03 0.00 997.8
20260506095055 -17 45 6.4 9.7 0.00 0.03 0.00 997.9
20260506095025 -17 68 6.4 9.7 0.00 0.03 0.00 997.8
20260506095005 -17 45 6.4 9.7 0.00 0.03 0.00 997.8
20260506094946 -17 45 4.8 9.7 0.00 0.03 0.00 997.8
20260506094936 -17 0 3.2 8.0 0.00 0.03 0.00 997.8
20260506094926 -17 0 4.8 8.0 0.00 0.03 0.00 997.9
20260506094916 -17 0 4.8 8.0 0.00 0.03 0.00 997.8
20260506094856 -17 45 4.8 8.0 0.00 0.03 0.00 997.8
20260506094846 -17 45 4.8 8.0 0.00 0.03 0.00 997.9
20260506094826 -17 45 3.2 8.0 0.00 0.03 0.00 997.8
20260506094816 -17 23 3.2 8.0 0.00 0.03 0.00 997.9
20260506094806 -17 90 3.2 8.0 0.00 0.03 0.00 997.9
20260506094746 -17 0 3.2 8.0 0.00 0.03 0.00 997.8
20260506094726 -17 0 3.2 8.0 0.00 0.03 0.00 997.9
20260506094646 -17 0 4.8 8.0 0.00 0.03 0.00 997.8
20260506094636 -17 0 4.8 8.0 0.00 0.03 0.00 997.9
20260506094626 -17 45 4.8 8.0 0.00 0.03 0.00 997.9
20260506094606 -17 0 4.8 8.0 0.00 0.03 0.00 997.8
20260506094536 -17 0 4.8 8.0 0.00 0.03 0.00 997.9
20260506094526 -17 0 4.8 8.0 0.00 0.03 0.00 997.8
20260506094457 -17 0 3.2 8.0 0.00 0.03 0.00 997.9
20260506094427 -17 45 1.6 8.0 0.00 0.03 0.00 997.9
20260506094417 -17 0 1.6 8.0 0.00 0.03 0.00 997.9
20260506094407 -17 0 1.6 8.0 0.00 0.03 0.00 997.8
20260506094357 -17 45 3.2 8.0 0.00 0.03 0.00 997.9
20260506094347 -17 90 3.2 8.0 0.00 0.03 0.00 997.8
20260506094317 -17 45 3.2 8.0 0.00 0.03 0.00 997.9
20260506094247 -17 0 3.2 8.0 0.00 0.03 0.00 997.8
20260506094237 -17 45 3.2 8.0 0.00 0.03 0.00 997.9
20260506094227 -17 90 3.2 8.0 0.00 0.03 0.00 997.9
20260506094207 -17 68 3.2 8.0 0.00 0.03 0.00 997.8
20260506094157 -17 90 3.2 8.0 0.00 0.03 0.00 997.8
20260506094137 -17 45 3.2 8.0 0.00 0.03 0.00 997.9
20260506094127 -17 45 3.2 8.0 0.00 0.03 0.00 997.8
20260506094117 -17 45 4.8 8.0 0.00 0.03 0.00 997.9
20260506094107 -17 45 4.8 8.0 0.00 0.03 0.00 997.8
20260506094057 -17 23 4.8 8.0 0.00 0.03 0.00 997.8
20260506094047 -17 23 4.8 8.0 0.00 0.03 0.00 997.9
20260506094027 -17 45 4.8 8.0 0.00 0.03 0.00 997.8
20260506094007 -17 45 3.2 8.0 0.00 0.03 0.00 997.9
20260506093957 -17 45 3.2 8.0 0.00 0.03 0.00 997.8
20260506093927 -17 90 3.2 8.0 0.00 0.03 0.00 997.8
20260506093917 -17 45 3.2 8.0 0.00 0.03 0.00 997.8
20260506093858 -17 45 3.2 8.0 0.00 0.03 0.00 997.9
20260506093838 -17 45 4.8 8.0 0.00 0.03 0.00 997.9
20260506093828 -17 68 4.8 8.0 0.00 0.03 0.00 997.9
20260506093748 -17 45 4.8 8.0 0.00 0.03 0.00 997.9
20260506093738 -17 45 3.2 8.0 0.00 0.03 0.00 997.9
20260506093718 -17 45 3.2 8.0 0.00 0.03 0.00 997.8
20260506093708 -17 68 3.2 8.0 0.00 0.03 0.00 997.9
20260506093628 -17 45 3.2 8.0 0.00 0.03 0.00 997.8
20260506093608 -17 90 3.2 8.0 0.00 0.03 0.00 997.9
20260506093558 -17 45 3.2 8.0 0.00 0.03 0.00 997.9
20260506093528 -17 45 4.8 8.0 0.00 0.03 0.00 997.8
20260506093518 -17 45 4.8 8.0 0.00 0.03 0.00 997.9
20260506093508 -17 90 4.8 8.0 0.00 0.03 0.00 997.9
20260506093458 -17 90 4.8 8.0 0.00 0.03 0.00 997.8
20260506093448 -17 45 4.8 8.0 0.00 0.03 0.00 997.8
20260506093438 -17 68 4.8 8.0 0.00 0.03 0.00 997.9
20260506093359 -17 45 3.2 8.0 0.00 0.03 0.00 997.9
20260506093339 -17 90 3.2 8.0 0.00 0.03 0.00 997.8
20260506093319 -17 0 3.2 8.0 0.00 0.03 0.00 997.9
20260506093249 -17 0 1.6 8.0 0.00 0.03 0.00 997.9
20260506093219 -17 45 1.6 8.0 0.00 0.03 0.00 997.9
20260506093209 -17 0 3.2 8.0 0.00 0.03 0.00 997.8
20260506093149 -17 45 3.2 8.0 0.00 0.03 0.00 997.8
20260506093129 -17 0 3.2 8.0 0.00 0.03 0.00 997.9
20260506093119 -17 23 3.2 8.0 0.00 0.03 0.00 997.9
20260506093109 -17 45 3.2 8.0 0.00 0.03 0.00 997.8
20260506093049 -17 0 4.8 8.0 0.00 0.03 0.00 997.8
20260506093039 -17 45 4.8 8.0 0.00 0.03 0.00 997.8
20260506093029 -17 0 3.2 8.0 0.00 0.03 0.00 997.9
20260506093019 -17 0 3.2 8.0 0.00 0.03 0.00 997.8
20260506092950 -17 0 3.2 8.0 0.00 0.03 0.00 997.9
20260506092929 -17 45 3.2 8.0 0.00 0.03 0.00 997.9
20260506092859 -17 45 4.8 8.0 0.00 0.03 0.00 997.9
20260506092849 -17 0 4.8 8.0 0.00 0.03 0.00 997.9
20260506092820 -17 45 4.8 8.0 0.00 0.03 0.00 997.8
20260506092810 -17 45 4.8 8.0 0.00 0.03 0.00 997.9
20260506092800 -17 45 6.4 8.0 0.00 0.03 0.00 997.9
20260506092750 -17 0 6.4 8.0 0.00 0.03 0.00 997.9
20260506092710 -17 0 6.4 8.0 0.00 0.03 0.00 997.9
20260506092700 -17 0 4.8 8.0 0.00 0.03 0.00 997.8
20260506092650 -17 0 3.2 8.0 0.00 0.03 0.00 997.9
20260506092630 -17 45 3.2 8.0 0.00 0.03 0.00 997.9
20260506092620 -17 0 1.6 4.8 0.00 0.03 0.00 997.8
20260506092610 -17 45 0.0 4.8 0.00 0.03 0.00 997.9
20260506092540 -17 23 0.0 3.2 0.00 0.03 0.00 997.9
20260506092530 -17 0 0.0 3.2 0.00 0.03 0.00 997.9
20260506092520 -17 315 0.0 3.2 0.00 0.03 0.00 997.9
20260506092510 -17 90 0.0 3.2 0.00 0.03 0.00 997.9
20260506092500 -17 113 0.0 3.2 0.00 0.03 0.00 997.9
20260506092450 -17 225 0.0 3.2 0.00 0.03 0.00 997.9
20260506092440 -17 45 1.6 3.2 0.00 0.03 0.00 997.9
20260506092430 -17 135 1.6 3.2 0.00 0.03 0.00 997.9
20260506092350 -17 0 1.6 3.2 0.00 0.03 0.00 997.9
20260506092340 -17 315 1.6 3.2 0.00 0.03 0.00 997.9
20260506092301 -17 0 1.6 3.2 0.00 0.03 0.00 997.9
20260506092241 -17 225 1.6 3.2 0.00 0.03 0.00 998.0
20260506092231 -17 225 1.6 3.2 0.00 0.03 0.00 997.9
20260506092221 -17 315 1.6 3.2 0.00 0.03 0.00 997.9
20260506092201 -17 0 3.2 3.2 0.00 0.03 0.00 997.9
20260506092151 -17 0 1.6 3.2 0.00 0.03 0.00 997.9
20260506092141 -17 0 1.6 4.8 0.00 0.03 0.00 997.9
20260506092131 -17 0 0.0 4.8 0.00 0.03 0.00 998.0
20260506092121 -17 0 0.0 6.4 0.00 0.03 0.00 998.0
20260506092111 -17 45 0.0 6.4 0.00 0.03 0.00 997.9
20260506092101 -17 0 0.0 8.0 0.00 0.03 0.00 997.9
20260506092051 -17 23 0.0 8.0 0.00 0.03 0.00 997.9
20260506092031 -17 45 0.0 8.0 0.00 0.03 0.00 998.0
20260506092021 -17 0 0.0 8.0 0.00 0.03 0.00 997.9
20260506092001 -17 45 0.0 8.0 0.00 0.03 0.00 997.9
20260506091951 -17 135 0.0 8.0 0.00 0.03 0.00 997.9
20260506091911 -17 135 0.0 8.0 0.00 0.03 0.00 997.9
20260506091841 -17 90 0.0 8.0 0.00 0.03 0.00 997.9
20260506091831 -17 45 0.0 8.0 0.00 0.03 0.00 998.0
20260506091752 -17 45 1.6 8.0 0.00 0.03 0.00 998.0
20260506091742 -17 45 1.6 8.0 0.00 0.03 0.00 997.9
20260506091712 -17 45 3.2 8.0 0.00 0.03 0.00 997.9
20260506091652 -17 45 3.2 8.0 0.00 0.03 0.00 998.0
20260506091632 -17 45 4.8 8.0 0.00 0.03 0.00 998.0
20260506091602 -17 45 3.2 8.0 0.00 0.03 0.00 998.0
20260506091542 -17 90 3.2 8.0 0.00 0.03 0.00 998.0
20260506091532 -17 68 3.2 8.0 0.00 0.03 0.00 998.0
20260506091502 -17 45 4.8 8.0 0.00 0.03 0.00 998.0
20260506091452 -17 45 6.4 8.0 0.00 0.03 0.00 998.0
20260506091442 -17 68 6.4 8.0 0.00 0.03 0.00 997.9
20260506091422 -17 45 4.8 8.0 0.00 0.03 0.00 997.9
20260506091412 -17 90 4.8 8.0 0.00 0.03 0.00 998.0
20260506091402 -17 68 4.8 8.0 0.00 0.03 0.00 998.0
20260506091352 -17 68 3.2 8.0 0.00 0.03 0.00 997.9
20260506091332 -17 90 3.2 8.0 0.00 0.03 0.00 997.9
20260506091322 -17 90 3.2 8.0 0.00 0.03 0.00 998.0
20260506091313 -17 90 1.6 4.8 0.00 0.03 0.00 998.0
20260506091253 -17 45 0.0 4.8 0.00 0.03 0.00 998.0
20260506091243 -17 45 0.0 6.4 0.00 0.03 0.00 998.0
20260506091233 -17 68 0.0 8.0 0.00 0.03 0.00 998.0
20260506091223 -17 45 0.0 8.0 0.00 0.03 0.00 998.0
20260506091153 -17 0 0.0 8.0 0.00 0.03 0.00 998.0
20260506091143 -17 45 0.0 8.0 0.00 0.03 0.00 998.0
20260506091133 -17 0 1.6 8.0 0.00 0.03 0.00 998.0
20260506091123 -17 68 1.6 8.0 0.00 0.03 0.00 998.0
20260506091043 -17 0 1.6 8.0 0.00 0.03 0.00 998.0
20260506091023 -17 45 1.6 8.0 0.00 0.03 0.00 998.1
20260506091003 -17 45 1.6 8.0 0.00 0.03 0.00 998.0
20260506090953 -17 315 1.6 8.0 0.00 0.03 0.00 998.0
20260506090923 -17 0 1.6 8.0 0.00 0.03 0.00 998.0
20260506090903 -17 45 1.6 8.0 0.00 0.03 0.00 998.0
20260506090853 -17 315 1.6 8.0 0.00 0.03 0.00 998.0
20260506090843 -17 0 1.6 8.0 0.00 0.03 0.00 998.0
20260506090823 -17 0 3.2 8.0 0.00 0.03 0.00 998.0
20260506090803 -17 45 3.2 8.0 0.00 0.03 0.00 997.9
20260506090744 -17 45 3.2 8.0 0.00 0.03 0.00 998.0
20260506090734 -17 45 3.2 6.4 0.00 0.03 0.00 997.9
20260506090654 -17 0 3.2 6.4 0.00 0.03 0.00 998.0
20260506090634 -17 45 3.2 6.4 0.00 0.03 0.00 998.0
20260506090604 -17 90 3.2 6.4 0.00 0.03 0.00 998.0
20260506090544 -17 45 3.2 6.4 0.00 0.03 0.00 998.0
20260506090524 -17 90 3.2 6.4 0.00 0.03 0.00 998.0
20260506090514 -17 68 3.2 6.4 0.00 0.03 0.00 998.0
20260506090454 -17 90 3.2 6.4 0.00 0.03 0.00 997.9
20260506090444 -17 90 3.2 6.4 0.00 0.03 0.00 998.0
20260506090434 -17 45 1.6 4.8 0.00 0.03 0.00 998.0
20260506090404 -17 135 1.6 4.8 0.00 0.03 0.00 998.0
20260506090354 -17 113 1.6 4.8 0.00 0.03 0.00 998.0
20260506090344 -17 68 1.6 4.8 0.00 0.03 0.00 998.0
20260506090335 -17 90 0.0 4.8 0.00 0.03 0.00 998.0
20260506090324 -17 68 0.0 4.8 0.00 0.03 0.00 998.0
20260506090314 -17 45 0.0 4.8 0.00 0.03 0.00 998.0
20260506090304 -17 270 0.0 4.8 0.00 0.03 0.00 998.0
20260506090234 -17 90 0.0 4.8 0.00 0.03 0.00 998.0
20260506090214 -17 90 1.6 4.8 0.00 0.03 0.00 998.0
20260506090155 -17 45 3.2 4.8 0.00 0.03 0.00 998.0
20260506090125 -17 45 3.2 8.0 0.00 0.03 0.00 998.0
20260506090105 -17 90 3.2 8.0 0.00 0.03 0.00 998.0
20260506090055 -17 45 1.6 8.0 0.00 0.03 0.00 998.0
20260506090045 -17 90 1.6 8.0 0.00 0.03 0.00 997.9
20260506090005 -17 90 0.0 8.0 0.00 0.03 0.00 998.0
20260506085955 -17 135 0.0 8.0 0.00 0.03 0.00 998.0
20260506085925 -17 135 0.0 8.0 0.00 0.03 0.00 997.9
20260506085855 -17 90 0.0 8.0 0.00 0.03 0.00 998.0
20260506085825 -17 90 1.6 8.0 0.00 0.03 0.00 998.0
20260506085805 -17 90 3.2 8.0 0.00 0.03 0.00 998.0
20260506085745 -17 90 3.2 8.0 0.00 0.03 0.00 997.9
20260506085725 -17 45 3.2 8.0 0.00 0.03 0.00 997.9
20260506085715 -17 68 3.2 8.0 0.00 0.03 0.00 998.0
20260506085655 -17 45 3.2 8.0 0.00 0.03 0.00 998.0
20260506085645 -17 68 1.6 8.0 0.00 0.03 0.00 997.9
20260506085635 -17 90 1.6 4.8 0.00 0.03 0.00 998.0
20260506085616 -17 45 1.6 4.8 0.00 0.03 0.00 998.0
20260506085606 -17 45 1.6 4.8 0.00 0.03 0.00 997.9
20260506085536 -17 135 1.6 4.8 0.00 0.03 0.00 998.0
20260506085526 -17 90 1.6 4.8 0.00 0.03 0.00 998.0
20260506085456 -17 135 1.6 4.8 0.00 0.03 0.00 998.0
20260506085446 -17 90 1.6 4.8 0.00 0.03 0.00 998.0
20260506085436 -17 113 1.6 4.8 0.00 0.03 0.00 998.0
20260506085426 -17 135 3.2 4.8 0.00 0.03 0.00 998.0
20260506085416 -17 90 3.2 4.8 0.00 0.03 0.00 998.0
20260506085406 -17 90 3.2 4.8 0.00 0.03 0.00 997.9
20260506085336 -17 90 3.2 4.8 0.00 0.03 0.00 998.0
20260506085326 -17 90 3.2 4.8 0.00 0.03 0.00 997.9
20260506085306 -17 90 1.6 4.8 0.00 0.03 0.00 997.9
20260506085256 -17 90 1.6 3.2 0.00 0.03 0.00 997.9
20260506085246 -17 90 1.6 3.2 0.00 0.03 0.00 998.0
20260506085236 -17 45 0.0 3.2 0.00 0.03 0.00 998.0
20260506085226 -17 90 0.0 3.2 0.00 0.03 0.00 997.9
20260506085216 -17 135 0.0 3.2 0.00 0.03 0.00 998.0
20260506085206 -17 90 0.0 3.2 0.00 0.03 0.00 998.0
20260506085146 -17 0 0.0 3.2 0.00 0.03 0.00 998.0
20260506085136 -17 113 0.0 3.2 0.00 0.03 0.00 998.0
20260506085126 -17 315 0.0 3.2 0.00 0.03 0.00 998.0
20260506085116 -17 225 0.0 3.2 0.00 0.03 0.00 998.0
20260506085057 -17 0 0.0 3.2 0.00 0.03 0.00 997.9
20260506085047 -17 0 0.0 3.2 0.00 0.03 0.00 998.0
20260506085007 -17 0 0.0 3.2 0.00 0.03 0.00 998.0
20260506084947 -17 90 1.6 3.2 0.00 0.03 0.00 998.0
20260506084927 -17 0 1.6 3.2 0.00 0.03 0.00 998.0
20260506084917 -17 45 1.6 3.2 0.00 0.03 0.00 997.9
20260506084907 -17 45 1.6 3.2 0.00 0.03 0.00 998.0
20260506084857 -17 23 1.6 3.2 0.00 0.03 0.00 998.0
20260506084847 -17 90 1.6 3.2 0.00 0.03 0.00 998.0
20260506084827 -17 45 1.6 3.2 0.00 0.03 0.00 998.0
20260506084817 -17 68 0.0 3.2 0.00 0.03 0.00 998.0
20260506084757 -17 45 0.0 3.2 0.00 0.03 0.00 997.9
20260506084737 -17 45 0.0 3.2 0.00 0.03 0.00 998.0
20260506084727 -17 90 0.0 3.2 0.00 0.03 0.00 998.0
20260506084647 -17 90 0.0 3.2 0.00 0.03 0.00 998.0
20260506084637 -17 135 0.0 3.2 0.00 0.03 0.00 998.0
20260506084627 -17 135 0.0 3.2 0.00 0.03 0.00 997.9
20260506084607 -17 90 0.0 3.2 0.00 0.03 0.00 998.0
20260506084537 -17 90 0.0 3.2 0.00 0.03 0.00 997.9
20260506084528 -17 90 0.0 3.2 0.00 0.03 0.00 998.0
20260506084448 -17 90 0.0 3.2 0.00 0.03 0.00 997.9
20260506084428 -17 135 1.6 3.2 0.00 0.03 0.00 997.9
20260506084408 -17 90 1.6 3.2 0.00 0.03 0.00 997.9
20260506084328 -17 90 1.6 3.2 0.00 0.03 0.00 997.9
20260506084318 -17 90 1.6 3.2 0.00 0.03 0.00 998.0
20260506084248 -17 45 1.6 3.2 0.00 0.03 0.00 998.0
20260506084238 -17 90 1.6 3.2 0.00 0.03 0.00 998.0
20260506084218 -17 90 1.6 3.2 0.00 0.03 0.00 997.9
20260506084208 -17 113 1.6 3.2 0.00 0.03 0.00 997.9
20260506084158 -17 135 1.6 3.2 0.00 0.03 0.00 997.9
20260506084128 -17 113 1.6 3.2 0.00 0.03 0.00 998.0
20260506084118 -17 135 1.6 3.2 0.00 0.03 0.00 998.0
20260506084108 -17 270 1.6 3.2 0.00 0.03 0.00 997.9
20260506084048 -17 90 0.0 3.2 0.00 0.03 0.00 997.9
20260506084038 -17 90 0.0 3.2 0.00 0.03 0.00 998.0
20260506084028 -17 45 0.0 1.6 0.00 0.03 0.00 998.0
20260506084018 -17 135 0.0 1.6 0.00 0.03 0.00 998.0
20260506083948 -17 90 0.0 1.6 0.00 0.03 0.00 998.0
20260506083939 -17 135 0.0 1.6 0.00 0.03 0.00 998.0
20260506083919 -17 0 0.0 1.6 0.00 0.03 0.00 998.0
20260506083839 -17 0 0.0 1.6 0.00 0.03 0.00 998.0
20260506083829 -17 90 0.0 1.6 0.00 0.03 0.00 998.0
20260506083759 -17 0 0.0 1.6 0.00 0.03 0.00 998.0
20260506083749 -17 90 0.0 1.6 0.00 0.03 0.00 998.0
20260506083729 -17 45 0.0 1.6 0.00 0.03 0.00 998.0
20260506083659 -17 45 0.0 3.2 0.00 0.03 0.00 998.0
20260506083629 -17 45 0.0 4.8 0.00 0.03 0.00 998.0
20260506083609 -17 0 0.0 4.8 0.00 0.03 0.00 998.0
20260506083549 -17 45 0.0 4.8 0.00 0.03 0.00 998.0
20260506083509 -17 0 0.0 4.8 0.00 0.03 0.00 998.0
20260506083439 -17 45 0.0 4.8 0.00 0.03 0.00 998.0
20260506083420 -17 315 0.0 4.8 0.00 0.03 0.00 998.0
20260506083400 -17 45 0.0 4.8 0.00 0.03 0.00 998.0
20260506083340 -17 90 0.0 4.8 0.00 0.03 0.00 998.0
20260506083300 -17 90 0.0 4.8 0.00 0.03 0.00 998.0
20260506083240 -17 90 1.6 4.8 0.00 0.03 0.00 998.0
20260506083230 -17 90 3.2 4.8 0.00 0.03 0.00 998.0
20260506083210 -17 45 3.2 4.8 0.00 0.03 0.00 998.1
20260506083150 -17 90 3.2 4.8 0.00 0.03 0.00 998.0
20260506083120 -17 135 3.2 4.8 0.00 0.03 0.00 998.0
20260506083050 -17 135 1.6 4.8 0.00 0.03 0.00 998.0
20260506083030 -17 135 0.0 3.2 0.00 0.03 0.00 998.0
20260506082950 -17 90 0.0 3.2 0.00 0.03 0.00 998.0
20260506082910 -17 135 0.0 3.2 0.00 0.03 0.00 998.0
20260506082900 -17 90 0.0 3.2 0.00 0.03 0.00 998.0
20260506082841 -17 135 0.0 3.2 0.00 0.03 0.00 997.9
20260506082821 -17 180 0.0 3.2 0.00 0.03 0.00 997.9
20260506082811 -17 135 0.0 3.2 0.00 0.03 0.00 998.0
20260506082751 -17 180 0.0 3.2 0.00 0.03 0.00 998.0
20260506082721 -17 225 0.0 3.2 0.00 0.03 0.00 997.9
20260506082701 -17 180 0.0 3.2 0.00 0.03 0.00 997.9
20260506082651 -17 225 0.0 3.2 0.00 0.03 0.00 998.0
20260506082641 -17 270 0.0 3.2 0.00 0.03 0.00 997.9
20260506082631 -17 225 0.0 4.8 0.00 0.03 0.00 997.9
20260506082621 -17 225 0.0 4.8 0.00 0.03 0.00 998.0
20260506082611 -17 180 0.0 4.8 0.00 0.03 0.00 997.9
20260506082531 -17 135 0.0 4.8 0.00 0.03 0.00 997.9
20260506082521 -17 135 1.6 4.8 0.00 0.03 0.00 997.9
20260506082511 -17 45 1.6 4.8 0.00 0.03 0.00 998.0
20260506082441 -17 45 1.6 4.8 0.00 0.03 0.00 997.9
20260506082431 -17 90 1.6 4.8 0.00 0.03 0.00 997.9
20260506082351 -17 90 0.0 4.8 0.00 0.03 0.00 997.9
20260506082341 -17 135 0.0 4.8 0.00 0.03 0.00 997.9
20260506082321 -17 135 1.6 4.8 0.00 0.03 0.00 997.9
20260506082312 -17 90 1.6 4.8 0.00 0.03 0.00 997.9
20260506082252 -17 135 1.6 4.8 0.00 0.03 0.00 998.0
20260506082242 -17 113 1.6 4.8 0.00 0.03 0.00 997.9
20260506082232 -17 135 1.6 4.8 0.00 0.03 0.00 997.9
20260506082222 -17 90 3.2 4.8 0.00 0.03 0.00 997.9
20260506082202 -17 135 3.2 4.8 0.00 0.03 0.00 997.9
20260506082152 -17 135 1.6 4.8 0.00 0.03 0.00 997.9
20260506082142 -17 180 1.6 4.8 0.00 0.03 0.00 997.9
20260506082132 -17 135 1.6 4.8 0.00 0.03 0.00 998.0
20260506082122 -17 135 0.0 4.8 0.00 0.03 0.00 997.9
20260506082112 -17 180 0.0 4.8 0.00 0.03 0.00 998.0
20260506082102 22 135 0.0 4.8 0.00 0.03 0.00 51 998.0
20260506082052 -17 90 0.0 4.8 0.00 0.03 0.00 998.0